<?xml version="1.0" encoding="UTF-8" standalone="no" ?>
<gpx xmlns="http://www.topografix.com/GPX/1/1" xmlns:xsi="http://www.w3.org/2001/XMLSchema-instance" xsi:schemaLocation="http://www.topografix.com/GPX/1/1 http://www.topografix.com/GPX/1/1/gpx.xsd" version="1.1" creator="VisuGPX - https://www.visugpx.com">
  <metadata>
    <name>2016-08-19 Belles Ombres - Granier</name>
    <desc><![CDATA[Repérage de différents points remarquables sur les Hauts Plateaux :
- Rocher des Griffes de l'Ours par le sangle inférieur de Belles Ombres
- 2 passages cordés pour remonter sur le plateau sommital depuis les Griffes de l'Ours
- 2 petites arches sur le versant Est du Granier]]></desc>
  </metadata>
  <trk>
    <name><![CDATA[2016-08-19 Griffes de l'Ours - Arches Granier]]></name>
    <trkseg>
      <trkpt lat="45.44215" lon="5.90573">
        <ele>1092</ele>
        <time>2016-08-19T06:43:37Z</time>
      </trkpt>
      <trkpt lat="45.44227" lon="5.90576">
        <ele>1087.351484939</ele>
        <time>2016-08-19T06:43:48Z</time>
      </trkpt>
      <trkpt lat="45.44232" lon="5.90579">
        <ele>1087.351484939</ele>
        <time>2016-08-19T06:43:54Z</time>
      </trkpt>
      <trkpt lat="45.44233" lon="5.9058">
        <ele>1087.351484939</ele>
        <time>2016-08-19T06:44:03Z</time>
      </trkpt>
      <trkpt lat="45.44239" lon="5.90588">
        <ele>1091.77567951</ele>
        <time>2016-08-19T06:44:08Z</time>
      </trkpt>
      <trkpt lat="45.44253" lon="5.90593">
        <ele>1097.256032726</ele>
        <time>2016-08-19T06:44:19Z</time>
      </trkpt>
      <trkpt lat="45.4426" lon="5.90593">
        <ele>1097.256032726</ele>
        <time>2016-08-19T06:44:24Z</time>
      </trkpt>
      <trkpt lat="45.44284" lon="5.90613">
        <ele>1102.903620077</ele>
        <time>2016-08-19T06:44:39Z</time>
      </trkpt>
      <trkpt lat="45.44298" lon="5.90623">
        <ele>1108.209017259</ele>
        <time>2016-08-19T06:44:49Z</time>
      </trkpt>
      <trkpt lat="45.44302" lon="5.90626">
        <ele>1108.209017259</ele>
        <time>2016-08-19T06:44:54Z</time>
      </trkpt>
      <trkpt lat="45.44308" lon="5.90629">
        <ele>1113.243312489</ele>
        <time>2016-08-19T06:44:58Z</time>
      </trkpt>
      <trkpt lat="45.44319" lon="5.9064">
        <ele>1118.523438991</ele>
        <time>2016-08-19T06:45:07Z</time>
      </trkpt>
      <trkpt lat="45.44339" lon="5.90652">
        <ele>1123.251357432</ele>
        <time>2016-08-19T06:45:23Z</time>
      </trkpt>
      <trkpt lat="45.44346" lon="5.90656">
        <ele>1123.251357432</ele>
        <time>2016-08-19T06:45:28Z</time>
      </trkpt>
      <trkpt lat="45.44355" lon="5.90666">
        <ele>1127.686700407</ele>
        <time>2016-08-19T06:45:38Z</time>
      </trkpt>
      <trkpt lat="45.4436" lon="5.90666">
        <ele>1127.686700407</ele>
        <time>2016-08-19T06:45:44Z</time>
      </trkpt>
      <trkpt lat="45.44364" lon="5.90682">
        <ele>1130.604174703</ele>
        <time>2016-08-19T06:45:54Z</time>
      </trkpt>
      <trkpt lat="45.44372" lon="5.90686">
        <ele>1130.604174703</ele>
        <time>2016-08-19T06:45:58Z</time>
      </trkpt>
      <trkpt lat="45.44385" lon="5.90693">
        <ele>1133.276806287</ele>
        <time>2016-08-19T06:46:08Z</time>
      </trkpt>
      <trkpt lat="45.44394" lon="5.90699">
        <ele>1135.071526065</ele>
        <time>2016-08-19T06:46:14Z</time>
      </trkpt>
      <trkpt lat="45.44411" lon="5.90712">
        <ele>1136.273281681</ele>
        <time>2016-08-19T06:46:24Z</time>
      </trkpt>
      <trkpt lat="45.44414" lon="5.90719">
        <ele>1136.273281681</ele>
        <time>2016-08-19T06:46:28Z</time>
      </trkpt>
      <trkpt lat="45.44416" lon="5.90736">
        <ele>1136.995782219</ele>
        <time>2016-08-19T06:46:39Z</time>
      </trkpt>
      <trkpt lat="45.44417" lon="5.90746">
        <ele>1136.995782219</ele>
        <time>2016-08-19T06:46:44Z</time>
      </trkpt>
      <trkpt lat="45.44417" lon="5.90761">
        <ele>1137.848402409</ele>
        <time>2016-08-19T06:46:53Z</time>
      </trkpt>
      <trkpt lat="45.44417" lon="5.90768">
        <ele>1137.848402409</ele>
        <time>2016-08-19T06:46:58Z</time>
      </trkpt>
      <trkpt lat="45.44414" lon="5.90786">
        <ele>1139.043675018</ele>
        <time>2016-08-19T06:47:09Z</time>
      </trkpt>
      <trkpt lat="45.44414" lon="5.90786">
        <ele>1139.043675018</ele>
        <time>2016-08-19T06:47:13Z</time>
      </trkpt>
      <trkpt lat="45.44403" lon="5.90792">
        <ele>1139.940933557</ele>
        <time>2016-08-19T06:47:24Z</time>
      </trkpt>
      <trkpt lat="45.44399" lon="5.90794">
        <ele>1139.940933557</ele>
        <time>2016-08-19T06:47:28Z</time>
      </trkpt>
      <trkpt lat="45.44384" lon="5.90806">
        <ele>1141.580891781</ele>
        <time>2016-08-19T06:47:44Z</time>
      </trkpt>
      <trkpt lat="45.44383" lon="5.90814">
        <ele>1141.580891781</ele>
        <time>2016-08-19T06:47:48Z</time>
      </trkpt>
      <trkpt lat="45.44383" lon="5.90833">
        <ele>1143.112216725</ele>
        <time>2016-08-19T06:47:59Z</time>
      </trkpt>
      <trkpt lat="45.44382" lon="5.90837">
        <ele>1143.112216725</ele>
        <time>2016-08-19T06:48:03Z</time>
      </trkpt>
      <trkpt lat="45.44381" lon="5.90848">
        <ele>1144.568420902</ele>
        <time>2016-08-19T06:48:14Z</time>
      </trkpt>
      <trkpt lat="45.44381" lon="5.90855">
        <ele>1144.568420902</ele>
        <time>2016-08-19T06:48:19Z</time>
      </trkpt>
      <trkpt lat="45.4438" lon="5.9087">
        <ele>1145.510763985</ele>
        <time>2016-08-19T06:48:29Z</time>
      </trkpt>
      <trkpt lat="45.44378" lon="5.90875">
        <ele>1145.510763985</ele>
        <time>2016-08-19T06:48:34Z</time>
      </trkpt>
      <trkpt lat="45.44376" lon="5.90888">
        <ele>1147.076568435</ele>
        <time>2016-08-19T06:48:44Z</time>
      </trkpt>
      <trkpt lat="45.44375" lon="5.90893">
        <ele>1147.076568435</ele>
        <time>2016-08-19T06:48:49Z</time>
      </trkpt>
      <trkpt lat="45.44371" lon="5.90909">
        <ele>1148.303353743</ele>
        <time>2016-08-19T06:48:58Z</time>
      </trkpt>
      <trkpt lat="45.44372" lon="5.90912">
        <ele>1148.303353743</ele>
        <time>2016-08-19T06:49:04Z</time>
      </trkpt>
      <trkpt lat="45.4437" lon="5.90918">
        <ele>1148.303353743</ele>
        <time>2016-08-19T06:49:18Z</time>
      </trkpt>
      <trkpt lat="45.44369" lon="5.90919">
        <ele>1148.303353743</ele>
        <time>2016-08-19T06:49:22Z</time>
      </trkpt>
      <trkpt lat="45.44367" lon="5.9093">
        <ele>1149.972558519</ele>
        <time>2016-08-19T06:49:33Z</time>
      </trkpt>
      <trkpt lat="45.44367" lon="5.90941">
        <ele>1149.972558519</ele>
        <time>2016-08-19T06:49:37Z</time>
      </trkpt>
      <trkpt lat="45.44364" lon="5.90959">
        <ele>1152.183729478</ele>
        <time>2016-08-19T06:49:49Z</time>
      </trkpt>
      <trkpt lat="45.44364" lon="5.90965">
        <ele>1152.183729478</ele>
        <time>2016-08-19T06:49:53Z</time>
      </trkpt>
      <trkpt lat="45.44363" lon="5.90983">
        <ele>1153.871817206</ele>
        <time>2016-08-19T06:50:09Z</time>
      </trkpt>
      <trkpt lat="45.44362" lon="5.90988">
        <ele>1153.871817206</ele>
        <time>2016-08-19T06:50:13Z</time>
      </trkpt>
      <trkpt lat="45.44357" lon="5.90998">
        <ele>1156.228028302</ele>
        <time>2016-08-19T06:50:24Z</time>
      </trkpt>
      <trkpt lat="45.44354" lon="5.91002">
        <ele>1156.228028302</ele>
        <time>2016-08-19T06:50:29Z</time>
      </trkpt>
      <trkpt lat="45.44349" lon="5.91017">
        <ele>1158.620919992</ele>
        <time>2016-08-19T06:50:38Z</time>
      </trkpt>
      <trkpt lat="45.44346" lon="5.91024">
        <ele>1158.620919992</ele>
        <time>2016-08-19T06:50:43Z</time>
      </trkpt>
      <trkpt lat="45.44346" lon="5.9103">
        <ele>1161.184686237</ele>
        <time>2016-08-19T06:50:54Z</time>
      </trkpt>
      <trkpt lat="45.44344" lon="5.91034">
        <ele>1161.184686237</ele>
        <time>2016-08-19T06:50:59Z</time>
      </trkpt>
      <trkpt lat="45.44341" lon="5.91045">
        <ele>1164.180558474</ele>
        <time>2016-08-19T06:51:09Z</time>
      </trkpt>
      <trkpt lat="45.44335" lon="5.91051">
        <ele>1164.180558474</ele>
        <time>2016-08-19T06:51:14Z</time>
      </trkpt>
      <trkpt lat="45.44329" lon="5.91061">
        <ele>1167.431389567</ele>
        <time>2016-08-19T06:51:29Z</time>
      </trkpt>
      <trkpt lat="45.44328" lon="5.91062">
        <ele>1167.431389567</ele>
        <time>2016-08-19T06:51:34Z</time>
      </trkpt>
      <trkpt lat="45.4432" lon="5.91073">
        <ele>1170.498593335</ele>
        <time>2016-08-19T06:51:44Z</time>
      </trkpt>
      <trkpt lat="45.44322" lon="5.91082">
        <ele>1170.498593335</ele>
        <time>2016-08-19T06:51:48Z</time>
      </trkpt>
      <trkpt lat="45.44318" lon="5.91093">
        <ele>1172.976755046</ele>
        <time>2016-08-19T06:51:59Z</time>
      </trkpt>
      <trkpt lat="45.44319" lon="5.91096">
        <ele>1172.976755046</ele>
        <time>2016-08-19T06:52:04Z</time>
      </trkpt>
      <trkpt lat="45.44315" lon="5.91108">
        <ele>1175.182706154</ele>
        <time>2016-08-19T06:52:14Z</time>
      </trkpt>
      <trkpt lat="45.44316" lon="5.9111">
        <ele>1175.182706154</ele>
        <time>2016-08-19T06:52:19Z</time>
      </trkpt>
      <trkpt lat="45.44315" lon="5.91112">
        <ele>1175.182706154</ele>
        <time>2016-08-19T06:52:29Z</time>
      </trkpt>
      <trkpt lat="45.44315" lon="5.91112">
        <ele>1175.182706154</ele>
        <time>2016-08-19T06:52:33Z</time>
      </trkpt>
      <trkpt lat="45.44315" lon="5.91116">
        <ele>1175.182706154</ele>
        <time>2016-08-19T06:52:44Z</time>
      </trkpt>
      <trkpt lat="45.44318" lon="5.9113">
        <ele>1177.970391945</ele>
        <time>2016-08-19T06:52:48Z</time>
      </trkpt>
      <trkpt lat="45.44327" lon="5.91146">
        <ele>1179.480828912</ele>
        <time>2016-08-19T06:52:58Z</time>
      </trkpt>
      <trkpt lat="45.44335" lon="5.91162">
        <ele>1180.215000635</ele>
        <time>2016-08-19T06:53:04Z</time>
      </trkpt>
      <trkpt lat="45.44342" lon="5.91173">
        <ele>1181.073697444</ele>
        <time>2016-08-19T06:53:14Z</time>
      </trkpt>
      <trkpt lat="45.44343" lon="5.91175">
        <ele>1181.073697444</ele>
        <time>2016-08-19T06:53:18Z</time>
      </trkpt>
      <trkpt lat="45.44354" lon="5.91193">
        <ele>1181.627886504</ele>
        <time>2016-08-19T06:53:34Z</time>
      </trkpt>
      <trkpt lat="45.44357" lon="5.91197">
        <ele>1181.627886504</ele>
        <time>2016-08-19T06:53:38Z</time>
      </trkpt>
      <trkpt lat="45.4436" lon="5.91214">
        <ele>1181.61562376</ele>
        <time>2016-08-19T06:53:49Z</time>
      </trkpt>
      <trkpt lat="45.44361" lon="5.91212">
        <ele>1181.61562376</ele>
        <time>2016-08-19T06:53:54Z</time>
      </trkpt>
      <trkpt lat="45.44361" lon="5.91216">
        <ele>1181.61562376</ele>
        <time>2016-08-19T06:54:04Z</time>
      </trkpt>
      <trkpt lat="45.44361" lon="5.91217">
        <ele>1181.61562376</ele>
        <time>2016-08-19T06:54:08Z</time>
      </trkpt>
      <trkpt lat="45.44367" lon="5.91225">
        <ele>1182.961715433</ele>
        <time>2016-08-19T06:54:19Z</time>
      </trkpt>
      <trkpt lat="45.44369" lon="5.91232">
        <ele>1182.961715433</ele>
        <time>2016-08-19T06:54:24Z</time>
      </trkpt>
      <trkpt lat="45.44376" lon="5.91244">
        <ele>1185.304385156</ele>
        <time>2016-08-19T06:54:34Z</time>
      </trkpt>
      <trkpt lat="45.44378" lon="5.91248">
        <ele>1185.304385156</ele>
        <time>2016-08-19T06:54:38Z</time>
      </trkpt>
      <trkpt lat="45.44386" lon="5.91257">
        <ele>1187.855494691</ele>
        <time>2016-08-19T06:54:49Z</time>
      </trkpt>
      <trkpt lat="45.44391" lon="5.91259">
        <ele>1187.855494691</ele>
        <time>2016-08-19T06:54:53Z</time>
      </trkpt>
      <trkpt lat="45.44402" lon="5.9127">
        <ele>1190.309402251</ele>
        <time>2016-08-19T06:55:09Z</time>
      </trkpt>
      <trkpt lat="45.44407" lon="5.91273">
        <ele>1190.309402251</ele>
        <time>2016-08-19T06:55:13Z</time>
      </trkpt>
      <trkpt lat="45.44406" lon="5.9128">
        <ele>1192.37752795</ele>
        <time>2016-08-19T06:55:24Z</time>
      </trkpt>
      <trkpt lat="45.44403" lon="5.91289">
        <ele>1192.37752795</ele>
        <time>2016-08-19T06:55:28Z</time>
      </trkpt>
      <trkpt lat="45.44402" lon="5.91291">
        <ele>1192.37752795</ele>
        <time>2016-08-19T06:55:38Z</time>
      </trkpt>
      <trkpt lat="45.44401" lon="5.91292">
        <ele>1195.87570817</ele>
        <time>2016-08-19T06:55:43Z</time>
      </trkpt>
      <trkpt lat="45.444" lon="5.91294">
        <ele>1195.87570817</ele>
        <time>2016-08-19T06:55:53Z</time>
      </trkpt>
      <trkpt lat="45.44398" lon="5.91302">
        <ele>1195.87570817</ele>
        <time>2016-08-19T06:55:59Z</time>
      </trkpt>
      <trkpt lat="45.4439" lon="5.91316">
        <ele>1200.2591816</ele>
        <time>2016-08-19T06:56:09Z</time>
      </trkpt>
      <trkpt lat="45.44388" lon="5.91324">
        <ele>1200.2591816</ele>
        <time>2016-08-19T06:56:13Z</time>
      </trkpt>
      <trkpt lat="45.44379" lon="5.91331">
        <ele>1204.861112543</ele>
        <time>2016-08-19T06:56:24Z</time>
      </trkpt>
      <trkpt lat="45.44373" lon="5.91332">
        <ele>1204.861112543</ele>
        <time>2016-08-19T06:56:29Z</time>
      </trkpt>
      <trkpt lat="45.44369" lon="5.91341">
        <ele>1210.561010068</ele>
        <time>2016-08-19T06:56:39Z</time>
      </trkpt>
      <trkpt lat="45.44364" lon="5.91343">
        <ele>1210.561010068</ele>
        <time>2016-08-19T06:56:43Z</time>
      </trkpt>
      <trkpt lat="45.44356" lon="5.91356">
        <ele>1216.213313972</ele>
        <time>2016-08-19T06:56:54Z</time>
      </trkpt>
      <trkpt lat="45.44354" lon="5.91365">
        <ele>1216.213313972</ele>
        <time>2016-08-19T06:56:58Z</time>
      </trkpt>
      <trkpt lat="45.44349" lon="5.91378">
        <ele>1221.507932638</ele>
        <time>2016-08-19T06:57:09Z</time>
      </trkpt>
      <trkpt lat="45.44349" lon="5.91386">
        <ele>1221.507932638</ele>
        <time>2016-08-19T06:57:14Z</time>
      </trkpt>
      <trkpt lat="45.44349" lon="5.91388">
        <ele>1221.507932638</ele>
        <time>2016-08-19T06:57:24Z</time>
      </trkpt>
      <trkpt lat="45.44348" lon="5.91396">
        <ele>1225.103196087</ele>
        <time>2016-08-19T06:57:29Z</time>
      </trkpt>
      <trkpt lat="45.44336" lon="5.91402">
        <ele>1229.994555892</ele>
        <time>2016-08-19T06:57:44Z</time>
      </trkpt>
      <trkpt lat="45.44334" lon="5.91407">
        <ele>1229.994555892</ele>
        <time>2016-08-19T06:57:48Z</time>
      </trkpt>
      <trkpt lat="45.44336" lon="5.91418">
        <ele>1233.962355389</ele>
        <time>2016-08-19T06:57:58Z</time>
      </trkpt>
      <trkpt lat="45.44333" lon="5.91421">
        <ele>1233.962355389</ele>
        <time>2016-08-19T06:58:03Z</time>
      </trkpt>
      <trkpt lat="45.44329" lon="5.91429">
        <ele>1238.281899621</ele>
        <time>2016-08-19T06:58:13Z</time>
      </trkpt>
      <trkpt lat="45.44333" lon="5.91433">
        <ele>1238.281899621</ele>
        <time>2016-08-19T06:58:17Z</time>
      </trkpt>
      <trkpt lat="45.44338" lon="5.91442">
        <ele>1242.469473781</ele>
        <time>2016-08-19T06:58:27Z</time>
      </trkpt>
      <trkpt lat="45.44338" lon="5.91442">
        <ele>1242.469473781</ele>
        <time>2016-08-19T06:58:32Z</time>
      </trkpt>
      <trkpt lat="45.44338" lon="5.91445">
        <ele>1242.469473781</ele>
        <time>2016-08-19T06:58:44Z</time>
      </trkpt>
      <trkpt lat="45.44337" lon="5.91453">
        <ele>1242.469473781</ele>
        <time>2016-08-19T06:58:49Z</time>
      </trkpt>
      <trkpt lat="45.44339" lon="5.9147">
        <ele>1247.283569804</ele>
        <time>2016-08-19T06:58:59Z</time>
      </trkpt>
      <trkpt lat="45.44338" lon="5.91479">
        <ele>1247.283569804</ele>
        <time>2016-08-19T06:59:03Z</time>
      </trkpt>
      <trkpt lat="45.44328" lon="5.91479">
        <ele>1252.36819297</ele>
        <time>2016-08-19T06:59:13Z</time>
      </trkpt>
      <trkpt lat="45.44323" lon="5.91479">
        <ele>1252.36819297</ele>
        <time>2016-08-19T06:59:19Z</time>
      </trkpt>
      <trkpt lat="45.44318" lon="5.91486">
        <ele>1258.892605125</ele>
        <time>2016-08-19T06:59:28Z</time>
      </trkpt>
      <trkpt lat="45.44316" lon="5.91488">
        <ele>1258.892605125</ele>
        <time>2016-08-19T06:59:34Z</time>
      </trkpt>
      <trkpt lat="45.44314" lon="5.91495">
        <ele>1258.892605125</ele>
        <time>2016-08-19T06:59:44Z</time>
      </trkpt>
      <trkpt lat="45.44311" lon="5.91501">
        <ele>1265.833341061</ele>
        <time>2016-08-19T06:59:49Z</time>
      </trkpt>
      <trkpt lat="45.44305" lon="5.9151">
        <ele>1265.833341061</ele>
        <time>2016-08-19T06:59:58Z</time>
      </trkpt>
      <trkpt lat="45.443" lon="5.91513">
        <ele>1272.549768924</ele>
        <time>2016-08-19T07:00:04Z</time>
      </trkpt>
      <trkpt lat="45.44294" lon="5.91522">
        <ele>1272.549768924</ele>
        <time>2016-08-19T07:00:13Z</time>
      </trkpt>
      <trkpt lat="45.44291" lon="5.91521">
        <ele>1279.644849506</ele>
        <time>2016-08-19T07:00:19Z</time>
      </trkpt>
      <trkpt lat="45.44289" lon="5.91533">
        <ele>1279.644849506</ele>
        <time>2016-08-19T07:00:29Z</time>
      </trkpt>
      <trkpt lat="45.44288" lon="5.91533">
        <ele>1285.891702951</ele>
        <time>2016-08-19T07:00:33Z</time>
      </trkpt>
      <trkpt lat="45.44287" lon="5.91542">
        <ele>1285.891702951</ele>
        <time>2016-08-19T07:00:44Z</time>
      </trkpt>
      <trkpt lat="45.44284" lon="5.91544">
        <ele>1291.795414524</ele>
        <time>2016-08-19T07:00:48Z</time>
      </trkpt>
      <trkpt lat="45.44279" lon="5.91549">
        <ele>1291.795414524</ele>
        <time>2016-08-19T07:00:58Z</time>
      </trkpt>
      <trkpt lat="45.44275" lon="5.91552">
        <ele>1297.967312834</ele>
        <time>2016-08-19T07:01:04Z</time>
      </trkpt>
      <trkpt lat="45.44272" lon="5.91561">
        <ele>1297.967312834</ele>
        <time>2016-08-19T07:01:14Z</time>
      </trkpt>
      <trkpt lat="45.4427" lon="5.91565">
        <ele>1303.790246192</ele>
        <time>2016-08-19T07:01:18Z</time>
      </trkpt>
      <trkpt lat="45.44268" lon="5.91582">
        <ele>1307.965476181</ele>
        <time>2016-08-19T07:01:29Z</time>
      </trkpt>
      <trkpt lat="45.44263" lon="5.91582">
        <ele>1307.965476181</ele>
        <time>2016-08-19T07:01:34Z</time>
      </trkpt>
      <trkpt lat="45.44261" lon="5.91606">
        <ele>1311.795540756</ele>
        <time>2016-08-19T07:01:49Z</time>
      </trkpt>
      <trkpt lat="45.44256" lon="5.91608">
        <ele>1311.795540756</ele>
        <time>2016-08-19T07:01:54Z</time>
      </trkpt>
      <trkpt lat="45.44249" lon="5.91609">
        <ele>1316.184561463</ele>
        <time>2016-08-19T07:02:04Z</time>
      </trkpt>
      <trkpt lat="45.4425" lon="5.91613">
        <ele>1316.184561463</ele>
        <time>2016-08-19T07:02:09Z</time>
      </trkpt>
      <trkpt lat="45.44252" lon="5.91619">
        <ele>1316.184561463</ele>
        <time>2016-08-19T07:02:18Z</time>
      </trkpt>
      <trkpt lat="45.44251" lon="5.91622">
        <ele>1320.648752371</ele>
        <time>2016-08-19T07:02:24Z</time>
      </trkpt>
      <trkpt lat="45.44253" lon="5.91628">
        <ele>1320.648752371</ele>
        <time>2016-08-19T07:02:32Z</time>
      </trkpt>
      <trkpt lat="45.44252" lon="5.91628">
        <ele>1320.648752371</ele>
        <time>2016-08-19T07:02:39Z</time>
      </trkpt>
      <trkpt lat="45.44253" lon="5.91632">
        <ele>1324.306493007</ele>
        <time>2016-08-19T07:02:49Z</time>
      </trkpt>
      <trkpt lat="45.44253" lon="5.91632">
        <ele>1324.306493007</ele>
        <time>2016-08-19T07:02:53Z</time>
      </trkpt>
      <trkpt lat="45.44253" lon="5.91632">
        <ele>1324.306493007</ele>
        <time>2016-08-19T07:03:08Z</time>
      </trkpt>
      <trkpt lat="45.44254" lon="5.91632">
        <ele>1324.306493007</ele>
        <time>2016-08-19T07:03:14Z</time>
      </trkpt>
      <trkpt lat="45.44258" lon="5.91629">
        <ele>1324.306493007</ele>
        <time>2016-08-19T07:03:24Z</time>
      </trkpt>
      <trkpt lat="45.44264" lon="5.91632">
        <ele>1327.221312565</ele>
        <time>2016-08-19T07:03:28Z</time>
      </trkpt>
      <trkpt lat="45.4427" lon="5.91634">
        <ele>1327.221312565</ele>
        <time>2016-08-19T07:03:39Z</time>
      </trkpt>
      <trkpt lat="45.4427" lon="5.91635">
        <ele>1327.221312565</ele>
        <time>2016-08-19T07:03:43Z</time>
      </trkpt>
      <trkpt lat="45.44271" lon="5.91636">
        <ele>1327.221312565</ele>
        <time>2016-08-19T07:03:59Z</time>
      </trkpt>
      <trkpt lat="45.44271" lon="5.91636">
        <ele>1327.221312565</ele>
        <time>2016-08-19T07:04:03Z</time>
      </trkpt>
      <trkpt lat="45.4428" lon="5.91644">
        <ele>1330.760350265</ele>
        <time>2016-08-19T07:04:14Z</time>
      </trkpt>
      <trkpt lat="45.44285" lon="5.91646">
        <ele>1330.760350265</ele>
        <time>2016-08-19T07:04:18Z</time>
      </trkpt>
      <trkpt lat="45.44297" lon="5.91653">
        <ele>1334.441132871</ele>
        <time>2016-08-19T07:04:29Z</time>
      </trkpt>
      <trkpt lat="45.44301" lon="5.91654">
        <ele>1334.441132871</ele>
        <time>2016-08-19T07:04:33Z</time>
      </trkpt>
      <trkpt lat="45.44302" lon="5.91655">
        <ele>1334.441132871</ele>
        <time>2016-08-19T07:04:44Z</time>
      </trkpt>
      <trkpt lat="45.44307" lon="5.91656">
        <ele>1340.571478837</ele>
        <time>2016-08-19T07:04:49Z</time>
      </trkpt>
      <trkpt lat="45.44311" lon="5.91663">
        <ele>1340.571478837</ele>
        <time>2016-08-19T07:04:59Z</time>
      </trkpt>
      <trkpt lat="45.44311" lon="5.91661">
        <ele>1340.571478837</ele>
        <time>2016-08-19T07:05:04Z</time>
      </trkpt>
      <trkpt lat="45.44311" lon="5.91663">
        <ele>1346.78775025</ele>
        <time>2016-08-19T07:05:14Z</time>
      </trkpt>
      <trkpt lat="45.44312" lon="5.91663">
        <ele>1346.78775025</ele>
        <time>2016-08-19T07:05:18Z</time>
      </trkpt>
      <trkpt lat="45.44312" lon="5.91663">
        <ele>1346.78775025</ele>
        <time>2016-08-19T07:05:29Z</time>
      </trkpt>
      <trkpt lat="45.44312" lon="5.91663">
        <ele>1346.78775025</ele>
        <time>2016-08-19T07:05:33Z</time>
      </trkpt>
      <trkpt lat="45.44312" lon="5.91663">
        <ele>1346.78775025</ele>
        <time>2016-08-19T07:05:44Z</time>
      </trkpt>
      <trkpt lat="45.44312" lon="5.91663">
        <ele>1346.78775025</ele>
        <time>2016-08-19T07:05:49Z</time>
      </trkpt>
      <trkpt lat="45.44312" lon="5.91664">
        <ele>1346.78775025</ele>
        <time>2016-08-19T07:05:58Z</time>
      </trkpt>
      <trkpt lat="45.44312" lon="5.91664">
        <ele>1346.78775025</ele>
        <time>2016-08-19T07:06:04Z</time>
      </trkpt>
      <trkpt lat="45.44312" lon="5.91676">
        <ele>1352.210275909</ele>
        <time>2016-08-19T07:06:14Z</time>
      </trkpt>
      <trkpt lat="45.44315" lon="5.91683">
        <ele>1352.210275909</ele>
        <time>2016-08-19T07:06:19Z</time>
      </trkpt>
      <trkpt lat="45.44319" lon="5.9169">
        <ele>1357.184776795</ele>
        <time>2016-08-19T07:06:34Z</time>
      </trkpt>
      <trkpt lat="45.44319" lon="5.9169">
        <ele>1357.184776795</ele>
        <time>2016-08-19T07:06:38Z</time>
      </trkpt>
      <trkpt lat="45.44319" lon="5.91692">
        <ele>1357.184776795</ele>
        <time>2016-08-19T07:06:49Z</time>
      </trkpt>
      <trkpt lat="45.44319" lon="5.91692">
        <ele>1357.184776795</ele>
        <time>2016-08-19T07:06:53Z</time>
      </trkpt>
      <trkpt lat="45.44318" lon="5.91692">
        <ele>1357.184776795</ele>
        <time>2016-08-19T07:07:03Z</time>
      </trkpt>
      <trkpt lat="45.44319" lon="5.91692">
        <ele>1357.184776795</ele>
        <time>2016-08-19T07:07:09Z</time>
      </trkpt>
      <trkpt lat="45.44319" lon="5.91692">
        <ele>1357.184776795</ele>
        <time>2016-08-19T07:07:19Z</time>
      </trkpt>
      <trkpt lat="45.44316" lon="5.91704">
        <ele>1361.598448965</ele>
        <time>2016-08-19T07:07:24Z</time>
      </trkpt>
      <trkpt lat="45.44327" lon="5.91726">
        <ele>1365.348438683</ele>
        <time>2016-08-19T07:07:33Z</time>
      </trkpt>
      <trkpt lat="45.44331" lon="5.9173">
        <ele>1365.348438683</ele>
        <time>2016-08-19T07:07:39Z</time>
      </trkpt>
      <trkpt lat="45.44338" lon="5.91736">
        <ele>1370.794458151</ele>
        <time>2016-08-19T07:07:48Z</time>
      </trkpt>
      <trkpt lat="45.44338" lon="5.91736">
        <ele>1370.794458151</ele>
        <time>2016-08-19T07:07:53Z</time>
      </trkpt>
      <trkpt lat="45.44336" lon="5.91743">
        <ele>1370.794458151</ele>
        <time>2016-08-19T07:08:07Z</time>
      </trkpt>
      <trkpt lat="45.44336" lon="5.91752">
        <ele>1376.797411156</ele>
        <time>2016-08-19T07:08:12Z</time>
      </trkpt>
      <trkpt lat="45.44336" lon="5.91757">
        <ele>1376.797411156</ele>
        <time>2016-08-19T07:08:17Z</time>
      </trkpt>
      <trkpt lat="45.44335" lon="5.91762">
        <ele>1376.797411156</ele>
        <time>2016-08-19T07:08:23Z</time>
      </trkpt>
      <trkpt lat="45.44334" lon="5.91765">
        <ele>1383.023085823</ele>
        <time>2016-08-19T07:08:34Z</time>
      </trkpt>
      <trkpt lat="45.44334" lon="5.91765">
        <ele>1383.023085823</ele>
        <time>2016-08-19T07:08:38Z</time>
      </trkpt>
      <trkpt lat="45.44334" lon="5.91766">
        <ele>1383.023085823</ele>
        <time>2016-08-19T07:08:54Z</time>
      </trkpt>
      <trkpt lat="45.44334" lon="5.91766">
        <ele>1383.023085823</ele>
        <time>2016-08-19T07:08:58Z</time>
      </trkpt>
      <trkpt lat="45.44334" lon="5.91766">
        <ele>1383.023085823</ele>
        <time>2016-08-19T07:09:08Z</time>
      </trkpt>
      <trkpt lat="45.44334" lon="5.91766">
        <ele>1383.023085823</ele>
        <time>2016-08-19T07:09:14Z</time>
      </trkpt>
      <trkpt lat="45.44333" lon="5.91796">
        <ele>1388.584832448</ele>
        <time>2016-08-19T07:09:24Z</time>
      </trkpt>
      <trkpt lat="45.44335" lon="5.91805">
        <ele>1388.584832448</ele>
        <time>2016-08-19T07:09:28Z</time>
      </trkpt>
      <trkpt lat="45.44329" lon="5.9182">
        <ele>1395.114685148</ele>
        <time>2016-08-19T07:09:39Z</time>
      </trkpt>
      <trkpt lat="45.44324" lon="5.91824">
        <ele>1395.114685148</ele>
        <time>2016-08-19T07:09:43Z</time>
      </trkpt>
      <trkpt lat="45.4432" lon="5.91825">
        <ele>1403.11238546</ele>
        <time>2016-08-19T07:09:54Z</time>
      </trkpt>
      <trkpt lat="45.44321" lon="5.91825">
        <ele>1403.11238546</ele>
        <time>2016-08-19T07:09:59Z</time>
      </trkpt>
      <trkpt lat="45.44321" lon="5.91825">
        <ele>1403.11238546</ele>
        <time>2016-08-19T07:10:13Z</time>
      </trkpt>
      <trkpt lat="45.44314" lon="5.91847">
        <ele>1410.297713162</ele>
        <time>2016-08-19T07:10:29Z</time>
      </trkpt>
      <trkpt lat="45.44311" lon="5.91855">
        <ele>1410.297713162</ele>
        <time>2016-08-19T07:10:33Z</time>
      </trkpt>
      <trkpt lat="45.44306" lon="5.91856">
        <ele>1418.020795789</ele>
        <time>2016-08-19T07:10:37Z</time>
      </trkpt>
      <trkpt lat="45.44305" lon="5.91858">
        <ele>1418.020795789</ele>
        <time>2016-08-19T07:10:42Z</time>
      </trkpt>
      <trkpt lat="45.443" lon="5.91855">
        <ele>1418.020795789</ele>
        <time>2016-08-19T07:10:48Z</time>
      </trkpt>
      <trkpt lat="45.44299" lon="5.91853">
        <ele>1418.020795789</ele>
        <time>2016-08-19T07:10:58Z</time>
      </trkpt>
      <trkpt lat="45.44299" lon="5.91849">
        <ele>1427.531195187</ele>
        <time>2016-08-19T07:11:03Z</time>
      </trkpt>
      <trkpt lat="45.44299" lon="5.9185">
        <ele>1427.531195187</ele>
        <time>2016-08-19T07:11:13Z</time>
      </trkpt>
      <trkpt lat="45.44298" lon="5.91842">
        <ele>1427.531195187</ele>
        <time>2016-08-19T07:11:18Z</time>
      </trkpt>
      <trkpt lat="45.44293" lon="5.91841">
        <ele>1436.954059462</ele>
        <time>2016-08-19T07:11:28Z</time>
      </trkpt>
      <trkpt lat="45.4429" lon="5.91839">
        <ele>1436.954059462</ele>
        <time>2016-08-19T07:11:33Z</time>
      </trkpt>
      <trkpt lat="45.44283" lon="5.91833">
        <ele>1444.840878621</ele>
        <time>2016-08-19T07:11:44Z</time>
      </trkpt>
      <trkpt lat="45.44281" lon="5.9183">
        <ele>1444.840878621</ele>
        <time>2016-08-19T07:11:48Z</time>
      </trkpt>
      <trkpt lat="45.44278" lon="5.91828">
        <ele>1444.840878621</ele>
        <time>2016-08-19T07:11:52Z</time>
      </trkpt>
      <trkpt lat="45.44262" lon="5.91826">
        <ele>1452.161073355</ele>
        <time>2016-08-19T07:11:58Z</time>
      </trkpt>
      <trkpt lat="45.44264" lon="5.91818">
        <ele>1452.161073355</ele>
        <time>2016-08-19T07:12:09Z</time>
      </trkpt>
      <trkpt lat="45.44264" lon="5.91816">
        <ele>1452.161073355</ele>
        <time>2016-08-19T07:12:13Z</time>
      </trkpt>
      <trkpt lat="45.44257" lon="5.91809">
        <ele>1458.805320465</ele>
        <time>2016-08-19T07:12:23Z</time>
      </trkpt>
      <trkpt lat="45.44252" lon="5.91808">
        <ele>1458.805320465</ele>
        <time>2016-08-19T07:12:29Z</time>
      </trkpt>
      <trkpt lat="45.44246" lon="5.91804">
        <ele>1464.674445695</ele>
        <time>2016-08-19T07:12:38Z</time>
      </trkpt>
      <trkpt lat="45.4424" lon="5.91801">
        <ele>1464.674445695</ele>
        <time>2016-08-19T07:12:43Z</time>
      </trkpt>
      <trkpt lat="45.44239" lon="5.91794">
        <ele>1470.111647784</ele>
        <time>2016-08-19T07:12:48Z</time>
      </trkpt>
      <trkpt lat="45.44233" lon="5.91793">
        <ele>1470.111647784</ele>
        <time>2016-08-19T07:12:53Z</time>
      </trkpt>
      <trkpt lat="45.44234" lon="5.91794">
        <ele>1470.111647784</ele>
        <time>2016-08-19T07:13:03Z</time>
      </trkpt>
      <trkpt lat="45.44231" lon="5.91792">
        <ele>1476.44602882</ele>
        <time>2016-08-19T07:13:08Z</time>
      </trkpt>
      <trkpt lat="45.44229" lon="5.918">
        <ele>1476.44602882</ele>
        <time>2016-08-19T07:13:18Z</time>
      </trkpt>
      <trkpt lat="45.44231" lon="5.91805">
        <ele>1482.59903708</ele>
        <time>2016-08-19T07:13:23Z</time>
      </trkpt>
      <trkpt lat="45.44233" lon="5.91811">
        <ele>1482.59903708</ele>
        <time>2016-08-19T07:13:28Z</time>
      </trkpt>
      <trkpt lat="45.44234" lon="5.91815">
        <ele>1482.59903708</ele>
        <time>2016-08-19T07:13:32Z</time>
      </trkpt>
      <trkpt lat="45.44232" lon="5.91818">
        <ele>1489.447133776</ele>
        <time>2016-08-19T07:13:37Z</time>
      </trkpt>
      <trkpt lat="45.4423" lon="5.91816">
        <ele>1489.447133776</ele>
        <time>2016-08-19T07:13:42Z</time>
      </trkpt>
      <trkpt lat="45.4423" lon="5.91816">
        <ele>1489.447133776</ele>
        <time>2016-08-19T07:13:49Z</time>
      </trkpt>
      <trkpt lat="45.44231" lon="5.91816">
        <ele>1489.447133776</ele>
        <time>2016-08-19T07:13:52Z</time>
      </trkpt>
      <trkpt lat="45.44231" lon="5.91816">
        <ele>1489.447133776</ele>
        <time>2016-08-19T07:14:03Z</time>
      </trkpt>
      <trkpt lat="45.44231" lon="5.91816">
        <ele>1489.447133776</ele>
        <time>2016-08-19T07:14:18Z</time>
      </trkpt>
      <trkpt lat="45.44231" lon="5.91816">
        <ele>1489.447133776</ele>
        <time>2016-08-19T07:14:23Z</time>
      </trkpt>
      <trkpt lat="45.44231" lon="5.91816">
        <ele>1489.447133776</ele>
        <time>2016-08-19T07:14:34Z</time>
      </trkpt>
      <trkpt lat="45.44231" lon="5.91816">
        <ele>1489.447133776</ele>
        <time>2016-08-19T07:14:38Z</time>
      </trkpt>
      <trkpt lat="45.44231" lon="5.91816">
        <ele>1489.447133776</ele>
        <time>2016-08-19T07:14:49Z</time>
      </trkpt>
      <trkpt lat="45.4423" lon="5.91819">
        <ele>1489.447133776</ele>
        <time>2016-08-19T07:14:53Z</time>
      </trkpt>
      <trkpt lat="45.44226" lon="5.91826">
        <ele>1496.790929868</ele>
        <time>2016-08-19T07:15:03Z</time>
      </trkpt>
      <trkpt lat="45.44223" lon="5.91823">
        <ele>1496.790929868</ele>
        <time>2016-08-19T07:15:08Z</time>
      </trkpt>
      <trkpt lat="45.44224" lon="5.91825">
        <ele>1496.790929868</ele>
        <time>2016-08-19T07:15:18Z</time>
      </trkpt>
      <trkpt lat="45.44224" lon="5.91825">
        <ele>1496.790929868</ele>
        <time>2016-08-19T07:15:23Z</time>
      </trkpt>
      <trkpt lat="45.44214" lon="5.91837">
        <ele>1505.309927679</ele>
        <time>2016-08-19T07:15:33Z</time>
      </trkpt>
      <trkpt lat="45.4421" lon="5.91839">
        <ele>1505.309927679</ele>
        <time>2016-08-19T07:15:38Z</time>
      </trkpt>
      <trkpt lat="45.44209" lon="5.91845">
        <ele>1505.309927679</ele>
        <time>2016-08-19T07:15:48Z</time>
      </trkpt>
      <trkpt lat="45.44207" lon="5.91848">
        <ele>1513.178394408</ele>
        <time>2016-08-19T07:15:54Z</time>
      </trkpt>
      <trkpt lat="45.44201" lon="5.9186">
        <ele>1521.159009691</ele>
        <time>2016-08-19T07:16:09Z</time>
      </trkpt>
      <trkpt lat="45.44194" lon="5.91869">
        <ele>1529.525522355</ele>
        <time>2016-08-19T07:16:24Z</time>
      </trkpt>
      <trkpt lat="45.4419" lon="5.91872">
        <ele>1529.525522355</ele>
        <time>2016-08-19T07:16:29Z</time>
      </trkpt>
      <trkpt lat="45.44185" lon="5.91882">
        <ele>1537.088308152</ele>
        <time>2016-08-19T07:16:39Z</time>
      </trkpt>
      <trkpt lat="45.44184" lon="5.91886">
        <ele>1537.088308152</ele>
        <time>2016-08-19T07:16:44Z</time>
      </trkpt>
      <trkpt lat="45.44176" lon="5.91897">
        <ele>1543.180495025</ele>
        <time>2016-08-19T07:16:54Z</time>
      </trkpt>
      <trkpt lat="45.44172" lon="5.91907">
        <ele>1543.180495025</ele>
        <time>2016-08-19T07:16:58Z</time>
      </trkpt>
      <trkpt lat="45.44164" lon="5.91926">
        <ele>1548.054023287</ele>
        <time>2016-08-19T07:17:09Z</time>
      </trkpt>
      <trkpt lat="45.44162" lon="5.91933">
        <ele>1548.054023287</ele>
        <time>2016-08-19T07:17:14Z</time>
      </trkpt>
      <trkpt lat="45.44156" lon="5.9195">
        <ele>1551.801689713</ele>
        <time>2016-08-19T07:17:23Z</time>
      </trkpt>
      <trkpt lat="45.44154" lon="5.91959">
        <ele>1551.801689713</ele>
        <time>2016-08-19T07:17:28Z</time>
      </trkpt>
      <trkpt lat="45.4415" lon="5.91978">
        <ele>1554.657000311</ele>
        <time>2016-08-19T07:17:38Z</time>
      </trkpt>
      <trkpt lat="45.44148" lon="5.91986">
        <ele>1554.657000311</ele>
        <time>2016-08-19T07:17:43Z</time>
      </trkpt>
      <trkpt lat="45.44139" lon="5.92002">
        <ele>1556.838897312</ele>
        <time>2016-08-19T07:17:53Z</time>
      </trkpt>
      <trkpt lat="45.44135" lon="5.92011">
        <ele>1556.838897312</ele>
        <time>2016-08-19T07:17:59Z</time>
      </trkpt>
      <trkpt lat="45.44126" lon="5.92028">
        <ele>1558.263783036</ele>
        <time>2016-08-19T07:18:08Z</time>
      </trkpt>
      <trkpt lat="45.44121" lon="5.92032">
        <ele>1558.263783036</ele>
        <time>2016-08-19T07:18:13Z</time>
      </trkpt>
      <trkpt lat="45.44113" lon="5.92046">
        <ele>1558.71220376</ele>
        <time>2016-08-19T07:18:24Z</time>
      </trkpt>
      <trkpt lat="45.4411" lon="5.92053">
        <ele>1558.71220376</ele>
        <time>2016-08-19T07:18:28Z</time>
      </trkpt>
      <trkpt lat="45.441" lon="5.92067">
        <ele>1558.560337986</ele>
        <time>2016-08-19T07:18:38Z</time>
      </trkpt>
      <trkpt lat="45.44095" lon="5.92074">
        <ele>1558.560337986</ele>
        <time>2016-08-19T07:18:43Z</time>
      </trkpt>
      <trkpt lat="45.44086" lon="5.92088">
        <ele>1557.869941571</ele>
        <time>2016-08-19T07:18:54Z</time>
      </trkpt>
      <trkpt lat="45.44083" lon="5.92097">
        <ele>1557.869941571</ele>
        <time>2016-08-19T07:18:58Z</time>
      </trkpt>
      <trkpt lat="45.44076" lon="5.92117">
        <ele>1556.555469852</ele>
        <time>2016-08-19T07:19:14Z</time>
      </trkpt>
      <trkpt lat="45.44073" lon="5.92127">
        <ele>1556.555469852</ele>
        <time>2016-08-19T07:19:18Z</time>
      </trkpt>
      <trkpt lat="45.44064" lon="5.92145">
        <ele>1554.10680201</ele>
        <time>2016-08-19T07:19:27Z</time>
      </trkpt>
      <trkpt lat="45.4406" lon="5.9217">
        <ele>1550.919280792</ele>
        <time>2016-08-19T07:19:43Z</time>
      </trkpt>
      <trkpt lat="45.44059" lon="5.92176">
        <ele>1550.919280792</ele>
        <time>2016-08-19T07:19:49Z</time>
      </trkpt>
      <trkpt lat="45.44059" lon="5.92184">
        <ele>1546.784362382</ele>
        <time>2016-08-19T07:19:58Z</time>
      </trkpt>
      <trkpt lat="45.44058" lon="5.92189">
        <ele>1546.784362382</ele>
        <time>2016-08-19T07:20:04Z</time>
      </trkpt>
      <trkpt lat="45.44046" lon="5.92195">
        <ele>1541.943622813</ele>
        <time>2016-08-19T07:20:14Z</time>
      </trkpt>
      <trkpt lat="45.44043" lon="5.92197">
        <ele>1541.943622813</ele>
        <time>2016-08-19T07:20:18Z</time>
      </trkpt>
      <trkpt lat="45.44033" lon="5.92197">
        <ele>1536.478326124</ele>
        <time>2016-08-19T07:20:29Z</time>
      </trkpt>
      <trkpt lat="45.44031" lon="5.92192">
        <ele>1536.478326124</ele>
        <time>2016-08-19T07:20:33Z</time>
      </trkpt>
      <trkpt lat="45.44024" lon="5.92177">
        <ele>1531.474011867</ele>
        <time>2016-08-19T07:20:43Z</time>
      </trkpt>
      <trkpt lat="45.4402" lon="5.92172">
        <ele>1531.474011867</ele>
        <time>2016-08-19T07:20:48Z</time>
      </trkpt>
      <trkpt lat="45.4401" lon="5.92169">
        <ele>1526.493294303</ele>
        <time>2016-08-19T07:20:58Z</time>
      </trkpt>
      <trkpt lat="45.44004" lon="5.92166">
        <ele>1526.493294303</ele>
        <time>2016-08-19T07:21:04Z</time>
      </trkpt>
      <trkpt lat="45.4399" lon="5.92159">
        <ele>1521.130372062</ele>
        <time>2016-08-19T07:21:13Z</time>
      </trkpt>
      <trkpt lat="45.43983" lon="5.9216">
        <ele>1521.130372062</ele>
        <time>2016-08-19T07:21:18Z</time>
      </trkpt>
      <trkpt lat="45.43974" lon="5.92171">
        <ele>1516.018646422</ele>
        <time>2016-08-19T07:21:28Z</time>
      </trkpt>
      <trkpt lat="45.43969" lon="5.92177">
        <ele>1516.018646422</ele>
        <time>2016-08-19T07:21:34Z</time>
      </trkpt>
      <trkpt lat="45.43959" lon="5.92194">
        <ele>1510.878901602</ele>
        <time>2016-08-19T07:21:43Z</time>
      </trkpt>
      <trkpt lat="45.43955" lon="5.92203">
        <ele>1510.878901602</ele>
        <time>2016-08-19T07:21:48Z</time>
      </trkpt>
      <trkpt lat="45.4394" lon="5.9222">
        <ele>1506.604828863</ele>
        <time>2016-08-19T07:22:03Z</time>
      </trkpt>
      <trkpt lat="45.43934" lon="5.92226">
        <ele>1506.604828863</ele>
        <time>2016-08-19T07:22:08Z</time>
      </trkpt>
      <trkpt lat="45.43923" lon="5.92227">
        <ele>1502.868389766</ele>
        <time>2016-08-19T07:22:19Z</time>
      </trkpt>
      <trkpt lat="45.43921" lon="5.92225">
        <ele>1502.868389766</ele>
        <time>2016-08-19T07:22:23Z</time>
      </trkpt>
      <trkpt lat="45.43912" lon="5.92222">
        <ele>1500.228150555</ele>
        <time>2016-08-19T07:22:34Z</time>
      </trkpt>
      <trkpt lat="45.43908" lon="5.92222">
        <ele>1500.228150555</ele>
        <time>2016-08-19T07:22:38Z</time>
      </trkpt>
      <trkpt lat="45.43897" lon="5.92219">
        <ele>1498.189050473</ele>
        <time>2016-08-19T07:22:48Z</time>
      </trkpt>
      <trkpt lat="45.43893" lon="5.9222">
        <ele>1498.189050473</ele>
        <time>2016-08-19T07:22:53Z</time>
      </trkpt>
      <trkpt lat="45.4389" lon="5.92216">
        <ele>1498.189050473</ele>
        <time>2016-08-19T07:23:04Z</time>
      </trkpt>
      <trkpt lat="45.43891" lon="5.92212">
        <ele>1496.290015798</ele>
        <time>2016-08-19T07:23:08Z</time>
      </trkpt>
      <trkpt lat="45.43888" lon="5.92202">
        <ele>1496.290015798</ele>
        <time>2016-08-19T07:23:17Z</time>
      </trkpt>
      <trkpt lat="45.43885" lon="5.92195">
        <ele>1494.823317992</ele>
        <time>2016-08-19T07:23:23Z</time>
      </trkpt>
      <trkpt lat="45.43878" lon="5.92189">
        <ele>1494.823317992</ele>
        <time>2016-08-19T07:23:32Z</time>
      </trkpt>
      <trkpt lat="45.43872" lon="5.92187">
        <ele>1493.913734007</ele>
        <time>2016-08-19T07:23:38Z</time>
      </trkpt>
      <trkpt lat="45.43867" lon="5.92181">
        <ele>1493.913734007</ele>
        <time>2016-08-19T07:23:47Z</time>
      </trkpt>
      <trkpt lat="45.43862" lon="5.92175">
        <ele>1493.386407119</ele>
        <time>2016-08-19T07:23:52Z</time>
      </trkpt>
      <trkpt lat="45.43853" lon="5.92169">
        <ele>1493.798158011</ele>
        <time>2016-08-19T07:24:03Z</time>
      </trkpt>
      <trkpt lat="45.43849" lon="5.92167">
        <ele>1493.798158011</ele>
        <time>2016-08-19T07:24:09Z</time>
      </trkpt>
      <trkpt lat="45.43841" lon="5.92158">
        <ele>1494.941074274</ele>
        <time>2016-08-19T07:24:18Z</time>
      </trkpt>
      <trkpt lat="45.43836" lon="5.92154">
        <ele>1494.941074274</ele>
        <time>2016-08-19T07:24:24Z</time>
      </trkpt>
      <trkpt lat="45.43826" lon="5.92151">
        <ele>1496.187526167</ele>
        <time>2016-08-19T07:24:33Z</time>
      </trkpt>
      <trkpt lat="45.43825" lon="5.92145">
        <ele>1496.187526167</ele>
        <time>2016-08-19T07:24:38Z</time>
      </trkpt>
      <trkpt lat="45.43811" lon="5.92138">
        <ele>1497.819807809</ele>
        <time>2016-08-19T07:24:49Z</time>
      </trkpt>
      <trkpt lat="45.43808" lon="5.92138">
        <ele>1497.819807809</ele>
        <time>2016-08-19T07:24:53Z</time>
      </trkpt>
      <trkpt lat="45.43801" lon="5.92139">
        <ele>1499.665526597</ele>
        <time>2016-08-19T07:24:58Z</time>
      </trkpt>
      <trkpt lat="45.4379" lon="5.92148">
        <ele>1501.707978526</ele>
        <time>2016-08-19T07:25:09Z</time>
      </trkpt>
      <trkpt lat="45.43775" lon="5.92157">
        <ele>1503.642457627</ele>
        <time>2016-08-19T07:25:24Z</time>
      </trkpt>
      <trkpt lat="45.43772" lon="5.92164">
        <ele>1503.642457627</ele>
        <time>2016-08-19T07:25:28Z</time>
      </trkpt>
      <trkpt lat="45.4377" lon="5.92179">
        <ele>1505.762988803</ele>
        <time>2016-08-19T07:25:38Z</time>
      </trkpt>
      <trkpt lat="45.43769" lon="5.92184">
        <ele>1505.762988803</ele>
        <time>2016-08-19T07:25:43Z</time>
      </trkpt>
      <trkpt lat="45.43769" lon="5.922">
        <ele>1508.196992195</ele>
        <time>2016-08-19T07:25:49Z</time>
      </trkpt>
      <trkpt lat="45.4377" lon="5.92206">
        <ele>1508.196992195</ele>
        <time>2016-08-19T07:25:53Z</time>
      </trkpt>
      <trkpt lat="45.43771" lon="5.92208">
        <ele>1508.196992195</ele>
        <time>2016-08-19T07:25:59Z</time>
      </trkpt>
      <trkpt lat="45.43762" lon="5.92219">
        <ele>1510.628972431</ele>
        <time>2016-08-19T07:26:08Z</time>
      </trkpt>
      <trkpt lat="45.43757" lon="5.92222">
        <ele>1510.628972431</ele>
        <time>2016-08-19T07:26:13Z</time>
      </trkpt>
      <trkpt lat="45.43745" lon="5.92234">
        <ele>1512.189859233</ele>
        <time>2016-08-19T07:26:23Z</time>
      </trkpt>
      <trkpt lat="45.43739" lon="5.92234">
        <ele>1512.189859233</ele>
        <time>2016-08-19T07:26:28Z</time>
      </trkpt>
      <trkpt lat="45.43723" lon="5.92232">
        <ele>1514.670668705</ele>
        <time>2016-08-19T07:26:38Z</time>
      </trkpt>
      <trkpt lat="45.43718" lon="5.92238">
        <ele>1514.670668705</ele>
        <time>2016-08-19T07:26:43Z</time>
      </trkpt>
      <trkpt lat="45.43709" lon="5.92242">
        <ele>1516.413399806</ele>
        <time>2016-08-19T07:26:53Z</time>
      </trkpt>
      <trkpt lat="45.43705" lon="5.92239">
        <ele>1516.413399806</ele>
        <time>2016-08-19T07:26:58Z</time>
      </trkpt>
      <trkpt lat="45.43697" lon="5.92233">
        <ele>1518.621899139</ele>
        <time>2016-08-19T07:27:09Z</time>
      </trkpt>
      <trkpt lat="45.43692" lon="5.92235">
        <ele>1518.621899139</ele>
        <time>2016-08-19T07:27:14Z</time>
      </trkpt>
      <trkpt lat="45.43686" lon="5.92227">
        <ele>1520.968950593</ele>
        <time>2016-08-19T07:27:23Z</time>
      </trkpt>
      <trkpt lat="45.43677" lon="5.92223">
        <ele>1520.968950593</ele>
        <time>2016-08-19T07:27:28Z</time>
      </trkpt>
      <trkpt lat="45.43667" lon="5.92213">
        <ele>1523.583186638</ele>
        <time>2016-08-19T07:27:39Z</time>
      </trkpt>
      <trkpt lat="45.43663" lon="5.92211">
        <ele>1523.583186638</ele>
        <time>2016-08-19T07:27:45Z</time>
      </trkpt>
      <trkpt lat="45.43645" lon="5.92194">
        <ele>1526.294693284</ele>
        <time>2016-08-19T07:27:58Z</time>
      </trkpt>
      <trkpt lat="45.43644" lon="5.92187">
        <ele>1526.294693284</ele>
        <time>2016-08-19T07:28:03Z</time>
      </trkpt>
      <trkpt lat="45.43637" lon="5.92181">
        <ele>1528.080985778</ele>
        <time>2016-08-19T07:28:13Z</time>
      </trkpt>
      <trkpt lat="45.43631" lon="5.9218">
        <ele>1528.080985778</ele>
        <time>2016-08-19T07:28:19Z</time>
      </trkpt>
      <trkpt lat="45.43619" lon="5.92184">
        <ele>1530.447169668</ele>
        <time>2016-08-19T07:28:29Z</time>
      </trkpt>
      <trkpt lat="45.43611" lon="5.92187">
        <ele>1530.447169668</ele>
        <time>2016-08-19T07:28:33Z</time>
      </trkpt>
      <trkpt lat="45.43598" lon="5.92191">
        <ele>1531.903817413</ele>
        <time>2016-08-19T07:28:44Z</time>
      </trkpt>
      <trkpt lat="45.4359" lon="5.92194">
        <ele>1531.903817413</ele>
        <time>2016-08-19T07:28:48Z</time>
      </trkpt>
      <trkpt lat="45.43586" lon="5.9221">
        <ele>1533.235156125</ele>
        <time>2016-08-19T07:28:57Z</time>
      </trkpt>
      <trkpt lat="45.43581" lon="5.92216">
        <ele>1533.235156125</ele>
        <time>2016-08-19T07:29:03Z</time>
      </trkpt>
      <trkpt lat="45.43575" lon="5.92222">
        <ele>1535.744592756</ele>
        <time>2016-08-19T07:29:12Z</time>
      </trkpt>
      <trkpt lat="45.43572" lon="5.92234">
        <ele>1538.042425107</ele>
        <time>2016-08-19T07:29:19Z</time>
      </trkpt>
      <trkpt lat="45.43564" lon="5.9225">
        <ele>1540.282789728</ele>
        <time>2016-08-19T07:29:28Z</time>
      </trkpt>
      <trkpt lat="45.43558" lon="5.92254">
        <ele>1540.282789728</ele>
        <time>2016-08-19T07:29:33Z</time>
      </trkpt>
      <trkpt lat="45.43548" lon="5.92268">
        <ele>1542.032234731</ele>
        <time>2016-08-19T07:29:43Z</time>
      </trkpt>
      <trkpt lat="45.43543" lon="5.92276">
        <ele>1542.032234731</ele>
        <time>2016-08-19T07:29:49Z</time>
      </trkpt>
      <trkpt lat="45.43536" lon="5.92293">
        <ele>1543.755248983</ele>
        <time>2016-08-19T07:29:58Z</time>
      </trkpt>
      <trkpt lat="45.43531" lon="5.92301">
        <ele>1543.755248983</ele>
        <time>2016-08-19T07:30:04Z</time>
      </trkpt>
      <trkpt lat="45.43523" lon="5.92312">
        <ele>1544.873530564</ele>
        <time>2016-08-19T07:30:13Z</time>
      </trkpt>
      <trkpt lat="45.43521" lon="5.92317">
        <ele>1544.873530564</ele>
        <time>2016-08-19T07:30:18Z</time>
      </trkpt>
      <trkpt lat="45.43509" lon="5.92319">
        <ele>1546.150030968</ele>
        <time>2016-08-19T07:30:29Z</time>
      </trkpt>
      <trkpt lat="45.43505" lon="5.92319">
        <ele>1546.150030968</ele>
        <time>2016-08-19T07:30:33Z</time>
      </trkpt>
      <trkpt lat="45.43488" lon="5.92326">
        <ele>1547.858931689</ele>
        <time>2016-08-19T07:30:49Z</time>
      </trkpt>
      <trkpt lat="45.43483" lon="5.92327">
        <ele>1547.858931689</ele>
        <time>2016-08-19T07:30:54Z</time>
      </trkpt>
      <trkpt lat="45.43471" lon="5.92334">
        <ele>1548.667886368</ele>
        <time>2016-08-19T07:31:06Z</time>
      </trkpt>
      <trkpt lat="45.43466" lon="5.92336">
        <ele>1548.667886368</ele>
        <time>2016-08-19T07:31:08Z</time>
      </trkpt>
      <trkpt lat="45.43456" lon="5.92347">
        <ele>1549.794928114</ele>
        <time>2016-08-19T07:31:19Z</time>
      </trkpt>
      <trkpt lat="45.43452" lon="5.92351">
        <ele>1549.794928114</ele>
        <time>2016-08-19T07:31:23Z</time>
      </trkpt>
      <trkpt lat="45.43436" lon="5.92338">
        <ele>1550.782550469</ele>
        <time>2016-08-19T07:31:33Z</time>
      </trkpt>
      <trkpt lat="45.43432" lon="5.92332">
        <ele>1550.782550469</ele>
        <time>2016-08-19T07:31:38Z</time>
      </trkpt>
      <trkpt lat="45.43427" lon="5.92317">
        <ele>1551.783763668</ele>
        <time>2016-08-19T07:31:48Z</time>
      </trkpt>
      <trkpt lat="45.43426" lon="5.92307">
        <ele>1551.783763668</ele>
        <time>2016-08-19T07:31:53Z</time>
      </trkpt>
      <trkpt lat="45.4342" lon="5.92292">
        <ele>1552.65214187</ele>
        <time>2016-08-19T07:32:04Z</time>
      </trkpt>
      <trkpt lat="45.4342" lon="5.92285">
        <ele>1552.65214187</ele>
        <time>2016-08-19T07:32:08Z</time>
      </trkpt>
      <trkpt lat="45.43403" lon="5.92272">
        <ele>1553.684789211</ele>
        <time>2016-08-19T07:32:23Z</time>
      </trkpt>
      <trkpt lat="45.43402" lon="5.92272">
        <ele>1553.684789211</ele>
        <time>2016-08-19T07:32:28Z</time>
      </trkpt>
      <trkpt lat="45.43399" lon="5.92263">
        <ele>1553.684789211</ele>
        <time>2016-08-19T07:32:38Z</time>
      </trkpt>
      <trkpt lat="45.43398" lon="5.9226">
        <ele>1556.021259055</ele>
        <time>2016-08-19T07:32:42Z</time>
      </trkpt>
      <trkpt lat="45.43388" lon="5.92255">
        <ele>1557.831570473</ele>
        <time>2016-08-19T07:32:53Z</time>
      </trkpt>
      <trkpt lat="45.43387" lon="5.92248">
        <ele>1557.831570473</ele>
        <time>2016-08-19T07:32:59Z</time>
      </trkpt>
      <trkpt lat="45.43378" lon="5.92238">
        <ele>1559.72750675</ele>
        <time>2016-08-19T07:33:08Z</time>
      </trkpt>
      <trkpt lat="45.43384" lon="5.92233">
        <ele>1559.72750675</ele>
        <time>2016-08-19T07:33:14Z</time>
      </trkpt>
      <trkpt lat="45.43369" lon="5.92217">
        <ele>1561.987522381</ele>
        <time>2016-08-19T07:33:24Z</time>
      </trkpt>
      <trkpt lat="45.43361" lon="5.92216">
        <ele>1561.987522381</ele>
        <time>2016-08-19T07:33:28Z</time>
      </trkpt>
      <trkpt lat="45.43353" lon="5.92215">
        <ele>1563.715786222</ele>
        <time>2016-08-19T07:33:39Z</time>
      </trkpt>
      <trkpt lat="45.43347" lon="5.92214">
        <ele>1563.715786222</ele>
        <time>2016-08-19T07:33:43Z</time>
      </trkpt>
      <trkpt lat="45.43338" lon="5.92203">
        <ele>1566.101412791</ele>
        <time>2016-08-19T07:33:54Z</time>
      </trkpt>
      <trkpt lat="45.43333" lon="5.92196">
        <ele>1566.101412791</ele>
        <time>2016-08-19T07:33:59Z</time>
      </trkpt>
      <trkpt lat="45.43323" lon="5.92171">
        <ele>1568.082742353</ele>
        <time>2016-08-19T07:34:14Z</time>
      </trkpt>
      <trkpt lat="45.43319" lon="5.92167">
        <ele>1568.082742353</ele>
        <time>2016-08-19T07:34:18Z</time>
      </trkpt>
      <trkpt lat="45.43308" lon="5.92151">
        <ele>1570.262559188</ele>
        <time>2016-08-19T07:34:28Z</time>
      </trkpt>
      <trkpt lat="45.43301" lon="5.92139">
        <ele>1572.334242853</ele>
        <time>2016-08-19T07:34:34Z</time>
      </trkpt>
      <trkpt lat="45.43287" lon="5.92131">
        <ele>1573.437657517</ele>
        <time>2016-08-19T07:34:43Z</time>
      </trkpt>
      <trkpt lat="45.43281" lon="5.9213">
        <ele>1573.437657517</ele>
        <time>2016-08-19T07:34:49Z</time>
      </trkpt>
      <trkpt lat="45.43267" lon="5.92129">
        <ele>1574.363893357</ele>
        <time>2016-08-19T07:34:59Z</time>
      </trkpt>
      <trkpt lat="45.43265" lon="5.92128">
        <ele>1574.363893357</ele>
        <time>2016-08-19T07:35:03Z</time>
      </trkpt>
      <trkpt lat="45.43259" lon="5.92132">
        <ele>1574.363893357</ele>
        <time>2016-08-19T07:35:13Z</time>
      </trkpt>
      <trkpt lat="45.43252" lon="5.92137">
        <ele>1575.414189092</ele>
        <time>2016-08-19T07:35:19Z</time>
      </trkpt>
      <trkpt lat="45.43238" lon="5.92147">
        <ele>1576.00273169</ele>
        <time>2016-08-19T07:35:28Z</time>
      </trkpt>
      <trkpt lat="45.43233" lon="5.92154">
        <ele>1576.00273169</ele>
        <time>2016-08-19T07:35:34Z</time>
      </trkpt>
      <trkpt lat="45.43229" lon="5.92161">
        <ele>1576.741011334</ele>
        <time>2016-08-19T07:35:38Z</time>
      </trkpt>
      <trkpt lat="45.43226" lon="5.92169">
        <ele>1576.741011334</ele>
        <time>2016-08-19T07:35:42Z</time>
      </trkpt>
      <trkpt lat="45.43222" lon="5.92176">
        <ele>1577.474699109</ele>
        <time>2016-08-19T07:35:47Z</time>
      </trkpt>
      <trkpt lat="45.43222" lon="5.92182">
        <ele>1577.474699109</ele>
        <time>2016-08-19T07:35:52Z</time>
      </trkpt>
      <trkpt lat="45.43218" lon="5.92179">
        <ele>1577.474699109</ele>
        <time>2016-08-19T07:35:57Z</time>
      </trkpt>
      <trkpt lat="45.43213" lon="5.92183">
        <ele>1578.349107164</ele>
        <time>2016-08-19T07:36:03Z</time>
      </trkpt>
      <trkpt lat="45.43207" lon="5.92185">
        <ele>1578.349107164</ele>
        <time>2016-08-19T07:36:08Z</time>
      </trkpt>
      <trkpt lat="45.43204" lon="5.92187">
        <ele>1579.066205636</ele>
        <time>2016-08-19T07:36:12Z</time>
      </trkpt>
      <trkpt lat="45.43198" lon="5.92191">
        <ele>1579.066205636</ele>
        <time>2016-08-19T07:36:17Z</time>
      </trkpt>
      <trkpt lat="45.43192" lon="5.92193">
        <ele>1579.206240544</ele>
        <time>2016-08-19T07:36:23Z</time>
      </trkpt>
      <trkpt lat="45.43192" lon="5.92195">
        <ele>1579.206240544</ele>
        <time>2016-08-19T07:36:28Z</time>
      </trkpt>
      <trkpt lat="45.43179" lon="5.92198">
        <ele>1579.246623001</ele>
        <time>2016-08-19T07:36:38Z</time>
      </trkpt>
      <trkpt lat="45.43176" lon="5.92203">
        <ele>1579.246623001</ele>
        <time>2016-08-19T07:36:43Z</time>
      </trkpt>
      <trkpt lat="45.43164" lon="5.92208">
        <ele>1578.909450892</ele>
        <time>2016-08-19T07:36:53Z</time>
      </trkpt>
      <trkpt lat="45.4316" lon="5.92207">
        <ele>1578.909450892</ele>
        <time>2016-08-19T07:36:57Z</time>
      </trkpt>
      <trkpt lat="45.43153" lon="5.92205">
        <ele>1578.947097166</ele>
        <time>2016-08-19T07:37:12Z</time>
      </trkpt>
      <trkpt lat="45.43131" lon="5.92206">
        <ele>1578.614512437</ele>
        <time>2016-08-19T07:37:28Z</time>
      </trkpt>
      <trkpt lat="45.43124" lon="5.92203">
        <ele>1578.614512437</ele>
        <time>2016-08-19T07:37:33Z</time>
      </trkpt>
      <trkpt lat="45.43109" lon="5.92195">
        <ele>1578.51941712</ele>
        <time>2016-08-19T07:37:43Z</time>
      </trkpt>
      <trkpt lat="45.43103" lon="5.92205">
        <ele>1576.341982011</ele>
        <time>2016-08-19T07:37:48Z</time>
      </trkpt>
      <trkpt lat="45.43088" lon="5.92199">
        <ele>1574.838385683</ele>
        <time>2016-08-19T07:37:58Z</time>
      </trkpt>
      <trkpt lat="45.43084" lon="5.922">
        <ele>1574.838385683</ele>
        <time>2016-08-19T07:38:03Z</time>
      </trkpt>
      <trkpt lat="45.43076" lon="5.92194">
        <ele>1573.822289061</ele>
        <time>2016-08-19T07:38:13Z</time>
      </trkpt>
      <trkpt lat="45.43071" lon="5.92192">
        <ele>1573.822289061</ele>
        <time>2016-08-19T07:38:18Z</time>
      </trkpt>
      <trkpt lat="45.43063" lon="5.92177">
        <ele>1573.840169479</ele>
        <time>2016-08-19T07:38:28Z</time>
      </trkpt>
      <trkpt lat="45.43057" lon="5.9218">
        <ele>1573.840169479</ele>
        <time>2016-08-19T07:38:33Z</time>
      </trkpt>
      <trkpt lat="45.43047" lon="5.92178">
        <ele>1573.810162637</ele>
        <time>2016-08-19T07:38:43Z</time>
      </trkpt>
      <trkpt lat="45.43045" lon="5.92177">
        <ele>1573.810162637</ele>
        <time>2016-08-19T07:38:48Z</time>
      </trkpt>
      <trkpt lat="45.43032" lon="5.92167">
        <ele>1574.026932984</ele>
        <time>2016-08-19T07:38:58Z</time>
      </trkpt>
      <trkpt lat="45.43026" lon="5.92165">
        <ele>1574.026932984</ele>
        <time>2016-08-19T07:39:03Z</time>
      </trkpt>
      <trkpt lat="45.43019" lon="5.92168">
        <ele>1574.1862783</ele>
        <time>2016-08-19T07:39:13Z</time>
      </trkpt>
      <trkpt lat="45.43013" lon="5.92166">
        <ele>1574.1862783</ele>
        <time>2016-08-19T07:39:18Z</time>
      </trkpt>
      <trkpt lat="45.42993" lon="5.92165">
        <ele>1574.438753408</ele>
        <time>2016-08-19T07:39:28Z</time>
      </trkpt>
      <trkpt lat="45.42986" lon="5.92159">
        <ele>1574.438753408</ele>
        <time>2016-08-19T07:39:33Z</time>
      </trkpt>
      <trkpt lat="45.42966" lon="5.9215">
        <ele>1576.076400074</ele>
        <time>2016-08-19T07:39:48Z</time>
      </trkpt>
      <trkpt lat="45.42961" lon="5.92154">
        <ele>1576.076400074</ele>
        <time>2016-08-19T07:39:53Z</time>
      </trkpt>
      <trkpt lat="45.42949" lon="5.92149">
        <ele>1576.977823993</ele>
        <time>2016-08-19T07:40:03Z</time>
      </trkpt>
      <trkpt lat="45.42941" lon="5.92148">
        <ele>1576.977823993</ele>
        <time>2016-08-19T07:40:08Z</time>
      </trkpt>
      <trkpt lat="45.4293" lon="5.92144">
        <ele>1578.349907467</ele>
        <time>2016-08-19T07:40:18Z</time>
      </trkpt>
      <trkpt lat="45.42926" lon="5.92144">
        <ele>1578.349907467</ele>
        <time>2016-08-19T07:40:23Z</time>
      </trkpt>
      <trkpt lat="45.42918" lon="5.92132">
        <ele>1580.012489953</ele>
        <time>2016-08-19T07:40:33Z</time>
      </trkpt>
      <trkpt lat="45.42913" lon="5.92126">
        <ele>1580.012489953</ele>
        <time>2016-08-19T07:40:38Z</time>
      </trkpt>
      <trkpt lat="45.42908" lon="5.92112">
        <ele>1582.08599901</ele>
        <time>2016-08-19T07:40:48Z</time>
      </trkpt>
      <trkpt lat="45.42905" lon="5.92102">
        <ele>1582.08599901</ele>
        <time>2016-08-19T07:40:53Z</time>
      </trkpt>
      <trkpt lat="45.42897" lon="5.92091">
        <ele>1584.248486269</ele>
        <time>2016-08-19T07:41:03Z</time>
      </trkpt>
      <trkpt lat="45.42892" lon="5.92085">
        <ele>1584.248486269</ele>
        <time>2016-08-19T07:41:08Z</time>
      </trkpt>
      <trkpt lat="45.42884" lon="5.92087">
        <ele>1586.777819017</ele>
        <time>2016-08-19T07:41:18Z</time>
      </trkpt>
      <trkpt lat="45.42881" lon="5.92091">
        <ele>1586.777819017</ele>
        <time>2016-08-19T07:41:23Z</time>
      </trkpt>
      <trkpt lat="45.42878" lon="5.921">
        <ele>1589.642185879</ele>
        <time>2016-08-19T07:41:33Z</time>
      </trkpt>
      <trkpt lat="45.42877" lon="5.92104">
        <ele>1589.642185879</ele>
        <time>2016-08-19T07:41:38Z</time>
      </trkpt>
      <trkpt lat="45.42872" lon="5.92109">
        <ele>1589.642185879</ele>
        <time>2016-08-19T07:41:48Z</time>
      </trkpt>
      <trkpt lat="45.42872" lon="5.92108">
        <ele>1592.811173429</ele>
        <time>2016-08-19T07:41:53Z</time>
      </trkpt>
      <trkpt lat="45.42864" lon="5.92124">
        <ele>1595.82343173</ele>
        <time>2016-08-19T07:42:08Z</time>
      </trkpt>
      <trkpt lat="45.42859" lon="5.92132">
        <ele>1595.82343173</ele>
        <time>2016-08-19T07:42:13Z</time>
      </trkpt>
      <trkpt lat="45.42855" lon="5.92143">
        <ele>1598.828420149</ele>
        <time>2016-08-19T07:42:23Z</time>
      </trkpt>
      <trkpt lat="45.42854" lon="5.92151">
        <ele>1598.828420149</ele>
        <time>2016-08-19T07:42:28Z</time>
      </trkpt>
      <trkpt lat="45.42848" lon="5.92165">
        <ele>1601.964689869</ele>
        <time>2016-08-19T07:42:38Z</time>
      </trkpt>
      <trkpt lat="45.42843" lon="5.92176">
        <ele>1601.964689869</ele>
        <time>2016-08-19T07:42:43Z</time>
      </trkpt>
      <trkpt lat="45.42834" lon="5.9219">
        <ele>1605.072089317</ele>
        <time>2016-08-19T07:42:53Z</time>
      </trkpt>
      <trkpt lat="45.42832" lon="5.92198">
        <ele>1605.072089317</ele>
        <time>2016-08-19T07:42:58Z</time>
      </trkpt>
      <trkpt lat="45.4283" lon="5.92199">
        <ele>1605.072089317</ele>
        <time>2016-08-19T07:43:08Z</time>
      </trkpt>
      <trkpt lat="45.42824" lon="5.92207">
        <ele>1607.714169012</ele>
        <time>2016-08-19T07:43:13Z</time>
      </trkpt>
      <trkpt lat="45.42811" lon="5.92221">
        <ele>1609.920269154</ele>
        <time>2016-08-19T07:43:23Z</time>
      </trkpt>
      <trkpt lat="45.42806" lon="5.92223">
        <ele>1609.920269154</ele>
        <time>2016-08-19T07:43:28Z</time>
      </trkpt>
      <trkpt lat="45.42797" lon="5.92236">
        <ele>1612.007117329</ele>
        <time>2016-08-19T07:43:38Z</time>
      </trkpt>
      <trkpt lat="45.42793" lon="5.92232">
        <ele>1612.007117329</ele>
        <time>2016-08-19T07:43:43Z</time>
      </trkpt>
      <trkpt lat="45.42787" lon="5.92233">
        <ele>1614.556834427</ele>
        <time>2016-08-19T07:43:48Z</time>
      </trkpt>
      <trkpt lat="45.42779" lon="5.9224">
        <ele>1617.098809273</ele>
        <time>2016-08-19T07:43:58Z</time>
      </trkpt>
      <trkpt lat="45.42776" lon="5.92244">
        <ele>1617.098809273</ele>
        <time>2016-08-19T07:44:03Z</time>
      </trkpt>
      <trkpt lat="45.4277" lon="5.92254">
        <ele>1618.908909951</ele>
        <time>2016-08-19T07:44:13Z</time>
      </trkpt>
      <trkpt lat="45.42768" lon="5.92257">
        <ele>1618.908909951</ele>
        <time>2016-08-19T07:44:18Z</time>
      </trkpt>
      <trkpt lat="45.42762" lon="5.92266">
        <ele>1621.480031318</ele>
        <time>2016-08-19T07:44:28Z</time>
      </trkpt>
      <trkpt lat="45.42759" lon="5.92272">
        <ele>1621.480031318</ele>
        <time>2016-08-19T07:44:33Z</time>
      </trkpt>
      <trkpt lat="45.42754" lon="5.92282">
        <ele>1623.455266838</ele>
        <time>2016-08-19T07:44:43Z</time>
      </trkpt>
      <trkpt lat="45.42752" lon="5.92288">
        <ele>1623.455266838</ele>
        <time>2016-08-19T07:44:48Z</time>
      </trkpt>
      <trkpt lat="45.42748" lon="5.92291">
        <ele>1623.455266838</ele>
        <time>2016-08-19T07:44:58Z</time>
      </trkpt>
      <trkpt lat="45.42748" lon="5.9229">
        <ele>1625.596728956</ele>
        <time>2016-08-19T07:45:03Z</time>
      </trkpt>
      <trkpt lat="45.42742" lon="5.92294">
        <ele>1625.596728956</ele>
        <time>2016-08-19T07:45:12Z</time>
      </trkpt>
      <trkpt lat="45.42738" lon="5.92294">
        <ele>1627.889636777</ele>
        <time>2016-08-19T07:45:17Z</time>
      </trkpt>
      <trkpt lat="45.42733" lon="5.92299">
        <ele>1627.889636777</ele>
        <time>2016-08-19T07:45:23Z</time>
      </trkpt>
      <trkpt lat="45.4273" lon="5.92307">
        <ele>1630.175872211</ele>
        <time>2016-08-19T07:45:33Z</time>
      </trkpt>
      <trkpt lat="45.4273" lon="5.92308">
        <ele>1630.175872211</ele>
        <time>2016-08-19T07:45:38Z</time>
      </trkpt>
      <trkpt lat="45.4273" lon="5.9231">
        <ele>1630.175872211</ele>
        <time>2016-08-19T07:45:48Z</time>
      </trkpt>
      <trkpt lat="45.42727" lon="5.92317">
        <ele>1630.175872211</ele>
        <time>2016-08-19T07:45:53Z</time>
      </trkpt>
      <trkpt lat="45.4272" lon="5.92327">
        <ele>1633.606066026</ele>
        <time>2016-08-19T07:46:03Z</time>
      </trkpt>
      <trkpt lat="45.42715" lon="5.9233">
        <ele>1633.606066026</ele>
        <time>2016-08-19T07:46:08Z</time>
      </trkpt>
      <trkpt lat="45.42702" lon="5.9233">
        <ele>1637.513899299</ele>
        <time>2016-08-19T07:46:18Z</time>
      </trkpt>
      <trkpt lat="45.42696" lon="5.92329">
        <ele>1637.513899299</ele>
        <time>2016-08-19T07:46:23Z</time>
      </trkpt>
      <trkpt lat="45.4269" lon="5.92333">
        <ele>1641.28078479</ele>
        <time>2016-08-19T07:46:33Z</time>
      </trkpt>
      <trkpt lat="45.42688" lon="5.92332">
        <ele>1641.28078479</ele>
        <time>2016-08-19T07:46:38Z</time>
      </trkpt>
      <trkpt lat="45.42681" lon="5.92333">
        <ele>1641.28078479</ele>
        <time>2016-08-19T07:46:43Z</time>
      </trkpt>
      <trkpt lat="45.42677" lon="5.92332">
        <ele>1645.054660053</ele>
        <time>2016-08-19T07:46:47Z</time>
      </trkpt>
      <trkpt lat="45.42676" lon="5.92332">
        <ele>1645.054660053</ele>
        <time>2016-08-19T07:46:52Z</time>
      </trkpt>
      <trkpt lat="45.42676" lon="5.92332">
        <ele>1645.054660053</ele>
        <time>2016-08-19T07:46:57Z</time>
      </trkpt>
      <trkpt lat="45.42676" lon="5.92332">
        <ele>1645.054660053</ele>
        <time>2016-08-19T07:47:02Z</time>
      </trkpt>
      <trkpt lat="45.42676" lon="5.92333">
        <ele>1645.054660053</ele>
        <time>2016-08-19T07:47:07Z</time>
      </trkpt>
      <trkpt lat="45.42676" lon="5.92333">
        <ele>1645.054660053</ele>
        <time>2016-08-19T07:47:12Z</time>
      </trkpt>
      <trkpt lat="45.42676" lon="5.92333">
        <ele>1645.054660053</ele>
        <time>2016-08-19T07:47:17Z</time>
      </trkpt>
      <trkpt lat="45.42676" lon="5.92333">
        <ele>1645.054660053</ele>
        <time>2016-08-19T07:47:22Z</time>
      </trkpt>
      <trkpt lat="45.42676" lon="5.92333">
        <ele>1645.054660053</ele>
        <time>2016-08-19T07:47:27Z</time>
      </trkpt>
      <trkpt lat="45.42676" lon="5.92333">
        <ele>1645.054660053</ele>
        <time>2016-08-19T07:47:32Z</time>
      </trkpt>
      <trkpt lat="45.42676" lon="5.92333">
        <ele>1645.054660053</ele>
        <time>2016-08-19T07:47:37Z</time>
      </trkpt>
      <trkpt lat="45.42676" lon="5.92333">
        <ele>1645.054660053</ele>
        <time>2016-08-19T07:47:42Z</time>
      </trkpt>
      <trkpt lat="45.42672" lon="5.92338">
        <ele>1645.054660053</ele>
        <time>2016-08-19T07:47:47Z</time>
      </trkpt>
      <trkpt lat="45.42661" lon="5.92341">
        <ele>1648.684495037</ele>
        <time>2016-08-19T07:47:58Z</time>
      </trkpt>
      <trkpt lat="45.42655" lon="5.92345">
        <ele>1648.684495037</ele>
        <time>2016-08-19T07:48:03Z</time>
      </trkpt>
      <trkpt lat="45.42647" lon="5.92358">
        <ele>1651.598573644</ele>
        <time>2016-08-19T07:48:13Z</time>
      </trkpt>
      <trkpt lat="45.4264" lon="5.92364">
        <ele>1651.598573644</ele>
        <time>2016-08-19T07:48:18Z</time>
      </trkpt>
      <trkpt lat="45.42632" lon="5.92367">
        <ele>1654.422228228</ele>
        <time>2016-08-19T07:48:28Z</time>
      </trkpt>
      <trkpt lat="45.42628" lon="5.92369">
        <ele>1654.422228228</ele>
        <time>2016-08-19T07:48:33Z</time>
      </trkpt>
      <trkpt lat="45.42621" lon="5.92374">
        <ele>1656.870595678</ele>
        <time>2016-08-19T07:48:43Z</time>
      </trkpt>
      <trkpt lat="45.42618" lon="5.92372">
        <ele>1656.870595678</ele>
        <time>2016-08-19T07:48:48Z</time>
      </trkpt>
      <trkpt lat="45.42608" lon="5.92367">
        <ele>1659.401500238</ele>
        <time>2016-08-19T07:48:58Z</time>
      </trkpt>
      <trkpt lat="45.42603" lon="5.92365">
        <ele>1659.401500238</ele>
        <time>2016-08-19T07:49:03Z</time>
      </trkpt>
      <trkpt lat="45.42593" lon="5.92372">
        <ele>1661.286161756</ele>
        <time>2016-08-19T07:49:13Z</time>
      </trkpt>
      <trkpt lat="45.42589" lon="5.92379">
        <ele>1661.286161756</ele>
        <time>2016-08-19T07:49:18Z</time>
      </trkpt>
      <trkpt lat="45.4258" lon="5.92385">
        <ele>1662.715956447</ele>
        <time>2016-08-19T07:49:28Z</time>
      </trkpt>
      <trkpt lat="45.42573" lon="5.92389">
        <ele>1662.715956447</ele>
        <time>2016-08-19T07:49:33Z</time>
      </trkpt>
      <trkpt lat="45.42561" lon="5.92399">
        <ele>1663.149051855</ele>
        <time>2016-08-19T07:49:47Z</time>
      </trkpt>
      <trkpt lat="45.42555" lon="5.92401">
        <ele>1663.149051855</ele>
        <time>2016-08-19T07:49:53Z</time>
      </trkpt>
      <trkpt lat="45.42541" lon="5.924">
        <ele>1663.527441189</ele>
        <time>2016-08-19T07:50:03Z</time>
      </trkpt>
      <trkpt lat="45.42537" lon="5.92403">
        <ele>1663.527441189</ele>
        <time>2016-08-19T07:50:08Z</time>
      </trkpt>
      <trkpt lat="45.42528" lon="5.92408">
        <ele>1664.147726425</ele>
        <time>2016-08-19T07:50:18Z</time>
      </trkpt>
      <trkpt lat="45.42524" lon="5.92408">
        <ele>1664.147726425</ele>
        <time>2016-08-19T07:50:23Z</time>
      </trkpt>
      <trkpt lat="45.42522" lon="5.92411">
        <ele>1664.147726425</ele>
        <time>2016-08-19T07:50:33Z</time>
      </trkpt>
      <trkpt lat="45.42518" lon="5.92413">
        <ele>1664.995900633</ele>
        <time>2016-08-19T07:50:38Z</time>
      </trkpt>
      <trkpt lat="45.42516" lon="5.92414">
        <ele>1664.995900633</ele>
        <time>2016-08-19T07:50:48Z</time>
      </trkpt>
      <trkpt lat="45.42506" lon="5.92411">
        <ele>1665.193741076</ele>
        <time>2016-08-19T07:50:53Z</time>
      </trkpt>
      <trkpt lat="45.4249" lon="5.92403">
        <ele>1665.946964584</ele>
        <time>2016-08-19T07:51:03Z</time>
      </trkpt>
      <trkpt lat="45.42483" lon="5.924">
        <ele>1665.946964584</ele>
        <time>2016-08-19T07:51:08Z</time>
      </trkpt>
      <trkpt lat="45.42469" lon="5.92398">
        <ele>1666.785965958</ele>
        <time>2016-08-19T07:51:18Z</time>
      </trkpt>
      <trkpt lat="45.42462" lon="5.92396">
        <ele>1666.785965958</ele>
        <time>2016-08-19T07:51:23Z</time>
      </trkpt>
      <trkpt lat="45.42454" lon="5.92384">
        <ele>1667.995969192</ele>
        <time>2016-08-19T07:51:33Z</time>
      </trkpt>
      <trkpt lat="45.42447" lon="5.92383">
        <ele>1667.995969192</ele>
        <time>2016-08-19T07:51:38Z</time>
      </trkpt>
      <trkpt lat="45.42436" lon="5.92383">
        <ele>1668.831432153</ele>
        <time>2016-08-19T07:51:48Z</time>
      </trkpt>
      <trkpt lat="45.42434" lon="5.92385">
        <ele>1668.831432153</ele>
        <time>2016-08-19T07:51:53Z</time>
      </trkpt>
      <trkpt lat="45.42434" lon="5.92392">
        <ele>1668.831432153</ele>
        <time>2016-08-19T07:52:03Z</time>
      </trkpt>
      <trkpt lat="45.42431" lon="5.92399">
        <ele>1669.755515437</ele>
        <time>2016-08-19T07:52:08Z</time>
      </trkpt>
      <trkpt lat="45.42429" lon="5.92408">
        <ele>1669.755515437</ele>
        <time>2016-08-19T07:52:23Z</time>
      </trkpt>
      <trkpt lat="45.4243" lon="5.92408">
        <ele>1669.755515437</ele>
        <time>2016-08-19T07:52:28Z</time>
      </trkpt>
      <trkpt lat="45.42427" lon="5.92415">
        <ele>1671.052983935</ele>
        <time>2016-08-19T07:52:38Z</time>
      </trkpt>
      <trkpt lat="45.42423" lon="5.9242">
        <ele>1671.052983935</ele>
        <time>2016-08-19T07:52:43Z</time>
      </trkpt>
      <trkpt lat="45.4242" lon="5.92432">
        <ele>1672.266061079</ele>
        <time>2016-08-19T07:52:53Z</time>
      </trkpt>
      <trkpt lat="45.4242" lon="5.92438">
        <ele>1672.266061079</ele>
        <time>2016-08-19T07:52:58Z</time>
      </trkpt>
      <trkpt lat="45.42422" lon="5.92454">
        <ele>1673.691365598</ele>
        <time>2016-08-19T07:53:08Z</time>
      </trkpt>
      <trkpt lat="45.42421" lon="5.9246">
        <ele>1673.691365598</ele>
        <time>2016-08-19T07:53:13Z</time>
      </trkpt>
      <trkpt lat="45.4242" lon="5.92469">
        <ele>1675.026657019</ele>
        <time>2016-08-19T07:53:23Z</time>
      </trkpt>
      <trkpt lat="45.4242" lon="5.9247">
        <ele>1675.026657019</ele>
        <time>2016-08-19T07:53:28Z</time>
      </trkpt>
      <trkpt lat="45.42419" lon="5.92474">
        <ele>1675.026657019</ele>
        <time>2016-08-19T07:53:38Z</time>
      </trkpt>
      <trkpt lat="45.42419" lon="5.92475">
        <ele>1675.026657019</ele>
        <time>2016-08-19T07:53:43Z</time>
      </trkpt>
      <trkpt lat="45.42415" lon="5.92478">
        <ele>1675.026657019</ele>
        <time>2016-08-19T07:53:53Z</time>
      </trkpt>
      <trkpt lat="45.42409" lon="5.92482">
        <ele>1676.280338892</ele>
        <time>2016-08-19T07:53:57Z</time>
      </trkpt>
      <trkpt lat="45.42401" lon="5.92485">
        <ele>1676.280338892</ele>
        <time>2016-08-19T07:54:08Z</time>
      </trkpt>
      <trkpt lat="45.42398" lon="5.92486">
        <ele>1677.74861273</ele>
        <time>2016-08-19T07:54:12Z</time>
      </trkpt>
      <trkpt lat="45.42395" lon="5.92492">
        <ele>1677.74861273</ele>
        <time>2016-08-19T07:54:23Z</time>
      </trkpt>
      <trkpt lat="45.42396" lon="5.92492">
        <ele>1677.74861273</ele>
        <time>2016-08-19T07:54:28Z</time>
      </trkpt>
      <trkpt lat="45.42399" lon="5.925">
        <ele>1681.00228469</ele>
        <time>2016-08-19T07:54:43Z</time>
      </trkpt>
      <trkpt lat="45.42401" lon="5.92505">
        <ele>1681.00228469</ele>
        <time>2016-08-19T07:54:48Z</time>
      </trkpt>
      <trkpt lat="45.42402" lon="5.92515">
        <ele>1684.609507516</ele>
        <time>2016-08-19T07:54:58Z</time>
      </trkpt>
      <trkpt lat="45.42403" lon="5.92517">
        <ele>1684.609507516</ele>
        <time>2016-08-19T07:55:03Z</time>
      </trkpt>
      <trkpt lat="45.42406" lon="5.92536">
        <ele>1688.107268982</ele>
        <time>2016-08-19T07:55:13Z</time>
      </trkpt>
      <trkpt lat="45.42408" lon="5.92544">
        <ele>1688.107268982</ele>
        <time>2016-08-19T07:55:18Z</time>
      </trkpt>
      <trkpt lat="45.42408" lon="5.92555">
        <ele>1691.787421913</ele>
        <time>2016-08-19T07:55:28Z</time>
      </trkpt>
      <trkpt lat="45.42407" lon="5.92557">
        <ele>1691.787421913</ele>
        <time>2016-08-19T07:55:33Z</time>
      </trkpt>
      <trkpt lat="45.42407" lon="5.92572">
        <ele>1695.631650209</ele>
        <time>2016-08-19T07:55:44Z</time>
      </trkpt>
      <trkpt lat="45.42406" lon="5.92577">
        <ele>1695.631650209</ele>
        <time>2016-08-19T07:55:48Z</time>
      </trkpt>
      <trkpt lat="45.42405" lon="5.92583">
        <ele>1695.631650209</ele>
        <time>2016-08-19T07:55:59Z</time>
      </trkpt>
      <trkpt lat="45.42407" lon="5.92592">
        <ele>1699.478430815</ele>
        <time>2016-08-19T07:56:03Z</time>
      </trkpt>
      <trkpt lat="45.42411" lon="5.92606">
        <ele>1702.889908798</ele>
        <time>2016-08-19T07:56:14Z</time>
      </trkpt>
      <trkpt lat="45.42412" lon="5.92608">
        <ele>1702.889908798</ele>
        <time>2016-08-19T07:56:19Z</time>
      </trkpt>
      <trkpt lat="45.42409" lon="5.92625">
        <ele>1705.89399207</ele>
        <time>2016-08-19T07:56:34Z</time>
      </trkpt>
      <trkpt lat="45.42406" lon="5.92631">
        <ele>1705.89399207</ele>
        <time>2016-08-19T07:56:38Z</time>
      </trkpt>
      <trkpt lat="45.42398" lon="5.92636">
        <ele>1708.950067718</ele>
        <time>2016-08-19T07:56:49Z</time>
      </trkpt>
      <trkpt lat="45.42398" lon="5.9264">
        <ele>1708.950067718</ele>
        <time>2016-08-19T07:56:53Z</time>
      </trkpt>
      <trkpt lat="45.42398" lon="5.92642">
        <ele>1708.950067718</ele>
        <time>2016-08-19T07:57:03Z</time>
      </trkpt>
      <trkpt lat="45.42398" lon="5.92642">
        <ele>1708.950067718</ele>
        <time>2016-08-19T07:57:08Z</time>
      </trkpt>
      <trkpt lat="45.42396" lon="5.92651">
        <ele>1711.907245512</ele>
        <time>2016-08-19T07:57:18Z</time>
      </trkpt>
      <trkpt lat="45.42391" lon="5.92659">
        <ele>1711.907245512</ele>
        <time>2016-08-19T07:57:24Z</time>
      </trkpt>
      <trkpt lat="45.42386" lon="5.92673">
        <ele>1715.778951899</ele>
        <time>2016-08-19T07:57:34Z</time>
      </trkpt>
      <trkpt lat="45.4238" lon="5.9268">
        <ele>1715.778951899</ele>
        <time>2016-08-19T07:57:38Z</time>
      </trkpt>
      <trkpt lat="45.42381" lon="5.92694">
        <ele>1719.051782802</ele>
        <time>2016-08-19T07:57:48Z</time>
      </trkpt>
      <trkpt lat="45.4238" lon="5.927">
        <ele>1719.051782802</ele>
        <time>2016-08-19T07:57:53Z</time>
      </trkpt>
      <trkpt lat="45.42378" lon="5.92708">
        <ele>1721.622263086</ele>
        <time>2016-08-19T07:58:04Z</time>
      </trkpt>
      <trkpt lat="45.42373" lon="5.92714">
        <ele>1721.622263086</ele>
        <time>2016-08-19T07:58:08Z</time>
      </trkpt>
      <trkpt lat="45.42369" lon="5.92728">
        <ele>1724.117122555</ele>
        <time>2016-08-19T07:58:23Z</time>
      </trkpt>
      <trkpt lat="45.42369" lon="5.92729">
        <ele>1724.117122555</ele>
        <time>2016-08-19T07:58:28Z</time>
      </trkpt>
      <trkpt lat="45.42364" lon="5.92743">
        <ele>1726.10856346</ele>
        <time>2016-08-19T07:58:39Z</time>
      </trkpt>
      <trkpt lat="45.42364" lon="5.92748">
        <ele>1726.10856346</ele>
        <time>2016-08-19T07:58:43Z</time>
      </trkpt>
      <trkpt lat="45.4236" lon="5.92763">
        <ele>1727.778144674</ele>
        <time>2016-08-19T07:58:54Z</time>
      </trkpt>
      <trkpt lat="45.42358" lon="5.92769">
        <ele>1727.778144674</ele>
        <time>2016-08-19T07:58:58Z</time>
      </trkpt>
      <trkpt lat="45.42347" lon="5.92782">
        <ele>1729.006835363</ele>
        <time>2016-08-19T07:59:08Z</time>
      </trkpt>
      <trkpt lat="45.42346" lon="5.92786">
        <ele>1729.006835363</ele>
        <time>2016-08-19T07:59:14Z</time>
      </trkpt>
      <trkpt lat="45.42345" lon="5.92796">
        <ele>1730.40619946</ele>
        <time>2016-08-19T07:59:24Z</time>
      </trkpt>
      <trkpt lat="45.42344" lon="5.92807">
        <ele>1730.40619946</ele>
        <time>2016-08-19T07:59:28Z</time>
      </trkpt>
      <trkpt lat="45.42344" lon="5.92814">
        <ele>1731.677777675</ele>
        <time>2016-08-19T07:59:39Z</time>
      </trkpt>
      <trkpt lat="45.42344" lon="5.92825">
        <ele>1731.677777675</ele>
        <time>2016-08-19T07:59:43Z</time>
      </trkpt>
      <trkpt lat="45.42348" lon="5.92841">
        <ele>1734.274766863</ele>
        <time>2016-08-19T07:59:53Z</time>
      </trkpt>
      <trkpt lat="45.42345" lon="5.92845">
        <ele>1734.274766863</ele>
        <time>2016-08-19T07:59:59Z</time>
      </trkpt>
      <trkpt lat="45.42336" lon="5.9286">
        <ele>1737.234148859</ele>
        <time>2016-08-19T08:00:13Z</time>
      </trkpt>
      <trkpt lat="45.42336" lon="5.92868">
        <ele>1737.234148859</ele>
        <time>2016-08-19T08:00:18Z</time>
      </trkpt>
      <trkpt lat="45.42327" lon="5.92883">
        <ele>1740.671440754</ele>
        <time>2016-08-19T08:00:28Z</time>
      </trkpt>
      <trkpt lat="45.42326" lon="5.9289">
        <ele>1740.671440754</ele>
        <time>2016-08-19T08:00:33Z</time>
      </trkpt>
      <trkpt lat="45.42325" lon="5.9291">
        <ele>1743.9718101</ele>
        <time>2016-08-19T08:00:44Z</time>
      </trkpt>
      <trkpt lat="45.42325" lon="5.92919">
        <ele>1743.9718101</ele>
        <time>2016-08-19T08:00:48Z</time>
      </trkpt>
      <trkpt lat="45.42321" lon="5.92932">
        <ele>1747.286567348</ele>
        <time>2016-08-19T08:00:59Z</time>
      </trkpt>
      <trkpt lat="45.42319" lon="5.92942">
        <ele>1747.286567348</ele>
        <time>2016-08-19T08:01:03Z</time>
      </trkpt>
      <trkpt lat="45.42315" lon="5.92961">
        <ele>1750.179465367</ele>
        <time>2016-08-19T08:01:14Z</time>
      </trkpt>
      <trkpt lat="45.42314" lon="5.92967">
        <ele>1750.179465367</ele>
        <time>2016-08-19T08:01:18Z</time>
      </trkpt>
      <trkpt lat="45.42312" lon="5.92975">
        <ele>1753.112200847</ele>
        <time>2016-08-19T08:01:28Z</time>
      </trkpt>
      <trkpt lat="45.42312" lon="5.92974">
        <ele>1753.112200847</ele>
        <time>2016-08-19T08:01:33Z</time>
      </trkpt>
      <trkpt lat="45.42312" lon="5.92976">
        <ele>1753.112200847</ele>
        <time>2016-08-19T08:01:43Z</time>
      </trkpt>
      <trkpt lat="45.42314" lon="5.92981">
        <ele>1753.112200847</ele>
        <time>2016-08-19T08:01:47Z</time>
      </trkpt>
      <trkpt lat="45.42318" lon="5.92992">
        <ele>1755.359602019</ele>
        <time>2016-08-19T08:01:53Z</time>
      </trkpt>
      <trkpt lat="45.42319" lon="5.92994">
        <ele>1755.359602019</ele>
        <time>2016-08-19T08:01:57Z</time>
      </trkpt>
      <trkpt lat="45.42319" lon="5.92995">
        <ele>1755.359602019</ele>
        <time>2016-08-19T08:02:03Z</time>
      </trkpt>
      <trkpt lat="45.4232" lon="5.92997">
        <ele>1755.359602019</ele>
        <time>2016-08-19T08:02:08Z</time>
      </trkpt>
      <trkpt lat="45.42319" lon="5.93005">
        <ele>1757.26051626</ele>
        <time>2016-08-19T08:02:19Z</time>
      </trkpt>
      <trkpt lat="45.42318" lon="5.93005">
        <ele>1757.26051626</ele>
        <time>2016-08-19T08:02:24Z</time>
      </trkpt>
      <trkpt lat="45.4232" lon="5.93008">
        <ele>1757.26051626</ele>
        <time>2016-08-19T08:02:34Z</time>
      </trkpt>
      <trkpt lat="45.4232" lon="5.93009">
        <ele>1757.26051626</ele>
        <time>2016-08-19T08:02:37Z</time>
      </trkpt>
      <trkpt lat="45.42315" lon="5.93011">
        <ele>1758.55347011</ele>
        <time>2016-08-19T08:02:47Z</time>
      </trkpt>
      <trkpt lat="45.42316" lon="5.93014">
        <ele>1758.55347011</ele>
        <time>2016-08-19T08:02:53Z</time>
      </trkpt>
      <trkpt lat="45.42317" lon="5.93023">
        <ele>1758.55347011</ele>
        <time>2016-08-19T08:03:03Z</time>
      </trkpt>
      <trkpt lat="45.42316" lon="5.93028">
        <ele>1759.142049593</ele>
        <time>2016-08-19T08:03:09Z</time>
      </trkpt>
      <trkpt lat="45.42315" lon="5.93038">
        <ele>1759.142049593</ele>
        <time>2016-08-19T08:03:19Z</time>
      </trkpt>
      <trkpt lat="45.42317" lon="5.93047">
        <ele>1759.083032859</ele>
        <time>2016-08-19T08:03:23Z</time>
      </trkpt>
      <trkpt lat="45.42321" lon="5.93067">
        <ele>1758.719072379</ele>
        <time>2016-08-19T08:03:33Z</time>
      </trkpt>
      <trkpt lat="45.42322" lon="5.93076">
        <ele>1758.719072379</ele>
        <time>2016-08-19T08:03:38Z</time>
      </trkpt>
      <trkpt lat="45.4232" lon="5.93095">
        <ele>1757.792046529</ele>
        <time>2016-08-19T08:03:54Z</time>
      </trkpt>
      <trkpt lat="45.42325" lon="5.93102">
        <ele>1757.792046529</ele>
        <time>2016-08-19T08:03:58Z</time>
      </trkpt>
      <trkpt lat="45.42331" lon="5.93118">
        <ele>1757.073117326</ele>
        <time>2016-08-19T08:04:09Z</time>
      </trkpt>
      <trkpt lat="45.42331" lon="5.93121">
        <ele>1757.073117326</ele>
        <time>2016-08-19T08:04:14Z</time>
      </trkpt>
      <trkpt lat="45.42343" lon="5.93133">
        <ele>1756.267377714</ele>
        <time>2016-08-19T08:04:24Z</time>
      </trkpt>
      <trkpt lat="45.42347" lon="5.93136">
        <ele>1756.267377714</ele>
        <time>2016-08-19T08:04:29Z</time>
      </trkpt>
      <trkpt lat="45.42354" lon="5.93137">
        <ele>1754.669413158</ele>
        <time>2016-08-19T08:04:38Z</time>
      </trkpt>
      <trkpt lat="45.42356" lon="5.9314">
        <ele>1754.669413158</ele>
        <time>2016-08-19T08:04:43Z</time>
      </trkpt>
      <trkpt lat="45.42356" lon="5.93151">
        <ele>1753.357081411</ele>
        <time>2016-08-19T08:04:54Z</time>
      </trkpt>
      <trkpt lat="45.42354" lon="5.93153">
        <ele>1753.357081411</ele>
        <time>2016-08-19T08:04:58Z</time>
      </trkpt>
      <trkpt lat="45.42354" lon="5.93156">
        <ele>1753.357081411</ele>
        <time>2016-08-19T08:05:08Z</time>
      </trkpt>
      <trkpt lat="45.42354" lon="5.93164">
        <ele>1752.319357591</ele>
        <time>2016-08-19T08:05:13Z</time>
      </trkpt>
      <trkpt lat="45.42355" lon="5.93169">
        <ele>1752.319357591</ele>
        <time>2016-08-19T08:05:24Z</time>
      </trkpt>
      <trkpt lat="45.42354" lon="5.9317">
        <ele>1752.319357591</ele>
        <time>2016-08-19T08:05:28Z</time>
      </trkpt>
      <trkpt lat="45.42355" lon="5.9317">
        <ele>1752.319357591</ele>
        <time>2016-08-19T08:05:39Z</time>
      </trkpt>
      <trkpt lat="45.42358" lon="5.93173">
        <ele>1752.319357591</ele>
        <time>2016-08-19T08:05:43Z</time>
      </trkpt>
      <trkpt lat="45.42362" lon="5.93185">
        <ele>1752.121558398</ele>
        <time>2016-08-19T08:05:53Z</time>
      </trkpt>
      <trkpt lat="45.42363" lon="5.93188">
        <ele>1752.121558398</ele>
        <time>2016-08-19T08:05:58Z</time>
      </trkpt>
      <trkpt lat="45.42364" lon="5.93187">
        <ele>1752.121558398</ele>
        <time>2016-08-19T08:06:13Z</time>
      </trkpt>
      <trkpt lat="45.42364" lon="5.93187">
        <ele>1752.121558398</ele>
        <time>2016-08-19T08:06:18Z</time>
      </trkpt>
      <trkpt lat="45.42364" lon="5.93187">
        <ele>1752.121558398</ele>
        <time>2016-08-19T08:06:28Z</time>
      </trkpt>
      <trkpt lat="45.42364" lon="5.93187">
        <ele>1752.121558398</ele>
        <time>2016-08-19T08:06:33Z</time>
      </trkpt>
      <trkpt lat="45.42358" lon="5.93165">
        <ele>1751.411512579</ele>
        <time>2016-08-19T08:06:43Z</time>
      </trkpt>
      <trkpt lat="45.42356" lon="5.93153">
        <ele>1751.411512579</ele>
        <time>2016-08-19T08:06:48Z</time>
      </trkpt>
      <trkpt lat="45.42354" lon="5.93145">
        <ele>1750.378755551</ele>
        <time>2016-08-19T08:06:57Z</time>
      </trkpt>
      <trkpt lat="45.42347" lon="5.93137">
        <ele>1750.378755551</ele>
        <time>2016-08-19T08:07:04Z</time>
      </trkpt>
      <trkpt lat="45.42344" lon="5.93133">
        <ele>1748.623176335</ele>
        <time>2016-08-19T08:07:13Z</time>
      </trkpt>
      <trkpt lat="45.42339" lon="5.93134">
        <ele>1748.623176335</ele>
        <time>2016-08-19T08:07:19Z</time>
      </trkpt>
      <trkpt lat="45.42332" lon="5.93118">
        <ele>1746.208219874</ele>
        <time>2016-08-19T08:07:29Z</time>
      </trkpt>
      <trkpt lat="45.42329" lon="5.93111">
        <ele>1746.208219874</ele>
        <time>2016-08-19T08:07:33Z</time>
      </trkpt>
      <trkpt lat="45.42324" lon="5.931">
        <ele>1743.626640784</ele>
        <time>2016-08-19T08:07:43Z</time>
      </trkpt>
      <trkpt lat="45.42318" lon="5.93097">
        <ele>1743.626640784</ele>
        <time>2016-08-19T08:07:48Z</time>
      </trkpt>
      <trkpt lat="45.42314" lon="5.93094">
        <ele>1741.479345259</ele>
        <time>2016-08-19T08:07:52Z</time>
      </trkpt>
      <trkpt lat="45.42311" lon="5.93091">
        <ele>1741.479345259</ele>
        <time>2016-08-19T08:07:57Z</time>
      </trkpt>
      <trkpt lat="45.42302" lon="5.93087">
        <ele>1739.168743136</ele>
        <time>2016-08-19T08:08:03Z</time>
      </trkpt>
      <trkpt lat="45.42296" lon="5.9308">
        <ele>1739.168743136</ele>
        <time>2016-08-19T08:08:08Z</time>
      </trkpt>
      <trkpt lat="45.42284" lon="5.93081">
        <ele>1736.42956058</ele>
        <time>2016-08-19T08:08:19Z</time>
      </trkpt>
      <trkpt lat="45.42283" lon="5.93086">
        <ele>1736.42956058</ele>
        <time>2016-08-19T08:08:23Z</time>
      </trkpt>
      <trkpt lat="45.42275" lon="5.93089">
        <ele>1734.025714443</ele>
        <time>2016-08-19T08:08:33Z</time>
      </trkpt>
      <trkpt lat="45.42275" lon="5.93096">
        <ele>1734.025714443</ele>
        <time>2016-08-19T08:08:39Z</time>
      </trkpt>
      <trkpt lat="45.42274" lon="5.93095">
        <ele>1734.025714443</ele>
        <time>2016-08-19T08:08:43Z</time>
      </trkpt>
      <trkpt lat="45.42274" lon="5.93092">
        <ele>1734.025714443</ele>
        <time>2016-08-19T08:08:47Z</time>
      </trkpt>
      <trkpt lat="45.42274" lon="5.93093">
        <ele>1734.025714443</ele>
        <time>2016-08-19T08:08:52Z</time>
      </trkpt>
      <trkpt lat="45.42279" lon="5.93096">
        <ele>1732.951999824</ele>
        <time>2016-08-19T08:09:02Z</time>
      </trkpt>
      <trkpt lat="45.42281" lon="5.93098">
        <ele>1732.951999824</ele>
        <time>2016-08-19T08:09:09Z</time>
      </trkpt>
      <trkpt lat="45.42281" lon="5.931">
        <ele>1732.951999824</ele>
        <time>2016-08-19T08:09:19Z</time>
      </trkpt>
      <trkpt lat="45.42281" lon="5.931">
        <ele>1732.951999824</ele>
        <time>2016-08-19T08:09:24Z</time>
      </trkpt>
      <trkpt lat="45.42282" lon="5.931">
        <ele>1732.951999824</ele>
        <time>2016-08-19T08:09:38Z</time>
      </trkpt>
      <trkpt lat="45.42282" lon="5.931">
        <ele>1732.951999824</ele>
        <time>2016-08-19T08:09:43Z</time>
      </trkpt>
      <trkpt lat="45.42282" lon="5.931">
        <ele>1732.951999824</ele>
        <time>2016-08-19T08:09:53Z</time>
      </trkpt>
      <trkpt lat="45.42282" lon="5.931">
        <ele>1732.951999824</ele>
        <time>2016-08-19T08:09:58Z</time>
      </trkpt>
      <trkpt lat="45.42282" lon="5.93101">
        <ele>1732.951999824</ele>
        <time>2016-08-19T08:10:09Z</time>
      </trkpt>
      <trkpt lat="45.42282" lon="5.93101">
        <ele>1732.951999824</ele>
        <time>2016-08-19T08:10:13Z</time>
      </trkpt>
      <trkpt lat="45.42284" lon="5.93101">
        <ele>1732.951999824</ele>
        <time>2016-08-19T08:10:24Z</time>
      </trkpt>
      <trkpt lat="45.42284" lon="5.93101">
        <ele>1732.951999824</ele>
        <time>2016-08-19T08:10:28Z</time>
      </trkpt>
      <trkpt lat="45.42281" lon="5.931">
        <ele>1732.829111193</ele>
        <time>2016-08-19T08:10:39Z</time>
      </trkpt>
      <trkpt lat="45.42279" lon="5.93096">
        <ele>1732.829111193</ele>
        <time>2016-08-19T08:10:43Z</time>
      </trkpt>
      <trkpt lat="45.42281" lon="5.931">
        <ele>1732.829111193</ele>
        <time>2016-08-19T08:10:54Z</time>
      </trkpt>
      <trkpt lat="45.42284" lon="5.93103">
        <ele>1732.870314557</ele>
        <time>2016-08-19T08:10:58Z</time>
      </trkpt>
      <trkpt lat="45.4228" lon="5.93108">
        <ele>1732.870314557</ele>
        <time>2016-08-19T08:11:08Z</time>
      </trkpt>
      <trkpt lat="45.42279" lon="5.93113">
        <ele>1732.201811654</ele>
        <time>2016-08-19T08:11:13Z</time>
      </trkpt>
      <trkpt lat="45.4228" lon="5.93121">
        <ele>1732.201811654</ele>
        <time>2016-08-19T08:11:23Z</time>
      </trkpt>
      <trkpt lat="45.4228" lon="5.9312">
        <ele>1732.201811654</ele>
        <time>2016-08-19T08:11:27Z</time>
      </trkpt>
      <trkpt lat="45.4228" lon="5.93122">
        <ele>1732.201811654</ele>
        <time>2016-08-19T08:11:32Z</time>
      </trkpt>
      <trkpt lat="45.4228" lon="5.93122">
        <ele>1732.201811654</ele>
        <time>2016-08-19T08:11:38Z</time>
      </trkpt>
      <trkpt lat="45.42286" lon="5.93124">
        <ele>1732.033264185</ele>
        <time>2016-08-19T08:11:49Z</time>
      </trkpt>
      <trkpt lat="45.42289" lon="5.93124">
        <ele>1732.033264185</ele>
        <time>2016-08-19T08:11:53Z</time>
      </trkpt>
      <trkpt lat="45.42289" lon="5.93123">
        <ele>1732.033264185</ele>
        <time>2016-08-19T08:12:04Z</time>
      </trkpt>
      <trkpt lat="45.42283" lon="5.93121">
        <ele>1732.186805056</ele>
        <time>2016-08-19T08:12:08Z</time>
      </trkpt>
      <trkpt lat="45.42282" lon="5.93125">
        <ele>1732.186805056</ele>
        <time>2016-08-19T08:12:19Z</time>
      </trkpt>
      <trkpt lat="45.4228" lon="5.93126">
        <ele>1732.186805056</ele>
        <time>2016-08-19T08:12:24Z</time>
      </trkpt>
      <trkpt lat="45.4228" lon="5.9313">
        <ele>1732.186805056</ele>
        <time>2016-08-19T08:12:34Z</time>
      </trkpt>
      <trkpt lat="45.42279" lon="5.9313">
        <ele>1732.186805056</ele>
        <time>2016-08-19T08:12:38Z</time>
      </trkpt>
      <trkpt lat="45.42277" lon="5.93132">
        <ele>1731.775919555</ele>
        <time>2016-08-19T08:12:48Z</time>
      </trkpt>
      <trkpt lat="45.42277" lon="5.93132">
        <ele>1731.775919555</ele>
        <time>2016-08-19T08:12:53Z</time>
      </trkpt>
      <trkpt lat="45.4227" lon="5.93131">
        <ele>1731.775919555</ele>
        <time>2016-08-19T08:13:03Z</time>
      </trkpt>
      <trkpt lat="45.42266" lon="5.9313">
        <ele>1731.133444298</ele>
        <time>2016-08-19T08:13:08Z</time>
      </trkpt>
      <trkpt lat="45.42263" lon="5.9313">
        <ele>1731.133444298</ele>
        <time>2016-08-19T08:13:12Z</time>
      </trkpt>
      <trkpt lat="45.4226" lon="5.9314">
        <ele>1729.991735643</ele>
        <time>2016-08-19T08:13:23Z</time>
      </trkpt>
      <trkpt lat="45.42257" lon="5.93144">
        <ele>1729.991735643</ele>
        <time>2016-08-19T08:13:27Z</time>
      </trkpt>
      <trkpt lat="45.42255" lon="5.93159">
        <ele>1728.248093388</ele>
        <time>2016-08-19T08:13:39Z</time>
      </trkpt>
      <trkpt lat="45.42254" lon="5.93165">
        <ele>1728.248093388</ele>
        <time>2016-08-19T08:13:43Z</time>
      </trkpt>
      <trkpt lat="45.42245" lon="5.93167">
        <ele>1727.3940487</ele>
        <time>2016-08-19T08:13:53Z</time>
      </trkpt>
      <trkpt lat="45.42244" lon="5.93166">
        <ele>1727.3940487</ele>
        <time>2016-08-19T08:13:58Z</time>
      </trkpt>
      <trkpt lat="45.42244" lon="5.93167">
        <ele>1727.3940487</ele>
        <time>2016-08-19T08:14:09Z</time>
      </trkpt>
      <trkpt lat="45.42243" lon="5.93171">
        <ele>1727.3940487</ele>
        <time>2016-08-19T08:14:13Z</time>
      </trkpt>
      <trkpt lat="45.42242" lon="5.93181">
        <ele>1724.917845269</ele>
        <time>2016-08-19T08:14:24Z</time>
      </trkpt>
      <trkpt lat="45.42241" lon="5.93184">
        <ele>1724.917845269</ele>
        <time>2016-08-19T08:14:28Z</time>
      </trkpt>
      <trkpt lat="45.42241" lon="5.9319">
        <ele>1724.917845269</ele>
        <time>2016-08-19T08:14:38Z</time>
      </trkpt>
      <trkpt lat="45.42241" lon="5.93196">
        <ele>1721.955232643</ele>
        <time>2016-08-19T08:14:43Z</time>
      </trkpt>
      <trkpt lat="45.42249" lon="5.93206">
        <ele>1719.271442892</ele>
        <time>2016-08-19T08:14:52Z</time>
      </trkpt>
      <trkpt lat="45.42252" lon="5.93206">
        <ele>1719.271442892</ele>
        <time>2016-08-19T08:14:57Z</time>
      </trkpt>
      <trkpt lat="45.42251" lon="5.93206">
        <ele>1719.271442892</ele>
        <time>2016-08-19T08:15:02Z</time>
      </trkpt>
      <trkpt lat="45.42254" lon="5.93206">
        <ele>1719.271442892</ele>
        <time>2016-08-19T08:15:08Z</time>
      </trkpt>
      <trkpt lat="45.42259" lon="5.93204">
        <ele>1716.709812466</ele>
        <time>2016-08-19T08:15:13Z</time>
      </trkpt>
      <trkpt lat="45.42265" lon="5.93215">
        <ele>1714.556938674</ele>
        <time>2016-08-19T08:15:23Z</time>
      </trkpt>
      <trkpt lat="45.42267" lon="5.93218">
        <ele>1714.556938674</ele>
        <time>2016-08-19T08:15:28Z</time>
      </trkpt>
      <trkpt lat="45.42274" lon="5.93222">
        <ele>1712.06819817</ele>
        <time>2016-08-19T08:15:38Z</time>
      </trkpt>
      <trkpt lat="45.42273" lon="5.93226">
        <ele>1712.06819817</ele>
        <time>2016-08-19T08:15:43Z</time>
      </trkpt>
      <trkpt lat="45.42275" lon="5.93235">
        <ele>1709.130808644</ele>
        <time>2016-08-19T08:15:53Z</time>
      </trkpt>
      <trkpt lat="45.42277" lon="5.93241">
        <ele>1709.130808644</ele>
        <time>2016-08-19T08:15:58Z</time>
      </trkpt>
      <trkpt lat="45.42289" lon="5.93246">
        <ele>1706.650062594</ele>
        <time>2016-08-19T08:16:08Z</time>
      </trkpt>
      <trkpt lat="45.42294" lon="5.93245">
        <ele>1706.650062594</ele>
        <time>2016-08-19T08:16:13Z</time>
      </trkpt>
      <trkpt lat="45.42303" lon="5.9324">
        <ele>1704.886777936</ele>
        <time>2016-08-19T08:16:23Z</time>
      </trkpt>
      <trkpt lat="45.42306" lon="5.93242">
        <ele>1704.886777936</ele>
        <time>2016-08-19T08:16:28Z</time>
      </trkpt>
      <trkpt lat="45.42313" lon="5.93244">
        <ele>1703.936245488</ele>
        <time>2016-08-19T08:16:38Z</time>
      </trkpt>
      <trkpt lat="45.42314" lon="5.93248">
        <ele>1703.936245488</ele>
        <time>2016-08-19T08:16:43Z</time>
      </trkpt>
      <trkpt lat="45.42326" lon="5.93254">
        <ele>1703.451905958</ele>
        <time>2016-08-19T08:16:58Z</time>
      </trkpt>
      <trkpt lat="45.4233" lon="5.93254">
        <ele>1703.451905958</ele>
        <time>2016-08-19T08:17:03Z</time>
      </trkpt>
      <trkpt lat="45.42332" lon="5.93255">
        <ele>1703.451905958</ele>
        <time>2016-08-19T08:17:07Z</time>
      </trkpt>
      <trkpt lat="45.42333" lon="5.93255">
        <ele>1703.451905958</ele>
        <time>2016-08-19T08:17:12Z</time>
      </trkpt>
      <trkpt lat="45.42334" lon="5.93253">
        <ele>1703.255237001</ele>
        <time>2016-08-19T08:17:17Z</time>
      </trkpt>
      <trkpt lat="45.42334" lon="5.93253">
        <ele>1703.255237001</ele>
        <time>2016-08-19T08:17:22Z</time>
      </trkpt>
      <trkpt lat="45.42334" lon="5.93253">
        <ele>1703.255237001</ele>
        <time>2016-08-19T08:17:28Z</time>
      </trkpt>
      <trkpt lat="45.42335" lon="5.93256">
        <ele>1703.255237001</ele>
        <time>2016-08-19T08:17:33Z</time>
      </trkpt>
      <trkpt lat="45.4234" lon="5.93258">
        <ele>1703.255237001</ele>
        <time>2016-08-19T08:17:43Z</time>
      </trkpt>
      <trkpt lat="45.42343" lon="5.93265">
        <ele>1704.332706349</ele>
        <time>2016-08-19T08:17:48Z</time>
      </trkpt>
      <trkpt lat="45.42349" lon="5.93276">
        <ele>1705.000555578</ele>
        <time>2016-08-19T08:17:58Z</time>
      </trkpt>
      <trkpt lat="45.42355" lon="5.93282">
        <ele>1705.000555578</ele>
        <time>2016-08-19T08:18:03Z</time>
      </trkpt>
      <trkpt lat="45.42362" lon="5.93289">
        <ele>1705.429034538</ele>
        <time>2016-08-19T08:18:13Z</time>
      </trkpt>
      <trkpt lat="45.42366" lon="5.93296">
        <ele>1705.429034538</ele>
        <time>2016-08-19T08:18:18Z</time>
      </trkpt>
      <trkpt lat="45.42373" lon="5.93299">
        <ele>1706.208752777</ele>
        <time>2016-08-19T08:18:28Z</time>
      </trkpt>
      <trkpt lat="45.42373" lon="5.933">
        <ele>1706.208752777</ele>
        <time>2016-08-19T08:18:33Z</time>
      </trkpt>
      <trkpt lat="45.42376" lon="5.93305">
        <ele>1706.208752777</ele>
        <time>2016-08-19T08:18:43Z</time>
      </trkpt>
      <trkpt lat="45.42381" lon="5.9331">
        <ele>1707.021166265</ele>
        <time>2016-08-19T08:18:48Z</time>
      </trkpt>
      <trkpt lat="45.42396" lon="5.93312">
        <ele>1708.291502248</ele>
        <time>2016-08-19T08:19:03Z</time>
      </trkpt>
      <trkpt lat="45.42402" lon="5.93313">
        <ele>1708.291502248</ele>
        <time>2016-08-19T08:19:08Z</time>
      </trkpt>
      <trkpt lat="45.42412" lon="5.93313">
        <ele>1709.547728644</ele>
        <time>2016-08-19T08:19:18Z</time>
      </trkpt>
      <trkpt lat="45.42418" lon="5.93315">
        <ele>1709.547728644</ele>
        <time>2016-08-19T08:19:23Z</time>
      </trkpt>
      <trkpt lat="45.42429" lon="5.93317">
        <ele>1710.640701539</ele>
        <time>2016-08-19T08:19:33Z</time>
      </trkpt>
      <trkpt lat="45.42434" lon="5.93318">
        <ele>1710.640701539</ele>
        <time>2016-08-19T08:19:38Z</time>
      </trkpt>
      <trkpt lat="45.42444" lon="5.93325">
        <ele>1711.432662568</ele>
        <time>2016-08-19T08:19:48Z</time>
      </trkpt>
      <trkpt lat="45.42448" lon="5.93327">
        <ele>1711.432662568</ele>
        <time>2016-08-19T08:19:53Z</time>
      </trkpt>
      <trkpt lat="45.42455" lon="5.93334">
        <ele>1712.229141375</ele>
        <time>2016-08-19T08:20:04Z</time>
      </trkpt>
      <trkpt lat="45.42455" lon="5.93334">
        <ele>1712.229141375</ele>
        <time>2016-08-19T08:20:08Z</time>
      </trkpt>
      <trkpt lat="45.42455" lon="5.93334">
        <ele>1712.229141375</ele>
        <time>2016-08-19T08:20:18Z</time>
      </trkpt>
      <trkpt lat="45.42455" lon="5.93334">
        <ele>1712.229141375</ele>
        <time>2016-08-19T08:20:22Z</time>
      </trkpt>
      <trkpt lat="45.42464" lon="5.9334">
        <ele>1713.024995519</ele>
        <time>2016-08-19T08:20:33Z</time>
      </trkpt>
      <trkpt lat="45.42469" lon="5.93343">
        <ele>1713.024995519</ele>
        <time>2016-08-19T08:20:38Z</time>
      </trkpt>
      <trkpt lat="45.42477" lon="5.93351">
        <ele>1713.959594843</ele>
        <time>2016-08-19T08:20:48Z</time>
      </trkpt>
      <trkpt lat="45.42481" lon="5.93355">
        <ele>1713.959594843</ele>
        <time>2016-08-19T08:20:53Z</time>
      </trkpt>
      <trkpt lat="45.42489" lon="5.93359">
        <ele>1714.152937362</ele>
        <time>2016-08-19T08:21:08Z</time>
      </trkpt>
      <trkpt lat="45.42489" lon="5.9336">
        <ele>1714.152937362</ele>
        <time>2016-08-19T08:21:13Z</time>
      </trkpt>
      <trkpt lat="45.42497" lon="5.93364">
        <ele>1714.152937362</ele>
        <time>2016-08-19T08:21:23Z</time>
      </trkpt>
      <trkpt lat="45.42497" lon="5.93365">
        <ele>1714.152937362</ele>
        <time>2016-08-19T08:21:28Z</time>
      </trkpt>
      <trkpt lat="45.42501" lon="5.93367">
        <ele>1714.665234517</ele>
        <time>2016-08-19T08:21:38Z</time>
      </trkpt>
      <trkpt lat="45.42506" lon="5.93372">
        <ele>1714.665234517</ele>
        <time>2016-08-19T08:21:43Z</time>
      </trkpt>
      <trkpt lat="45.42513" lon="5.93379">
        <ele>1715.469196244</ele>
        <time>2016-08-19T08:21:53Z</time>
      </trkpt>
      <trkpt lat="45.42518" lon="5.93385">
        <ele>1715.469196244</ele>
        <time>2016-08-19T08:21:58Z</time>
      </trkpt>
      <trkpt lat="45.42523" lon="5.93393">
        <ele>1716.97111603</ele>
        <time>2016-08-19T08:22:08Z</time>
      </trkpt>
      <trkpt lat="45.42528" lon="5.93397">
        <ele>1716.97111603</ele>
        <time>2016-08-19T08:22:13Z</time>
      </trkpt>
      <trkpt lat="45.42534" lon="5.93408">
        <ele>1718.248555818</ele>
        <time>2016-08-19T08:22:23Z</time>
      </trkpt>
      <trkpt lat="45.42535" lon="5.93407">
        <ele>1718.248555818</ele>
        <time>2016-08-19T08:22:28Z</time>
      </trkpt>
      <trkpt lat="45.42536" lon="5.93407">
        <ele>1718.248555818</ele>
        <time>2016-08-19T08:22:38Z</time>
      </trkpt>
      <trkpt lat="45.42536" lon="5.93407">
        <ele>1718.248555818</ele>
        <time>2016-08-19T08:22:43Z</time>
      </trkpt>
      <trkpt lat="45.42541" lon="5.93418">
        <ele>1719.888665026</ele>
        <time>2016-08-19T08:22:58Z</time>
      </trkpt>
      <trkpt lat="45.42542" lon="5.93421">
        <ele>1719.888665026</ele>
        <time>2016-08-19T08:23:03Z</time>
      </trkpt>
      <trkpt lat="45.42549" lon="5.93425">
        <ele>1721.425761999</ele>
        <time>2016-08-19T08:23:13Z</time>
      </trkpt>
      <trkpt lat="45.42551" lon="5.9343">
        <ele>1721.425761999</ele>
        <time>2016-08-19T08:23:18Z</time>
      </trkpt>
      <trkpt lat="45.4256" lon="5.93436">
        <ele>1722.86110396</ele>
        <time>2016-08-19T08:23:28Z</time>
      </trkpt>
      <trkpt lat="45.42564" lon="5.93438">
        <ele>1722.86110396</ele>
        <time>2016-08-19T08:23:32Z</time>
      </trkpt>
      <trkpt lat="45.42575" lon="5.93443">
        <ele>1724.196259178</ele>
        <time>2016-08-19T08:23:43Z</time>
      </trkpt>
      <trkpt lat="45.4258" lon="5.93446">
        <ele>1724.196259178</ele>
        <time>2016-08-19T08:23:48Z</time>
      </trkpt>
      <trkpt lat="45.42587" lon="5.93454">
        <ele>1725.433088598</ele>
        <time>2016-08-19T08:23:58Z</time>
      </trkpt>
      <trkpt lat="45.42592" lon="5.93454">
        <ele>1725.433088598</ele>
        <time>2016-08-19T08:24:03Z</time>
      </trkpt>
      <trkpt lat="45.42601" lon="5.93452">
        <ele>1726.285503262</ele>
        <time>2016-08-19T08:24:13Z</time>
      </trkpt>
      <trkpt lat="45.42605" lon="5.93456">
        <ele>1726.285503262</ele>
        <time>2016-08-19T08:24:18Z</time>
      </trkpt>
      <trkpt lat="45.42615" lon="5.93463">
        <ele>1727.354313731</ele>
        <time>2016-08-19T08:24:28Z</time>
      </trkpt>
      <trkpt lat="45.42616" lon="5.93464">
        <ele>1727.354313731</ele>
        <time>2016-08-19T08:24:33Z</time>
      </trkpt>
      <trkpt lat="45.42616" lon="5.93466">
        <ele>1727.354313731</ele>
        <time>2016-08-19T08:24:43Z</time>
      </trkpt>
      <trkpt lat="45.42616" lon="5.93465">
        <ele>1727.354313731</ele>
        <time>2016-08-19T08:24:48Z</time>
      </trkpt>
      <trkpt lat="45.42623" lon="5.93475">
        <ele>1728.042839794</ele>
        <time>2016-08-19T08:24:58Z</time>
      </trkpt>
      <trkpt lat="45.42624" lon="5.93476">
        <ele>1728.042839794</ele>
        <time>2016-08-19T08:25:03Z</time>
      </trkpt>
      <trkpt lat="45.42635" lon="5.93486">
        <ele>1728.664108534</ele>
        <time>2016-08-19T08:25:18Z</time>
      </trkpt>
      <trkpt lat="45.42639" lon="5.93488">
        <ele>1728.664108534</ele>
        <time>2016-08-19T08:25:23Z</time>
      </trkpt>
      <trkpt lat="45.42646" lon="5.93493">
        <ele>1729.076148213</ele>
        <time>2016-08-19T08:25:33Z</time>
      </trkpt>
      <trkpt lat="45.42648" lon="5.93499">
        <ele>1729.076148213</ele>
        <time>2016-08-19T08:25:38Z</time>
      </trkpt>
      <trkpt lat="45.42655" lon="5.93507">
        <ele>1730.012809739</ele>
        <time>2016-08-19T08:25:48Z</time>
      </trkpt>
      <trkpt lat="45.42657" lon="5.93507">
        <ele>1730.012809739</ele>
        <time>2016-08-19T08:25:53Z</time>
      </trkpt>
      <trkpt lat="45.42658" lon="5.93507">
        <ele>1730.012809739</ele>
        <time>2016-08-19T08:26:03Z</time>
      </trkpt>
      <trkpt lat="45.42662" lon="5.93508">
        <ele>1730.012809739</ele>
        <time>2016-08-19T08:26:08Z</time>
      </trkpt>
      <trkpt lat="45.42671" lon="5.93512">
        <ele>1731.72036947</ele>
        <time>2016-08-19T08:26:18Z</time>
      </trkpt>
      <trkpt lat="45.42674" lon="5.93515">
        <ele>1731.72036947</ele>
        <time>2016-08-19T08:26:23Z</time>
      </trkpt>
      <trkpt lat="45.42681" lon="5.93519">
        <ele>1732.83976554</ele>
        <time>2016-08-19T08:26:33Z</time>
      </trkpt>
      <trkpt lat="45.42686" lon="5.93526">
        <ele>1732.83976554</ele>
        <time>2016-08-19T08:26:38Z</time>
      </trkpt>
      <trkpt lat="45.42695" lon="5.93533">
        <ele>1734.563452111</ele>
        <time>2016-08-19T08:26:48Z</time>
      </trkpt>
      <trkpt lat="45.42699" lon="5.93535">
        <ele>1734.563452111</ele>
        <time>2016-08-19T08:26:53Z</time>
      </trkpt>
      <trkpt lat="45.42712" lon="5.93537">
        <ele>1735.97717772</ele>
        <time>2016-08-19T08:27:03Z</time>
      </trkpt>
      <trkpt lat="45.42718" lon="5.9354">
        <ele>1735.97717772</ele>
        <time>2016-08-19T08:27:08Z</time>
      </trkpt>
      <trkpt lat="45.42726" lon="5.93544">
        <ele>1736.811310014</ele>
        <time>2016-08-19T08:27:18Z</time>
      </trkpt>
      <trkpt lat="45.42731" lon="5.93546">
        <ele>1736.811310014</ele>
        <time>2016-08-19T08:27:23Z</time>
      </trkpt>
      <trkpt lat="45.42741" lon="5.93557">
        <ele>1737.250127006</ele>
        <time>2016-08-19T08:27:38Z</time>
      </trkpt>
      <trkpt lat="45.42758" lon="5.93568">
        <ele>1737.897953967</ele>
        <time>2016-08-19T08:27:53Z</time>
      </trkpt>
      <trkpt lat="45.42764" lon="5.93568">
        <ele>1737.897953967</ele>
        <time>2016-08-19T08:27:58Z</time>
      </trkpt>
      <trkpt lat="45.42764" lon="5.9357">
        <ele>1737.897953967</ele>
        <time>2016-08-19T08:28:08Z</time>
      </trkpt>
      <trkpt lat="45.42764" lon="5.93571">
        <ele>1737.897953967</ele>
        <time>2016-08-19T08:28:12Z</time>
      </trkpt>
      <trkpt lat="45.42764" lon="5.93571">
        <ele>1737.897953967</ele>
        <time>2016-08-19T08:28:17Z</time>
      </trkpt>
      <trkpt lat="45.42763" lon="5.93571">
        <ele>1737.897953967</ele>
        <time>2016-08-19T08:28:22Z</time>
      </trkpt>
      <trkpt lat="45.42764" lon="5.9357">
        <ele>1739.026052146</ele>
        <time>2016-08-19T08:28:27Z</time>
      </trkpt>
      <trkpt lat="45.42764" lon="5.9357">
        <ele>1739.026052146</ele>
        <time>2016-08-19T08:28:37Z</time>
      </trkpt>
      <trkpt lat="45.42764" lon="5.9357">
        <ele>1739.026052146</ele>
        <time>2016-08-19T08:28:42Z</time>
      </trkpt>
      <trkpt lat="45.42764" lon="5.9357">
        <ele>1739.026052146</ele>
        <time>2016-08-19T08:28:47Z</time>
      </trkpt>
      <trkpt lat="45.42765" lon="5.9357">
        <ele>1739.026052146</ele>
        <time>2016-08-19T08:28:52Z</time>
      </trkpt>
      <trkpt lat="45.42771" lon="5.9357">
        <ele>1739.026052146</ele>
        <time>2016-08-19T08:28:57Z</time>
      </trkpt>
      <trkpt lat="45.42775" lon="5.93573">
        <ele>1739.443429577</ele>
        <time>2016-08-19T08:29:02Z</time>
      </trkpt>
      <trkpt lat="45.42778" lon="5.93573">
        <ele>1739.443429577</ele>
        <time>2016-08-19T08:29:07Z</time>
      </trkpt>
      <trkpt lat="45.4278" lon="5.93573">
        <ele>1739.443429577</ele>
        <time>2016-08-19T08:29:12Z</time>
      </trkpt>
      <trkpt lat="45.4278" lon="5.93573">
        <ele>1739.443429577</ele>
        <time>2016-08-19T08:29:18Z</time>
      </trkpt>
      <trkpt lat="45.42786" lon="5.93577">
        <ele>1738.913369799</ele>
        <time>2016-08-19T08:29:28Z</time>
      </trkpt>
      <trkpt lat="45.4279" lon="5.9358">
        <ele>1738.913369799</ele>
        <time>2016-08-19T08:29:34Z</time>
      </trkpt>
      <trkpt lat="45.42791" lon="5.93581">
        <ele>1738.913369799</ele>
        <time>2016-08-19T08:29:38Z</time>
      </trkpt>
      <trkpt lat="45.42791" lon="5.93582">
        <ele>1738.913369799</ele>
        <time>2016-08-19T08:29:42Z</time>
      </trkpt>
      <trkpt lat="45.42791" lon="5.93581">
        <ele>1738.913369799</ele>
        <time>2016-08-19T08:29:47Z</time>
      </trkpt>
      <trkpt lat="45.42791" lon="5.93581">
        <ele>1738.913369799</ele>
        <time>2016-08-19T08:29:52Z</time>
      </trkpt>
      <trkpt lat="45.42791" lon="5.93581">
        <ele>1738.913369799</ele>
        <time>2016-08-19T08:29:57Z</time>
      </trkpt>
      <trkpt lat="45.42791" lon="5.93581">
        <ele>1738.913369799</ele>
        <time>2016-08-19T08:30:02Z</time>
      </trkpt>
      <trkpt lat="45.42791" lon="5.93581">
        <ele>1738.913369799</ele>
        <time>2016-08-19T08:30:07Z</time>
      </trkpt>
      <trkpt lat="45.42791" lon="5.93581">
        <ele>1738.913369799</ele>
        <time>2016-08-19T08:30:12Z</time>
      </trkpt>
      <trkpt lat="45.42791" lon="5.93581">
        <ele>1738.913369799</ele>
        <time>2016-08-19T08:30:17Z</time>
      </trkpt>
      <trkpt lat="45.42791" lon="5.93581">
        <ele>1738.913369799</ele>
        <time>2016-08-19T08:30:22Z</time>
      </trkpt>
      <trkpt lat="45.42791" lon="5.93581">
        <ele>1738.913369799</ele>
        <time>2016-08-19T08:30:27Z</time>
      </trkpt>
      <trkpt lat="45.42791" lon="5.93581">
        <ele>1738.913369799</ele>
        <time>2016-08-19T08:30:33Z</time>
      </trkpt>
      <trkpt lat="45.42792" lon="5.93583">
        <ele>1738.913369799</ele>
        <time>2016-08-19T08:30:38Z</time>
      </trkpt>
      <trkpt lat="45.42797" lon="5.93587">
        <ele>1738.37220911</ele>
        <time>2016-08-19T08:30:48Z</time>
      </trkpt>
      <trkpt lat="45.42801" lon="5.93588">
        <ele>1738.37220911</ele>
        <time>2016-08-19T08:30:53Z</time>
      </trkpt>
      <trkpt lat="45.4281" lon="5.93591">
        <ele>1737.390636454</ele>
        <time>2016-08-19T08:31:03Z</time>
      </trkpt>
      <trkpt lat="45.42815" lon="5.93592">
        <ele>1737.390636454</ele>
        <time>2016-08-19T08:31:08Z</time>
      </trkpt>
      <trkpt lat="45.42819" lon="5.93595">
        <ele>1736.580981687</ele>
        <time>2016-08-19T08:31:18Z</time>
      </trkpt>
      <trkpt lat="45.42824" lon="5.93598">
        <ele>1736.580981687</ele>
        <time>2016-08-19T08:31:23Z</time>
      </trkpt>
      <trkpt lat="45.42831" lon="5.93606">
        <ele>1735.645518541</ele>
        <time>2016-08-19T08:31:32Z</time>
      </trkpt>
      <trkpt lat="45.42835" lon="5.9361">
        <ele>1735.645518541</ele>
        <time>2016-08-19T08:31:38Z</time>
      </trkpt>
      <trkpt lat="45.4284" lon="5.93617">
        <ele>1734.885248483</ele>
        <time>2016-08-19T08:31:48Z</time>
      </trkpt>
      <trkpt lat="45.4284" lon="5.93616">
        <ele>1734.885248483</ele>
        <time>2016-08-19T08:31:53Z</time>
      </trkpt>
      <trkpt lat="45.42844" lon="5.93619">
        <ele>1734.885248483</ele>
        <time>2016-08-19T08:32:03Z</time>
      </trkpt>
      <trkpt lat="45.42849" lon="5.93623">
        <ele>1734.434504335</ele>
        <time>2016-08-19T08:32:08Z</time>
      </trkpt>
      <trkpt lat="45.4286" lon="5.93625">
        <ele>1733.840470783</ele>
        <time>2016-08-19T08:32:18Z</time>
      </trkpt>
      <trkpt lat="45.42859" lon="5.93625">
        <ele>1733.840470783</ele>
        <time>2016-08-19T08:32:23Z</time>
      </trkpt>
      <trkpt lat="45.42867" lon="5.93619">
        <ele>1732.972241691</ele>
        <time>2016-08-19T08:32:33Z</time>
      </trkpt>
      <trkpt lat="45.42871" lon="5.93617">
        <ele>1732.972241691</ele>
        <time>2016-08-19T08:32:38Z</time>
      </trkpt>
      <trkpt lat="45.42879" lon="5.93616">
        <ele>1731.853417949</ele>
        <time>2016-08-19T08:32:48Z</time>
      </trkpt>
      <trkpt lat="45.42883" lon="5.93617">
        <ele>1731.853417949</ele>
        <time>2016-08-19T08:32:53Z</time>
      </trkpt>
      <trkpt lat="45.42884" lon="5.93614">
        <ele>1731.853417949</ele>
        <time>2016-08-19T08:33:03Z</time>
      </trkpt>
      <trkpt lat="45.42884" lon="5.93615">
        <ele>1731.853417949</ele>
        <time>2016-08-19T08:33:08Z</time>
      </trkpt>
      <trkpt lat="45.42884" lon="5.93615">
        <ele>1731.853417949</ele>
        <time>2016-08-19T08:33:18Z</time>
      </trkpt>
      <trkpt lat="45.42885" lon="5.93614">
        <ele>1731.853417949</ele>
        <time>2016-08-19T08:33:22Z</time>
      </trkpt>
      <trkpt lat="45.42898" lon="5.93612">
        <ele>1730.362457377</ele>
        <time>2016-08-19T08:33:33Z</time>
      </trkpt>
      <trkpt lat="45.42899" lon="5.9361">
        <ele>1730.362457377</ele>
        <time>2016-08-19T08:33:38Z</time>
      </trkpt>
      <trkpt lat="45.42902" lon="5.93611">
        <ele>1730.362457377</ele>
        <time>2016-08-19T08:33:48Z</time>
      </trkpt>
      <trkpt lat="45.42907" lon="5.93613">
        <ele>1728.675998534</ele>
        <time>2016-08-19T08:33:53Z</time>
      </trkpt>
      <trkpt lat="45.42912" lon="5.93613">
        <ele>1728.675998534</ele>
        <time>2016-08-19T08:33:58Z</time>
      </trkpt>
      <trkpt lat="45.42913" lon="5.93614">
        <ele>1728.675998534</ele>
        <time>2016-08-19T08:34:08Z</time>
      </trkpt>
      <trkpt lat="45.42918" lon="5.93616">
        <ele>1726.958224973</ele>
        <time>2016-08-19T08:34:14Z</time>
      </trkpt>
      <trkpt lat="45.42928" lon="5.93617">
        <ele>1725.073082859</ele>
        <time>2016-08-19T08:34:23Z</time>
      </trkpt>
      <trkpt lat="45.42934" lon="5.9362">
        <ele>1725.073082859</ele>
        <time>2016-08-19T08:34:28Z</time>
      </trkpt>
      <trkpt lat="45.42942" lon="5.93632">
        <ele>1723.039036784</ele>
        <time>2016-08-19T08:34:38Z</time>
      </trkpt>
      <trkpt lat="45.42946" lon="5.93636">
        <ele>1723.039036784</ele>
        <time>2016-08-19T08:34:43Z</time>
      </trkpt>
      <trkpt lat="45.4295" lon="5.93644">
        <ele>1720.729430123</ele>
        <time>2016-08-19T08:34:53Z</time>
      </trkpt>
      <trkpt lat="45.4295" lon="5.93644">
        <ele>1720.729430123</ele>
        <time>2016-08-19T08:34:58Z</time>
      </trkpt>
      <trkpt lat="45.42953" lon="5.93649">
        <ele>1720.729430123</ele>
        <time>2016-08-19T08:35:13Z</time>
      </trkpt>
      <trkpt lat="45.42957" lon="5.93649">
        <ele>1720.729430123</ele>
        <time>2016-08-19T08:35:18Z</time>
      </trkpt>
      <trkpt lat="45.42957" lon="5.93657">
        <ele>1718.459931199</ele>
        <time>2016-08-19T08:35:28Z</time>
      </trkpt>
      <trkpt lat="45.42959" lon="5.93661">
        <ele>1718.459931199</ele>
        <time>2016-08-19T08:35:32Z</time>
      </trkpt>
      <trkpt lat="45.42961" lon="5.93673">
        <ele>1716.522807871</ele>
        <time>2016-08-19T08:35:42Z</time>
      </trkpt>
      <trkpt lat="45.42961" lon="5.93671">
        <ele>1716.522807871</ele>
        <time>2016-08-19T08:35:47Z</time>
      </trkpt>
      <trkpt lat="45.42954" lon="5.93686">
        <ele>1715.187815335</ele>
        <time>2016-08-19T08:35:58Z</time>
      </trkpt>
      <trkpt lat="45.42951" lon="5.93693">
        <ele>1715.187815335</ele>
        <time>2016-08-19T08:36:03Z</time>
      </trkpt>
      <trkpt lat="45.42945" lon="5.93705">
        <ele>1714.703085727</ele>
        <time>2016-08-19T08:36:13Z</time>
      </trkpt>
      <trkpt lat="45.42945" lon="5.9371">
        <ele>1714.703085727</ele>
        <time>2016-08-19T08:36:18Z</time>
      </trkpt>
      <trkpt lat="45.42946" lon="5.93722">
        <ele>1714.287239018</ele>
        <time>2016-08-19T08:36:28Z</time>
      </trkpt>
      <trkpt lat="45.42948" lon="5.93729">
        <ele>1714.287239018</ele>
        <time>2016-08-19T08:36:33Z</time>
      </trkpt>
      <trkpt lat="45.42947" lon="5.9374">
        <ele>1714.080648727</ele>
        <time>2016-08-19T08:36:43Z</time>
      </trkpt>
      <trkpt lat="45.42947" lon="5.93742">
        <ele>1714.080648727</ele>
        <time>2016-08-19T08:36:48Z</time>
      </trkpt>
      <trkpt lat="45.42944" lon="5.93744">
        <ele>1714.080648727</ele>
        <time>2016-08-19T08:36:58Z</time>
      </trkpt>
      <trkpt lat="45.42944" lon="5.93744">
        <ele>1714.080648727</ele>
        <time>2016-08-19T08:37:02Z</time>
      </trkpt>
      <trkpt lat="45.42944" lon="5.93744">
        <ele>1714.080648727</ele>
        <time>2016-08-19T08:37:07Z</time>
      </trkpt>
      <trkpt lat="45.42944" lon="5.93744">
        <ele>1714.080648727</ele>
        <time>2016-08-19T08:37:12Z</time>
      </trkpt>
      <trkpt lat="45.42944" lon="5.93744">
        <ele>1714.080648727</ele>
        <time>2016-08-19T08:37:22Z</time>
      </trkpt>
      <trkpt lat="45.42944" lon="5.93744">
        <ele>1714.080648727</ele>
        <time>2016-08-19T08:37:27Z</time>
      </trkpt>
      <trkpt lat="45.42944" lon="5.93744">
        <ele>1714.080648727</ele>
        <time>2016-08-19T08:37:37Z</time>
      </trkpt>
      <trkpt lat="45.42944" lon="5.93744">
        <ele>1714.080648727</ele>
        <time>2016-08-19T08:37:42Z</time>
      </trkpt>
      <trkpt lat="45.42944" lon="5.93743">
        <ele>1714.080648727</ele>
        <time>2016-08-19T08:37:52Z</time>
      </trkpt>
      <trkpt lat="45.42944" lon="5.93743">
        <ele>1714.080648727</ele>
        <time>2016-08-19T08:37:57Z</time>
      </trkpt>
      <trkpt lat="45.42946" lon="5.93738">
        <ele>1713.636228983</ele>
        <time>2016-08-19T08:38:07Z</time>
      </trkpt>
      <trkpt lat="45.42946" lon="5.93731">
        <ele>1713.636228983</ele>
        <time>2016-08-19T08:38:12Z</time>
      </trkpt>
      <trkpt lat="45.42941" lon="5.93724">
        <ele>1712.828514963</ele>
        <time>2016-08-19T08:38:22Z</time>
      </trkpt>
      <trkpt lat="45.42942" lon="5.93724">
        <ele>1712.828514963</ele>
        <time>2016-08-19T08:38:27Z</time>
      </trkpt>
      <trkpt lat="45.42944" lon="5.93719">
        <ele>1712.828514963</ele>
        <time>2016-08-19T08:38:42Z</time>
      </trkpt>
      <trkpt lat="45.42944" lon="5.9372">
        <ele>1712.828514963</ele>
        <time>2016-08-19T08:38:47Z</time>
      </trkpt>
      <trkpt lat="45.42943" lon="5.9372">
        <ele>1712.828514963</ele>
        <time>2016-08-19T08:38:52Z</time>
      </trkpt>
      <trkpt lat="45.42943" lon="5.9372">
        <ele>1712.828514963</ele>
        <time>2016-08-19T08:38:57Z</time>
      </trkpt>
      <trkpt lat="45.42944" lon="5.9372">
        <ele>1712.828514963</ele>
        <time>2016-08-19T08:39:07Z</time>
      </trkpt>
      <trkpt lat="45.42945" lon="5.93721">
        <ele>1712.828514963</ele>
        <time>2016-08-19T08:39:12Z</time>
      </trkpt>
      <trkpt lat="45.42949" lon="5.93722">
        <ele>1714</ele>
        <time>2016-08-19T08:40:00Z</time>
      </trkpt>
      <trkpt lat="45.42949" lon="5.93722">
        <ele>1714</ele>
        <time>2016-08-19T08:40:05Z</time>
      </trkpt>
      <trkpt lat="45.42949" lon="5.93722">
        <ele>1714</ele>
        <time>2016-08-19T08:40:10Z</time>
      </trkpt>
      <trkpt lat="45.42949" lon="5.93722">
        <ele>1714</ele>
        <time>2016-08-19T08:40:15Z</time>
      </trkpt>
      <trkpt lat="45.42949" lon="5.93722">
        <ele>1714</ele>
        <time>2016-08-19T08:40:20Z</time>
      </trkpt>
      <trkpt lat="45.42949" lon="5.93722">
        <ele>1714</ele>
        <time>2016-08-19T08:40:25Z</time>
      </trkpt>
      <trkpt lat="45.42949" lon="5.93722">
        <ele>1714</ele>
        <time>2016-08-19T08:40:30Z</time>
      </trkpt>
      <trkpt lat="45.42949" lon="5.93722">
        <ele>1714</ele>
        <time>2016-08-19T08:40:35Z</time>
      </trkpt>
      <trkpt lat="45.42949" lon="5.93722">
        <ele>1714</ele>
        <time>2016-08-19T08:40:40Z</time>
      </trkpt>
      <trkpt lat="45.42949" lon="5.93722">
        <ele>1714</ele>
        <time>2016-08-19T08:40:45Z</time>
      </trkpt>
      <trkpt lat="45.42949" lon="5.93722">
        <ele>1714</ele>
        <time>2016-08-19T08:40:50Z</time>
      </trkpt>
      <trkpt lat="45.42949" lon="5.93722">
        <ele>1714</ele>
        <time>2016-08-19T08:40:55Z</time>
      </trkpt>
      <trkpt lat="45.42949" lon="5.93722">
        <ele>1714</ele>
        <time>2016-08-19T08:41:00Z</time>
      </trkpt>
      <trkpt lat="45.42949" lon="5.93722">
        <ele>1714</ele>
        <time>2016-08-19T08:41:05Z</time>
      </trkpt>
      <trkpt lat="45.42949" lon="5.93722">
        <ele>1714</ele>
        <time>2016-08-19T08:41:10Z</time>
      </trkpt>
      <trkpt lat="45.42949" lon="5.93722">
        <ele>1714</ele>
        <time>2016-08-19T08:41:15Z</time>
      </trkpt>
      <trkpt lat="45.42949" lon="5.93722">
        <ele>1714</ele>
        <time>2016-08-19T08:41:25Z</time>
      </trkpt>
      <trkpt lat="45.42949" lon="5.93722">
        <ele>1714</ele>
        <time>2016-08-19T08:41:30Z</time>
      </trkpt>
      <trkpt lat="45.42949" lon="5.93722">
        <ele>1714</ele>
        <time>2016-08-19T08:41:40Z</time>
      </trkpt>
      <trkpt lat="45.42949" lon="5.93722">
        <ele>1714</ele>
        <time>2016-08-19T08:41:45Z</time>
      </trkpt>
      <trkpt lat="45.42949" lon="5.93722">
        <ele>1714</ele>
        <time>2016-08-19T08:41:55Z</time>
      </trkpt>
      <trkpt lat="45.42949" lon="5.93722">
        <ele>1714</ele>
        <time>2016-08-19T08:42:00Z</time>
      </trkpt>
      <trkpt lat="45.42949" lon="5.93722">
        <ele>1714</ele>
        <time>2016-08-19T08:42:10Z</time>
      </trkpt>
      <trkpt lat="45.42949" lon="5.93722">
        <ele>1714</ele>
        <time>2016-08-19T08:42:15Z</time>
      </trkpt>
      <trkpt lat="45.42949" lon="5.93722">
        <ele>1714</ele>
        <time>2016-08-19T08:42:25Z</time>
      </trkpt>
      <trkpt lat="45.42949" lon="5.93722">
        <ele>1714</ele>
        <time>2016-08-19T08:42:30Z</time>
      </trkpt>
      <trkpt lat="45.42949" lon="5.93722">
        <ele>1714</ele>
        <time>2016-08-19T08:42:35Z</time>
      </trkpt>
      <trkpt lat="45.42949" lon="5.93722">
        <ele>1714</ele>
        <time>2016-08-19T08:42:40Z</time>
      </trkpt>
      <trkpt lat="45.42949" lon="5.93722">
        <ele>1715</ele>
        <time>2016-08-19T08:42:49Z</time>
      </trkpt>
      <trkpt lat="45.42949" lon="5.93722">
        <ele>1715</ele>
        <time>2016-08-19T08:42:54Z</time>
      </trkpt>
      <trkpt lat="45.42949" lon="5.93722">
        <ele>1715</ele>
        <time>2016-08-19T08:43:04Z</time>
      </trkpt>
      <trkpt lat="45.42949" lon="5.93722">
        <ele>1715</ele>
        <time>2016-08-19T08:43:09Z</time>
      </trkpt>
      <trkpt lat="45.42949" lon="5.93722">
        <ele>1715</ele>
        <time>2016-08-19T08:43:19Z</time>
      </trkpt>
      <trkpt lat="45.42949" lon="5.93722">
        <ele>1715</ele>
        <time>2016-08-19T08:43:24Z</time>
      </trkpt>
      <trkpt lat="45.42949" lon="5.93722">
        <ele>1715</ele>
        <time>2016-08-19T08:43:35Z</time>
      </trkpt>
      <trkpt lat="45.42949" lon="5.93722">
        <ele>1715</ele>
        <time>2016-08-19T08:43:39Z</time>
      </trkpt>
      <trkpt lat="45.42949" lon="5.93722">
        <ele>1715</ele>
        <time>2016-08-19T08:43:49Z</time>
      </trkpt>
      <trkpt lat="45.42949" lon="5.93722">
        <ele>1715</ele>
        <time>2016-08-19T08:43:54Z</time>
      </trkpt>
      <trkpt lat="45.42949" lon="5.93722">
        <ele>1715</ele>
        <time>2016-08-19T08:43:59Z</time>
      </trkpt>
      <trkpt lat="45.42949" lon="5.93722">
        <ele>1715</ele>
        <time>2016-08-19T08:44:04Z</time>
      </trkpt>
      <trkpt lat="45.42949" lon="5.93722">
        <ele>1715</ele>
        <time>2016-08-19T08:44:09Z</time>
      </trkpt>
      <trkpt lat="45.42949" lon="5.93722">
        <ele>1715</ele>
        <time>2016-08-19T08:44:14Z</time>
      </trkpt>
      <trkpt lat="45.42949" lon="5.93722">
        <ele>1715</ele>
        <time>2016-08-19T08:44:19Z</time>
      </trkpt>
      <trkpt lat="45.42949" lon="5.93722">
        <ele>1715</ele>
        <time>2016-08-19T08:44:24Z</time>
      </trkpt>
      <trkpt lat="45.42949" lon="5.93722">
        <ele>1715</ele>
        <time>2016-08-19T08:44:29Z</time>
      </trkpt>
      <trkpt lat="45.42949" lon="5.93722">
        <ele>1715</ele>
        <time>2016-08-19T08:44:34Z</time>
      </trkpt>
      <trkpt lat="45.42949" lon="5.93718">
        <ele>1715</ele>
        <time>2016-08-19T08:44:39Z</time>
      </trkpt>
      <trkpt lat="45.42951" lon="5.93713">
        <ele>1715</ele>
        <time>2016-08-19T08:44:49Z</time>
      </trkpt>
      <trkpt lat="45.4295" lon="5.93711">
        <ele>1715</ele>
        <time>2016-08-19T08:44:54Z</time>
      </trkpt>
      <trkpt lat="45.42952" lon="5.93699">
        <ele>1712.445241906</ele>
        <time>2016-08-19T08:45:04Z</time>
      </trkpt>
      <trkpt lat="45.42955" lon="5.93696">
        <ele>1712.445241906</ele>
        <time>2016-08-19T08:45:09Z</time>
      </trkpt>
      <trkpt lat="45.42959" lon="5.93689">
        <ele>1719.020926696</ele>
        <time>2016-08-19T08:45:19Z</time>
      </trkpt>
      <trkpt lat="45.42963" lon="5.93681">
        <ele>1719.020926696</ele>
        <time>2016-08-19T08:45:24Z</time>
      </trkpt>
      <trkpt lat="45.42968" lon="5.93665">
        <ele>1726.637607239</ele>
        <time>2016-08-19T08:45:35Z</time>
      </trkpt>
      <trkpt lat="45.4297" lon="5.9366">
        <ele>1726.637607239</ele>
        <time>2016-08-19T08:45:41Z</time>
      </trkpt>
      <trkpt lat="45.42978" lon="5.93658">
        <ele>1734.325060827</ele>
        <time>2016-08-19T08:45:56Z</time>
      </trkpt>
      <trkpt lat="45.42979" lon="5.93658">
        <ele>1734.325060827</ele>
        <time>2016-08-19T08:46:00Z</time>
      </trkpt>
      <trkpt lat="45.42986" lon="5.93655">
        <ele>1734.325060827</ele>
        <time>2016-08-19T08:46:10Z</time>
      </trkpt>
      <trkpt lat="45.42988" lon="5.93656">
        <ele>1741.898111165</ele>
        <time>2016-08-19T08:46:14Z</time>
      </trkpt>
      <trkpt lat="45.42996" lon="5.93659">
        <ele>1741.898111165</ele>
        <time>2016-08-19T08:46:26Z</time>
      </trkpt>
      <trkpt lat="45.43002" lon="5.93662">
        <ele>1748.946608988</ele>
        <time>2016-08-19T08:46:30Z</time>
      </trkpt>
      <trkpt lat="45.43012" lon="5.93664">
        <ele>1755.333014242</ele>
        <time>2016-08-19T08:46:41Z</time>
      </trkpt>
      <trkpt lat="45.43016" lon="5.93668">
        <ele>1755.333014242</ele>
        <time>2016-08-19T08:46:45Z</time>
      </trkpt>
      <trkpt lat="45.4302" lon="5.9367">
        <ele>1755.333014242</ele>
        <time>2016-08-19T08:46:56Z</time>
      </trkpt>
      <trkpt lat="45.43021" lon="5.93672">
        <ele>1760.272512634</ele>
        <time>2016-08-19T08:47:00Z</time>
      </trkpt>
      <trkpt lat="45.43027" lon="5.93681">
        <ele>1760.272512634</ele>
        <time>2016-08-19T08:47:11Z</time>
      </trkpt>
      <trkpt lat="45.4303" lon="5.93687">
        <ele>1763.679987722</ele>
        <time>2016-08-19T08:47:15Z</time>
      </trkpt>
      <trkpt lat="45.43033" lon="5.93704">
        <ele>1766.877845698</ele>
        <time>2016-08-19T08:47:25Z</time>
      </trkpt>
      <trkpt lat="45.43034" lon="5.93713">
        <ele>1766.877845698</ele>
        <time>2016-08-19T08:47:30Z</time>
      </trkpt>
      <trkpt lat="45.43036" lon="5.93722">
        <ele>1768.989092193</ele>
        <time>2016-08-19T08:47:40Z</time>
      </trkpt>
      <trkpt lat="45.43037" lon="5.93724">
        <ele>1768.989092193</ele>
        <time>2016-08-19T08:47:46Z</time>
      </trkpt>
      <trkpt lat="45.43037" lon="5.93724">
        <ele>1768.989092193</ele>
        <time>2016-08-19T08:47:56Z</time>
      </trkpt>
      <trkpt lat="45.43037" lon="5.93724">
        <ele>1768.989092193</ele>
        <time>2016-08-19T08:48:00Z</time>
      </trkpt>
      <trkpt lat="45.43036" lon="5.93729">
        <ele>1768.989092193</ele>
        <time>2016-08-19T08:48:04Z</time>
      </trkpt>
      <trkpt lat="45.43041" lon="5.93734">
        <ele>1769.296394307</ele>
        <time>2016-08-19T08:48:16Z</time>
      </trkpt>
      <trkpt lat="45.43041" lon="5.93735">
        <ele>1769.296394307</ele>
        <time>2016-08-19T08:48:20Z</time>
      </trkpt>
      <trkpt lat="45.4304" lon="5.93743">
        <ele>1769.296394307</ele>
        <time>2016-08-19T08:48:31Z</time>
      </trkpt>
      <trkpt lat="45.4304" lon="5.93743">
        <ele>1769.296394307</ele>
        <time>2016-08-19T08:48:35Z</time>
      </trkpt>
      <trkpt lat="45.43041" lon="5.93744">
        <ele>1769.296394307</ele>
        <time>2016-08-19T08:48:45Z</time>
      </trkpt>
      <trkpt lat="45.43043" lon="5.93751">
        <ele>1769.868563776</ele>
        <time>2016-08-19T08:48:50Z</time>
      </trkpt>
      <trkpt lat="45.43046" lon="5.93759">
        <ele>1769.868563776</ele>
        <time>2016-08-19T08:49:00Z</time>
      </trkpt>
      <trkpt lat="45.43046" lon="5.93763">
        <ele>1769.868563776</ele>
        <time>2016-08-19T08:49:05Z</time>
      </trkpt>
      <trkpt lat="45.43051" lon="5.93771">
        <ele>1769.454982138</ele>
        <time>2016-08-19T08:49:15Z</time>
      </trkpt>
      <trkpt lat="45.43057" lon="5.93771">
        <ele>1769.454982138</ele>
        <time>2016-08-19T08:49:20Z</time>
      </trkpt>
      <trkpt lat="45.43059" lon="5.93777">
        <ele>1768.920743426</ele>
        <time>2016-08-19T08:49:29Z</time>
      </trkpt>
      <trkpt lat="45.4306" lon="5.93777">
        <ele>1768.920743426</ele>
        <time>2016-08-19T08:49:34Z</time>
      </trkpt>
      <trkpt lat="45.43074" lon="5.93777">
        <ele>1767.885266493</ele>
        <time>2016-08-19T08:49:45Z</time>
      </trkpt>
      <trkpt lat="45.43076" lon="5.93776">
        <ele>1767.885266493</ele>
        <time>2016-08-19T08:49:50Z</time>
      </trkpt>
      <trkpt lat="45.43084" lon="5.93769">
        <ele>1767.306731783</ele>
        <time>2016-08-19T08:50:00Z</time>
      </trkpt>
      <trkpt lat="45.43091" lon="5.93766">
        <ele>1767.306731783</ele>
        <time>2016-08-19T08:50:05Z</time>
      </trkpt>
      <trkpt lat="45.431" lon="5.93762">
        <ele>1766.722136185</ele>
        <time>2016-08-19T08:50:15Z</time>
      </trkpt>
      <trkpt lat="45.43104" lon="5.9376">
        <ele>1766.722136185</ele>
        <time>2016-08-19T08:50:20Z</time>
      </trkpt>
      <trkpt lat="45.43111" lon="5.93758">
        <ele>1766.18714964</ele>
        <time>2016-08-19T08:50:29Z</time>
      </trkpt>
      <trkpt lat="45.43117" lon="5.93757">
        <ele>1766.18714964</ele>
        <time>2016-08-19T08:50:35Z</time>
      </trkpt>
      <trkpt lat="45.43123" lon="5.93755">
        <ele>1765.581203705</ele>
        <time>2016-08-19T08:50:45Z</time>
      </trkpt>
      <trkpt lat="45.43125" lon="5.93754">
        <ele>1765.581203705</ele>
        <time>2016-08-19T08:50:50Z</time>
      </trkpt>
      <trkpt lat="45.43135" lon="5.93752">
        <ele>1764.480575057</ele>
        <time>2016-08-19T08:51:05Z</time>
      </trkpt>
      <trkpt lat="45.43145" lon="5.93755">
        <ele>1763.575163422</ele>
        <time>2016-08-19T08:51:20Z</time>
      </trkpt>
      <trkpt lat="45.43146" lon="5.93755">
        <ele>1763.575163422</ele>
        <time>2016-08-19T08:51:25Z</time>
      </trkpt>
      <trkpt lat="45.43146" lon="5.93756">
        <ele>1763.575163422</ele>
        <time>2016-08-19T08:51:34Z</time>
      </trkpt>
      <trkpt lat="45.43146" lon="5.93756">
        <ele>1763.575163422</ele>
        <time>2016-08-19T08:51:40Z</time>
      </trkpt>
      <trkpt lat="45.43141" lon="5.93755">
        <ele>1763.575163422</ele>
        <time>2016-08-19T08:51:50Z</time>
      </trkpt>
      <trkpt lat="45.43141" lon="5.93755">
        <ele>1763.575163422</ele>
        <time>2016-08-19T08:51:55Z</time>
      </trkpt>
      <trkpt lat="45.43141" lon="5.93756">
        <ele>1763.575163422</ele>
        <time>2016-08-19T08:52:05Z</time>
      </trkpt>
      <trkpt lat="45.43144" lon="5.93758">
        <ele>1762.409662102</ele>
        <time>2016-08-19T08:52:10Z</time>
      </trkpt>
      <trkpt lat="45.43145" lon="5.9376">
        <ele>1762.409662102</ele>
        <time>2016-08-19T08:52:20Z</time>
      </trkpt>
      <trkpt lat="45.43146" lon="5.93761">
        <ele>1762.409662102</ele>
        <time>2016-08-19T08:52:25Z</time>
      </trkpt>
      <trkpt lat="45.4315" lon="5.93764">
        <ele>1762.409662102</ele>
        <time>2016-08-19T08:52:35Z</time>
      </trkpt>
      <trkpt lat="45.43153" lon="5.93766">
        <ele>1760.285522239</ele>
        <time>2016-08-19T08:52:40Z</time>
      </trkpt>
      <trkpt lat="45.43158" lon="5.93769">
        <ele>1760.285522239</ele>
        <time>2016-08-19T08:52:50Z</time>
      </trkpt>
      <trkpt lat="45.4316" lon="5.93769">
        <ele>1760.285522239</ele>
        <time>2016-08-19T08:52:55Z</time>
      </trkpt>
      <trkpt lat="45.43173" lon="5.93774">
        <ele>1757.897204606</ele>
        <time>2016-08-19T08:53:05Z</time>
      </trkpt>
      <trkpt lat="45.43176" lon="5.93776">
        <ele>1757.897204606</ele>
        <time>2016-08-19T08:53:10Z</time>
      </trkpt>
      <trkpt lat="45.43176" lon="5.93777">
        <ele>1757.897204606</ele>
        <time>2016-08-19T08:53:20Z</time>
      </trkpt>
      <trkpt lat="45.43176" lon="5.93776">
        <ele>1757.897204606</ele>
        <time>2016-08-19T08:53:25Z</time>
      </trkpt>
      <trkpt lat="45.43174" lon="5.93776">
        <ele>1757.897204606</ele>
        <time>2016-08-19T08:53:39Z</time>
      </trkpt>
      <trkpt lat="45.43174" lon="5.93777">
        <ele>1757.897204606</ele>
        <time>2016-08-19T08:53:44Z</time>
      </trkpt>
      <trkpt lat="45.43173" lon="5.93778">
        <ele>1757.897204606</ele>
        <time>2016-08-19T08:53:49Z</time>
      </trkpt>
      <trkpt lat="45.43173" lon="5.9378">
        <ele>1755.707669332</ele>
        <time>2016-08-19T08:53:54Z</time>
      </trkpt>
      <trkpt lat="45.43173" lon="5.9378">
        <ele>1755.707669332</ele>
        <time>2016-08-19T08:53:59Z</time>
      </trkpt>
      <trkpt lat="45.43173" lon="5.9378">
        <ele>1755.707669332</ele>
        <time>2016-08-19T08:54:04Z</time>
      </trkpt>
      <trkpt lat="45.43173" lon="5.9378">
        <ele>1755.707669332</ele>
        <time>2016-08-19T08:54:09Z</time>
      </trkpt>
      <trkpt lat="45.43173" lon="5.9378">
        <ele>1755.707669332</ele>
        <time>2016-08-19T08:54:14Z</time>
      </trkpt>
      <trkpt lat="45.43173" lon="5.9378">
        <ele>1755.707669332</ele>
        <time>2016-08-19T08:54:19Z</time>
      </trkpt>
      <trkpt lat="45.43179" lon="5.93784">
        <ele>1755.707669332</ele>
        <time>2016-08-19T08:54:30Z</time>
      </trkpt>
      <trkpt lat="45.43183" lon="5.93789">
        <ele>1753.554368949</ele>
        <time>2016-08-19T08:54:35Z</time>
      </trkpt>
      <trkpt lat="45.43188" lon="5.93793">
        <ele>1753.554368949</ele>
        <time>2016-08-19T08:54:45Z</time>
      </trkpt>
      <trkpt lat="45.43189" lon="5.93796">
        <ele>1753.554368949</ele>
        <time>2016-08-19T08:54:50Z</time>
      </trkpt>
      <trkpt lat="45.43192" lon="5.93794">
        <ele>1751.14945306</ele>
        <time>2016-08-19T08:55:00Z</time>
      </trkpt>
      <trkpt lat="45.43196" lon="5.93796">
        <ele>1751.14945306</ele>
        <time>2016-08-19T08:55:04Z</time>
      </trkpt>
      <trkpt lat="45.43205" lon="5.93798">
        <ele>1748.933507773</ele>
        <time>2016-08-19T08:55:14Z</time>
      </trkpt>
      <trkpt lat="45.43208" lon="5.93797">
        <ele>1748.933507773</ele>
        <time>2016-08-19T08:55:20Z</time>
      </trkpt>
      <trkpt lat="45.43212" lon="5.93802">
        <ele>1748.933507773</ele>
        <time>2016-08-19T08:55:30Z</time>
      </trkpt>
      <trkpt lat="45.43214" lon="5.93803">
        <ele>1746.747504323</ele>
        <time>2016-08-19T08:55:35Z</time>
      </trkpt>
      <trkpt lat="45.4322" lon="5.93811">
        <ele>1746.747504323</ele>
        <time>2016-08-19T08:55:45Z</time>
      </trkpt>
      <trkpt lat="45.43221" lon="5.93813">
        <ele>1744.864434482</ele>
        <time>2016-08-19T08:55:50Z</time>
      </trkpt>
      <trkpt lat="45.43223" lon="5.93815">
        <ele>1744.864434482</ele>
        <time>2016-08-19T08:56:00Z</time>
      </trkpt>
      <trkpt lat="45.43223" lon="5.93817">
        <ele>1744.864434482</ele>
        <time>2016-08-19T08:56:05Z</time>
      </trkpt>
      <trkpt lat="45.43223" lon="5.93816">
        <ele>1744.864434482</ele>
        <time>2016-08-19T08:56:09Z</time>
      </trkpt>
      <trkpt lat="45.43224" lon="5.93819">
        <ele>1723</ele>
        <time>2016-08-19T08:56:32Z</time>
      </trkpt>
      <trkpt lat="45.4323" lon="5.93824">
        <ele>1722.40300545</ele>
        <time>2016-08-19T08:56:43Z</time>
      </trkpt>
      <trkpt lat="45.43232" lon="5.93827">
        <ele>1722.40300545</ele>
        <time>2016-08-19T08:56:47Z</time>
      </trkpt>
      <trkpt lat="45.43235" lon="5.93831">
        <ele>1722.40300545</ele>
        <time>2016-08-19T08:56:52Z</time>
      </trkpt>
      <trkpt lat="45.43238" lon="5.9384">
        <ele>1731.023160157</ele>
        <time>2016-08-19T08:57:02Z</time>
      </trkpt>
      <trkpt lat="45.43241" lon="5.93845">
        <ele>1731.023160157</ele>
        <time>2016-08-19T08:57:07Z</time>
      </trkpt>
      <trkpt lat="45.43246" lon="5.93852">
        <ele>1740.041312528</ele>
        <time>2016-08-19T08:57:17Z</time>
      </trkpt>
      <trkpt lat="45.43245" lon="5.93857">
        <ele>1740.041312528</ele>
        <time>2016-08-19T08:57:23Z</time>
      </trkpt>
      <trkpt lat="45.43246" lon="5.93855">
        <ele>1740.041312528</ele>
        <time>2016-08-19T08:57:32Z</time>
      </trkpt>
      <trkpt lat="45.43247" lon="5.93857">
        <ele>1740.041312528</ele>
        <time>2016-08-19T08:57:38Z</time>
      </trkpt>
      <trkpt lat="45.43248" lon="5.93855">
        <ele>1747.964176786</ele>
        <time>2016-08-19T08:57:47Z</time>
      </trkpt>
      <trkpt lat="45.43248" lon="5.93855">
        <ele>1747.964176786</ele>
        <time>2016-08-19T08:57:52Z</time>
      </trkpt>
      <trkpt lat="45.43248" lon="5.93856">
        <ele>1747.964176786</ele>
        <time>2016-08-19T08:58:03Z</time>
      </trkpt>
      <trkpt lat="45.4325" lon="5.93853">
        <ele>1747.964176786</ele>
        <time>2016-08-19T08:58:07Z</time>
      </trkpt>
      <trkpt lat="45.43248" lon="5.93852">
        <ele>1747.964176786</ele>
        <time>2016-08-19T08:58:18Z</time>
      </trkpt>
      <trkpt lat="45.43247" lon="5.93852">
        <ele>1747.964176786</ele>
        <time>2016-08-19T08:58:22Z</time>
      </trkpt>
      <trkpt lat="45.43247" lon="5.93851">
        <ele>1747.964176786</ele>
        <time>2016-08-19T08:58:37Z</time>
      </trkpt>
      <trkpt lat="45.43247" lon="5.93851">
        <ele>1747.964176786</ele>
        <time>2016-08-19T08:58:42Z</time>
      </trkpt>
      <trkpt lat="45.43239" lon="5.93868">
        <ele>1755.271553854</ele>
        <time>2016-08-19T08:58:52Z</time>
      </trkpt>
      <trkpt lat="45.43239" lon="5.9387">
        <ele>1755.271553854</ele>
        <time>2016-08-19T08:58:58Z</time>
      </trkpt>
      <trkpt lat="45.4324" lon="5.93871">
        <ele>1755.271553854</ele>
        <time>2016-08-19T08:59:07Z</time>
      </trkpt>
      <trkpt lat="45.4324" lon="5.93871">
        <ele>1755.271553854</ele>
        <time>2016-08-19T08:59:12Z</time>
      </trkpt>
      <trkpt lat="45.43236" lon="5.93884">
        <ele>1762.904965368</ele>
        <time>2016-08-19T08:59:23Z</time>
      </trkpt>
      <trkpt lat="45.43232" lon="5.93888">
        <ele>1762.904965368</ele>
        <time>2016-08-19T08:59:27Z</time>
      </trkpt>
      <trkpt lat="45.43228" lon="5.93897">
        <ele>1770.651410196</ele>
        <time>2016-08-19T08:59:37Z</time>
      </trkpt>
      <trkpt lat="45.43227" lon="5.93896">
        <ele>1770.651410196</ele>
        <time>2016-08-19T08:59:42Z</time>
      </trkpt>
      <trkpt lat="45.43224" lon="5.93897">
        <ele>1770.651410196</ele>
        <time>2016-08-19T08:59:52Z</time>
      </trkpt>
      <trkpt lat="45.43224" lon="5.93896">
        <ele>1770.651410196</ele>
        <time>2016-08-19T08:59:57Z</time>
      </trkpt>
      <trkpt lat="45.43226" lon="5.93898">
        <ele>1770.651410196</ele>
        <time>2016-08-19T09:00:02Z</time>
      </trkpt>
      <trkpt lat="45.43225" lon="5.93898">
        <ele>1770.651410196</ele>
        <time>2016-08-19T09:00:07Z</time>
      </trkpt>
      <trkpt lat="45.43226" lon="5.93897">
        <ele>1770.651410196</ele>
        <time>2016-08-19T09:00:17Z</time>
      </trkpt>
      <trkpt lat="45.43226" lon="5.93897">
        <ele>1770.651410196</ele>
        <time>2016-08-19T09:00:22Z</time>
      </trkpt>
      <trkpt lat="45.43225" lon="5.939">
        <ele>1777.592350107</ele>
        <time>2016-08-19T09:00:37Z</time>
      </trkpt>
      <trkpt lat="45.43225" lon="5.939">
        <ele>1730</ele>
        <time>2016-08-19T09:02:05Z</time>
      </trkpt>
      <trkpt lat="45.43224" lon="5.939">
        <ele>1730</ele>
        <time>2016-08-19T09:02:10Z</time>
      </trkpt>
      <trkpt lat="45.43224" lon="5.939">
        <ele>1730</ele>
        <time>2016-08-19T09:02:15Z</time>
      </trkpt>
      <trkpt lat="45.43224" lon="5.939">
        <ele>1730</ele>
        <time>2016-08-19T09:02:20Z</time>
      </trkpt>
      <trkpt lat="45.43224" lon="5.939">
        <ele>1730</ele>
        <time>2016-08-19T09:02:25Z</time>
      </trkpt>
      <trkpt lat="45.43224" lon="5.939">
        <ele>1730</ele>
        <time>2016-08-19T09:02:30Z</time>
      </trkpt>
      <trkpt lat="45.43224" lon="5.939">
        <ele>1730</ele>
        <time>2016-08-19T09:02:35Z</time>
      </trkpt>
      <trkpt lat="45.43224" lon="5.93897">
        <ele>1730</ele>
        <time>2016-08-19T09:02:42Z</time>
      </trkpt>
      <trkpt lat="45.43223" lon="5.93896">
        <ele>1730</ele>
        <time>2016-08-19T09:02:52Z</time>
      </trkpt>
      <trkpt lat="45.43222" lon="5.93898">
        <ele>1730</ele>
        <time>2016-08-19T09:02:56Z</time>
      </trkpt>
      <trkpt lat="45.4322" lon="5.93898">
        <ele>1730</ele>
        <time>2016-08-19T09:03:07Z</time>
      </trkpt>
      <trkpt lat="45.4322" lon="5.93898">
        <ele>1730</ele>
        <time>2016-08-19T09:03:12Z</time>
      </trkpt>
      <trkpt lat="45.43223" lon="5.93898">
        <ele>1724.514567033</ele>
        <time>2016-08-19T09:03:22Z</time>
      </trkpt>
      <trkpt lat="45.43225" lon="5.93896">
        <ele>1724.514567033</ele>
        <time>2016-08-19T09:03:26Z</time>
      </trkpt>
      <trkpt lat="45.43225" lon="5.93895">
        <ele>1724.514567033</ele>
        <time>2016-08-19T09:03:30Z</time>
      </trkpt>
      <trkpt lat="45.43224" lon="5.93899">
        <ele>1724.514567033</ele>
        <time>2016-08-19T09:03:35Z</time>
      </trkpt>
      <trkpt lat="45.43224" lon="5.93899">
        <ele>1724.514567033</ele>
        <time>2016-08-19T09:03:40Z</time>
      </trkpt>
      <trkpt lat="45.43224" lon="5.939">
        <ele>1724.514567033</ele>
        <time>2016-08-19T09:03:45Z</time>
      </trkpt>
      <trkpt lat="45.43224" lon="5.939">
        <ele>1724.514567033</ele>
        <time>2016-08-19T09:03:51Z</time>
      </trkpt>
      <trkpt lat="45.43224" lon="5.939">
        <ele>1724.514567033</ele>
        <time>2016-08-19T09:03:56Z</time>
      </trkpt>
      <trkpt lat="45.43225" lon="5.93896">
        <ele>1734.106258578</ele>
        <time>2016-08-19T09:04:06Z</time>
      </trkpt>
      <trkpt lat="45.43226" lon="5.93894">
        <ele>1734.106258578</ele>
        <time>2016-08-19T09:04:10Z</time>
      </trkpt>
      <trkpt lat="45.43231" lon="5.93888">
        <ele>1734.106258578</ele>
        <time>2016-08-19T09:04:21Z</time>
      </trkpt>
      <trkpt lat="45.43231" lon="5.93886">
        <ele>1742.811274862</ele>
        <time>2016-08-19T09:04:25Z</time>
      </trkpt>
      <trkpt lat="45.43239" lon="5.93881">
        <ele>1742.811274862</ele>
        <time>2016-08-19T09:04:36Z</time>
      </trkpt>
      <trkpt lat="45.43241" lon="5.93879">
        <ele>1750.587640876</ele>
        <time>2016-08-19T09:04:41Z</time>
      </trkpt>
      <trkpt lat="45.4324" lon="5.93873">
        <ele>1750.587640876</ele>
        <time>2016-08-19T09:04:51Z</time>
      </trkpt>
      <trkpt lat="45.4324" lon="5.93872">
        <ele>1750.587640876</ele>
        <time>2016-08-19T09:04:56Z</time>
      </trkpt>
      <trkpt lat="45.43239" lon="5.93872">
        <ele>1750.587640876</ele>
        <time>2016-08-19T09:05:06Z</time>
      </trkpt>
      <trkpt lat="45.43239" lon="5.93872">
        <ele>1750.587640876</ele>
        <time>2016-08-19T09:05:11Z</time>
      </trkpt>
      <trkpt lat="45.4324" lon="5.93867">
        <ele>1757.162769246</ele>
        <time>2016-08-19T09:05:16Z</time>
      </trkpt>
      <trkpt lat="45.43242" lon="5.93867">
        <ele>1757.162769246</ele>
        <time>2016-08-19T09:05:26Z</time>
      </trkpt>
      <trkpt lat="45.43243" lon="5.93866">
        <ele>1757.162769246</ele>
        <time>2016-08-19T09:05:31Z</time>
      </trkpt>
      <trkpt lat="45.43242" lon="5.93866">
        <ele>1757.162769246</ele>
        <time>2016-08-19T09:05:41Z</time>
      </trkpt>
      <trkpt lat="45.43242" lon="5.93865">
        <ele>1757.162769246</ele>
        <time>2016-08-19T09:05:46Z</time>
      </trkpt>
      <trkpt lat="45.43242" lon="5.93865">
        <ele>1757.162769246</ele>
        <time>2016-08-19T09:05:55Z</time>
      </trkpt>
      <trkpt lat="45.43242" lon="5.93865">
        <ele>1757.162769246</ele>
        <time>2016-08-19T09:06:01Z</time>
      </trkpt>
      <trkpt lat="45.43241" lon="5.93864">
        <ele>1757.162769246</ele>
        <time>2016-08-19T09:06:10Z</time>
      </trkpt>
      <trkpt lat="45.43241" lon="5.93864">
        <ele>1757.162769246</ele>
        <time>2016-08-19T09:06:26Z</time>
      </trkpt>
      <trkpt lat="45.43246" lon="5.9386">
        <ele>1763.88470628</ele>
        <time>2016-08-19T09:06:31Z</time>
      </trkpt>
      <trkpt lat="45.4325" lon="5.93857">
        <ele>1763.88470628</ele>
        <time>2016-08-19T09:06:41Z</time>
      </trkpt>
      <trkpt lat="45.43251" lon="5.93855">
        <ele>1763.88470628</ele>
        <time>2016-08-19T09:06:46Z</time>
      </trkpt>
      <trkpt lat="45.43252" lon="5.93854">
        <ele>1763.88470628</ele>
        <time>2016-08-19T09:06:56Z</time>
      </trkpt>
      <trkpt lat="45.43251" lon="5.93856">
        <ele>1763.88470628</ele>
        <time>2016-08-19T09:07:01Z</time>
      </trkpt>
      <trkpt lat="45.43251" lon="5.93855">
        <ele>1763.88470628</ele>
        <time>2016-08-19T09:07:11Z</time>
      </trkpt>
      <trkpt lat="45.43249" lon="5.93853">
        <ele>1769.65970749</ele>
        <time>2016-08-19T09:07:16Z</time>
      </trkpt>
      <trkpt lat="45.43242" lon="5.93838">
        <ele>1774.25408549</ele>
        <time>2016-08-19T09:07:26Z</time>
      </trkpt>
      <trkpt lat="45.43241" lon="5.93833">
        <ele>1774.25408549</ele>
        <time>2016-08-19T09:07:31Z</time>
      </trkpt>
      <trkpt lat="45.43238" lon="5.93828">
        <ele>1774.25408549</ele>
        <time>2016-08-19T09:07:36Z</time>
      </trkpt>
      <trkpt lat="45.43225" lon="5.93826">
        <ele>1779.201413997</ele>
        <time>2016-08-19T09:07:46Z</time>
      </trkpt>
      <trkpt lat="45.4323" lon="5.93827">
        <ele>1779.201413997</ele>
        <time>2016-08-19T09:07:51Z</time>
      </trkpt>
      <trkpt lat="45.43228" lon="5.93817">
        <ele>1781.948690256</ele>
        <time>2016-08-19T09:08:01Z</time>
      </trkpt>
      <trkpt lat="45.43223" lon="5.93812">
        <ele>1781.948690256</ele>
        <time>2016-08-19T09:08:06Z</time>
      </trkpt>
      <trkpt lat="45.4321" lon="5.93805">
        <ele>1783.972962511</ele>
        <time>2016-08-19T09:08:16Z</time>
      </trkpt>
      <trkpt lat="45.43206" lon="5.93802">
        <ele>1783.972962511</ele>
        <time>2016-08-19T09:08:21Z</time>
      </trkpt>
      <trkpt lat="45.43204" lon="5.938">
        <ele>1783.972962511</ele>
        <time>2016-08-19T09:08:31Z</time>
      </trkpt>
      <trkpt lat="45.43201" lon="5.93798">
        <ele>1785.860984108</ele>
        <time>2016-08-19T09:08:36Z</time>
      </trkpt>
      <trkpt lat="45.43195" lon="5.93793">
        <ele>1785.860984108</ele>
        <time>2016-08-19T09:08:46Z</time>
      </trkpt>
      <trkpt lat="45.43189" lon="5.93794">
        <ele>1787.032483934</ele>
        <time>2016-08-19T09:08:51Z</time>
      </trkpt>
      <trkpt lat="45.43179" lon="5.93783">
        <ele>1787.480863489</ele>
        <time>2016-08-19T09:09:06Z</time>
      </trkpt>
      <trkpt lat="45.43175" lon="5.93774">
        <ele>1787.480863489</ele>
        <time>2016-08-19T09:09:16Z</time>
      </trkpt>
      <trkpt lat="45.43175" lon="5.93774">
        <ele>1787.480863489</ele>
        <time>2016-08-19T09:09:21Z</time>
      </trkpt>
      <trkpt lat="45.43176" lon="5.93774">
        <ele>1787.480863489</ele>
        <time>2016-08-19T09:09:35Z</time>
      </trkpt>
      <trkpt lat="45.43176" lon="5.93774">
        <ele>1787.480863489</ele>
        <time>2016-08-19T09:09:40Z</time>
      </trkpt>
      <trkpt lat="45.43176" lon="5.93771">
        <ele>1787.045177687</ele>
        <time>2016-08-19T09:09:50Z</time>
      </trkpt>
      <trkpt lat="45.43175" lon="5.93772">
        <ele>1787.045177687</ele>
        <time>2016-08-19T09:09:55Z</time>
      </trkpt>
      <trkpt lat="45.43175" lon="5.93772">
        <ele>1787.045177687</ele>
        <time>2016-08-19T09:10:06Z</time>
      </trkpt>
      <trkpt lat="45.43175" lon="5.93767">
        <ele>1787.045177687</ele>
        <time>2016-08-19T09:10:11Z</time>
      </trkpt>
      <trkpt lat="45.43176" lon="5.9376">
        <ele>1786.243878698</ele>
        <time>2016-08-19T09:10:21Z</time>
      </trkpt>
      <trkpt lat="45.43176" lon="5.9376">
        <ele>1786.243878698</ele>
        <time>2016-08-19T09:10:26Z</time>
      </trkpt>
      <trkpt lat="45.43176" lon="5.93759">
        <ele>1786.243878698</ele>
        <time>2016-08-19T09:10:36Z</time>
      </trkpt>
      <trkpt lat="45.43176" lon="5.93759">
        <ele>1786.243878698</ele>
        <time>2016-08-19T09:10:41Z</time>
      </trkpt>
      <trkpt lat="45.43176" lon="5.93759">
        <ele>1786.243878698</ele>
        <time>2016-08-19T09:10:51Z</time>
      </trkpt>
      <trkpt lat="45.43176" lon="5.93759">
        <ele>1786.243878698</ele>
        <time>2016-08-19T09:10:56Z</time>
      </trkpt>
      <trkpt lat="45.43176" lon="5.93759">
        <ele>1786.243878698</ele>
        <time>2016-08-19T09:11:06Z</time>
      </trkpt>
      <trkpt lat="45.43176" lon="5.93759">
        <ele>1786.243878698</ele>
        <time>2016-08-19T09:11:11Z</time>
      </trkpt>
      <trkpt lat="45.43176" lon="5.93759">
        <ele>1786.243878698</ele>
        <time>2016-08-19T09:11:21Z</time>
      </trkpt>
      <trkpt lat="45.43176" lon="5.93759">
        <ele>1786.243878698</ele>
        <time>2016-08-19T09:11:26Z</time>
      </trkpt>
      <trkpt lat="45.43176" lon="5.93759">
        <ele>1786.243878698</ele>
        <time>2016-08-19T09:11:36Z</time>
      </trkpt>
      <trkpt lat="45.43176" lon="5.93759">
        <ele>1786.243878698</ele>
        <time>2016-08-19T09:11:41Z</time>
      </trkpt>
      <trkpt lat="45.43176" lon="5.93759">
        <ele>1786.243878698</ele>
        <time>2016-08-19T09:11:51Z</time>
      </trkpt>
      <trkpt lat="45.43176" lon="5.93759">
        <ele>1786.243878698</ele>
        <time>2016-08-19T09:11:56Z</time>
      </trkpt>
      <trkpt lat="45.43176" lon="5.93759">
        <ele>1786.243878698</ele>
        <time>2016-08-19T09:12:06Z</time>
      </trkpt>
      <trkpt lat="45.43176" lon="5.93759">
        <ele>1786.243878698</ele>
        <time>2016-08-19T09:12:11Z</time>
      </trkpt>
      <trkpt lat="45.43176" lon="5.93759">
        <ele>1786.243878698</ele>
        <time>2016-08-19T09:12:16Z</time>
      </trkpt>
      <trkpt lat="45.43176" lon="5.93759">
        <ele>1786.243878698</ele>
        <time>2016-08-19T09:12:26Z</time>
      </trkpt>
      <trkpt lat="45.43176" lon="5.93759">
        <ele>1786.243878698</ele>
        <time>2016-08-19T09:12:31Z</time>
      </trkpt>
      <trkpt lat="45.43176" lon="5.93759">
        <ele>1786.243878698</ele>
        <time>2016-08-19T09:12:41Z</time>
      </trkpt>
      <trkpt lat="45.43176" lon="5.93759">
        <ele>1786.243878698</ele>
        <time>2016-08-19T09:12:46Z</time>
      </trkpt>
      <trkpt lat="45.43176" lon="5.93759">
        <ele>1786.243878698</ele>
        <time>2016-08-19T09:12:56Z</time>
      </trkpt>
      <trkpt lat="45.43176" lon="5.93759">
        <ele>1786.243878698</ele>
        <time>2016-08-19T09:13:01Z</time>
      </trkpt>
      <trkpt lat="45.43176" lon="5.93759">
        <ele>1786.243878698</ele>
        <time>2016-08-19T09:13:10Z</time>
      </trkpt>
      <trkpt lat="45.43177" lon="5.93759">
        <ele>1786.243878698</ele>
        <time>2016-08-19T09:13:16Z</time>
      </trkpt>
      <trkpt lat="45.43182" lon="5.93757">
        <ele>1786.243878698</ele>
        <time>2016-08-19T09:13:25Z</time>
      </trkpt>
      <trkpt lat="45.43185" lon="5.93755">
        <ele>1785.368798837</ele>
        <time>2016-08-19T09:13:31Z</time>
      </trkpt>
      <trkpt lat="45.43185" lon="5.93755">
        <ele>1785.368798837</ele>
        <time>2016-08-19T09:13:41Z</time>
      </trkpt>
      <trkpt lat="45.43185" lon="5.93754">
        <ele>1785.368798837</ele>
        <time>2016-08-19T09:13:46Z</time>
      </trkpt>
      <trkpt lat="45.43186" lon="5.93754">
        <ele>1785.368798837</ele>
        <time>2016-08-19T09:14:01Z</time>
      </trkpt>
      <trkpt lat="45.43186" lon="5.93754">
        <ele>1785.368798837</ele>
        <time>2016-08-19T09:14:06Z</time>
      </trkpt>
      <trkpt lat="45.43186" lon="5.93754">
        <ele>1785.368798837</ele>
        <time>2016-08-19T09:14:16Z</time>
      </trkpt>
      <trkpt lat="45.43186" lon="5.93754">
        <ele>1785.368798837</ele>
        <time>2016-08-19T09:14:21Z</time>
      </trkpt>
      <trkpt lat="45.43186" lon="5.93754">
        <ele>1785.368798837</ele>
        <time>2016-08-19T09:14:31Z</time>
      </trkpt>
      <trkpt lat="45.43186" lon="5.93754">
        <ele>1785.368798837</ele>
        <time>2016-08-19T09:14:35Z</time>
      </trkpt>
      <trkpt lat="45.43186" lon="5.93754">
        <ele>1785.368798837</ele>
        <time>2016-08-19T09:14:45Z</time>
      </trkpt>
      <trkpt lat="45.43186" lon="5.93754">
        <ele>1785.368798837</ele>
        <time>2016-08-19T09:14:51Z</time>
      </trkpt>
      <trkpt lat="45.43186" lon="5.93754">
        <ele>1785.368798837</ele>
        <time>2016-08-19T09:15:01Z</time>
      </trkpt>
      <trkpt lat="45.43186" lon="5.93754">
        <ele>1785.368798837</ele>
        <time>2016-08-19T09:15:06Z</time>
      </trkpt>
      <trkpt lat="45.43186" lon="5.93754">
        <ele>1785.368798837</ele>
        <time>2016-08-19T09:15:11Z</time>
      </trkpt>
      <trkpt lat="45.43186" lon="5.93754">
        <ele>1785.368798837</ele>
        <time>2016-08-19T09:15:21Z</time>
      </trkpt>
      <trkpt lat="45.43186" lon="5.93754">
        <ele>1785.368798837</ele>
        <time>2016-08-19T09:15:26Z</time>
      </trkpt>
      <trkpt lat="45.43186" lon="5.93754">
        <ele>1785.368798837</ele>
        <time>2016-08-19T09:15:36Z</time>
      </trkpt>
      <trkpt lat="45.43186" lon="5.93754">
        <ele>1785.368798837</ele>
        <time>2016-08-19T09:15:41Z</time>
      </trkpt>
      <trkpt lat="45.43186" lon="5.93754">
        <ele>1785.368798837</ele>
        <time>2016-08-19T09:15:51Z</time>
      </trkpt>
      <trkpt lat="45.43186" lon="5.93754">
        <ele>1785.368798837</ele>
        <time>2016-08-19T09:15:56Z</time>
      </trkpt>
      <trkpt lat="45.43186" lon="5.93754">
        <ele>1785.368798837</ele>
        <time>2016-08-19T09:16:06Z</time>
      </trkpt>
      <trkpt lat="45.43186" lon="5.93754">
        <ele>1785.368798837</ele>
        <time>2016-08-19T09:16:11Z</time>
      </trkpt>
      <trkpt lat="45.43186" lon="5.93754">
        <ele>1785.368798837</ele>
        <time>2016-08-19T09:16:21Z</time>
      </trkpt>
      <trkpt lat="45.43186" lon="5.93754">
        <ele>1785.368798837</ele>
        <time>2016-08-19T09:16:26Z</time>
      </trkpt>
      <trkpt lat="45.43186" lon="5.93754">
        <ele>1785.368798837</ele>
        <time>2016-08-19T09:16:36Z</time>
      </trkpt>
      <trkpt lat="45.43186" lon="5.93754">
        <ele>1785.368798837</ele>
        <time>2016-08-19T09:16:41Z</time>
      </trkpt>
      <trkpt lat="45.432" lon="5.93736">
        <ele>1787.568445342</ele>
        <time>2016-08-19T09:16:51Z</time>
      </trkpt>
      <trkpt lat="45.43203" lon="5.93735">
        <ele>1787.568445342</ele>
        <time>2016-08-19T09:16:56Z</time>
      </trkpt>
      <trkpt lat="45.43206" lon="5.93733">
        <ele>1787.568445342</ele>
        <time>2016-08-19T09:17:05Z</time>
      </trkpt>
      <trkpt lat="45.43207" lon="5.93733">
        <ele>1787.568445342</ele>
        <time>2016-08-19T09:17:11Z</time>
      </trkpt>
      <trkpt lat="45.43212" lon="5.93732">
        <ele>1790.470027532</ele>
        <time>2016-08-19T09:17:26Z</time>
      </trkpt>
      <trkpt lat="45.43211" lon="5.93734">
        <ele>1790.470027532</ele>
        <time>2016-08-19T09:17:31Z</time>
      </trkpt>
      <trkpt lat="45.4321" lon="5.9372">
        <ele>1793.704422061</ele>
        <time>2016-08-19T09:17:41Z</time>
      </trkpt>
      <trkpt lat="45.43209" lon="5.9372">
        <ele>1793.704422061</ele>
        <time>2016-08-19T09:17:45Z</time>
      </trkpt>
      <trkpt lat="45.4321" lon="5.93722">
        <ele>1793.704422061</ele>
        <time>2016-08-19T09:17:50Z</time>
      </trkpt>
      <trkpt lat="45.4321" lon="5.93721">
        <ele>1793.704422061</ele>
        <time>2016-08-19T09:17:55Z</time>
      </trkpt>
      <trkpt lat="45.4321" lon="5.93721">
        <ele>1793.704422061</ele>
        <time>2016-08-19T09:18:00Z</time>
      </trkpt>
      <trkpt lat="45.4321" lon="5.93721">
        <ele>1793.704422061</ele>
        <time>2016-08-19T09:18:05Z</time>
      </trkpt>
      <trkpt lat="45.4321" lon="5.93721">
        <ele>1793.704422061</ele>
        <time>2016-08-19T09:18:10Z</time>
      </trkpt>
      <trkpt lat="45.4321" lon="5.93721">
        <ele>1793.704422061</ele>
        <time>2016-08-19T09:18:15Z</time>
      </trkpt>
      <trkpt lat="45.4321" lon="5.93721">
        <ele>1793.704422061</ele>
        <time>2016-08-19T09:18:20Z</time>
      </trkpt>
      <trkpt lat="45.4321" lon="5.93721">
        <ele>1793.704422061</ele>
        <time>2016-08-19T09:18:26Z</time>
      </trkpt>
      <trkpt lat="45.43209" lon="5.93717">
        <ele>1793.704422061</ele>
        <time>2016-08-19T09:18:31Z</time>
      </trkpt>
      <trkpt lat="45.43209" lon="5.93711">
        <ele>1796.631793382</ele>
        <time>2016-08-19T09:18:42Z</time>
      </trkpt>
      <trkpt lat="45.4321" lon="5.9371">
        <ele>1796.631793382</ele>
        <time>2016-08-19T09:18:46Z</time>
      </trkpt>
      <trkpt lat="45.43202" lon="5.93709">
        <ele>1796.631793382</ele>
        <time>2016-08-19T09:18:56Z</time>
      </trkpt>
      <trkpt lat="45.43194" lon="5.93708">
        <ele>1798.84353721</ele>
        <time>2016-08-19T09:19:01Z</time>
      </trkpt>
      <trkpt lat="45.43187" lon="5.93705">
        <ele>1798.84353721</ele>
        <time>2016-08-19T09:19:11Z</time>
      </trkpt>
      <trkpt lat="45.43182" lon="5.93698">
        <ele>1799.831843228</ele>
        <time>2016-08-19T09:19:16Z</time>
      </trkpt>
      <trkpt lat="45.43179" lon="5.937">
        <ele>1799.831843228</ele>
        <time>2016-08-19T09:19:27Z</time>
      </trkpt>
      <trkpt lat="45.43179" lon="5.93701">
        <ele>1799.831843228</ele>
        <time>2016-08-19T09:19:31Z</time>
      </trkpt>
      <trkpt lat="45.43179" lon="5.93701">
        <ele>1799.831843228</ele>
        <time>2016-08-19T09:19:41Z</time>
      </trkpt>
      <trkpt lat="45.43179" lon="5.93701">
        <ele>1799.831843228</ele>
        <time>2016-08-19T09:19:46Z</time>
      </trkpt>
      <trkpt lat="45.43179" lon="5.93701">
        <ele>1799.831843228</ele>
        <time>2016-08-19T09:19:57Z</time>
      </trkpt>
      <trkpt lat="45.43179" lon="5.93701">
        <ele>1799.831843228</ele>
        <time>2016-08-19T09:20:01Z</time>
      </trkpt>
      <trkpt lat="45.43179" lon="5.93701">
        <ele>1799.831843228</ele>
        <time>2016-08-19T09:20:11Z</time>
      </trkpt>
      <trkpt lat="45.43179" lon="5.93701">
        <ele>1799.831843228</ele>
        <time>2016-08-19T09:20:16Z</time>
      </trkpt>
      <trkpt lat="45.43179" lon="5.93701">
        <ele>1799.831843228</ele>
        <time>2016-08-19T09:20:27Z</time>
      </trkpt>
      <trkpt lat="45.43179" lon="5.93701">
        <ele>1799.831843228</ele>
        <time>2016-08-19T09:20:31Z</time>
      </trkpt>
      <trkpt lat="45.43179" lon="5.93701">
        <ele>1799.831843228</ele>
        <time>2016-08-19T09:20:41Z</time>
      </trkpt>
      <trkpt lat="45.43187" lon="5.93697">
        <ele>1801.661871913</ele>
        <time>2016-08-19T09:20:46Z</time>
      </trkpt>
      <trkpt lat="45.43195" lon="5.93699">
        <ele>1801.661871913</ele>
        <time>2016-08-19T09:20:56Z</time>
      </trkpt>
      <trkpt lat="45.432" lon="5.93696">
        <ele>1803.516673055</ele>
        <time>2016-08-19T09:21:01Z</time>
      </trkpt>
      <trkpt lat="45.43205" lon="5.93697">
        <ele>1803.516673055</ele>
        <time>2016-08-19T09:21:11Z</time>
      </trkpt>
      <trkpt lat="45.43206" lon="5.93696">
        <ele>1803.516673055</ele>
        <time>2016-08-19T09:21:16Z</time>
      </trkpt>
      <trkpt lat="45.43206" lon="5.93697">
        <ele>1803.516673055</ele>
        <time>2016-08-19T09:21:31Z</time>
      </trkpt>
      <trkpt lat="45.43207" lon="5.93699">
        <ele>1803.516673055</ele>
        <time>2016-08-19T09:21:36Z</time>
      </trkpt>
      <trkpt lat="45.4321" lon="5.93702">
        <ele>1805.825767071</ele>
        <time>2016-08-19T09:21:46Z</time>
      </trkpt>
      <trkpt lat="45.4321" lon="5.93702">
        <ele>1805.825767071</ele>
        <time>2016-08-19T09:21:51Z</time>
      </trkpt>
      <trkpt lat="45.43212" lon="5.93703">
        <ele>1805.825767071</ele>
        <time>2016-08-19T09:22:01Z</time>
      </trkpt>
      <trkpt lat="45.43213" lon="5.93703">
        <ele>1805.825767071</ele>
        <time>2016-08-19T09:22:07Z</time>
      </trkpt>
      <trkpt lat="45.43215" lon="5.93704">
        <ele>1805.825767071</ele>
        <time>2016-08-19T09:22:16Z</time>
      </trkpt>
      <trkpt lat="45.43215" lon="5.93704">
        <ele>1805.825767071</ele>
        <time>2016-08-19T09:22:21Z</time>
      </trkpt>
      <trkpt lat="45.43219" lon="5.93704">
        <ele>1807.971383838</ele>
        <time>2016-08-19T09:22:32Z</time>
      </trkpt>
      <trkpt lat="45.43219" lon="5.93707">
        <ele>1807.971383838</ele>
        <time>2016-08-19T09:22:36Z</time>
      </trkpt>
      <trkpt lat="45.43219" lon="5.93707">
        <ele>1807.971383838</ele>
        <time>2016-08-19T09:22:46Z</time>
      </trkpt>
      <trkpt lat="45.43219" lon="5.93707">
        <ele>1807.971383838</ele>
        <time>2016-08-19T09:22:51Z</time>
      </trkpt>
      <trkpt lat="45.43219" lon="5.93709">
        <ele>1807.971383838</ele>
        <time>2016-08-19T09:23:02Z</time>
      </trkpt>
      <trkpt lat="45.43221" lon="5.93713">
        <ele>1807.971383838</ele>
        <time>2016-08-19T09:23:07Z</time>
      </trkpt>
      <trkpt lat="45.43221" lon="5.93713">
        <ele>1807.971383838</ele>
        <time>2016-08-19T09:23:11Z</time>
      </trkpt>
      <trkpt lat="45.43221" lon="5.93714">
        <ele>1807.971383838</ele>
        <time>2016-08-19T09:23:21Z</time>
      </trkpt>
      <trkpt lat="45.43221" lon="5.93713">
        <ele>1807.971383838</ele>
        <time>2016-08-19T09:23:25Z</time>
      </trkpt>
      <trkpt lat="45.4322" lon="5.93715">
        <ele>1811.23642459</ele>
        <time>2016-08-19T09:23:35Z</time>
      </trkpt>
      <trkpt lat="45.43218" lon="5.93716">
        <ele>1811.23642459</ele>
        <time>2016-08-19T09:23:40Z</time>
      </trkpt>
      <trkpt lat="45.43217" lon="5.93717">
        <ele>1811.23642459</ele>
        <time>2016-08-19T09:23:50Z</time>
      </trkpt>
      <trkpt lat="45.43217" lon="5.93718">
        <ele>1811.23642459</ele>
        <time>2016-08-19T09:23:55Z</time>
      </trkpt>
      <trkpt lat="45.43216" lon="5.93717">
        <ele>1811.23642459</ele>
        <time>2016-08-19T09:24:05Z</time>
      </trkpt>
      <trkpt lat="45.43216" lon="5.9372">
        <ele>1811.23642459</ele>
        <time>2016-08-19T09:24:10Z</time>
      </trkpt>
      <trkpt lat="45.43212" lon="5.93719">
        <ele>1815.093340369</ele>
        <time>2016-08-19T09:24:20Z</time>
      </trkpt>
      <trkpt lat="45.43211" lon="5.93719">
        <ele>1815.093340369</ele>
        <time>2016-08-19T09:24:25Z</time>
      </trkpt>
      <trkpt lat="45.43211" lon="5.9372">
        <ele>1815.093340369</ele>
        <time>2016-08-19T09:24:40Z</time>
      </trkpt>
      <trkpt lat="45.43211" lon="5.9372">
        <ele>1815.093340369</ele>
        <time>2016-08-19T09:24:45Z</time>
      </trkpt>
      <trkpt lat="45.43211" lon="5.9372">
        <ele>1815.093340369</ele>
        <time>2016-08-19T09:24:55Z</time>
      </trkpt>
      <trkpt lat="45.43211" lon="5.93718">
        <ele>1815.093340369</ele>
        <time>2016-08-19T09:25:00Z</time>
      </trkpt>
      <trkpt lat="45.43212" lon="5.93718">
        <ele>1815.093340369</ele>
        <time>2016-08-19T09:25:10Z</time>
      </trkpt>
      <trkpt lat="45.43212" lon="5.93718">
        <ele>1815.093340369</ele>
        <time>2016-08-19T09:25:15Z</time>
      </trkpt>
      <trkpt lat="45.43217" lon="5.93712">
        <ele>1817.673702005</ele>
        <time>2016-08-19T09:25:26Z</time>
      </trkpt>
      <trkpt lat="45.43217" lon="5.93711">
        <ele>1817.673702005</ele>
        <time>2016-08-19T09:25:32Z</time>
      </trkpt>
      <trkpt lat="45.43217" lon="5.93711">
        <ele>1817.673702005</ele>
        <time>2016-08-19T09:25:41Z</time>
      </trkpt>
      <trkpt lat="45.43217" lon="5.93711">
        <ele>1817.673702005</ele>
        <time>2016-08-19T09:25:47Z</time>
      </trkpt>
      <trkpt lat="45.43217" lon="5.93711">
        <ele>1817.673702005</ele>
        <time>2016-08-19T09:25:57Z</time>
      </trkpt>
      <trkpt lat="45.43214" lon="5.9371">
        <ele>1817.673702005</ele>
        <time>2016-08-19T09:26:01Z</time>
      </trkpt>
      <trkpt lat="45.43199" lon="5.93712">
        <ele>1819.216891773</ele>
        <time>2016-08-19T09:26:12Z</time>
      </trkpt>
      <trkpt lat="45.43198" lon="5.9371">
        <ele>1819.216891773</ele>
        <time>2016-08-19T09:26:16Z</time>
      </trkpt>
      <trkpt lat="45.43196" lon="5.9371">
        <ele>1819.216891773</ele>
        <time>2016-08-19T09:26:27Z</time>
      </trkpt>
      <trkpt lat="45.43196" lon="5.9371">
        <ele>1819.216891773</ele>
        <time>2016-08-19T09:26:31Z</time>
      </trkpt>
      <trkpt lat="45.43189" lon="5.9371">
        <ele>1820.492946616</ele>
        <time>2016-08-19T09:26:41Z</time>
      </trkpt>
      <trkpt lat="45.43188" lon="5.93708">
        <ele>1820.492946616</ele>
        <time>2016-08-19T09:26:46Z</time>
      </trkpt>
      <trkpt lat="45.43187" lon="5.93708">
        <ele>1820.492946616</ele>
        <time>2016-08-19T09:26:51Z</time>
      </trkpt>
      <trkpt lat="45.43182" lon="5.93712">
        <ele>1820.492946616</ele>
        <time>2016-08-19T09:27:00Z</time>
      </trkpt>
      <trkpt lat="45.43176" lon="5.93704">
        <ele>1820.269279473</ele>
        <time>2016-08-19T09:27:11Z</time>
      </trkpt>
      <trkpt lat="45.43176" lon="5.93706">
        <ele>1820.269279473</ele>
        <time>2016-08-19T09:27:17Z</time>
      </trkpt>
      <trkpt lat="45.43174" lon="5.93704">
        <ele>1820.269279473</ele>
        <time>2016-08-19T09:27:31Z</time>
      </trkpt>
      <trkpt lat="45.43173" lon="5.93704">
        <ele>1820.269279473</ele>
        <time>2016-08-19T09:27:36Z</time>
      </trkpt>
      <trkpt lat="45.43173" lon="5.93704">
        <ele>1820.269279473</ele>
        <time>2016-08-19T09:27:47Z</time>
      </trkpt>
      <trkpt lat="45.43173" lon="5.93704">
        <ele>1820.269279473</ele>
        <time>2016-08-19T09:27:52Z</time>
      </trkpt>
      <trkpt lat="45.43159" lon="5.93695">
        <ele>1818.926814069</ele>
        <time>2016-08-19T09:28:01Z</time>
      </trkpt>
      <trkpt lat="45.43153" lon="5.93698">
        <ele>1818.926814069</ele>
        <time>2016-08-19T09:28:05Z</time>
      </trkpt>
      <trkpt lat="45.43145" lon="5.93692">
        <ele>1817.378854941</ele>
        <time>2016-08-19T09:28:20Z</time>
      </trkpt>
      <trkpt lat="45.43146" lon="5.93691">
        <ele>1817.378854941</ele>
        <time>2016-08-19T09:28:25Z</time>
      </trkpt>
      <trkpt lat="45.43146" lon="5.93691">
        <ele>1817.378854941</ele>
        <time>2016-08-19T09:28:30Z</time>
      </trkpt>
      <trkpt lat="45.43145" lon="5.93691">
        <ele>1817.378854941</ele>
        <time>2016-08-19T09:28:40Z</time>
      </trkpt>
      <trkpt lat="45.43145" lon="5.93691">
        <ele>1817.378854941</ele>
        <time>2016-08-19T09:28:45Z</time>
      </trkpt>
      <trkpt lat="45.43145" lon="5.93691">
        <ele>1817.378854941</ele>
        <time>2016-08-19T09:28:50Z</time>
      </trkpt>
      <trkpt lat="45.43145" lon="5.93691">
        <ele>1817.378854941</ele>
        <time>2016-08-19T09:29:00Z</time>
      </trkpt>
      <trkpt lat="45.43145" lon="5.93691">
        <ele>1817.378854941</ele>
        <time>2016-08-19T09:29:05Z</time>
      </trkpt>
      <trkpt lat="45.43144" lon="5.9369">
        <ele>1817.378854941</ele>
        <time>2016-08-19T09:29:16Z</time>
      </trkpt>
      <trkpt lat="45.43144" lon="5.93689">
        <ele>1817.378854941</ele>
        <time>2016-08-19T09:29:21Z</time>
      </trkpt>
      <trkpt lat="45.43143" lon="5.93687">
        <ele>1817.378854941</ele>
        <time>2016-08-19T09:29:30Z</time>
      </trkpt>
      <trkpt lat="45.43142" lon="5.93685">
        <ele>1817.378854941</ele>
        <time>2016-08-19T09:29:36Z</time>
      </trkpt>
      <trkpt lat="45.43141" lon="5.93684">
        <ele>1814.804124444</ele>
        <time>2016-08-19T09:29:46Z</time>
      </trkpt>
      <trkpt lat="45.43136" lon="5.93683">
        <ele>1814.804124444</ele>
        <time>2016-08-19T09:29:51Z</time>
      </trkpt>
      <trkpt lat="45.43133" lon="5.93682">
        <ele>1814.804124444</ele>
        <time>2016-08-19T09:30:06Z</time>
      </trkpt>
      <trkpt lat="45.43132" lon="5.93683">
        <ele>1814.804124444</ele>
        <time>2016-08-19T09:30:11Z</time>
      </trkpt>
      <trkpt lat="45.43132" lon="5.93683">
        <ele>1814.804124444</ele>
        <time>2016-08-19T09:30:16Z</time>
      </trkpt>
      <trkpt lat="45.43132" lon="5.93683">
        <ele>1814.804124444</ele>
        <time>2016-08-19T09:30:20Z</time>
      </trkpt>
      <trkpt lat="45.43132" lon="5.93683">
        <ele>1812.96704924</ele>
        <time>2016-08-19T09:30:25Z</time>
      </trkpt>
      <trkpt lat="45.43132" lon="5.93683">
        <ele>1812.96704924</ele>
        <time>2016-08-19T09:30:30Z</time>
      </trkpt>
      <trkpt lat="45.43132" lon="5.93683">
        <ele>1812.96704924</ele>
        <time>2016-08-19T09:30:35Z</time>
      </trkpt>
      <trkpt lat="45.43132" lon="5.93683">
        <ele>1812.96704924</ele>
        <time>2016-08-19T09:30:40Z</time>
      </trkpt>
      <trkpt lat="45.43132" lon="5.93683">
        <ele>1812.96704924</ele>
        <time>2016-08-19T09:30:45Z</time>
      </trkpt>
      <trkpt lat="45.43132" lon="5.93683">
        <ele>1812.96704924</ele>
        <time>2016-08-19T09:30:50Z</time>
      </trkpt>
      <trkpt lat="45.43132" lon="5.93683">
        <ele>1812.96704924</ele>
        <time>2016-08-19T09:30:55Z</time>
      </trkpt>
      <trkpt lat="45.43132" lon="5.93683">
        <ele>1812.96704924</ele>
        <time>2016-08-19T09:31:01Z</time>
      </trkpt>
      <trkpt lat="45.43132" lon="5.93683">
        <ele>1812.96704924</ele>
        <time>2016-08-19T09:31:11Z</time>
      </trkpt>
      <trkpt lat="45.43132" lon="5.93683">
        <ele>1812.96704924</ele>
        <time>2016-08-19T09:31:16Z</time>
      </trkpt>
      <trkpt lat="45.43132" lon="5.93683">
        <ele>1812.96704924</ele>
        <time>2016-08-19T09:31:26Z</time>
      </trkpt>
      <trkpt lat="45.43132" lon="5.93683">
        <ele>1812.96704924</ele>
        <time>2016-08-19T09:31:31Z</time>
      </trkpt>
      <trkpt lat="45.43132" lon="5.93683">
        <ele>1812.96704924</ele>
        <time>2016-08-19T09:31:41Z</time>
      </trkpt>
      <trkpt lat="45.43132" lon="5.93683">
        <ele>1812.96704924</ele>
        <time>2016-08-19T09:31:46Z</time>
      </trkpt>
      <trkpt lat="45.43132" lon="5.93683">
        <ele>1812.96704924</ele>
        <time>2016-08-19T09:32:01Z</time>
      </trkpt>
      <trkpt lat="45.43132" lon="5.93683">
        <ele>1812.96704924</ele>
        <time>2016-08-19T09:32:06Z</time>
      </trkpt>
      <trkpt lat="45.43132" lon="5.93683">
        <ele>1812.96704924</ele>
        <time>2016-08-19T09:32:16Z</time>
      </trkpt>
      <trkpt lat="45.43132" lon="5.93683">
        <ele>1812.96704924</ele>
        <time>2016-08-19T09:32:21Z</time>
      </trkpt>
      <trkpt lat="45.43132" lon="5.93683">
        <ele>1812.96704924</ele>
        <time>2016-08-19T09:32:31Z</time>
      </trkpt>
      <trkpt lat="45.43132" lon="5.93683">
        <ele>1812.96704924</ele>
        <time>2016-08-19T09:32:36Z</time>
      </trkpt>
      <trkpt lat="45.43132" lon="5.93683">
        <ele>1812.96704924</ele>
        <time>2016-08-19T09:32:46Z</time>
      </trkpt>
      <trkpt lat="45.43132" lon="5.93683">
        <ele>1812.96704924</ele>
        <time>2016-08-19T09:32:51Z</time>
      </trkpt>
      <trkpt lat="45.43132" lon="5.93683">
        <ele>1812.96704924</ele>
        <time>2016-08-19T09:33:01Z</time>
      </trkpt>
      <trkpt lat="45.43132" lon="5.93683">
        <ele>1812.96704924</ele>
        <time>2016-08-19T09:33:05Z</time>
      </trkpt>
      <trkpt lat="45.43132" lon="5.93683">
        <ele>1812.96704924</ele>
        <time>2016-08-19T09:33:15Z</time>
      </trkpt>
      <trkpt lat="45.43132" lon="5.93683">
        <ele>1812.96704924</ele>
        <time>2016-08-19T09:33:21Z</time>
      </trkpt>
      <trkpt lat="45.43132" lon="5.93683">
        <ele>1812.96704924</ele>
        <time>2016-08-19T09:33:31Z</time>
      </trkpt>
      <trkpt lat="45.43132" lon="5.93683">
        <ele>1812.96704924</ele>
        <time>2016-08-19T09:33:36Z</time>
      </trkpt>
      <trkpt lat="45.43132" lon="5.93683">
        <ele>1812.96704924</ele>
        <time>2016-08-19T09:33:50Z</time>
      </trkpt>
      <trkpt lat="45.43132" lon="5.93683">
        <ele>1812.96704924</ele>
        <time>2016-08-19T09:33:55Z</time>
      </trkpt>
      <trkpt lat="45.43132" lon="5.93683">
        <ele>1812.96704924</ele>
        <time>2016-08-19T09:34:05Z</time>
      </trkpt>
      <trkpt lat="45.43132" lon="5.93683">
        <ele>1812.96704924</ele>
        <time>2016-08-19T09:34:10Z</time>
      </trkpt>
      <trkpt lat="45.43132" lon="5.93683">
        <ele>1812.96704924</ele>
        <time>2016-08-19T09:34:20Z</time>
      </trkpt>
      <trkpt lat="45.43132" lon="5.93683">
        <ele>1812.96704924</ele>
        <time>2016-08-19T09:34:25Z</time>
      </trkpt>
      <trkpt lat="45.43132" lon="5.93683">
        <ele>1812.96704924</ele>
        <time>2016-08-19T09:34:36Z</time>
      </trkpt>
      <trkpt lat="45.43132" lon="5.93683">
        <ele>1812.96704924</ele>
        <time>2016-08-19T09:34:41Z</time>
      </trkpt>
      <trkpt lat="45.43132" lon="5.93683">
        <ele>1812.96704924</ele>
        <time>2016-08-19T09:34:51Z</time>
      </trkpt>
      <trkpt lat="45.43132" lon="5.93683">
        <ele>1812.96704924</ele>
        <time>2016-08-19T09:34:56Z</time>
      </trkpt>
      <trkpt lat="45.43131" lon="5.93678">
        <ele>1812.96704924</ele>
        <time>2016-08-19T09:35:06Z</time>
      </trkpt>
      <trkpt lat="45.43119" lon="5.93668">
        <ele>1811.413543649</ele>
        <time>2016-08-19T09:35:11Z</time>
      </trkpt>
      <trkpt lat="45.43112" lon="5.93654">
        <ele>1810.143308762</ele>
        <time>2016-08-19T09:35:21Z</time>
      </trkpt>
      <trkpt lat="45.43111" lon="5.9365">
        <ele>1810.143308762</ele>
        <time>2016-08-19T09:35:26Z</time>
      </trkpt>
      <trkpt lat="45.43111" lon="5.93648">
        <ele>1810.143308762</ele>
        <time>2016-08-19T09:35:35Z</time>
      </trkpt>
      <trkpt lat="45.43111" lon="5.93648">
        <ele>1810.143308762</ele>
        <time>2016-08-19T09:35:41Z</time>
      </trkpt>
      <trkpt lat="45.43111" lon="5.93648">
        <ele>1810.143308762</ele>
        <time>2016-08-19T09:35:51Z</time>
      </trkpt>
      <trkpt lat="45.43111" lon="5.93648">
        <ele>1810.143308762</ele>
        <time>2016-08-19T09:35:56Z</time>
      </trkpt>
      <trkpt lat="45.43111" lon="5.93648">
        <ele>1810.143308762</ele>
        <time>2016-08-19T09:36:06Z</time>
      </trkpt>
      <trkpt lat="45.43111" lon="5.93648">
        <ele>1810.143308762</ele>
        <time>2016-08-19T09:36:11Z</time>
      </trkpt>
      <trkpt lat="45.43111" lon="5.93648">
        <ele>1810.143308762</ele>
        <time>2016-08-19T09:36:21Z</time>
      </trkpt>
      <trkpt lat="45.43117" lon="5.93639">
        <ele>1809.875844326</ele>
        <time>2016-08-19T09:36:26Z</time>
      </trkpt>
      <trkpt lat="45.43126" lon="5.93623">
        <ele>1810.279585953</ele>
        <time>2016-08-19T09:36:36Z</time>
      </trkpt>
      <trkpt lat="45.43122" lon="5.93618">
        <ele>1810.279585953</ele>
        <time>2016-08-19T09:36:41Z</time>
      </trkpt>
      <trkpt lat="45.43117" lon="5.93619">
        <ele>1811.911197779</ele>
        <time>2016-08-19T09:36:51Z</time>
      </trkpt>
      <trkpt lat="45.43115" lon="5.9362">
        <ele>1811.911197779</ele>
        <time>2016-08-19T09:36:56Z</time>
      </trkpt>
      <trkpt lat="45.43116" lon="5.93619">
        <ele>1811.911197779</ele>
        <time>2016-08-19T09:37:01Z</time>
      </trkpt>
      <trkpt lat="45.43118" lon="5.93623">
        <ele>1811.911197779</ele>
        <time>2016-08-19T09:37:11Z</time>
      </trkpt>
      <trkpt lat="45.4312" lon="5.93624">
        <ele>1811.911197779</ele>
        <time>2016-08-19T09:37:16Z</time>
      </trkpt>
      <trkpt lat="45.43121" lon="5.93627">
        <ele>1814.119709637</ele>
        <time>2016-08-19T09:37:26Z</time>
      </trkpt>
      <trkpt lat="45.43121" lon="5.93626">
        <ele>1814.119709637</ele>
        <time>2016-08-19T09:37:30Z</time>
      </trkpt>
      <trkpt lat="45.43121" lon="5.93626">
        <ele>1814.119709637</ele>
        <time>2016-08-19T09:37:41Z</time>
      </trkpt>
      <trkpt lat="45.43124" lon="5.93619">
        <ele>1814.119709637</ele>
        <time>2016-08-19T09:37:46Z</time>
      </trkpt>
      <trkpt lat="45.43124" lon="5.93609">
        <ele>1817.169586133</ele>
        <time>2016-08-19T09:37:56Z</time>
      </trkpt>
      <trkpt lat="45.43127" lon="5.93605">
        <ele>1817.169586133</ele>
        <time>2016-08-19T09:38:01Z</time>
      </trkpt>
      <trkpt lat="45.43129" lon="5.936">
        <ele>1817.169586133</ele>
        <time>2016-08-19T09:38:10Z</time>
      </trkpt>
      <trkpt lat="45.4313" lon="5.93599">
        <ele>1817.169586133</ele>
        <time>2016-08-19T09:38:15Z</time>
      </trkpt>
      <trkpt lat="45.43129" lon="5.936">
        <ele>1819.822490475</ele>
        <time>2016-08-19T09:38:20Z</time>
      </trkpt>
      <trkpt lat="45.43129" lon="5.93599">
        <ele>1819.822490475</ele>
        <time>2016-08-19T09:38:25Z</time>
      </trkpt>
      <trkpt lat="45.43129" lon="5.93599">
        <ele>1819.822490475</ele>
        <time>2016-08-19T09:38:30Z</time>
      </trkpt>
      <trkpt lat="45.43129" lon="5.93599">
        <ele>1819.822490475</ele>
        <time>2016-08-19T09:38:35Z</time>
      </trkpt>
      <trkpt lat="45.43129" lon="5.93599">
        <ele>1819.822490475</ele>
        <time>2016-08-19T09:38:40Z</time>
      </trkpt>
      <trkpt lat="45.43129" lon="5.93599">
        <ele>1819.822490475</ele>
        <time>2016-08-19T09:38:45Z</time>
      </trkpt>
      <trkpt lat="45.43129" lon="5.93599">
        <ele>1819.822490475</ele>
        <time>2016-08-19T09:38:50Z</time>
      </trkpt>
      <trkpt lat="45.43129" lon="5.93599">
        <ele>1819.822490475</ele>
        <time>2016-08-19T09:38:55Z</time>
      </trkpt>
      <trkpt lat="45.43129" lon="5.93599">
        <ele>1819.822490475</ele>
        <time>2016-08-19T09:39:00Z</time>
      </trkpt>
      <trkpt lat="45.43129" lon="5.93599">
        <ele>1819.822490475</ele>
        <time>2016-08-19T09:39:05Z</time>
      </trkpt>
      <trkpt lat="45.43129" lon="5.93599">
        <ele>1819.822490475</ele>
        <time>2016-08-19T09:39:10Z</time>
      </trkpt>
      <trkpt lat="45.43129" lon="5.93599">
        <ele>1819.822490475</ele>
        <time>2016-08-19T09:39:15Z</time>
      </trkpt>
      <trkpt lat="45.43129" lon="5.93599">
        <ele>1819.822490475</ele>
        <time>2016-08-19T09:39:21Z</time>
      </trkpt>
      <trkpt lat="45.4313" lon="5.93599">
        <ele>1819.822490475</ele>
        <time>2016-08-19T09:39:31Z</time>
      </trkpt>
      <trkpt lat="45.4313" lon="5.93598">
        <ele>1819.822490475</ele>
        <time>2016-08-19T09:39:36Z</time>
      </trkpt>
      <trkpt lat="45.43131" lon="5.93596">
        <ele>1819.822490475</ele>
        <time>2016-08-19T09:39:46Z</time>
      </trkpt>
      <trkpt lat="45.43131" lon="5.93597">
        <ele>1819.822490475</ele>
        <time>2016-08-19T09:39:51Z</time>
      </trkpt>
      <trkpt lat="45.43131" lon="5.93597">
        <ele>1819.822490475</ele>
        <time>2016-08-19T09:40:01Z</time>
      </trkpt>
      <trkpt lat="45.43131" lon="5.93597">
        <ele>1819.822490475</ele>
        <time>2016-08-19T09:40:06Z</time>
      </trkpt>
      <trkpt lat="45.43131" lon="5.93597">
        <ele>1819.822490475</ele>
        <time>2016-08-19T09:40:16Z</time>
      </trkpt>
      <trkpt lat="45.43131" lon="5.93597">
        <ele>1819.822490475</ele>
        <time>2016-08-19T09:40:21Z</time>
      </trkpt>
      <trkpt lat="45.43131" lon="5.93597">
        <ele>1819.822490475</ele>
        <time>2016-08-19T09:40:31Z</time>
      </trkpt>
      <trkpt lat="45.43131" lon="5.93597">
        <ele>1819.822490475</ele>
        <time>2016-08-19T09:40:36Z</time>
      </trkpt>
      <trkpt lat="45.43131" lon="5.93597">
        <ele>1819.822490475</ele>
        <time>2016-08-19T09:40:47Z</time>
      </trkpt>
      <trkpt lat="45.43131" lon="5.93597">
        <ele>1819.822490475</ele>
        <time>2016-08-19T09:40:51Z</time>
      </trkpt>
      <trkpt lat="45.43131" lon="5.93597">
        <ele>1819.822490475</ele>
        <time>2016-08-19T09:41:01Z</time>
      </trkpt>
      <trkpt lat="45.43132" lon="5.93596">
        <ele>1819.822490475</ele>
        <time>2016-08-19T09:41:06Z</time>
      </trkpt>
      <trkpt lat="45.43133" lon="5.93596">
        <ele>1819.822490475</ele>
        <time>2016-08-19T09:41:10Z</time>
      </trkpt>
      <trkpt lat="45.43134" lon="5.93595">
        <ele>1826</ele>
        <time>2016-08-19T09:42:23Z</time>
      </trkpt>
      <trkpt lat="45.43133" lon="5.93595">
        <ele>1826</ele>
        <time>2016-08-19T09:42:28Z</time>
      </trkpt>
      <trkpt lat="45.43133" lon="5.93595">
        <ele>1826</ele>
        <time>2016-08-19T09:42:33Z</time>
      </trkpt>
      <trkpt lat="45.43133" lon="5.93595">
        <ele>1826</ele>
        <time>2016-08-19T09:42:38Z</time>
      </trkpt>
      <trkpt lat="45.43133" lon="5.93595">
        <ele>1826</ele>
        <time>2016-08-19T09:42:43Z</time>
      </trkpt>
      <trkpt lat="45.43133" lon="5.93595">
        <ele>1826</ele>
        <time>2016-08-19T09:42:48Z</time>
      </trkpt>
      <trkpt lat="45.43133" lon="5.93595">
        <ele>1826</ele>
        <time>2016-08-19T09:42:53Z</time>
      </trkpt>
      <trkpt lat="45.43133" lon="5.93595">
        <ele>1826</ele>
        <time>2016-08-19T09:42:58Z</time>
      </trkpt>
      <trkpt lat="45.43133" lon="5.93595">
        <ele>1826</ele>
        <time>2016-08-19T09:43:03Z</time>
      </trkpt>
      <trkpt lat="45.43133" lon="5.93595">
        <ele>1826</ele>
        <time>2016-08-19T09:43:08Z</time>
      </trkpt>
      <trkpt lat="45.43133" lon="5.93595">
        <ele>1826</ele>
        <time>2016-08-19T09:43:13Z</time>
      </trkpt>
      <trkpt lat="45.43133" lon="5.93595">
        <ele>1826</ele>
        <time>2016-08-19T09:43:18Z</time>
      </trkpt>
      <trkpt lat="45.43133" lon="5.93595">
        <ele>1826</ele>
        <time>2016-08-19T09:43:23Z</time>
      </trkpt>
      <trkpt lat="45.43132" lon="5.93596">
        <ele>1826</ele>
        <time>2016-08-19T09:43:28Z</time>
      </trkpt>
      <trkpt lat="45.43132" lon="5.93598">
        <ele>1826</ele>
        <time>2016-08-19T09:43:33Z</time>
      </trkpt>
      <trkpt lat="45.43133" lon="5.93598">
        <ele>1826</ele>
        <time>2016-08-19T09:43:38Z</time>
      </trkpt>
      <trkpt lat="45.43133" lon="5.93598">
        <ele>1826</ele>
        <time>2016-08-19T09:43:43Z</time>
      </trkpt>
      <trkpt lat="45.43133" lon="5.93598">
        <ele>1826</ele>
        <time>2016-08-19T09:43:48Z</time>
      </trkpt>
      <trkpt lat="45.43133" lon="5.93598">
        <ele>1826</ele>
        <time>2016-08-19T09:43:53Z</time>
      </trkpt>
      <trkpt lat="45.43133" lon="5.93598">
        <ele>1826</ele>
        <time>2016-08-19T09:44:03Z</time>
      </trkpt>
      <trkpt lat="45.43133" lon="5.93598">
        <ele>1826</ele>
        <time>2016-08-19T09:44:08Z</time>
      </trkpt>
      <trkpt lat="45.43132" lon="5.93598">
        <ele>1826</ele>
        <time>2016-08-19T09:44:13Z</time>
      </trkpt>
      <trkpt lat="45.43131" lon="5.93599">
        <ele>1826</ele>
        <time>2016-08-19T09:44:18Z</time>
      </trkpt>
      <trkpt lat="45.43133" lon="5.93601">
        <ele>1826</ele>
        <time>2016-08-19T09:44:23Z</time>
      </trkpt>
      <trkpt lat="45.43133" lon="5.93601">
        <ele>1826</ele>
        <time>2016-08-19T09:44:28Z</time>
      </trkpt>
      <trkpt lat="45.43132" lon="5.93601">
        <ele>1826</ele>
        <time>2016-08-19T09:44:33Z</time>
      </trkpt>
      <trkpt lat="45.43134" lon="5.93596">
        <ele>1825.425781585</ele>
        <time>2016-08-19T09:44:48Z</time>
      </trkpt>
      <trkpt lat="45.43135" lon="5.93594">
        <ele>1825.425781585</ele>
        <time>2016-08-19T09:44:53Z</time>
      </trkpt>
      <trkpt lat="45.4314" lon="5.93588">
        <ele>1825.425781585</ele>
        <time>2016-08-19T09:45:04Z</time>
      </trkpt>
      <trkpt lat="45.43142" lon="5.93583">
        <ele>1833.570656084</ele>
        <time>2016-08-19T09:45:09Z</time>
      </trkpt>
      <trkpt lat="45.43142" lon="5.93581">
        <ele>1833.570656084</ele>
        <time>2016-08-19T09:45:19Z</time>
      </trkpt>
      <trkpt lat="45.43142" lon="5.93581">
        <ele>1833.570656084</ele>
        <time>2016-08-19T09:45:24Z</time>
      </trkpt>
      <trkpt lat="45.43142" lon="5.93581">
        <ele>1833.570656084</ele>
        <time>2016-08-19T09:45:34Z</time>
      </trkpt>
      <trkpt lat="45.43144" lon="5.93581">
        <ele>1833.570656084</ele>
        <time>2016-08-19T09:45:39Z</time>
      </trkpt>
      <trkpt lat="45.43144" lon="5.93578">
        <ele>1833.570656084</ele>
        <time>2016-08-19T09:45:49Z</time>
      </trkpt>
      <trkpt lat="45.43145" lon="5.93578">
        <ele>1833.570656084</ele>
        <time>2016-08-19T09:45:54Z</time>
      </trkpt>
      <trkpt lat="45.43145" lon="5.93578">
        <ele>1833.570656084</ele>
        <time>2016-08-19T09:46:04Z</time>
      </trkpt>
      <trkpt lat="45.43145" lon="5.93578">
        <ele>1833.570656084</ele>
        <time>2016-08-19T09:46:09Z</time>
      </trkpt>
      <trkpt lat="45.43145" lon="5.93578">
        <ele>1833.570656084</ele>
        <time>2016-08-19T09:46:19Z</time>
      </trkpt>
      <trkpt lat="45.43145" lon="5.93578">
        <ele>1833.570656084</ele>
        <time>2016-08-19T09:46:24Z</time>
      </trkpt>
      <trkpt lat="45.43145" lon="5.93578">
        <ele>1833.570656084</ele>
        <time>2016-08-19T09:46:33Z</time>
      </trkpt>
      <trkpt lat="45.43145" lon="5.93578">
        <ele>1833.570656084</ele>
        <time>2016-08-19T09:46:39Z</time>
      </trkpt>
      <trkpt lat="45.43145" lon="5.93578">
        <ele>1833.570656084</ele>
        <time>2016-08-19T09:46:49Z</time>
      </trkpt>
      <trkpt lat="45.43145" lon="5.93578">
        <ele>1833.570656084</ele>
        <time>2016-08-19T09:46:53Z</time>
      </trkpt>
      <trkpt lat="45.43145" lon="5.93578">
        <ele>1833.570656084</ele>
        <time>2016-08-19T09:47:04Z</time>
      </trkpt>
      <trkpt lat="45.43145" lon="5.93578">
        <ele>1833.570656084</ele>
        <time>2016-08-19T09:47:09Z</time>
      </trkpt>
      <trkpt lat="45.43145" lon="5.93578">
        <ele>1833.570656084</ele>
        <time>2016-08-19T09:47:19Z</time>
      </trkpt>
      <trkpt lat="45.43145" lon="5.93578">
        <ele>1833.570656084</ele>
        <time>2016-08-19T09:47:23Z</time>
      </trkpt>
      <trkpt lat="45.43145" lon="5.93577">
        <ele>1822</ele>
        <time>2016-08-19T09:47:45Z</time>
      </trkpt>
      <trkpt lat="45.43144" lon="5.93576">
        <ele>1822</ele>
        <time>2016-08-19T09:47:48Z</time>
      </trkpt>
      <trkpt lat="45.43147" lon="5.93573">
        <ele>1822</ele>
        <time>2016-08-19T09:47:58Z</time>
      </trkpt>
      <trkpt lat="45.43147" lon="5.93572">
        <ele>1822</ele>
        <time>2016-08-19T09:48:03Z</time>
      </trkpt>
      <trkpt lat="45.43147" lon="5.93572">
        <ele>1822</ele>
        <time>2016-08-19T09:48:13Z</time>
      </trkpt>
      <trkpt lat="45.43147" lon="5.93572">
        <ele>1822</ele>
        <time>2016-08-19T09:48:18Z</time>
      </trkpt>
      <trkpt lat="45.43147" lon="5.93572">
        <ele>1822</ele>
        <time>2016-08-19T09:48:27Z</time>
      </trkpt>
      <trkpt lat="45.43147" lon="5.93572">
        <ele>1822</ele>
        <time>2016-08-19T09:48:32Z</time>
      </trkpt>
      <trkpt lat="45.43147" lon="5.93572">
        <ele>1822</ele>
        <time>2016-08-19T09:48:47Z</time>
      </trkpt>
      <trkpt lat="45.43147" lon="5.93572">
        <ele>1822</ele>
        <time>2016-08-19T09:48:52Z</time>
      </trkpt>
      <trkpt lat="45.43147" lon="5.93572">
        <ele>1822</ele>
        <time>2016-08-19T09:49:02Z</time>
      </trkpt>
      <trkpt lat="45.43147" lon="5.93572">
        <ele>1822</ele>
        <time>2016-08-19T09:49:07Z</time>
      </trkpt>
      <trkpt lat="45.43135" lon="5.93568">
        <ele>1827.292880646</ele>
        <time>2016-08-19T09:49:18Z</time>
      </trkpt>
      <trkpt lat="45.4313" lon="5.93559">
        <ele>1827.292880646</ele>
        <time>2016-08-19T09:49:23Z</time>
      </trkpt>
      <trkpt lat="45.43122" lon="5.93548">
        <ele>1834.987822317</ele>
        <time>2016-08-19T09:49:33Z</time>
      </trkpt>
      <trkpt lat="45.43121" lon="5.93541">
        <ele>1834.987822317</ele>
        <time>2016-08-19T09:49:38Z</time>
      </trkpt>
      <trkpt lat="45.43115" lon="5.93525">
        <ele>1843.345065761</ele>
        <time>2016-08-19T09:49:48Z</time>
      </trkpt>
      <trkpt lat="45.43109" lon="5.93518">
        <ele>1843.345065761</ele>
        <time>2016-08-19T09:49:53Z</time>
      </trkpt>
      <trkpt lat="45.43099" lon="5.93513">
        <ele>1851.926336202</ele>
        <time>2016-08-19T09:50:03Z</time>
      </trkpt>
      <trkpt lat="45.431" lon="5.93512">
        <ele>1851.926336202</ele>
        <time>2016-08-19T09:50:08Z</time>
      </trkpt>
      <trkpt lat="45.43084" lon="5.93516">
        <ele>1861.103727644</ele>
        <time>2016-08-19T09:50:18Z</time>
      </trkpt>
      <trkpt lat="45.43077" lon="5.93517">
        <ele>1861.103727644</ele>
        <time>2016-08-19T09:50:23Z</time>
      </trkpt>
      <trkpt lat="45.43077" lon="5.93517">
        <ele>1861.103727644</ele>
        <time>2016-08-19T09:50:28Z</time>
      </trkpt>
      <trkpt lat="45.43069" lon="5.93519">
        <ele>1869.993775521</ele>
        <time>2016-08-19T09:50:33Z</time>
      </trkpt>
      <trkpt lat="45.43068" lon="5.93519">
        <ele>1869.993775521</ele>
        <time>2016-08-19T09:50:38Z</time>
      </trkpt>
      <trkpt lat="45.43064" lon="5.93517">
        <ele>1869.993775521</ele>
        <time>2016-08-19T09:50:43Z</time>
      </trkpt>
      <trkpt lat="45.4306" lon="5.93518">
        <ele>1869.993775521</ele>
        <time>2016-08-19T09:50:53Z</time>
      </trkpt>
      <trkpt lat="45.43058" lon="5.93518">
        <ele>1877.704617968</ele>
        <time>2016-08-19T09:50:57Z</time>
      </trkpt>
      <trkpt lat="45.43047" lon="5.93518">
        <ele>1884.437154773</ele>
        <time>2016-08-19T09:51:07Z</time>
      </trkpt>
      <trkpt lat="45.43043" lon="5.93512">
        <ele>1884.437154773</ele>
        <time>2016-08-19T09:51:13Z</time>
      </trkpt>
      <trkpt lat="45.43041" lon="5.93507">
        <ele>1889.372152213</ele>
        <time>2016-08-19T09:51:23Z</time>
      </trkpt>
      <trkpt lat="45.43041" lon="5.93506">
        <ele>1889.372152213</ele>
        <time>2016-08-19T09:51:28Z</time>
      </trkpt>
      <trkpt lat="45.43031" lon="5.93496">
        <ele>1892.537104391</ele>
        <time>2016-08-19T09:51:38Z</time>
      </trkpt>
      <trkpt lat="45.43028" lon="5.93494">
        <ele>1892.537104391</ele>
        <time>2016-08-19T09:51:43Z</time>
      </trkpt>
      <trkpt lat="45.43015" lon="5.93494">
        <ele>1893.865366848</ele>
        <time>2016-08-19T09:51:53Z</time>
      </trkpt>
      <trkpt lat="45.43009" lon="5.93489">
        <ele>1893.865366848</ele>
        <time>2016-08-19T09:51:58Z</time>
      </trkpt>
      <trkpt lat="45.43003" lon="5.93481">
        <ele>1894.37522454</ele>
        <time>2016-08-19T09:52:08Z</time>
      </trkpt>
      <trkpt lat="45.43001" lon="5.93482">
        <ele>1894.37522454</ele>
        <time>2016-08-19T09:52:12Z</time>
      </trkpt>
      <trkpt lat="45.42996" lon="5.93481">
        <ele>1894.37522454</ele>
        <time>2016-08-19T09:52:17Z</time>
      </trkpt>
      <trkpt lat="45.42996" lon="5.93481">
        <ele>1894.37522454</ele>
        <time>2016-08-19T09:52:22Z</time>
      </trkpt>
      <trkpt lat="45.42992" lon="5.93479">
        <ele>1893.725740956</ele>
        <time>2016-08-19T09:52:28Z</time>
      </trkpt>
      <trkpt lat="45.42984" lon="5.93472">
        <ele>1892.139277463</ele>
        <time>2016-08-19T09:52:38Z</time>
      </trkpt>
      <trkpt lat="45.42982" lon="5.93465">
        <ele>1892.139277463</ele>
        <time>2016-08-19T09:52:43Z</time>
      </trkpt>
      <trkpt lat="45.42973" lon="5.9346">
        <ele>1889.168874662</ele>
        <time>2016-08-19T09:52:53Z</time>
      </trkpt>
      <trkpt lat="45.42968" lon="5.93457">
        <ele>1889.168874662</ele>
        <time>2016-08-19T09:52:58Z</time>
      </trkpt>
      <trkpt lat="45.42961" lon="5.93452">
        <ele>1885.904214667</ele>
        <time>2016-08-19T09:53:08Z</time>
      </trkpt>
      <trkpt lat="45.4296" lon="5.9345">
        <ele>1885.904214667</ele>
        <time>2016-08-19T09:53:12Z</time>
      </trkpt>
      <trkpt lat="45.4296" lon="5.93451">
        <ele>1885.904214667</ele>
        <time>2016-08-19T09:53:17Z</time>
      </trkpt>
      <trkpt lat="45.4296" lon="5.93451">
        <ele>1885.904214667</ele>
        <time>2016-08-19T09:53:22Z</time>
      </trkpt>
      <trkpt lat="45.4296" lon="5.93451">
        <ele>1885.904214667</ele>
        <time>2016-08-19T09:53:27Z</time>
      </trkpt>
      <trkpt lat="45.4296" lon="5.93451">
        <ele>1885.904214667</ele>
        <time>2016-08-19T09:53:32Z</time>
      </trkpt>
      <trkpt lat="45.4296" lon="5.93451">
        <ele>1885.904214667</ele>
        <time>2016-08-19T09:53:37Z</time>
      </trkpt>
      <trkpt lat="45.42958" lon="5.93435">
        <ele>1882.980091378</ele>
        <time>2016-08-19T09:53:48Z</time>
      </trkpt>
      <trkpt lat="45.42956" lon="5.93432">
        <ele>1882.980091378</ele>
        <time>2016-08-19T09:53:53Z</time>
      </trkpt>
      <trkpt lat="45.42954" lon="5.93418">
        <ele>1879.320860361</ele>
        <time>2016-08-19T09:54:03Z</time>
      </trkpt>
      <trkpt lat="45.42955" lon="5.9341">
        <ele>1879.320860361</ele>
        <time>2016-08-19T09:54:08Z</time>
      </trkpt>
      <trkpt lat="45.42945" lon="5.934">
        <ele>1876.676025822</ele>
        <time>2016-08-19T09:54:18Z</time>
      </trkpt>
      <trkpt lat="45.42947" lon="5.93396">
        <ele>1876.676025822</ele>
        <time>2016-08-19T09:54:23Z</time>
      </trkpt>
      <trkpt lat="45.42938" lon="5.93381">
        <ele>1874.041962607</ele>
        <time>2016-08-19T09:54:33Z</time>
      </trkpt>
      <trkpt lat="45.42929" lon="5.93382">
        <ele>1874.041962607</ele>
        <time>2016-08-19T09:54:38Z</time>
      </trkpt>
      <trkpt lat="45.42923" lon="5.9337">
        <ele>1870.838665114</ele>
        <time>2016-08-19T09:54:48Z</time>
      </trkpt>
      <trkpt lat="45.42917" lon="5.93366">
        <ele>1870.838665114</ele>
        <time>2016-08-19T09:54:53Z</time>
      </trkpt>
      <trkpt lat="45.4291" lon="5.93355">
        <ele>1867.922571948</ele>
        <time>2016-08-19T09:55:08Z</time>
      </trkpt>
      <trkpt lat="45.42912" lon="5.93354">
        <ele>1867.922571948</ele>
        <time>2016-08-19T09:55:13Z</time>
      </trkpt>
      <trkpt lat="45.42914" lon="5.93351">
        <ele>1867.922571948</ele>
        <time>2016-08-19T09:55:23Z</time>
      </trkpt>
      <trkpt lat="45.42913" lon="5.9335">
        <ele>1867.922571948</ele>
        <time>2016-08-19T09:55:28Z</time>
      </trkpt>
      <trkpt lat="45.42908" lon="5.93343">
        <ele>1864.532180516</ele>
        <time>2016-08-19T09:55:37Z</time>
      </trkpt>
      <trkpt lat="45.42907" lon="5.93343">
        <ele>1864.532180516</ele>
        <time>2016-08-19T09:55:42Z</time>
      </trkpt>
      <trkpt lat="45.42903" lon="5.93338">
        <ele>1864.532180516</ele>
        <time>2016-08-19T09:55:47Z</time>
      </trkpt>
      <trkpt lat="45.429" lon="5.93323">
        <ele>1860.882194961</ele>
        <time>2016-08-19T09:55:58Z</time>
      </trkpt>
      <trkpt lat="45.42894" lon="5.93321">
        <ele>1860.882194961</ele>
        <time>2016-08-19T09:56:03Z</time>
      </trkpt>
      <trkpt lat="45.42883" lon="5.9331">
        <ele>1857.737932683</ele>
        <time>2016-08-19T09:56:13Z</time>
      </trkpt>
      <trkpt lat="45.4288" lon="5.93305">
        <ele>1857.737932683</ele>
        <time>2016-08-19T09:56:18Z</time>
      </trkpt>
      <trkpt lat="45.42869" lon="5.93295">
        <ele>1854.761642906</ele>
        <time>2016-08-19T09:56:28Z</time>
      </trkpt>
      <trkpt lat="45.42865" lon="5.93291">
        <ele>1854.761642906</ele>
        <time>2016-08-19T09:56:33Z</time>
      </trkpt>
      <trkpt lat="45.42859" lon="5.93282">
        <ele>1851.509214368</ele>
        <time>2016-08-19T09:56:43Z</time>
      </trkpt>
      <trkpt lat="45.42857" lon="5.93277">
        <ele>1851.509214368</ele>
        <time>2016-08-19T09:56:48Z</time>
      </trkpt>
      <trkpt lat="45.42844" lon="5.93266">
        <ele>1848.005620378</ele>
        <time>2016-08-19T09:56:58Z</time>
      </trkpt>
      <trkpt lat="45.42842" lon="5.93264">
        <ele>1848.005620378</ele>
        <time>2016-08-19T09:57:03Z</time>
      </trkpt>
      <trkpt lat="45.42839" lon="5.93254">
        <ele>1844.411359587</ele>
        <time>2016-08-19T09:57:13Z</time>
      </trkpt>
      <trkpt lat="45.42837" lon="5.93246">
        <ele>1844.411359587</ele>
        <time>2016-08-19T09:57:18Z</time>
      </trkpt>
      <trkpt lat="45.42829" lon="5.93229">
        <ele>1840.870878092</ele>
        <time>2016-08-19T09:57:33Z</time>
      </trkpt>
      <trkpt lat="45.42822" lon="5.93229">
        <ele>1840.870878092</ele>
        <time>2016-08-19T09:57:38Z</time>
      </trkpt>
      <trkpt lat="45.42813" lon="5.93216">
        <ele>1837.377611453</ele>
        <time>2016-08-19T09:57:48Z</time>
      </trkpt>
      <trkpt lat="45.42812" lon="5.93212">
        <ele>1837.377611453</ele>
        <time>2016-08-19T09:57:53Z</time>
      </trkpt>
      <trkpt lat="45.42807" lon="5.93198">
        <ele>1833.788390011</ele>
        <time>2016-08-19T09:58:02Z</time>
      </trkpt>
      <trkpt lat="45.42804" lon="5.93193">
        <ele>1833.788390011</ele>
        <time>2016-08-19T09:58:08Z</time>
      </trkpt>
      <trkpt lat="45.42799" lon="5.93185">
        <ele>1829.694947803</ele>
        <time>2016-08-19T09:58:18Z</time>
      </trkpt>
      <trkpt lat="45.42799" lon="5.93185">
        <ele>1829.694947803</ele>
        <time>2016-08-19T09:58:22Z</time>
      </trkpt>
      <trkpt lat="45.428" lon="5.93172">
        <ele>1829.694947803</ele>
        <time>2016-08-19T09:58:33Z</time>
      </trkpt>
      <trkpt lat="45.42796" lon="5.93168">
        <ele>1824.996550794</ele>
        <time>2016-08-19T09:58:38Z</time>
      </trkpt>
      <trkpt lat="45.4279" lon="5.93157">
        <ele>1820.716101773</ele>
        <time>2016-08-19T09:58:48Z</time>
      </trkpt>
      <trkpt lat="45.42788" lon="5.93148">
        <ele>1820.716101773</ele>
        <time>2016-08-19T09:58:53Z</time>
      </trkpt>
      <trkpt lat="45.4278" lon="5.93134">
        <ele>1816.83682938</ele>
        <time>2016-08-19T09:59:03Z</time>
      </trkpt>
      <trkpt lat="45.42777" lon="5.93131">
        <ele>1816.83682938</ele>
        <time>2016-08-19T09:59:08Z</time>
      </trkpt>
      <trkpt lat="45.42768" lon="5.93123">
        <ele>1812.218366189</ele>
        <time>2016-08-19T09:59:17Z</time>
      </trkpt>
      <trkpt lat="45.42767" lon="5.93122">
        <ele>1812.218366189</ele>
        <time>2016-08-19T09:59:23Z</time>
      </trkpt>
      <trkpt lat="45.42759" lon="5.93128">
        <ele>1807.627056793</ele>
        <time>2016-08-19T09:59:32Z</time>
      </trkpt>
      <trkpt lat="45.42757" lon="5.93124">
        <ele>1807.627056793</ele>
        <time>2016-08-19T09:59:38Z</time>
      </trkpt>
      <trkpt lat="45.42753" lon="5.93117">
        <ele>1802.935094065</ele>
        <time>2016-08-19T09:59:42Z</time>
      </trkpt>
      <trkpt lat="45.4275" lon="5.93114">
        <ele>1802.935094065</ele>
        <time>2016-08-19T09:59:47Z</time>
      </trkpt>
      <trkpt lat="45.42747" lon="5.93114">
        <ele>1802.935094065</ele>
        <time>2016-08-19T09:59:53Z</time>
      </trkpt>
      <trkpt lat="45.42743" lon="5.93106">
        <ele>1798.885004709</ele>
        <time>2016-08-19T09:59:58Z</time>
      </trkpt>
      <trkpt lat="45.4274" lon="5.93095">
        <ele>1798.885004709</ele>
        <time>2016-08-19T10:00:08Z</time>
      </trkpt>
      <trkpt lat="45.42739" lon="5.93088">
        <ele>1794.01020921</ele>
        <time>2016-08-19T10:00:13Z</time>
      </trkpt>
      <trkpt lat="45.42737" lon="5.9308">
        <ele>1794.01020921</ele>
        <time>2016-08-19T10:00:23Z</time>
      </trkpt>
      <trkpt lat="45.42737" lon="5.93077">
        <ele>1794.01020921</ele>
        <time>2016-08-19T10:00:28Z</time>
      </trkpt>
      <trkpt lat="45.42738" lon="5.93067">
        <ele>1788.815080167</ele>
        <time>2016-08-19T10:00:38Z</time>
      </trkpt>
      <trkpt lat="45.42737" lon="5.93064">
        <ele>1788.815080167</ele>
        <time>2016-08-19T10:00:43Z</time>
      </trkpt>
      <trkpt lat="45.42731" lon="5.93058">
        <ele>1783.486637385</ele>
        <time>2016-08-19T10:00:53Z</time>
      </trkpt>
      <trkpt lat="45.42729" lon="5.93058">
        <ele>1783.486637385</ele>
        <time>2016-08-19T10:00:58Z</time>
      </trkpt>
      <trkpt lat="45.42724" lon="5.93051">
        <ele>1778.497457669</ele>
        <time>2016-08-19T10:01:08Z</time>
      </trkpt>
      <trkpt lat="45.42725" lon="5.93043">
        <ele>1778.497457669</ele>
        <time>2016-08-19T10:01:13Z</time>
      </trkpt>
      <trkpt lat="45.42718" lon="5.93041">
        <ele>1773.550221775</ele>
        <time>2016-08-19T10:01:23Z</time>
      </trkpt>
      <trkpt lat="45.42716" lon="5.93043">
        <ele>1773.550221775</ele>
        <time>2016-08-19T10:01:28Z</time>
      </trkpt>
      <trkpt lat="45.42712" lon="5.93041">
        <ele>1773.550221775</ele>
        <time>2016-08-19T10:01:38Z</time>
      </trkpt>
      <trkpt lat="45.4271" lon="5.93033">
        <ele>1768.661204914</ele>
        <time>2016-08-19T10:01:43Z</time>
      </trkpt>
      <trkpt lat="45.42708" lon="5.93024">
        <ele>1768.661204914</ele>
        <time>2016-08-19T10:01:58Z</time>
      </trkpt>
      <trkpt lat="45.42698" lon="5.93017">
        <ele>1763.694688869</ele>
        <time>2016-08-19T10:02:13Z</time>
      </trkpt>
      <trkpt lat="45.42698" lon="5.93012">
        <ele>1763.694688869</ele>
        <time>2016-08-19T10:02:18Z</time>
      </trkpt>
      <trkpt lat="45.42701" lon="5.93012">
        <ele>1763.694688869</ele>
        <time>2016-08-19T10:02:27Z</time>
      </trkpt>
      <trkpt lat="45.42697" lon="5.9301">
        <ele>1757.6223688</ele>
        <time>2016-08-19T10:02:32Z</time>
      </trkpt>
      <trkpt lat="45.42696" lon="5.93002">
        <ele>1757.6223688</ele>
        <time>2016-08-19T10:02:42Z</time>
      </trkpt>
      <trkpt lat="45.4269" lon="5.92998">
        <ele>1752.647625389</ele>
        <time>2016-08-19T10:02:48Z</time>
      </trkpt>
      <trkpt lat="45.42683" lon="5.92994">
        <ele>1752.647625389</ele>
        <time>2016-08-19T10:02:58Z</time>
      </trkpt>
      <trkpt lat="45.42683" lon="5.92992">
        <ele>1749.310044608</ele>
        <time>2016-08-19T10:03:02Z</time>
      </trkpt>
      <trkpt lat="45.42681" lon="5.92989">
        <ele>1749.310044608</ele>
        <time>2016-08-19T10:03:13Z</time>
      </trkpt>
      <trkpt lat="45.42681" lon="5.92989">
        <ele>1749.310044608</ele>
        <time>2016-08-19T10:03:17Z</time>
      </trkpt>
      <trkpt lat="45.42681" lon="5.92989">
        <ele>1749.310044608</ele>
        <time>2016-08-19T10:03:28Z</time>
      </trkpt>
      <trkpt lat="45.42681" lon="5.92989">
        <ele>1749.310044608</ele>
        <time>2016-08-19T10:03:32Z</time>
      </trkpt>
      <trkpt lat="45.42681" lon="5.92989">
        <ele>1749.310044608</ele>
        <time>2016-08-19T10:03:42Z</time>
      </trkpt>
      <trkpt lat="45.42681" lon="5.92989">
        <ele>1749.310044608</ele>
        <time>2016-08-19T10:03:48Z</time>
      </trkpt>
      <trkpt lat="45.42681" lon="5.92989">
        <ele>1749.310044608</ele>
        <time>2016-08-19T10:03:58Z</time>
      </trkpt>
      <trkpt lat="45.42681" lon="5.92989">
        <ele>1749.310044608</ele>
        <time>2016-08-19T10:04:02Z</time>
      </trkpt>
      <trkpt lat="45.42681" lon="5.92989">
        <ele>1749.310044608</ele>
        <time>2016-08-19T10:04:12Z</time>
      </trkpt>
      <trkpt lat="45.42681" lon="5.92989">
        <ele>1749.310044608</ele>
        <time>2016-08-19T10:04:17Z</time>
      </trkpt>
      <trkpt lat="45.42681" lon="5.92989">
        <ele>1749.310044608</ele>
        <time>2016-08-19T10:04:27Z</time>
      </trkpt>
      <trkpt lat="45.42681" lon="5.92989">
        <ele>1749.310044608</ele>
        <time>2016-08-19T10:04:32Z</time>
      </trkpt>
      <trkpt lat="45.4268" lon="5.9299">
        <ele>1738.992538416</ele>
        <time>2016-08-19T10:11:32Z</time>
      </trkpt>
      <trkpt lat="45.42683" lon="5.9308">
        <ele>1728.675032224</ele>
        <time>2016-08-19T10:11:37Z</time>
      </trkpt>
      <trkpt lat="45.42665" lon="5.93035">
        <ele>1718.357526032</ele>
        <time>2016-08-19T10:11:50Z</time>
      </trkpt>
      <trkpt lat="45.42664" lon="5.93033">
        <ele>1718.357526032</ele>
        <time>2016-08-19T10:11:56Z</time>
      </trkpt>
      <trkpt lat="45.42665" lon="5.93028">
        <ele>1718.357526032</ele>
        <time>2016-08-19T10:12:06Z</time>
      </trkpt>
      <trkpt lat="45.42666" lon="5.93028">
        <ele>1718.357526032</ele>
        <time>2016-08-19T10:12:11Z</time>
      </trkpt>
      <trkpt lat="45.42672" lon="5.93018">
        <ele>1733.635700866</ele>
        <time>2016-08-19T10:12:21Z</time>
      </trkpt>
      <trkpt lat="45.42684" lon="5.92993">
        <ele>1747.419224821</ele>
        <time>2016-08-19T10:12:26Z</time>
      </trkpt>
      <trkpt lat="45.42681" lon="5.92977">
        <ele>1759.734601358</ele>
        <time>2016-08-19T10:12:36Z</time>
      </trkpt>
      <trkpt lat="45.4268" lon="5.92972">
        <ele>1759.734601358</ele>
        <time>2016-08-19T10:12:41Z</time>
      </trkpt>
      <trkpt lat="45.42676" lon="5.92966">
        <ele>1770.358958484</ele>
        <time>2016-08-19T10:12:51Z</time>
      </trkpt>
      <trkpt lat="45.42674" lon="5.92961">
        <ele>1770.358958484</ele>
        <time>2016-08-19T10:12:56Z</time>
      </trkpt>
      <trkpt lat="45.42673" lon="5.92958">
        <ele>1770.358958484</ele>
        <time>2016-08-19T10:13:06Z</time>
      </trkpt>
      <trkpt lat="45.42669" lon="5.92962">
        <ele>1777.958539655</ele>
        <time>2016-08-19T10:13:11Z</time>
      </trkpt>
      <trkpt lat="45.42669" lon="5.92959">
        <ele>1777.958539655</ele>
        <time>2016-08-19T10:13:21Z</time>
      </trkpt>
      <trkpt lat="45.4267" lon="5.92956">
        <ele>1777.958539655</ele>
        <time>2016-08-19T10:13:25Z</time>
      </trkpt>
      <trkpt lat="45.42671" lon="5.92957">
        <ele>1777.958539655</ele>
        <time>2016-08-19T10:13:30Z</time>
      </trkpt>
      <trkpt lat="45.42671" lon="5.92954">
        <ele>1777.958539655</ele>
        <time>2016-08-19T10:13:36Z</time>
      </trkpt>
      <trkpt lat="45.42677" lon="5.92965">
        <ele>1785.164941066</ele>
        <time>2016-08-19T10:13:46Z</time>
      </trkpt>
      <trkpt lat="45.42676" lon="5.92967">
        <ele>1785.164941066</ele>
        <time>2016-08-19T10:13:51Z</time>
      </trkpt>
      <trkpt lat="45.42695" lon="5.92964">
        <ele>1791.643969943</ele>
        <time>2016-08-19T10:14:01Z</time>
      </trkpt>
      <trkpt lat="45.42703" lon="5.92969">
        <ele>1791.643969943</ele>
        <time>2016-08-19T10:14:06Z</time>
      </trkpt>
      <trkpt lat="45.42708" lon="5.92973">
        <ele>1797.208574162</ele>
        <time>2016-08-19T10:14:11Z</time>
      </trkpt>
      <trkpt lat="45.42718" lon="5.9298">
        <ele>1801.459305023</ele>
        <time>2016-08-19T10:14:21Z</time>
      </trkpt>
      <trkpt lat="45.42724" lon="5.92977">
        <ele>1801.459305023</ele>
        <time>2016-08-19T10:14:26Z</time>
      </trkpt>
      <trkpt lat="45.42735" lon="5.92974">
        <ele>1803.792862516</ele>
        <time>2016-08-19T10:14:36Z</time>
      </trkpt>
      <trkpt lat="45.42739" lon="5.92968">
        <ele>1803.792862516</ele>
        <time>2016-08-19T10:14:41Z</time>
      </trkpt>
      <trkpt lat="45.42744" lon="5.9296">
        <ele>1803.730038951</ele>
        <time>2016-08-19T10:14:51Z</time>
      </trkpt>
      <trkpt lat="45.42746" lon="5.92954">
        <ele>1803.730038951</ele>
        <time>2016-08-19T10:14:56Z</time>
      </trkpt>
      <trkpt lat="45.42747" lon="5.92943">
        <ele>1802.896267922</ele>
        <time>2016-08-19T10:15:06Z</time>
      </trkpt>
      <trkpt lat="45.42748" lon="5.92941">
        <ele>1802.896267922</ele>
        <time>2016-08-19T10:15:11Z</time>
      </trkpt>
      <trkpt lat="45.42748" lon="5.92928">
        <ele>1800.649102636</ele>
        <time>2016-08-19T10:15:21Z</time>
      </trkpt>
      <trkpt lat="45.42747" lon="5.92922">
        <ele>1800.649102636</ele>
        <time>2016-08-19T10:15:26Z</time>
      </trkpt>
      <trkpt lat="45.42742" lon="5.92913">
        <ele>1797.751769293</ele>
        <time>2016-08-19T10:15:36Z</time>
      </trkpt>
      <trkpt lat="45.42737" lon="5.92907">
        <ele>1797.751769293</ele>
        <time>2016-08-19T10:15:42Z</time>
      </trkpt>
      <trkpt lat="45.42724" lon="5.92902">
        <ele>1795.221717007</ele>
        <time>2016-08-19T10:15:56Z</time>
      </trkpt>
      <trkpt lat="45.42723" lon="5.92898">
        <ele>1795.221717007</ele>
        <time>2016-08-19T10:16:01Z</time>
      </trkpt>
      <trkpt lat="45.42722" lon="5.92885">
        <ele>1791.822059462</ele>
        <time>2016-08-19T10:16:11Z</time>
      </trkpt>
      <trkpt lat="45.42722" lon="5.92879">
        <ele>1791.822059462</ele>
        <time>2016-08-19T10:16:16Z</time>
      </trkpt>
      <trkpt lat="45.42722" lon="5.92872">
        <ele>1787.738984655</ele>
        <time>2016-08-19T10:16:26Z</time>
      </trkpt>
      <trkpt lat="45.42718" lon="5.92869">
        <ele>1787.738984655</ele>
        <time>2016-08-19T10:16:31Z</time>
      </trkpt>
      <trkpt lat="45.42708" lon="5.92861">
        <ele>1783.444895371</ele>
        <time>2016-08-19T10:16:41Z</time>
      </trkpt>
      <trkpt lat="45.42703" lon="5.92857">
        <ele>1783.444895371</ele>
        <time>2016-08-19T10:16:46Z</time>
      </trkpt>
      <trkpt lat="45.42695" lon="5.92849">
        <ele>1779.338918081</ele>
        <time>2016-08-19T10:16:56Z</time>
      </trkpt>
      <trkpt lat="45.42692" lon="5.92847">
        <ele>1779.338918081</ele>
        <time>2016-08-19T10:17:01Z</time>
      </trkpt>
      <trkpt lat="45.4268" lon="5.92839">
        <ele>1775.599147613</ele>
        <time>2016-08-19T10:17:11Z</time>
      </trkpt>
      <trkpt lat="45.42676" lon="5.92835">
        <ele>1775.599147613</ele>
        <time>2016-08-19T10:17:16Z</time>
      </trkpt>
      <trkpt lat="45.4267" lon="5.92824">
        <ele>1771.910740315</ele>
        <time>2016-08-19T10:17:26Z</time>
      </trkpt>
      <trkpt lat="45.42668" lon="5.92819">
        <ele>1771.910740315</ele>
        <time>2016-08-19T10:17:31Z</time>
      </trkpt>
      <trkpt lat="45.42663" lon="5.92817">
        <ele>1767.690130661</ele>
        <time>2016-08-19T10:17:41Z</time>
      </trkpt>
      <trkpt lat="45.42654" lon="5.92815">
        <ele>1767.690130661</ele>
        <time>2016-08-19T10:17:46Z</time>
      </trkpt>
      <trkpt lat="45.42646" lon="5.92813">
        <ele>1763.750361952</ele>
        <time>2016-08-19T10:18:01Z</time>
      </trkpt>
      <trkpt lat="45.42643" lon="5.92811">
        <ele>1763.750361952</ele>
        <time>2016-08-19T10:18:06Z</time>
      </trkpt>
      <trkpt lat="45.42642" lon="5.92809">
        <ele>1763.750361952</ele>
        <time>2016-08-19T10:18:10Z</time>
      </trkpt>
      <trkpt lat="45.42642" lon="5.92808">
        <ele>1763.750361952</ele>
        <time>2016-08-19T10:18:15Z</time>
      </trkpt>
      <trkpt lat="45.42641" lon="5.92808">
        <ele>1763.750361952</ele>
        <time>2016-08-19T10:18:20Z</time>
      </trkpt>
      <trkpt lat="45.42641" lon="5.92808">
        <ele>1763.750361952</ele>
        <time>2016-08-19T10:18:25Z</time>
      </trkpt>
      <trkpt lat="45.42641" lon="5.92808">
        <ele>1763.750361952</ele>
        <time>2016-08-19T10:18:30Z</time>
      </trkpt>
      <trkpt lat="45.42641" lon="5.92808">
        <ele>1763.750361952</ele>
        <time>2016-08-19T10:18:35Z</time>
      </trkpt>
      <trkpt lat="45.42639" lon="5.92804">
        <ele>1759.632276338</ele>
        <time>2016-08-19T10:18:40Z</time>
      </trkpt>
      <trkpt lat="45.42635" lon="5.92791">
        <ele>1755.934593617</ele>
        <time>2016-08-19T10:18:51Z</time>
      </trkpt>
      <trkpt lat="45.42634" lon="5.92788">
        <ele>1755.934593617</ele>
        <time>2016-08-19T10:18:56Z</time>
      </trkpt>
      <trkpt lat="45.4263" lon="5.92777">
        <ele>1752.615420921</ele>
        <time>2016-08-19T10:19:06Z</time>
      </trkpt>
      <trkpt lat="45.42629" lon="5.92772">
        <ele>1752.615420921</ele>
        <time>2016-08-19T10:19:11Z</time>
      </trkpt>
      <trkpt lat="45.42626" lon="5.92762">
        <ele>1748.789786511</ele>
        <time>2016-08-19T10:19:21Z</time>
      </trkpt>
      <trkpt lat="45.42623" lon="5.92756">
        <ele>1748.789786511</ele>
        <time>2016-08-19T10:19:26Z</time>
      </trkpt>
      <trkpt lat="45.42622" lon="5.92745">
        <ele>1744.922435816</ele>
        <time>2016-08-19T10:19:36Z</time>
      </trkpt>
      <trkpt lat="45.42621" lon="5.9274">
        <ele>1744.922435816</ele>
        <time>2016-08-19T10:19:41Z</time>
      </trkpt>
      <trkpt lat="45.42614" lon="5.9273">
        <ele>1740.735730263</ele>
        <time>2016-08-19T10:19:51Z</time>
      </trkpt>
      <trkpt lat="45.42614" lon="5.92723">
        <ele>1740.735730263</ele>
        <time>2016-08-19T10:19:56Z</time>
      </trkpt>
      <trkpt lat="45.42612" lon="5.92712">
        <ele>1736.254192517</ele>
        <time>2016-08-19T10:20:06Z</time>
      </trkpt>
      <trkpt lat="45.42608" lon="5.92705">
        <ele>1736.254192517</ele>
        <time>2016-08-19T10:20:11Z</time>
      </trkpt>
      <trkpt lat="45.42597" lon="5.92692">
        <ele>1732.055418065</ele>
        <time>2016-08-19T10:20:26Z</time>
      </trkpt>
      <trkpt lat="45.42594" lon="5.92685">
        <ele>1732.055418065</ele>
        <time>2016-08-19T10:20:31Z</time>
      </trkpt>
      <trkpt lat="45.42592" lon="5.92677">
        <ele>1727.565296744</ele>
        <time>2016-08-19T10:20:36Z</time>
      </trkpt>
      <trkpt lat="45.42593" lon="5.92672">
        <ele>1727.565296744</ele>
        <time>2016-08-19T10:20:41Z</time>
      </trkpt>
      <trkpt lat="45.42591" lon="5.92668">
        <ele>1727.565296744</ele>
        <time>2016-08-19T10:20:45Z</time>
      </trkpt>
      <trkpt lat="45.42592" lon="5.92669">
        <ele>1727.565296744</ele>
        <time>2016-08-19T10:20:50Z</time>
      </trkpt>
      <trkpt lat="45.42592" lon="5.92669">
        <ele>1727.565296744</ele>
        <time>2016-08-19T10:20:55Z</time>
      </trkpt>
      <trkpt lat="45.42592" lon="5.92664">
        <ele>1722.947110688</ele>
        <time>2016-08-19T10:21:01Z</time>
      </trkpt>
      <trkpt lat="45.426" lon="5.92657">
        <ele>1718.216055761</ele>
        <time>2016-08-19T10:21:11Z</time>
      </trkpt>
      <trkpt lat="45.42603" lon="5.92655">
        <ele>1718.216055761</ele>
        <time>2016-08-19T10:21:16Z</time>
      </trkpt>
      <trkpt lat="45.4261" lon="5.9264">
        <ele>1713.388743407</ele>
        <time>2016-08-19T10:21:26Z</time>
      </trkpt>
      <trkpt lat="45.4261" lon="5.92633">
        <ele>1713.388743407</ele>
        <time>2016-08-19T10:21:31Z</time>
      </trkpt>
      <trkpt lat="45.42609" lon="5.92621">
        <ele>1708.483154862</ele>
        <time>2016-08-19T10:21:41Z</time>
      </trkpt>
      <trkpt lat="45.42611" lon="5.92614">
        <ele>1708.483154862</ele>
        <time>2016-08-19T10:21:46Z</time>
      </trkpt>
      <trkpt lat="45.42615" lon="5.92611">
        <ele>1708.483154862</ele>
        <time>2016-08-19T10:21:56Z</time>
      </trkpt>
      <trkpt lat="45.42615" lon="5.92611">
        <ele>1703.518415443</ele>
        <time>2016-08-19T10:22:00Z</time>
      </trkpt>
      <trkpt lat="45.42615" lon="5.92611">
        <ele>1703.518415443</ele>
        <time>2016-08-19T10:22:05Z</time>
      </trkpt>
      <trkpt lat="45.42616" lon="5.92611">
        <ele>1703.518415443</ele>
        <time>2016-08-19T10:22:11Z</time>
      </trkpt>
      <trkpt lat="45.42618" lon="5.92611">
        <ele>1703.518415443</ele>
        <time>2016-08-19T10:22:26Z</time>
      </trkpt>
      <trkpt lat="45.42618" lon="5.92611">
        <ele>1703.518415443</ele>
        <time>2016-08-19T10:22:31Z</time>
      </trkpt>
      <trkpt lat="45.42637" lon="5.92601">
        <ele>1698.228935867</ele>
        <time>2016-08-19T10:22:41Z</time>
      </trkpt>
      <trkpt lat="45.42641" lon="5.92594">
        <ele>1698.228935867</ele>
        <time>2016-08-19T10:22:46Z</time>
      </trkpt>
      <trkpt lat="45.42647" lon="5.92585">
        <ele>1693.083082027</ele>
        <time>2016-08-19T10:22:56Z</time>
      </trkpt>
      <trkpt lat="45.42651" lon="5.92583">
        <ele>1693.083082027</ele>
        <time>2016-08-19T10:23:01Z</time>
      </trkpt>
      <trkpt lat="45.42651" lon="5.92583">
        <ele>1693.083082027</ele>
        <time>2016-08-19T10:23:11Z</time>
      </trkpt>
      <trkpt lat="45.42652" lon="5.92575">
        <ele>1688.092124435</ele>
        <time>2016-08-19T10:23:16Z</time>
      </trkpt>
      <trkpt lat="45.42652" lon="5.92564">
        <ele>1688.092124435</ele>
        <time>2016-08-19T10:23:26Z</time>
      </trkpt>
      <trkpt lat="45.42652" lon="5.92558">
        <ele>1682.68356175</ele>
        <time>2016-08-19T10:23:31Z</time>
      </trkpt>
      <trkpt lat="45.42646" lon="5.92549">
        <ele>1682.68356175</ele>
        <time>2016-08-19T10:23:41Z</time>
      </trkpt>
      <trkpt lat="45.42643" lon="5.92544">
        <ele>1677.928879979</ele>
        <time>2016-08-19T10:23:46Z</time>
      </trkpt>
      <trkpt lat="45.4264" lon="5.92537">
        <ele>1677.928879979</ele>
        <time>2016-08-19T10:23:55Z</time>
      </trkpt>
      <trkpt lat="45.42639" lon="5.92537">
        <ele>1677.928879979</ele>
        <time>2016-08-19T10:24:00Z</time>
      </trkpt>
      <trkpt lat="45.42639" lon="5.92538">
        <ele>1677.928879979</ele>
        <time>2016-08-19T10:24:06Z</time>
      </trkpt>
      <trkpt lat="45.42639" lon="5.92537">
        <ele>1677.928879979</ele>
        <time>2016-08-19T10:24:16Z</time>
      </trkpt>
      <trkpt lat="45.42639" lon="5.92537">
        <ele>1677.928879979</ele>
        <time>2016-08-19T10:24:21Z</time>
      </trkpt>
      <trkpt lat="45.42636" lon="5.92536">
        <ele>1673.364320441</ele>
        <time>2016-08-19T10:24:31Z</time>
      </trkpt>
      <trkpt lat="45.42634" lon="5.92529">
        <ele>1673.364320441</ele>
        <time>2016-08-19T10:24:36Z</time>
      </trkpt>
      <trkpt lat="45.42626" lon="5.9252">
        <ele>1668.994269497</ele>
        <time>2016-08-19T10:24:47Z</time>
      </trkpt>
      <trkpt lat="45.42625" lon="5.9252">
        <ele>1668.994269497</ele>
        <time>2016-08-19T10:24:51Z</time>
      </trkpt>
      <trkpt lat="45.42624" lon="5.9252">
        <ele>1668.994269497</ele>
        <time>2016-08-19T10:25:01Z</time>
      </trkpt>
      <trkpt lat="45.42624" lon="5.9252">
        <ele>1668.994269497</ele>
        <time>2016-08-19T10:25:06Z</time>
      </trkpt>
      <trkpt lat="45.42616" lon="5.92517">
        <ele>1665.565647251</ele>
        <time>2016-08-19T10:25:16Z</time>
      </trkpt>
      <trkpt lat="45.4261" lon="5.92513">
        <ele>1665.565647251</ele>
        <time>2016-08-19T10:25:21Z</time>
      </trkpt>
      <trkpt lat="45.4261" lon="5.92513">
        <ele>1665.565647251</ele>
        <time>2016-08-19T10:25:31Z</time>
      </trkpt>
      <trkpt lat="45.42609" lon="5.92513">
        <ele>1665.565647251</ele>
        <time>2016-08-19T10:25:36Z</time>
      </trkpt>
      <trkpt lat="45.42609" lon="5.92512">
        <ele>1665.565647251</ele>
        <time>2016-08-19T10:25:46Z</time>
      </trkpt>
      <trkpt lat="45.42609" lon="5.92512">
        <ele>1665.565647251</ele>
        <time>2016-08-19T10:25:51Z</time>
      </trkpt>
      <trkpt lat="45.42609" lon="5.92512">
        <ele>1665.565647251</ele>
        <time>2016-08-19T10:26:06Z</time>
      </trkpt>
      <trkpt lat="45.42611" lon="5.92504">
        <ele>1661.979197919</ele>
        <time>2016-08-19T10:26:11Z</time>
      </trkpt>
      <trkpt lat="45.42612" lon="5.92492">
        <ele>1661.979197919</ele>
        <time>2016-08-19T10:26:21Z</time>
      </trkpt>
      <trkpt lat="45.42615" lon="5.92488">
        <ele>1658.854607676</ele>
        <time>2016-08-19T10:26:26Z</time>
      </trkpt>
      <trkpt lat="45.42613" lon="5.92481">
        <ele>1658.854607676</ele>
        <time>2016-08-19T10:26:36Z</time>
      </trkpt>
      <trkpt lat="45.42612" lon="5.92478">
        <ele>1658.854607676</ele>
        <time>2016-08-19T10:26:41Z</time>
      </trkpt>
      <trkpt lat="45.42611" lon="5.92468">
        <ele>1655.564231736</ele>
        <time>2016-08-19T10:26:51Z</time>
      </trkpt>
      <trkpt lat="45.42613" lon="5.9246">
        <ele>1655.564231736</ele>
        <time>2016-08-19T10:26:56Z</time>
      </trkpt>
      <trkpt lat="45.42613" lon="5.92448">
        <ele>1652.42740198</ele>
        <time>2016-08-19T10:27:06Z</time>
      </trkpt>
      <trkpt lat="45.42614" lon="5.92445">
        <ele>1652.42740198</ele>
        <time>2016-08-19T10:27:11Z</time>
      </trkpt>
      <trkpt lat="45.42609" lon="5.92435">
        <ele>1649.58872985</ele>
        <time>2016-08-19T10:27:21Z</time>
      </trkpt>
      <trkpt lat="45.4261" lon="5.92426">
        <ele>1649.58872985</ele>
        <time>2016-08-19T10:27:26Z</time>
      </trkpt>
      <trkpt lat="45.42606" lon="5.92412">
        <ele>1646.878211124</ele>
        <time>2016-08-19T10:27:36Z</time>
      </trkpt>
      <trkpt lat="45.42603" lon="5.92408">
        <ele>1646.878211124</ele>
        <time>2016-08-19T10:27:41Z</time>
      </trkpt>
      <trkpt lat="45.42598" lon="5.92393">
        <ele>1644.439395543</ele>
        <time>2016-08-19T10:27:56Z</time>
      </trkpt>
      <trkpt lat="45.42598" lon="5.92392">
        <ele>1644.439395543</ele>
        <time>2016-08-19T10:28:01Z</time>
      </trkpt>
      <trkpt lat="45.426" lon="5.92383">
        <ele>1644.439395543</ele>
        <time>2016-08-19T10:28:11Z</time>
      </trkpt>
      <trkpt lat="45.42604" lon="5.92383">
        <ele>1641.950514916</ele>
        <time>2016-08-19T10:28:16Z</time>
      </trkpt>
      <trkpt lat="45.42609" lon="5.92383">
        <ele>1641.950514916</ele>
        <time>2016-08-19T10:28:26Z</time>
      </trkpt>
      <trkpt lat="45.42616" lon="5.92388">
        <ele>1640.019510505</ele>
        <time>2016-08-19T10:28:31Z</time>
      </trkpt>
      <trkpt lat="45.42627" lon="5.92388">
        <ele>1638.299913709</ele>
        <time>2016-08-19T10:28:41Z</time>
      </trkpt>
      <trkpt lat="45.42632" lon="5.92388">
        <ele>1638.299913709</ele>
        <time>2016-08-19T10:28:46Z</time>
      </trkpt>
      <trkpt lat="45.42644" lon="5.92388">
        <ele>1636.77298018</ele>
        <time>2016-08-19T10:28:56Z</time>
      </trkpt>
      <trkpt lat="45.42646" lon="5.92386">
        <ele>1636.77298018</ele>
        <time>2016-08-19T10:29:01Z</time>
      </trkpt>
      <trkpt lat="45.4265" lon="5.92375">
        <ele>1635.720732093</ele>
        <time>2016-08-19T10:29:11Z</time>
      </trkpt>
      <trkpt lat="45.42654" lon="5.92374">
        <ele>1635.720732093</ele>
        <time>2016-08-19T10:29:15Z</time>
      </trkpt>
      <trkpt lat="45.42654" lon="5.92375">
        <ele>1635.720732093</ele>
        <time>2016-08-19T10:29:20Z</time>
      </trkpt>
      <trkpt lat="45.42656" lon="5.92373">
        <ele>1635.720732093</ele>
        <time>2016-08-19T10:29:26Z</time>
      </trkpt>
      <trkpt lat="45.42663" lon="5.92376">
        <ele>1634.80148647</ele>
        <time>2016-08-19T10:29:32Z</time>
      </trkpt>
      <trkpt lat="45.4267" lon="5.92376">
        <ele>1634.80148647</ele>
        <time>2016-08-19T10:29:42Z</time>
      </trkpt>
      <trkpt lat="45.42674" lon="5.9237">
        <ele>1634.000383554</ele>
        <time>2016-08-19T10:29:46Z</time>
      </trkpt>
      <trkpt lat="45.42678" lon="5.92362">
        <ele>1634.000383554</ele>
        <time>2016-08-19T10:29:57Z</time>
      </trkpt>
      <trkpt lat="45.42683" lon="5.92356">
        <ele>1633.75038457</ele>
        <time>2016-08-19T10:30:01Z</time>
      </trkpt>
      <trkpt lat="45.42693" lon="5.9235">
        <ele>1634.446445037</ele>
        <time>2016-08-19T10:30:11Z</time>
      </trkpt>
      <trkpt lat="45.42696" lon="5.9235">
        <ele>1634.446445037</ele>
        <time>2016-08-19T10:30:16Z</time>
      </trkpt>
      <trkpt lat="45.42711" lon="5.92343">
        <ele>1634.372941216</ele>
        <time>2016-08-19T10:30:32Z</time>
      </trkpt>
      <trkpt lat="45.42715" lon="5.92339">
        <ele>1634.372941216</ele>
        <time>2016-08-19T10:30:36Z</time>
      </trkpt>
      <trkpt lat="45.42724" lon="5.92333">
        <ele>1634.03044099</ele>
        <time>2016-08-19T10:30:46Z</time>
      </trkpt>
      <trkpt lat="45.42729" lon="5.92331">
        <ele>1634.03044099</ele>
        <time>2016-08-19T10:30:51Z</time>
      </trkpt>
      <trkpt lat="45.42743" lon="5.92322">
        <ele>1633.583409129</ele>
        <time>2016-08-19T10:31:02Z</time>
      </trkpt>
      <trkpt lat="45.42747" lon="5.92319">
        <ele>1633.583409129</ele>
        <time>2016-08-19T10:31:06Z</time>
      </trkpt>
      <trkpt lat="45.42753" lon="5.92317">
        <ele>1632.888667909</ele>
        <time>2016-08-19T10:31:16Z</time>
      </trkpt>
      <trkpt lat="45.42758" lon="5.92311">
        <ele>1632.888667909</ele>
        <time>2016-08-19T10:31:21Z</time>
      </trkpt>
      <trkpt lat="45.42761" lon="5.92307">
        <ele>1632.109154065</ele>
        <time>2016-08-19T10:31:32Z</time>
      </trkpt>
      <trkpt lat="45.42765" lon="5.92303">
        <ele>1632.109154065</ele>
        <time>2016-08-19T10:31:36Z</time>
      </trkpt>
      <trkpt lat="45.42769" lon="5.92289">
        <ele>1631.248089216</ele>
        <time>2016-08-19T10:31:46Z</time>
      </trkpt>
      <trkpt lat="45.42772" lon="5.92284">
        <ele>1631.248089216</ele>
        <time>2016-08-19T10:31:52Z</time>
      </trkpt>
      <trkpt lat="45.42781" lon="5.92276">
        <ele>1630.454807032</ele>
        <time>2016-08-19T10:32:01Z</time>
      </trkpt>
      <trkpt lat="45.42783" lon="5.92269">
        <ele>1630.454807032</ele>
        <time>2016-08-19T10:32:06Z</time>
      </trkpt>
      <trkpt lat="45.42784" lon="5.92267">
        <ele>1630.454807032</ele>
        <time>2016-08-19T10:32:16Z</time>
      </trkpt>
      <trkpt lat="45.42785" lon="5.92267">
        <ele>1630.454807032</ele>
        <time>2016-08-19T10:32:21Z</time>
      </trkpt>
      <trkpt lat="45.42785" lon="5.92267">
        <ele>1630.454807032</ele>
        <time>2016-08-19T10:32:31Z</time>
      </trkpt>
      <trkpt lat="45.42785" lon="5.92266">
        <ele>1630.454807032</ele>
        <time>2016-08-19T10:32:35Z</time>
      </trkpt>
      <trkpt lat="45.4279" lon="5.92265">
        <ele>1629.428624348</ele>
        <time>2016-08-19T10:32:41Z</time>
      </trkpt>
      <trkpt lat="45.42802" lon="5.92263">
        <ele>1628.476300342</ele>
        <time>2016-08-19T10:32:51Z</time>
      </trkpt>
      <trkpt lat="45.42809" lon="5.92261">
        <ele>1628.476300342</ele>
        <time>2016-08-19T10:32:56Z</time>
      </trkpt>
      <trkpt lat="45.4282" lon="5.9226">
        <ele>1627.443549985</ele>
        <time>2016-08-19T10:33:07Z</time>
      </trkpt>
      <trkpt lat="45.42825" lon="5.92259">
        <ele>1627.443549985</ele>
        <time>2016-08-19T10:33:11Z</time>
      </trkpt>
      <trkpt lat="45.42833" lon="5.92257">
        <ele>1625.898117174</ele>
        <time>2016-08-19T10:33:22Z</time>
      </trkpt>
      <trkpt lat="45.42838" lon="5.92255">
        <ele>1625.898117174</ele>
        <time>2016-08-19T10:33:27Z</time>
      </trkpt>
      <trkpt lat="45.42837" lon="5.92247">
        <ele>1624.16817154</ele>
        <time>2016-08-19T10:33:36Z</time>
      </trkpt>
      <trkpt lat="45.42837" lon="5.92245">
        <ele>1624.16817154</ele>
        <time>2016-08-19T10:33:41Z</time>
      </trkpt>
      <trkpt lat="45.42837" lon="5.92235">
        <ele>1624.16817154</ele>
        <time>2016-08-19T10:33:52Z</time>
      </trkpt>
      <trkpt lat="45.42842" lon="5.9223">
        <ele>1622.266823406</ele>
        <time>2016-08-19T10:33:56Z</time>
      </trkpt>
      <trkpt lat="45.42853" lon="5.92227">
        <ele>1620.206566238</ele>
        <time>2016-08-19T10:34:07Z</time>
      </trkpt>
      <trkpt lat="45.42858" lon="5.92228">
        <ele>1620.206566238</ele>
        <time>2016-08-19T10:34:11Z</time>
      </trkpt>
      <trkpt lat="45.4287" lon="5.92224">
        <ele>1617.854701586</ele>
        <time>2016-08-19T10:34:21Z</time>
      </trkpt>
      <trkpt lat="45.42876" lon="5.92221">
        <ele>1617.854701586</ele>
        <time>2016-08-19T10:34:26Z</time>
      </trkpt>
      <trkpt lat="45.4289" lon="5.92211">
        <ele>1614.944889345</ele>
        <time>2016-08-19T10:34:42Z</time>
      </trkpt>
      <trkpt lat="45.42898" lon="5.9221">
        <ele>1614.944889345</ele>
        <time>2016-08-19T10:34:46Z</time>
      </trkpt>
      <trkpt lat="45.42907" lon="5.92205">
        <ele>1612.098961694</ele>
        <time>2016-08-19T10:34:56Z</time>
      </trkpt>
      <trkpt lat="45.42912" lon="5.92204">
        <ele>1612.098961694</ele>
        <time>2016-08-19T10:35:01Z</time>
      </trkpt>
      <trkpt lat="45.42921" lon="5.92196">
        <ele>1609.314126847</ele>
        <time>2016-08-19T10:35:12Z</time>
      </trkpt>
      <trkpt lat="45.42928" lon="5.92194">
        <ele>1609.314126847</ele>
        <time>2016-08-19T10:35:16Z</time>
      </trkpt>
      <trkpt lat="45.42936" lon="5.92184">
        <ele>1606.876313927</ele>
        <time>2016-08-19T10:35:26Z</time>
      </trkpt>
      <trkpt lat="45.42939" lon="5.92182">
        <ele>1606.876313927</ele>
        <time>2016-08-19T10:35:31Z</time>
      </trkpt>
      <trkpt lat="45.42949" lon="5.92183">
        <ele>1605.049218565</ele>
        <time>2016-08-19T10:35:42Z</time>
      </trkpt>
      <trkpt lat="45.42955" lon="5.9218">
        <ele>1605.049218565</ele>
        <time>2016-08-19T10:35:46Z</time>
      </trkpt>
      <trkpt lat="45.42965" lon="5.92179">
        <ele>1602.777341781</ele>
        <time>2016-08-19T10:35:56Z</time>
      </trkpt>
      <trkpt lat="45.4297" lon="5.92181">
        <ele>1602.777341781</ele>
        <time>2016-08-19T10:36:01Z</time>
      </trkpt>
      <trkpt lat="45.42981" lon="5.92182">
        <ele>1600.52682269</ele>
        <time>2016-08-19T10:36:12Z</time>
      </trkpt>
      <trkpt lat="45.42987" lon="5.92187">
        <ele>1600.52682269</ele>
        <time>2016-08-19T10:36:16Z</time>
      </trkpt>
      <trkpt lat="45.42999" lon="5.92196">
        <ele>1599.30595738</ele>
        <time>2016-08-19T10:36:26Z</time>
      </trkpt>
      <trkpt lat="45.43004" lon="5.92193">
        <ele>1599.30595738</ele>
        <time>2016-08-19T10:36:32Z</time>
      </trkpt>
      <trkpt lat="45.43013" lon="5.92196">
        <ele>1597.738988445</ele>
        <time>2016-08-19T10:36:45Z</time>
      </trkpt>
      <trkpt lat="45.43014" lon="5.92195">
        <ele>1597.738988445</ele>
        <time>2016-08-19T10:36:50Z</time>
      </trkpt>
      <trkpt lat="45.43016" lon="5.92199">
        <ele>1597.738988445</ele>
        <time>2016-08-19T10:36:56Z</time>
      </trkpt>
      <trkpt lat="45.43026" lon="5.92207">
        <ele>1596.138453482</ele>
        <time>2016-08-19T10:37:06Z</time>
      </trkpt>
      <trkpt lat="45.43035" lon="5.92208">
        <ele>1596.138453482</ele>
        <time>2016-08-19T10:37:11Z</time>
      </trkpt>
      <trkpt lat="45.43045" lon="5.9221">
        <ele>1594.649801993</ele>
        <time>2016-08-19T10:37:21Z</time>
      </trkpt>
      <trkpt lat="45.43052" lon="5.92214">
        <ele>1594.649801993</ele>
        <time>2016-08-19T10:37:26Z</time>
      </trkpt>
      <trkpt lat="45.43065" lon="5.92225">
        <ele>1593.407500013</ele>
        <time>2016-08-19T10:37:36Z</time>
      </trkpt>
      <trkpt lat="45.4307" lon="5.92228">
        <ele>1593.407500013</ele>
        <time>2016-08-19T10:37:42Z</time>
      </trkpt>
      <trkpt lat="45.43073" lon="5.9223">
        <ele>1591.958733267</ele>
        <time>2016-08-19T10:37:51Z</time>
      </trkpt>
      <trkpt lat="45.43081" lon="5.92232">
        <ele>1591.958733267</ele>
        <time>2016-08-19T10:37:56Z</time>
      </trkpt>
      <trkpt lat="45.43102" lon="5.92244">
        <ele>1591.326440161</ele>
        <time>2016-08-19T10:38:12Z</time>
      </trkpt>
      <trkpt lat="45.43108" lon="5.92246">
        <ele>1591.326440161</ele>
        <time>2016-08-19T10:38:16Z</time>
      </trkpt>
      <trkpt lat="45.4312" lon="5.92241">
        <ele>1591.01427016</ele>
        <time>2016-08-19T10:38:27Z</time>
      </trkpt>
      <trkpt lat="45.43126" lon="5.92243">
        <ele>1591.01427016</ele>
        <time>2016-08-19T10:38:31Z</time>
      </trkpt>
      <trkpt lat="45.43138" lon="5.92246">
        <ele>1590.417185329</ele>
        <time>2016-08-19T10:38:42Z</time>
      </trkpt>
      <trkpt lat="45.43142" lon="5.92244">
        <ele>1590.417185329</ele>
        <time>2016-08-19T10:38:46Z</time>
      </trkpt>
      <trkpt lat="45.43146" lon="5.92233">
        <ele>1588.975348777</ele>
        <time>2016-08-19T10:38:56Z</time>
      </trkpt>
      <trkpt lat="45.43147" lon="5.92228">
        <ele>1588.975348777</ele>
        <time>2016-08-19T10:39:01Z</time>
      </trkpt>
      <trkpt lat="45.43148" lon="5.92228">
        <ele>1588.975348777</ele>
        <time>2016-08-19T10:39:06Z</time>
      </trkpt>
      <trkpt lat="45.43148" lon="5.92228">
        <ele>1588.975348777</ele>
        <time>2016-08-19T10:39:10Z</time>
      </trkpt>
      <trkpt lat="45.43148" lon="5.92228">
        <ele>1588.975348777</ele>
        <time>2016-08-19T10:39:15Z</time>
      </trkpt>
      <trkpt lat="45.43148" lon="5.92228">
        <ele>1588.975348777</ele>
        <time>2016-08-19T10:39:21Z</time>
      </trkpt>
      <trkpt lat="45.43148" lon="5.92228">
        <ele>1588.975348777</ele>
        <time>2016-08-19T10:39:25Z</time>
      </trkpt>
      <trkpt lat="45.43148" lon="5.92228">
        <ele>1588.975348777</ele>
        <time>2016-08-19T10:39:36Z</time>
      </trkpt>
      <trkpt lat="45.43148" lon="5.92228">
        <ele>1588.975348777</ele>
        <time>2016-08-19T10:39:41Z</time>
      </trkpt>
      <trkpt lat="45.43148" lon="5.92228">
        <ele>1588.975348777</ele>
        <time>2016-08-19T10:39:52Z</time>
      </trkpt>
      <trkpt lat="45.43148" lon="5.92228">
        <ele>1588.975348777</ele>
        <time>2016-08-19T10:39:56Z</time>
      </trkpt>
      <trkpt lat="45.43164" lon="5.92208">
        <ele>1587.326223171</ele>
        <time>2016-08-19T10:40:07Z</time>
      </trkpt>
      <trkpt lat="45.4317" lon="5.922">
        <ele>1587.326223171</ele>
        <time>2016-08-19T10:40:11Z</time>
      </trkpt>
      <trkpt lat="45.43176" lon="5.92198">
        <ele>1585.484232888</ele>
        <time>2016-08-19T10:40:21Z</time>
      </trkpt>
      <trkpt lat="45.43176" lon="5.92198">
        <ele>1585.484232888</ele>
        <time>2016-08-19T10:40:26Z</time>
      </trkpt>
      <trkpt lat="45.43177" lon="5.92198">
        <ele>1585.484232888</ele>
        <time>2016-08-19T10:40:36Z</time>
      </trkpt>
      <trkpt lat="45.43177" lon="5.92199">
        <ele>1585.484232888</ele>
        <time>2016-08-19T10:40:41Z</time>
      </trkpt>
      <trkpt lat="45.43199" lon="5.92183">
        <ele>1583.60758461</ele>
        <time>2016-08-19T10:40:56Z</time>
      </trkpt>
      <trkpt lat="45.43206" lon="5.92175">
        <ele>1581.987264127</ele>
        <time>2016-08-19T10:41:01Z</time>
      </trkpt>
      <trkpt lat="45.43219" lon="5.92163">
        <ele>1580.747964333</ele>
        <time>2016-08-19T10:41:12Z</time>
      </trkpt>
      <trkpt lat="45.43225" lon="5.92155">
        <ele>1580.747964333</ele>
        <time>2016-08-19T10:41:16Z</time>
      </trkpt>
      <trkpt lat="45.43238" lon="5.92145">
        <ele>1578.850225799</ele>
        <time>2016-08-19T10:41:26Z</time>
      </trkpt>
      <trkpt lat="45.4325" lon="5.92139">
        <ele>1577.640807262</ele>
        <time>2016-08-19T10:41:31Z</time>
      </trkpt>
      <trkpt lat="45.43259" lon="5.92132">
        <ele>1576.490382525</ele>
        <time>2016-08-19T10:41:41Z</time>
      </trkpt>
      <trkpt lat="45.43269" lon="5.92134">
        <ele>1575.536992188</ele>
        <time>2016-08-19T10:41:46Z</time>
      </trkpt>
      <trkpt lat="45.43265" lon="5.9213">
        <ele>1575.536992188</ele>
        <time>2016-08-19T10:41:56Z</time>
      </trkpt>
      <trkpt lat="45.43271" lon="5.92129">
        <ele>1574.763774415</ele>
        <time>2016-08-19T10:42:01Z</time>
      </trkpt>
      <trkpt lat="45.43284" lon="5.92136">
        <ele>1574.154651632</ele>
        <time>2016-08-19T10:42:12Z</time>
      </trkpt>
      <trkpt lat="45.43286" lon="5.92138">
        <ele>1574.154651632</ele>
        <time>2016-08-19T10:42:16Z</time>
      </trkpt>
      <trkpt lat="45.433" lon="5.92147">
        <ele>1574.126995563</ele>
        <time>2016-08-19T10:42:27Z</time>
      </trkpt>
      <trkpt lat="45.43303" lon="5.92158">
        <ele>1574.126995563</ele>
        <time>2016-08-19T10:42:31Z</time>
      </trkpt>
      <trkpt lat="45.43306" lon="5.92174">
        <ele>1573.767907254</ele>
        <time>2016-08-19T10:42:41Z</time>
      </trkpt>
      <trkpt lat="45.43308" lon="5.92181">
        <ele>1573.767907254</ele>
        <time>2016-08-19T10:42:46Z</time>
      </trkpt>
      <trkpt lat="45.43318" lon="5.92193">
        <ele>1573.098002751</ele>
        <time>2016-08-19T10:42:56Z</time>
      </trkpt>
      <trkpt lat="45.4332" lon="5.92199">
        <ele>1573.098002751</ele>
        <time>2016-08-19T10:43:01Z</time>
      </trkpt>
      <trkpt lat="45.43341" lon="5.92208">
        <ele>1572.569940487</ele>
        <time>2016-08-19T10:43:11Z</time>
      </trkpt>
      <trkpt lat="45.43344" lon="5.92213">
        <ele>1572.569940487</ele>
        <time>2016-08-19T10:43:16Z</time>
      </trkpt>
      <trkpt lat="45.43349" lon="5.92211">
        <ele>1571.593341194</ele>
        <time>2016-08-19T10:43:26Z</time>
      </trkpt>
      <trkpt lat="45.43358" lon="5.92212">
        <ele>1570.776169051</ele>
        <time>2016-08-19T10:43:31Z</time>
      </trkpt>
      <trkpt lat="45.43364" lon="5.92205">
        <ele>1570.776169051</ele>
        <time>2016-08-19T10:43:41Z</time>
      </trkpt>
      <trkpt lat="45.43365" lon="5.92198">
        <ele>1569.383604079</ele>
        <time>2016-08-19T10:43:46Z</time>
      </trkpt>
      <trkpt lat="45.43363" lon="5.92203">
        <ele>1569.383604079</ele>
        <time>2016-08-19T10:44:01Z</time>
      </trkpt>
      <trkpt lat="45.43364" lon="5.92205">
        <ele>1569.383604079</ele>
        <time>2016-08-19T10:44:15Z</time>
      </trkpt>
      <trkpt lat="45.43376" lon="5.92218">
        <ele>1568.466734807</ele>
        <time>2016-08-19T10:44:21Z</time>
      </trkpt>
      <trkpt lat="45.43389" lon="5.9225">
        <ele>1568.132972148</ele>
        <time>2016-08-19T10:44:31Z</time>
      </trkpt>
      <trkpt lat="45.43391" lon="5.92257">
        <ele>1568.132972148</ele>
        <time>2016-08-19T10:44:36Z</time>
      </trkpt>
      <trkpt lat="45.43397" lon="5.92266">
        <ele>1567.615306462</ele>
        <time>2016-08-19T10:44:47Z</time>
      </trkpt>
      <trkpt lat="45.43397" lon="5.92267">
        <ele>1567.615306462</ele>
        <time>2016-08-19T10:44:51Z</time>
      </trkpt>
      <trkpt lat="45.43406" lon="5.9228">
        <ele>1566.492114539</ele>
        <time>2016-08-19T10:45:01Z</time>
      </trkpt>
      <trkpt lat="45.43409" lon="5.92285">
        <ele>1566.492114539</ele>
        <time>2016-08-19T10:45:06Z</time>
      </trkpt>
      <trkpt lat="45.4341" lon="5.92289">
        <ele>1566.492114539</ele>
        <time>2016-08-19T10:45:16Z</time>
      </trkpt>
      <trkpt lat="45.43417" lon="5.92296">
        <ele>1565.095326645</ele>
        <time>2016-08-19T10:45:21Z</time>
      </trkpt>
      <trkpt lat="45.43429" lon="5.92313">
        <ele>1564.598133517</ele>
        <time>2016-08-19T10:45:32Z</time>
      </trkpt>
      <trkpt lat="45.43422" lon="5.92321">
        <ele>1564.598133517</ele>
        <time>2016-08-19T10:45:36Z</time>
      </trkpt>
      <trkpt lat="45.43434" lon="5.92339">
        <ele>1563.202186314</ele>
        <time>2016-08-19T10:45:46Z</time>
      </trkpt>
      <trkpt lat="45.43438" lon="5.92342">
        <ele>1563.202186314</ele>
        <time>2016-08-19T10:45:51Z</time>
      </trkpt>
      <trkpt lat="45.43452" lon="5.92355">
        <ele>1561.550190814</ele>
        <time>2016-08-19T10:46:06Z</time>
      </trkpt>
      <trkpt lat="45.43456" lon="5.92345">
        <ele>1561.550190814</ele>
        <time>2016-08-19T10:46:11Z</time>
      </trkpt>
      <trkpt lat="45.43467" lon="5.92351">
        <ele>1559.8059572</ele>
        <time>2016-08-19T10:46:21Z</time>
      </trkpt>
      <trkpt lat="45.43474" lon="5.9234">
        <ele>1558.409816572</ele>
        <time>2016-08-19T10:46:26Z</time>
      </trkpt>
      <trkpt lat="45.43484" lon="5.92339">
        <ele>1556.615812702</ele>
        <time>2016-08-19T10:46:36Z</time>
      </trkpt>
      <trkpt lat="45.4349" lon="5.92328">
        <ele>1554.886968602</ele>
        <time>2016-08-19T10:46:41Z</time>
      </trkpt>
      <trkpt lat="45.435" lon="5.92321">
        <ele>1553.508004334</ele>
        <time>2016-08-19T10:46:51Z</time>
      </trkpt>
      <trkpt lat="45.43505" lon="5.92317">
        <ele>1553.508004334</ele>
        <time>2016-08-19T10:46:56Z</time>
      </trkpt>
      <trkpt lat="45.43514" lon="5.92319">
        <ele>1552.165300653</ele>
        <time>2016-08-19T10:47:06Z</time>
      </trkpt>
      <trkpt lat="45.43514" lon="5.92319">
        <ele>1552.165300653</ele>
        <time>2016-08-19T10:47:11Z</time>
      </trkpt>
      <trkpt lat="45.43519" lon="5.92307">
        <ele>1549.991757844</ele>
        <time>2016-08-19T10:47:22Z</time>
      </trkpt>
      <trkpt lat="45.43528" lon="5.92299">
        <ele>1548.203952619</ele>
        <time>2016-08-19T10:47:26Z</time>
      </trkpt>
      <trkpt lat="45.43533" lon="5.9228">
        <ele>1546.775089881</ele>
        <time>2016-08-19T10:47:36Z</time>
      </trkpt>
      <trkpt lat="45.43538" lon="5.9227">
        <ele>1546.775089881</ele>
        <time>2016-08-19T10:47:41Z</time>
      </trkpt>
      <trkpt lat="45.43548" lon="5.92258">
        <ele>1545.247014</ele>
        <time>2016-08-19T10:47:52Z</time>
      </trkpt>
      <trkpt lat="45.43551" lon="5.92252">
        <ele>1545.247014</ele>
        <time>2016-08-19T10:47:56Z</time>
      </trkpt>
      <trkpt lat="45.43561" lon="5.92234">
        <ele>1544.204308688</ele>
        <time>2016-08-19T10:48:11Z</time>
      </trkpt>
      <trkpt lat="45.43564" lon="5.92229">
        <ele>1544.204308688</ele>
        <time>2016-08-19T10:48:16Z</time>
      </trkpt>
      <trkpt lat="45.43569" lon="5.92219">
        <ele>1543.899033445</ele>
        <time>2016-08-19T10:48:27Z</time>
      </trkpt>
      <trkpt lat="45.43571" lon="5.92217">
        <ele>1543.899033445</ele>
        <time>2016-08-19T10:48:31Z</time>
      </trkpt>
      <trkpt lat="45.43581" lon="5.92204">
        <ele>1543.409774571</ele>
        <time>2016-08-19T10:48:41Z</time>
      </trkpt>
      <trkpt lat="45.43586" lon="5.92202">
        <ele>1543.409774571</ele>
        <time>2016-08-19T10:48:46Z</time>
      </trkpt>
      <trkpt lat="45.43598" lon="5.92198">
        <ele>1543.036236648</ele>
        <time>2016-08-19T10:48:56Z</time>
      </trkpt>
      <trkpt lat="45.43603" lon="5.92196">
        <ele>1543.036236648</ele>
        <time>2016-08-19T10:49:01Z</time>
      </trkpt>
      <trkpt lat="45.4361" lon="5.92184">
        <ele>1542.911690073</ele>
        <time>2016-08-19T10:49:11Z</time>
      </trkpt>
      <trkpt lat="45.43618" lon="5.92178">
        <ele>1542.150150946</ele>
        <time>2016-08-19T10:49:16Z</time>
      </trkpt>
      <trkpt lat="45.43634" lon="5.92182">
        <ele>1541.229549268</ele>
        <time>2016-08-19T10:49:26Z</time>
      </trkpt>
      <trkpt lat="45.43638" lon="5.92189">
        <ele>1541.229549268</ele>
        <time>2016-08-19T10:49:31Z</time>
      </trkpt>
      <trkpt lat="45.43647" lon="5.92202">
        <ele>1541.601982508</ele>
        <time>2016-08-19T10:49:41Z</time>
      </trkpt>
      <trkpt lat="45.43651" lon="5.92208">
        <ele>1541.601982508</ele>
        <time>2016-08-19T10:49:46Z</time>
      </trkpt>
      <trkpt lat="45.43655" lon="5.92218">
        <ele>1542.159362986</ele>
        <time>2016-08-19T10:49:56Z</time>
      </trkpt>
      <trkpt lat="45.4366" lon="5.92216">
        <ele>1542.159362986</ele>
        <time>2016-08-19T10:50:01Z</time>
      </trkpt>
      <trkpt lat="45.4367" lon="5.92231">
        <ele>1542.162750282</ele>
        <time>2016-08-19T10:50:11Z</time>
      </trkpt>
      <trkpt lat="45.43674" lon="5.92228">
        <ele>1542.162750282</ele>
        <time>2016-08-19T10:50:16Z</time>
      </trkpt>
      <trkpt lat="45.43681" lon="5.92239">
        <ele>1541.073200865</ele>
        <time>2016-08-19T10:50:31Z</time>
      </trkpt>
      <trkpt lat="45.43689" lon="5.92239">
        <ele>1541.073200865</ele>
        <time>2016-08-19T10:50:36Z</time>
      </trkpt>
      <trkpt lat="45.43697" lon="5.92245">
        <ele>1540.123853371</ele>
        <time>2016-08-19T10:50:46Z</time>
      </trkpt>
      <trkpt lat="45.43711" lon="5.92253">
        <ele>1539.304009757</ele>
        <time>2016-08-19T10:50:51Z</time>
      </trkpt>
      <trkpt lat="45.43713" lon="5.92246">
        <ele>1539.304009757</ele>
        <time>2016-08-19T10:51:01Z</time>
      </trkpt>
      <trkpt lat="45.43715" lon="5.92247">
        <ele>1539.304009757</ele>
        <time>2016-08-19T10:51:05Z</time>
      </trkpt>
      <trkpt lat="45.43714" lon="5.92247">
        <ele>1539.304009757</ele>
        <time>2016-08-19T10:51:10Z</time>
      </trkpt>
      <trkpt lat="45.43713" lon="5.92247">
        <ele>1539.324022712</ele>
        <time>2016-08-19T10:51:15Z</time>
      </trkpt>
      <trkpt lat="45.43713" lon="5.92247">
        <ele>1539.324022712</ele>
        <time>2016-08-19T10:51:21Z</time>
      </trkpt>
      <trkpt lat="45.43725" lon="5.92244">
        <ele>1538.678038468</ele>
        <time>2016-08-19T10:51:31Z</time>
      </trkpt>
      <trkpt lat="45.43731" lon="5.92241">
        <ele>1538.678038468</ele>
        <time>2016-08-19T10:51:36Z</time>
      </trkpt>
      <trkpt lat="45.43745" lon="5.92236">
        <ele>1538.422697425</ele>
        <time>2016-08-19T10:51:46Z</time>
      </trkpt>
      <trkpt lat="45.43756" lon="5.92221">
        <ele>1538.67129042</ele>
        <time>2016-08-19T10:51:51Z</time>
      </trkpt>
      <trkpt lat="45.43771" lon="5.92209">
        <ele>1537.65393673</ele>
        <time>2016-08-19T10:52:01Z</time>
      </trkpt>
      <trkpt lat="45.43778" lon="5.92204">
        <ele>1537.65393673</ele>
        <time>2016-08-19T10:52:06Z</time>
      </trkpt>
      <trkpt lat="45.43786" lon="5.92188">
        <ele>1537.913714542</ele>
        <time>2016-08-19T10:52:16Z</time>
      </trkpt>
      <trkpt lat="45.43779" lon="5.92178">
        <ele>1538.344608114</ele>
        <time>2016-08-19T10:52:21Z</time>
      </trkpt>
      <trkpt lat="45.43772" lon="5.9216">
        <ele>1538.497896945</ele>
        <time>2016-08-19T10:52:32Z</time>
      </trkpt>
      <trkpt lat="45.43773" lon="5.92155">
        <ele>1538.497896945</ele>
        <time>2016-08-19T10:52:37Z</time>
      </trkpt>
      <trkpt lat="45.43777" lon="5.92145">
        <ele>1538.823359933</ele>
        <time>2016-08-19T10:52:46Z</time>
      </trkpt>
      <trkpt lat="45.43775" lon="5.92138">
        <ele>1538.823359933</ele>
        <time>2016-08-19T10:52:51Z</time>
      </trkpt>
      <trkpt lat="45.43792" lon="5.92144">
        <ele>1538.440295388</ele>
        <time>2016-08-19T10:53:07Z</time>
      </trkpt>
      <trkpt lat="45.43797" lon="5.92142">
        <ele>1538.440295388</ele>
        <time>2016-08-19T10:53:11Z</time>
      </trkpt>
      <trkpt lat="45.43814" lon="5.92149">
        <ele>1538.120019786</ele>
        <time>2016-08-19T10:53:26Z</time>
      </trkpt>
      <trkpt lat="45.43818" lon="5.92151">
        <ele>1538.120019786</ele>
        <time>2016-08-19T10:53:31Z</time>
      </trkpt>
      <trkpt lat="45.43831" lon="5.92157">
        <ele>1536.991831046</ele>
        <time>2016-08-19T10:53:42Z</time>
      </trkpt>
      <trkpt lat="45.43835" lon="5.92164">
        <ele>1536.991831046</ele>
        <time>2016-08-19T10:53:46Z</time>
      </trkpt>
      <trkpt lat="45.43836" lon="5.92169">
        <ele>1534.971897983</ele>
        <time>2016-08-19T10:53:56Z</time>
      </trkpt>
      <trkpt lat="45.43841" lon="5.92173">
        <ele>1534.971897983</ele>
        <time>2016-08-19T10:54:02Z</time>
      </trkpt>
      <trkpt lat="45.43848" lon="5.9218">
        <ele>1533.426246202</ele>
        <time>2016-08-19T10:54:12Z</time>
      </trkpt>
      <trkpt lat="45.4387" lon="5.92197">
        <ele>1532.754589919</ele>
        <time>2016-08-19T10:54:27Z</time>
      </trkpt>
      <trkpt lat="45.4387" lon="5.92194">
        <ele>1532.754589919</ele>
        <time>2016-08-19T10:54:31Z</time>
      </trkpt>
      <trkpt lat="45.43877" lon="5.92192">
        <ele>1530.874948827</ele>
        <time>2016-08-19T10:54:42Z</time>
      </trkpt>
      <trkpt lat="45.43879" lon="5.92196">
        <ele>1530.874948827</ele>
        <time>2016-08-19T10:54:46Z</time>
      </trkpt>
      <trkpt lat="45.43888" lon="5.92198">
        <ele>1528.743973332</ele>
        <time>2016-08-19T10:54:57Z</time>
      </trkpt>
      <trkpt lat="45.43891" lon="5.92208">
        <ele>1528.743973332</ele>
        <time>2016-08-19T10:55:01Z</time>
      </trkpt>
      <trkpt lat="45.43893" lon="5.92216">
        <ele>1526.239972331</ele>
        <time>2016-08-19T10:55:12Z</time>
      </trkpt>
      <trkpt lat="45.43896" lon="5.92222">
        <ele>1526.239972331</ele>
        <time>2016-08-19T10:55:16Z</time>
      </trkpt>
      <trkpt lat="45.439" lon="5.92221">
        <ele>1526.239972331</ele>
        <time>2016-08-19T10:55:27Z</time>
      </trkpt>
      <trkpt lat="45.43903" lon="5.92225">
        <ele>1522.81891191</ele>
        <time>2016-08-19T10:55:31Z</time>
      </trkpt>
      <trkpt lat="45.43907" lon="5.92227">
        <ele>1522.81891191</ele>
        <time>2016-08-19T10:55:42Z</time>
      </trkpt>
      <trkpt lat="45.43911" lon="5.92227">
        <ele>1522.81891191</ele>
        <time>2016-08-19T10:55:46Z</time>
      </trkpt>
      <trkpt lat="45.43913" lon="5.92227">
        <ele>1518.411623835</ele>
        <time>2016-08-19T10:55:51Z</time>
      </trkpt>
      <trkpt lat="45.43919" lon="5.92226">
        <ele>1518.411623835</ele>
        <time>2016-08-19T10:56:01Z</time>
      </trkpt>
      <trkpt lat="45.43931" lon="5.92225">
        <ele>1514.541989661</ele>
        <time>2016-08-19T10:56:06Z</time>
      </trkpt>
      <trkpt lat="45.43944" lon="5.92215">
        <ele>1511.467484758</ele>
        <time>2016-08-19T10:56:17Z</time>
      </trkpt>
      <trkpt lat="45.43953" lon="5.92213">
        <ele>1508.415583505</ele>
        <time>2016-08-19T10:56:22Z</time>
      </trkpt>
      <trkpt lat="45.43967" lon="5.92191">
        <ele>1505.535029467</ele>
        <time>2016-08-19T10:56:31Z</time>
      </trkpt>
      <trkpt lat="45.43978" lon="5.92193">
        <ele>1503.395392096</ele>
        <time>2016-08-19T10:56:37Z</time>
      </trkpt>
      <trkpt lat="45.43974" lon="5.92176">
        <ele>1500.936984101</ele>
        <time>2016-08-19T10:56:46Z</time>
      </trkpt>
      <trkpt lat="45.43981" lon="5.92168">
        <ele>1500.936984101</ele>
        <time>2016-08-19T10:56:51Z</time>
      </trkpt>
      <trkpt lat="45.43989" lon="5.9216">
        <ele>1498.187522868</ele>
        <time>2016-08-19T10:57:02Z</time>
      </trkpt>
      <trkpt lat="45.43993" lon="5.92162">
        <ele>1498.187522868</ele>
        <time>2016-08-19T10:57:06Z</time>
      </trkpt>
      <trkpt lat="45.43999" lon="5.92167">
        <ele>1495.749830926</ele>
        <time>2016-08-19T10:57:11Z</time>
      </trkpt>
      <trkpt lat="45.44013" lon="5.92176">
        <ele>1494.325561148</ele>
        <time>2016-08-19T10:57:22Z</time>
      </trkpt>
      <trkpt lat="45.44016" lon="5.92178">
        <ele>1494.325561148</ele>
        <time>2016-08-19T10:57:26Z</time>
      </trkpt>
      <trkpt lat="45.44024" lon="5.92193">
        <ele>1493.120744285</ele>
        <time>2016-08-19T10:57:37Z</time>
      </trkpt>
      <trkpt lat="45.44027" lon="5.92196">
        <ele>1493.120744285</ele>
        <time>2016-08-19T10:57:42Z</time>
      </trkpt>
      <trkpt lat="45.44036" lon="5.92196">
        <ele>1491.687223761</ele>
        <time>2016-08-19T10:57:51Z</time>
      </trkpt>
      <trkpt lat="45.44042" lon="5.92203">
        <ele>1491.687223761</ele>
        <time>2016-08-19T10:57:56Z</time>
      </trkpt>
      <trkpt lat="45.4405" lon="5.92213">
        <ele>1490.619071288</ele>
        <time>2016-08-19T10:58:07Z</time>
      </trkpt>
      <trkpt lat="45.44054" lon="5.92219">
        <ele>1490.619071288</ele>
        <time>2016-08-19T10:58:11Z</time>
      </trkpt>
      <trkpt lat="45.44061" lon="5.92233">
        <ele>1490.321477271</ele>
        <time>2016-08-19T10:58:22Z</time>
      </trkpt>
      <trkpt lat="45.44065" lon="5.92236">
        <ele>1490.321477271</ele>
        <time>2016-08-19T10:58:27Z</time>
      </trkpt>
      <trkpt lat="45.44068" lon="5.92249">
        <ele>1490.735278684</ele>
        <time>2016-08-19T10:58:36Z</time>
      </trkpt>
      <trkpt lat="45.44074" lon="5.92253">
        <ele>1490.735278684</ele>
        <time>2016-08-19T10:58:42Z</time>
      </trkpt>
      <trkpt lat="45.44077" lon="5.92257">
        <ele>1491.515362175</ele>
        <time>2016-08-19T10:58:52Z</time>
      </trkpt>
      <trkpt lat="45.44078" lon="5.92256">
        <ele>1491.515362175</ele>
        <time>2016-08-19T10:58:56Z</time>
      </trkpt>
      <trkpt lat="45.44078" lon="5.92257">
        <ele>1491.515362175</ele>
        <time>2016-08-19T10:59:06Z</time>
      </trkpt>
      <trkpt lat="45.44078" lon="5.92257">
        <ele>1491.515362175</ele>
        <time>2016-08-19T10:59:11Z</time>
      </trkpt>
      <trkpt lat="45.44081" lon="5.92273">
        <ele>1492.196766685</ele>
        <time>2016-08-19T10:59:21Z</time>
      </trkpt>
      <trkpt lat="45.44084" lon="5.92279">
        <ele>1492.196766685</ele>
        <time>2016-08-19T10:59:26Z</time>
      </trkpt>
      <trkpt lat="45.44085" lon="5.92297">
        <ele>1492.637144305</ele>
        <time>2016-08-19T10:59:35Z</time>
      </trkpt>
      <trkpt lat="45.44086" lon="5.923">
        <ele>1492.637144305</ele>
        <time>2016-08-19T10:59:40Z</time>
      </trkpt>
      <trkpt lat="45.44086" lon="5.92301">
        <ele>1492.637144305</ele>
        <time>2016-08-19T10:59:45Z</time>
      </trkpt>
      <trkpt lat="45.44086" lon="5.92301">
        <ele>1492.637144305</ele>
        <time>2016-08-19T10:59:50Z</time>
      </trkpt>
      <trkpt lat="45.44086" lon="5.92301">
        <ele>1492.637144305</ele>
        <time>2016-08-19T10:59:55Z</time>
      </trkpt>
      <trkpt lat="45.44086" lon="5.92301">
        <ele>1492.637144305</ele>
        <time>2016-08-19T11:00:01Z</time>
      </trkpt>
      <trkpt lat="45.44091" lon="5.92313">
        <ele>1493.714036608</ele>
        <time>2016-08-19T11:00:11Z</time>
      </trkpt>
      <trkpt lat="45.44093" lon="5.92323">
        <ele>1493.714036608</ele>
        <time>2016-08-19T11:00:16Z</time>
      </trkpt>
      <trkpt lat="45.44099" lon="5.92332">
        <ele>1495.229955503</ele>
        <time>2016-08-19T11:00:26Z</time>
      </trkpt>
      <trkpt lat="45.44101" lon="5.92337">
        <ele>1495.229955503</ele>
        <time>2016-08-19T11:00:31Z</time>
      </trkpt>
      <trkpt lat="45.44106" lon="5.92352">
        <ele>1496.424261019</ele>
        <time>2016-08-19T11:00:41Z</time>
      </trkpt>
      <trkpt lat="45.44107" lon="5.92358">
        <ele>1496.424261019</ele>
        <time>2016-08-19T11:00:46Z</time>
      </trkpt>
      <trkpt lat="45.44112" lon="5.92378">
        <ele>1498.466575158</ele>
        <time>2016-08-19T11:01:01Z</time>
      </trkpt>
      <trkpt lat="45.44117" lon="5.92381">
        <ele>1498.466575158</ele>
        <time>2016-08-19T11:01:06Z</time>
      </trkpt>
      <trkpt lat="45.44119" lon="5.92376">
        <ele>1501.573614718</ele>
        <time>2016-08-19T11:01:16Z</time>
      </trkpt>
      <trkpt lat="45.44121" lon="5.92373">
        <ele>1501.573614718</ele>
        <time>2016-08-19T11:01:21Z</time>
      </trkpt>
      <trkpt lat="45.4413" lon="5.92375">
        <ele>1504.790384874</ele>
        <time>2016-08-19T11:01:31Z</time>
      </trkpt>
      <trkpt lat="45.44135" lon="5.92378">
        <ele>1504.790384874</ele>
        <time>2016-08-19T11:01:36Z</time>
      </trkpt>
      <trkpt lat="45.44147" lon="5.9238">
        <ele>1508.52884911</ele>
        <time>2016-08-19T11:01:46Z</time>
      </trkpt>
      <trkpt lat="45.44152" lon="5.92381">
        <ele>1508.52884911</ele>
        <time>2016-08-19T11:01:51Z</time>
      </trkpt>
      <trkpt lat="45.44152" lon="5.92381">
        <ele>1508.52884911</ele>
        <time>2016-08-19T11:02:01Z</time>
      </trkpt>
      <trkpt lat="45.44152" lon="5.92382">
        <ele>1508.52884911</ele>
        <time>2016-08-19T11:02:06Z</time>
      </trkpt>
      <trkpt lat="45.44156" lon="5.92382">
        <ele>1511.87238315</ele>
        <time>2016-08-19T11:02:16Z</time>
      </trkpt>
      <trkpt lat="45.44158" lon="5.92383">
        <ele>1511.87238315</ele>
        <time>2016-08-19T11:02:20Z</time>
      </trkpt>
      <trkpt lat="45.44167" lon="5.92388">
        <ele>1515.702308169</ele>
        <time>2016-08-19T11:02:31Z</time>
      </trkpt>
      <trkpt lat="45.44171" lon="5.92393">
        <ele>1515.702308169</ele>
        <time>2016-08-19T11:02:36Z</time>
      </trkpt>
      <trkpt lat="45.44181" lon="5.92397">
        <ele>1519.248809866</ele>
        <time>2016-08-19T11:02:46Z</time>
      </trkpt>
      <trkpt lat="45.44187" lon="5.92402">
        <ele>1519.248809866</ele>
        <time>2016-08-19T11:02:51Z</time>
      </trkpt>
      <trkpt lat="45.44195" lon="5.92416">
        <ele>1522.952527758</ele>
        <time>2016-08-19T11:03:06Z</time>
      </trkpt>
      <trkpt lat="45.44207" lon="5.92418">
        <ele>1526.645086678</ele>
        <time>2016-08-19T11:03:21Z</time>
      </trkpt>
      <trkpt lat="45.44209" lon="5.92428">
        <ele>1526.645086678</ele>
        <time>2016-08-19T11:03:36Z</time>
      </trkpt>
      <trkpt lat="45.4421" lon="5.92434">
        <ele>1530.31488322</ele>
        <time>2016-08-19T11:03:41Z</time>
      </trkpt>
      <trkpt lat="45.44212" lon="5.92454">
        <ele>1533.663285061</ele>
        <time>2016-08-19T11:03:51Z</time>
      </trkpt>
      <trkpt lat="45.44213" lon="5.92464">
        <ele>1533.663285061</ele>
        <time>2016-08-19T11:03:56Z</time>
      </trkpt>
      <trkpt lat="45.44219" lon="5.92481">
        <ele>1536.703012743</ele>
        <time>2016-08-19T11:04:06Z</time>
      </trkpt>
      <trkpt lat="45.44223" lon="5.92489">
        <ele>1536.703012743</ele>
        <time>2016-08-19T11:04:11Z</time>
      </trkpt>
      <trkpt lat="45.44231" lon="5.925">
        <ele>1538.870573985</ele>
        <time>2016-08-19T11:04:21Z</time>
      </trkpt>
      <trkpt lat="45.44235" lon="5.92506">
        <ele>1538.870573985</ele>
        <time>2016-08-19T11:04:26Z</time>
      </trkpt>
      <trkpt lat="45.44243" lon="5.92524">
        <ele>1540.655401213</ele>
        <time>2016-08-19T11:04:36Z</time>
      </trkpt>
      <trkpt lat="45.44245" lon="5.92527">
        <ele>1540.655401213</ele>
        <time>2016-08-19T11:04:41Z</time>
      </trkpt>
      <trkpt lat="45.44255" lon="5.92545">
        <ele>1542.080017994</ele>
        <time>2016-08-19T11:04:51Z</time>
      </trkpt>
      <trkpt lat="45.44258" lon="5.92552">
        <ele>1542.080017994</ele>
        <time>2016-08-19T11:04:56Z</time>
      </trkpt>
      <trkpt lat="45.44264" lon="5.92569">
        <ele>1543.310714466</ele>
        <time>2016-08-19T11:05:06Z</time>
      </trkpt>
      <trkpt lat="45.44266" lon="5.92578">
        <ele>1543.310714466</ele>
        <time>2016-08-19T11:05:11Z</time>
      </trkpt>
      <trkpt lat="45.44273" lon="5.92594">
        <ele>1544.502399754</ele>
        <time>2016-08-19T11:05:21Z</time>
      </trkpt>
      <trkpt lat="45.44278" lon="5.92601">
        <ele>1544.502399754</ele>
        <time>2016-08-19T11:05:26Z</time>
      </trkpt>
      <trkpt lat="45.44286" lon="5.92613">
        <ele>1545.22254696</ele>
        <time>2016-08-19T11:05:36Z</time>
      </trkpt>
      <trkpt lat="45.44292" lon="5.92623">
        <ele>1545.22254696</ele>
        <time>2016-08-19T11:05:41Z</time>
      </trkpt>
      <trkpt lat="45.44298" lon="5.92645">
        <ele>1546.368993056</ele>
        <time>2016-08-19T11:05:51Z</time>
      </trkpt>
      <trkpt lat="45.44299" lon="5.92656">
        <ele>1546.368993056</ele>
        <time>2016-08-19T11:05:56Z</time>
      </trkpt>
      <trkpt lat="45.44308" lon="5.92676">
        <ele>1547.187454073</ele>
        <time>2016-08-19T11:06:11Z</time>
      </trkpt>
      <trkpt lat="45.44326" lon="5.92693">
        <ele>1547.556659023</ele>
        <time>2016-08-19T11:06:26Z</time>
      </trkpt>
      <trkpt lat="45.44331" lon="5.92701">
        <ele>1547.556659023</ele>
        <time>2016-08-19T11:06:31Z</time>
      </trkpt>
      <trkpt lat="45.44341" lon="5.92716">
        <ele>1548.374508382</ele>
        <time>2016-08-19T11:06:41Z</time>
      </trkpt>
      <trkpt lat="45.44346" lon="5.9272">
        <ele>1548.374508382</ele>
        <time>2016-08-19T11:06:46Z</time>
      </trkpt>
      <trkpt lat="45.44358" lon="5.9273">
        <ele>1548.886670457</ele>
        <time>2016-08-19T11:06:56Z</time>
      </trkpt>
      <trkpt lat="45.44363" lon="5.92732">
        <ele>1548.886670457</ele>
        <time>2016-08-19T11:07:01Z</time>
      </trkpt>
      <trkpt lat="45.44374" lon="5.92744">
        <ele>1549.259944812</ele>
        <time>2016-08-19T11:07:11Z</time>
      </trkpt>
      <trkpt lat="45.44379" lon="5.92745">
        <ele>1549.259944812</ele>
        <time>2016-08-19T11:07:16Z</time>
      </trkpt>
      <trkpt lat="45.44393" lon="5.92754">
        <ele>1549.217111387</ele>
        <time>2016-08-19T11:07:26Z</time>
      </trkpt>
      <trkpt lat="45.44399" lon="5.92762">
        <ele>1549.217111387</ele>
        <time>2016-08-19T11:07:31Z</time>
      </trkpt>
      <trkpt lat="45.44411" lon="5.92771">
        <ele>1549.223199002</ele>
        <time>2016-08-19T11:07:41Z</time>
      </trkpt>
      <trkpt lat="45.44418" lon="5.92772">
        <ele>1549.223199002</ele>
        <time>2016-08-19T11:07:46Z</time>
      </trkpt>
      <trkpt lat="45.44431" lon="5.92785">
        <ele>1549.420860515</ele>
        <time>2016-08-19T11:08:01Z</time>
      </trkpt>
      <trkpt lat="45.44452" lon="5.92797">
        <ele>1550.806529337</ele>
        <time>2016-08-19T11:08:16Z</time>
      </trkpt>
      <trkpt lat="45.44456" lon="5.92797">
        <ele>1550.806529337</ele>
        <time>2016-08-19T11:08:21Z</time>
      </trkpt>
      <trkpt lat="45.44466" lon="5.92795">
        <ele>1552.282670058</ele>
        <time>2016-08-19T11:08:31Z</time>
      </trkpt>
      <trkpt lat="45.4447" lon="5.92794">
        <ele>1552.282670058</ele>
        <time>2016-08-19T11:08:36Z</time>
      </trkpt>
      <trkpt lat="45.44477" lon="5.92784">
        <ele>1553.264560116</ele>
        <time>2016-08-19T11:08:46Z</time>
      </trkpt>
      <trkpt lat="45.4448" lon="5.92781">
        <ele>1553.264560116</ele>
        <time>2016-08-19T11:08:51Z</time>
      </trkpt>
      <trkpt lat="45.4449" lon="5.92781">
        <ele>1554.220697008</ele>
        <time>2016-08-19T11:09:01Z</time>
      </trkpt>
      <trkpt lat="45.44496" lon="5.92782">
        <ele>1554.220697008</ele>
        <time>2016-08-19T11:09:06Z</time>
      </trkpt>
      <trkpt lat="45.44509" lon="5.92789">
        <ele>1555.729442997</ele>
        <time>2016-08-19T11:09:16Z</time>
      </trkpt>
      <trkpt lat="45.44513" lon="5.92792">
        <ele>1555.729442997</ele>
        <time>2016-08-19T11:09:21Z</time>
      </trkpt>
      <trkpt lat="45.44525" lon="5.928">
        <ele>1557.172326338</ele>
        <time>2016-08-19T11:09:31Z</time>
      </trkpt>
      <trkpt lat="45.44531" lon="5.92807">
        <ele>1557.172326338</ele>
        <time>2016-08-19T11:09:36Z</time>
      </trkpt>
      <trkpt lat="45.4454" lon="5.92815">
        <ele>1558.408912943</ele>
        <time>2016-08-19T11:09:46Z</time>
      </trkpt>
      <trkpt lat="45.44544" lon="5.92815">
        <ele>1558.408912943</ele>
        <time>2016-08-19T11:09:51Z</time>
      </trkpt>
      <trkpt lat="45.44547" lon="5.92812">
        <ele>1558.408912943</ele>
        <time>2016-08-19T11:10:01Z</time>
      </trkpt>
      <trkpt lat="45.44551" lon="5.92814">
        <ele>1559.453856994</ele>
        <time>2016-08-19T11:10:06Z</time>
      </trkpt>
      <trkpt lat="45.44566" lon="5.9282">
        <ele>1560.465462516</ele>
        <time>2016-08-19T11:10:21Z</time>
      </trkpt>
      <trkpt lat="45.44571" lon="5.92822">
        <ele>1560.465462516</ele>
        <time>2016-08-19T11:10:26Z</time>
      </trkpt>
      <trkpt lat="45.44579" lon="5.9282">
        <ele>1561.302347596</ele>
        <time>2016-08-19T11:10:36Z</time>
      </trkpt>
      <trkpt lat="45.44584" lon="5.92821">
        <ele>1561.302347596</ele>
        <time>2016-08-19T11:10:41Z</time>
      </trkpt>
      <trkpt lat="45.44592" lon="5.92829">
        <ele>1562.410516755</ele>
        <time>2016-08-19T11:10:51Z</time>
      </trkpt>
      <trkpt lat="45.44597" lon="5.92823">
        <ele>1562.410516755</ele>
        <time>2016-08-19T11:10:56Z</time>
      </trkpt>
      <trkpt lat="45.44605" lon="5.92826">
        <ele>1562.617285531</ele>
        <time>2016-08-19T11:11:06Z</time>
      </trkpt>
      <trkpt lat="45.44612" lon="5.92828">
        <ele>1562.617285531</ele>
        <time>2016-08-19T11:11:11Z</time>
      </trkpt>
      <trkpt lat="45.4462" lon="5.92831">
        <ele>1563.432694817</ele>
        <time>2016-08-19T11:11:21Z</time>
      </trkpt>
      <trkpt lat="45.44623" lon="5.92835">
        <ele>1563.432694817</ele>
        <time>2016-08-19T11:11:26Z</time>
      </trkpt>
      <trkpt lat="45.44633" lon="5.92833">
        <ele>1563.948415497</ele>
        <time>2016-08-19T11:11:41Z</time>
      </trkpt>
      <trkpt lat="45.44636" lon="5.92836">
        <ele>1563.948415497</ele>
        <time>2016-08-19T11:11:55Z</time>
      </trkpt>
      <trkpt lat="45.44647" lon="5.92835">
        <ele>1564.044274258</ele>
        <time>2016-08-19T11:12:01Z</time>
      </trkpt>
      <trkpt lat="45.44655" lon="5.92844">
        <ele>1564.474795467</ele>
        <time>2016-08-19T11:12:11Z</time>
      </trkpt>
      <trkpt lat="45.44663" lon="5.92843">
        <ele>1564.474795467</ele>
        <time>2016-08-19T11:12:16Z</time>
      </trkpt>
      <trkpt lat="45.44669" lon="5.92845">
        <ele>1565.505821751</ele>
        <time>2016-08-19T11:12:26Z</time>
      </trkpt>
      <trkpt lat="45.44675" lon="5.92842">
        <ele>1565.505821751</ele>
        <time>2016-08-19T11:12:31Z</time>
      </trkpt>
      <trkpt lat="45.44678" lon="5.9285">
        <ele>1566.949660511</ele>
        <time>2016-08-19T11:12:41Z</time>
      </trkpt>
      <trkpt lat="45.44682" lon="5.92856">
        <ele>1566.949660511</ele>
        <time>2016-08-19T11:12:45Z</time>
      </trkpt>
      <trkpt lat="45.4469" lon="5.92867">
        <ele>1569.640037052</ele>
        <time>2016-08-19T11:12:56Z</time>
      </trkpt>
      <trkpt lat="45.44694" lon="5.92868">
        <ele>1569.640037052</ele>
        <time>2016-08-19T11:13:01Z</time>
      </trkpt>
      <trkpt lat="45.44702" lon="5.92879">
        <ele>1572.328391197</ele>
        <time>2016-08-19T11:13:11Z</time>
      </trkpt>
      <trkpt lat="45.44706" lon="5.92887">
        <ele>1572.328391197</ele>
        <time>2016-08-19T11:13:16Z</time>
      </trkpt>
      <trkpt lat="45.44714" lon="5.92899">
        <ele>1574.722572864</ele>
        <time>2016-08-19T11:13:26Z</time>
      </trkpt>
      <trkpt lat="45.44719" lon="5.92906">
        <ele>1574.722572864</ele>
        <time>2016-08-19T11:13:31Z</time>
      </trkpt>
      <trkpt lat="45.44732" lon="5.9292">
        <ele>1577.417413141</ele>
        <time>2016-08-19T11:13:46Z</time>
      </trkpt>
      <trkpt lat="45.44735" lon="5.92923">
        <ele>1577.417413141</ele>
        <time>2016-08-19T11:13:51Z</time>
      </trkpt>
      <trkpt lat="45.44745" lon="5.92938">
        <ele>1579.522128328</ele>
        <time>2016-08-19T11:14:01Z</time>
      </trkpt>
      <trkpt lat="45.44748" lon="5.92941">
        <ele>1579.522128328</ele>
        <time>2016-08-19T11:14:06Z</time>
      </trkpt>
      <trkpt lat="45.44759" lon="5.92949">
        <ele>1580.501290305</ele>
        <time>2016-08-19T11:14:16Z</time>
      </trkpt>
      <trkpt lat="45.44762" lon="5.92958">
        <ele>1580.501290305</ele>
        <time>2016-08-19T11:14:21Z</time>
      </trkpt>
      <trkpt lat="45.4477" lon="5.92971">
        <ele>1581.735449666</ele>
        <time>2016-08-19T11:14:31Z</time>
      </trkpt>
      <trkpt lat="45.44773" lon="5.92973">
        <ele>1581.735449666</ele>
        <time>2016-08-19T11:14:36Z</time>
      </trkpt>
      <trkpt lat="45.44782" lon="5.92987">
        <ele>1581.909067521</ele>
        <time>2016-08-19T11:14:46Z</time>
      </trkpt>
      <trkpt lat="45.44788" lon="5.92993">
        <ele>1581.909067521</ele>
        <time>2016-08-19T11:14:51Z</time>
      </trkpt>
      <trkpt lat="45.44799" lon="5.93015">
        <ele>1582.544366838</ele>
        <time>2016-08-19T11:15:06Z</time>
      </trkpt>
      <trkpt lat="45.44803" lon="5.93022">
        <ele>1582.544366838</ele>
        <time>2016-08-19T11:15:11Z</time>
      </trkpt>
      <trkpt lat="45.44802" lon="5.93026">
        <ele>1582.544366838</ele>
        <time>2016-08-19T11:15:20Z</time>
      </trkpt>
      <trkpt lat="45.44803" lon="5.93025">
        <ele>1582.888813795</ele>
        <time>2016-08-19T11:15:26Z</time>
      </trkpt>
      <trkpt lat="45.44806" lon="5.93014">
        <ele>1582.888813795</ele>
        <time>2016-08-19T11:15:36Z</time>
      </trkpt>
      <trkpt lat="45.44806" lon="5.93009">
        <ele>1582.53421085</ele>
        <time>2016-08-19T11:15:41Z</time>
      </trkpt>
      <trkpt lat="45.4481" lon="5.92998">
        <ele>1582.53421085</ele>
        <time>2016-08-19T11:15:50Z</time>
      </trkpt>
      <trkpt lat="45.44808" lon="5.93003">
        <ele>1583.265982694</ele>
        <time>2016-08-19T11:15:56Z</time>
      </trkpt>
      <trkpt lat="45.44813" lon="5.93011">
        <ele>1583.265982694</ele>
        <time>2016-08-19T11:16:06Z</time>
      </trkpt>
      <trkpt lat="45.44813" lon="5.93014">
        <ele>1584.429571071</ele>
        <time>2016-08-19T11:16:11Z</time>
      </trkpt>
      <trkpt lat="45.44816" lon="5.93023">
        <ele>1584.429571071</ele>
        <time>2016-08-19T11:16:21Z</time>
      </trkpt>
      <trkpt lat="45.44818" lon="5.93025">
        <ele>1585.849616933</ele>
        <time>2016-08-19T11:16:26Z</time>
      </trkpt>
      <trkpt lat="45.44819" lon="5.93022">
        <ele>1585.849616933</ele>
        <time>2016-08-19T11:16:40Z</time>
      </trkpt>
      <trkpt lat="45.44822" lon="5.93035">
        <ele>1587.507025678</ele>
        <time>2016-08-19T11:16:46Z</time>
      </trkpt>
      <trkpt lat="45.44829" lon="5.93042">
        <ele>1587.507025678</ele>
        <time>2016-08-19T11:16:56Z</time>
      </trkpt>
      <trkpt lat="45.44831" lon="5.93044">
        <ele>1589.095208741</ele>
        <time>2016-08-19T11:17:01Z</time>
      </trkpt>
      <trkpt lat="45.44839" lon="5.9305">
        <ele>1589.095208741</ele>
        <time>2016-08-19T11:17:11Z</time>
      </trkpt>
      <trkpt lat="45.44839" lon="5.93043">
        <ele>1591.050843726</ele>
        <time>2016-08-19T11:17:16Z</time>
      </trkpt>
      <trkpt lat="45.44841" lon="5.93039">
        <ele>1591.050843726</ele>
        <time>2016-08-19T11:17:26Z</time>
      </trkpt>
      <trkpt lat="45.44842" lon="5.93036">
        <ele>1591.050843726</ele>
        <time>2016-08-19T11:17:31Z</time>
      </trkpt>
      <trkpt lat="45.44843" lon="5.93035">
        <ele>1591.050843726</ele>
        <time>2016-08-19T11:17:41Z</time>
      </trkpt>
      <trkpt lat="45.44843" lon="5.93033">
        <ele>1591.050843726</ele>
        <time>2016-08-19T11:17:45Z</time>
      </trkpt>
      <trkpt lat="45.44838" lon="5.93018">
        <ele>1593.489275874</ele>
        <time>2016-08-19T11:17:55Z</time>
      </trkpt>
      <trkpt lat="45.44832" lon="5.93019">
        <ele>1593.489275874</ele>
        <time>2016-08-19T11:18:01Z</time>
      </trkpt>
      <trkpt lat="45.44836" lon="5.93018">
        <ele>1596.371917116</ele>
        <time>2016-08-19T11:18:11Z</time>
      </trkpt>
      <trkpt lat="45.44836" lon="5.93022">
        <ele>1596.371917116</ele>
        <time>2016-08-19T11:18:16Z</time>
      </trkpt>
      <trkpt lat="45.44834" lon="5.93015">
        <ele>1596.371917116</ele>
        <time>2016-08-19T11:18:26Z</time>
      </trkpt>
      <trkpt lat="45.44834" lon="5.93011">
        <ele>1599.229448077</ele>
        <time>2016-08-19T11:18:31Z</time>
      </trkpt>
      <trkpt lat="45.44838" lon="5.93007">
        <ele>1599.229448077</ele>
        <time>2016-08-19T11:18:41Z</time>
      </trkpt>
      <trkpt lat="45.44838" lon="5.93009">
        <ele>1599.229448077</ele>
        <time>2016-08-19T11:18:46Z</time>
      </trkpt>
      <trkpt lat="45.44841" lon="5.93015">
        <ele>1602.203564222</ele>
        <time>2016-08-19T11:18:56Z</time>
      </trkpt>
      <trkpt lat="45.44841" lon="5.93015">
        <ele>1602.203564222</ele>
        <time>2016-08-19T11:19:01Z</time>
      </trkpt>
      <trkpt lat="45.44844" lon="5.93019">
        <ele>1602.203564222</ele>
        <time>2016-08-19T11:19:16Z</time>
      </trkpt>
      <trkpt lat="45.44845" lon="5.93012">
        <ele>1604.272368888</ele>
        <time>2016-08-19T11:19:21Z</time>
      </trkpt>
      <trkpt lat="45.44852" lon="5.9302">
        <ele>1606.220948067</ele>
        <time>2016-08-19T11:19:31Z</time>
      </trkpt>
      <trkpt lat="45.44856" lon="5.93028">
        <ele>1606.220948067</ele>
        <time>2016-08-19T11:19:36Z</time>
      </trkpt>
      <trkpt lat="45.44862" lon="5.9304">
        <ele>1608.34476625</ele>
        <time>2016-08-19T11:19:46Z</time>
      </trkpt>
      <trkpt lat="45.44864" lon="5.93046">
        <ele>1608.34476625</ele>
        <time>2016-08-19T11:19:51Z</time>
      </trkpt>
      <trkpt lat="45.44871" lon="5.93056">
        <ele>1610.052474068</ele>
        <time>2016-08-19T11:20:01Z</time>
      </trkpt>
      <trkpt lat="45.44871" lon="5.93056">
        <ele>1610.052474068</ele>
        <time>2016-08-19T11:20:06Z</time>
      </trkpt>
      <trkpt lat="45.4487" lon="5.93058">
        <ele>1610.052474068</ele>
        <time>2016-08-19T11:20:16Z</time>
      </trkpt>
      <trkpt lat="45.4487" lon="5.93059">
        <ele>1610.052474068</ele>
        <time>2016-08-19T11:20:21Z</time>
      </trkpt>
      <trkpt lat="45.4487" lon="5.9306">
        <ele>1610.052474068</ele>
        <time>2016-08-19T11:20:31Z</time>
      </trkpt>
      <trkpt lat="45.44876" lon="5.93068">
        <ele>1611.950269383</ele>
        <time>2016-08-19T11:20:36Z</time>
      </trkpt>
      <trkpt lat="45.44884" lon="5.93084">
        <ele>1613.302335171</ele>
        <time>2016-08-19T11:20:46Z</time>
      </trkpt>
      <trkpt lat="45.44885" lon="5.93089">
        <ele>1613.302335171</ele>
        <time>2016-08-19T11:20:51Z</time>
      </trkpt>
      <trkpt lat="45.44892" lon="5.93106">
        <ele>1614.43726401</ele>
        <time>2016-08-19T11:21:01Z</time>
      </trkpt>
      <trkpt lat="45.44893" lon="5.93113">
        <ele>1614.43726401</ele>
        <time>2016-08-19T11:21:06Z</time>
      </trkpt>
      <trkpt lat="45.44899" lon="5.93126">
        <ele>1615.227829508</ele>
        <time>2016-08-19T11:21:16Z</time>
      </trkpt>
      <trkpt lat="45.44905" lon="5.93137">
        <ele>1616.133600029</ele>
        <time>2016-08-19T11:21:21Z</time>
      </trkpt>
      <trkpt lat="45.44907" lon="5.93149">
        <ele>1616.133600029</ele>
        <time>2016-08-19T11:21:31Z</time>
      </trkpt>
      <trkpt lat="45.44912" lon="5.93152">
        <ele>1617.003647511</ele>
        <time>2016-08-19T11:21:36Z</time>
      </trkpt>
      <trkpt lat="45.44918" lon="5.93164">
        <ele>1617.121808887</ele>
        <time>2016-08-19T11:21:46Z</time>
      </trkpt>
      <trkpt lat="45.44921" lon="5.93171">
        <ele>1617.121808887</ele>
        <time>2016-08-19T11:21:51Z</time>
      </trkpt>
      <trkpt lat="45.44929" lon="5.9318">
        <ele>1617.123652522</ele>
        <time>2016-08-19T11:22:01Z</time>
      </trkpt>
      <trkpt lat="45.44931" lon="5.93185">
        <ele>1617.123652522</ele>
        <time>2016-08-19T11:22:06Z</time>
      </trkpt>
      <trkpt lat="45.44939" lon="5.93195">
        <ele>1617.598387644</ele>
        <time>2016-08-19T11:22:21Z</time>
      </trkpt>
      <trkpt lat="45.44942" lon="5.93199">
        <ele>1617.598387644</ele>
        <time>2016-08-19T11:22:26Z</time>
      </trkpt>
      <trkpt lat="45.44943" lon="5.93201">
        <ele>1617.598387644</ele>
        <time>2016-08-19T11:22:36Z</time>
      </trkpt>
      <trkpt lat="45.44943" lon="5.93201">
        <ele>1617.598387644</ele>
        <time>2016-08-19T11:22:41Z</time>
      </trkpt>
      <trkpt lat="45.44945" lon="5.93201">
        <ele>1617.598387644</ele>
        <time>2016-08-19T11:22:51Z</time>
      </trkpt>
      <trkpt lat="45.44952" lon="5.93198">
        <ele>1617.793605834</ele>
        <time>2016-08-19T11:22:55Z</time>
      </trkpt>
      <trkpt lat="45.44957" lon="5.93194">
        <ele>1617.793605834</ele>
        <time>2016-08-19T11:23:06Z</time>
      </trkpt>
      <trkpt lat="45.44956" lon="5.93195">
        <ele>1617.793605834</ele>
        <time>2016-08-19T11:23:11Z</time>
      </trkpt>
      <trkpt lat="45.44955" lon="5.93196">
        <ele>1617.793605834</ele>
        <time>2016-08-19T11:23:21Z</time>
      </trkpt>
      <trkpt lat="45.44956" lon="5.93196">
        <ele>1618.454048731</ele>
        <time>2016-08-19T11:23:26Z</time>
      </trkpt>
      <trkpt lat="45.44956" lon="5.93196">
        <ele>1618.454048731</ele>
        <time>2016-08-19T11:23:36Z</time>
      </trkpt>
      <trkpt lat="45.44956" lon="5.93196">
        <ele>1618.454048731</ele>
        <time>2016-08-19T11:23:41Z</time>
      </trkpt>
      <trkpt lat="45.44957" lon="5.93196">
        <ele>1618.454048731</ele>
        <time>2016-08-19T11:23:51Z</time>
      </trkpt>
      <trkpt lat="45.44957" lon="5.93196">
        <ele>1618.454048731</ele>
        <time>2016-08-19T11:23:56Z</time>
      </trkpt>
      <trkpt lat="45.44957" lon="5.93195">
        <ele>1618.454048731</ele>
        <time>2016-08-19T11:24:06Z</time>
      </trkpt>
      <trkpt lat="45.44957" lon="5.93195">
        <ele>1618.454048731</ele>
        <time>2016-08-19T11:24:11Z</time>
      </trkpt>
      <trkpt lat="45.44957" lon="5.93195">
        <ele>1618.454048731</ele>
        <time>2016-08-19T11:24:21Z</time>
      </trkpt>
      <trkpt lat="45.44957" lon="5.93195">
        <ele>1618.454048731</ele>
        <time>2016-08-19T11:24:26Z</time>
      </trkpt>
      <trkpt lat="45.44957" lon="5.93195">
        <ele>1618.454048731</ele>
        <time>2016-08-19T11:24:31Z</time>
      </trkpt>
      <trkpt lat="45.44957" lon="5.93195">
        <ele>1618.454048731</ele>
        <time>2016-08-19T11:24:36Z</time>
      </trkpt>
      <trkpt lat="45.44957" lon="5.93195">
        <ele>1618.454048731</ele>
        <time>2016-08-19T11:24:41Z</time>
      </trkpt>
      <trkpt lat="45.44958" lon="5.9321">
        <ele>1620.988978458</ele>
        <time>2016-08-19T11:24:56Z</time>
      </trkpt>
      <trkpt lat="45.44959" lon="5.93208">
        <ele>1620.988978458</ele>
        <time>2016-08-19T11:25:01Z</time>
      </trkpt>
      <trkpt lat="45.44961" lon="5.93208">
        <ele>1620.988978458</ele>
        <time>2016-08-19T11:25:11Z</time>
      </trkpt>
      <trkpt lat="45.44963" lon="5.9321">
        <ele>1620.988978458</ele>
        <time>2016-08-19T11:25:16Z</time>
      </trkpt>
      <trkpt lat="45.44965" lon="5.93227">
        <ele>1624.96952086</ele>
        <time>2016-08-19T11:25:26Z</time>
      </trkpt>
      <trkpt lat="45.44967" lon="5.9323">
        <ele>1624.96952086</ele>
        <time>2016-08-19T11:25:31Z</time>
      </trkpt>
      <trkpt lat="45.44969" lon="5.93238">
        <ele>1624.96952086</ele>
        <time>2016-08-19T11:25:41Z</time>
      </trkpt>
      <trkpt lat="45.44969" lon="5.93239">
        <ele>1629.129572357</ele>
        <time>2016-08-19T11:25:46Z</time>
      </trkpt>
      <trkpt lat="45.44969" lon="5.93239">
        <ele>1629.129572357</ele>
        <time>2016-08-19T11:25:56Z</time>
      </trkpt>
      <trkpt lat="45.44969" lon="5.93239">
        <ele>1629.129572357</ele>
        <time>2016-08-19T11:26:01Z</time>
      </trkpt>
      <trkpt lat="45.4497" lon="5.9324">
        <ele>1629.129572357</ele>
        <time>2016-08-19T11:26:11Z</time>
      </trkpt>
      <trkpt lat="45.44976" lon="5.93243">
        <ele>1629.129572357</ele>
        <time>2016-08-19T11:26:16Z</time>
      </trkpt>
      <trkpt lat="45.44984" lon="5.93246">
        <ele>1633.304314629</ele>
        <time>2016-08-19T11:26:26Z</time>
      </trkpt>
      <trkpt lat="45.44985" lon="5.93248">
        <ele>1633.304314629</ele>
        <time>2016-08-19T11:26:31Z</time>
      </trkpt>
      <trkpt lat="45.44985" lon="5.93247">
        <ele>1633.304314629</ele>
        <time>2016-08-19T11:26:41Z</time>
      </trkpt>
      <trkpt lat="45.44991" lon="5.93241">
        <ele>1633.304314629</ele>
        <time>2016-08-19T11:26:46Z</time>
      </trkpt>
      <trkpt lat="45.44988" lon="5.93236">
        <ele>1637.485130196</ele>
        <time>2016-08-19T11:26:56Z</time>
      </trkpt>
      <trkpt lat="45.44988" lon="5.93236">
        <ele>1637.485130196</ele>
        <time>2016-08-19T11:27:01Z</time>
      </trkpt>
      <trkpt lat="45.44983" lon="5.93233">
        <ele>1637.485130196</ele>
        <time>2016-08-19T11:27:11Z</time>
      </trkpt>
      <trkpt lat="45.44983" lon="5.93231">
        <ele>1637.485130196</ele>
        <time>2016-08-19T11:27:16Z</time>
      </trkpt>
      <trkpt lat="45.44983" lon="5.93231">
        <ele>1637.485130196</ele>
        <time>2016-08-19T11:27:26Z</time>
      </trkpt>
      <trkpt lat="45.4498" lon="5.93226">
        <ele>1642.384618838</ele>
        <time>2016-08-19T11:27:31Z</time>
      </trkpt>
      <trkpt lat="45.44981" lon="5.93225">
        <ele>1642.384618838</ele>
        <time>2016-08-19T11:27:41Z</time>
      </trkpt>
      <trkpt lat="45.44981" lon="5.93223">
        <ele>1642.384618838</ele>
        <time>2016-08-19T11:27:46Z</time>
      </trkpt>
      <trkpt lat="45.44982" lon="5.93222">
        <ele>1642.384618838</ele>
        <time>2016-08-19T11:27:50Z</time>
      </trkpt>
      <trkpt lat="45.44982" lon="5.93221">
        <ele>1642.384618838</ele>
        <time>2016-08-19T11:28:00Z</time>
      </trkpt>
      <trkpt lat="45.44982" lon="5.93221">
        <ele>1642.384618838</ele>
        <time>2016-08-19T11:28:05Z</time>
      </trkpt>
      <trkpt lat="45.44982" lon="5.93221">
        <ele>1642.384618838</ele>
        <time>2016-08-19T11:28:15Z</time>
      </trkpt>
      <trkpt lat="45.44982" lon="5.93221">
        <ele>1642.384618838</ele>
        <time>2016-08-19T11:28:20Z</time>
      </trkpt>
      <trkpt lat="45.44987" lon="5.93223">
        <ele>1642.384618838</ele>
        <time>2016-08-19T11:28:30Z</time>
      </trkpt>
      <trkpt lat="45.44987" lon="5.93219">
        <ele>1648.228752095</ele>
        <time>2016-08-19T11:28:36Z</time>
      </trkpt>
      <trkpt lat="45.44988" lon="5.93212">
        <ele>1648.228752095</ele>
        <time>2016-08-19T11:28:46Z</time>
      </trkpt>
      <trkpt lat="45.44989" lon="5.93212">
        <ele>1648.228752095</ele>
        <time>2016-08-19T11:28:51Z</time>
      </trkpt>
      <trkpt lat="45.44989" lon="5.93212">
        <ele>1648.228752095</ele>
        <time>2016-08-19T11:29:01Z</time>
      </trkpt>
      <trkpt lat="45.44989" lon="5.93212">
        <ele>1648.228752095</ele>
        <time>2016-08-19T11:29:07Z</time>
      </trkpt>
      <trkpt lat="45.44986" lon="5.93201">
        <ele>1654.503789073</ele>
        <time>2016-08-19T11:29:16Z</time>
      </trkpt>
      <trkpt lat="45.44989" lon="5.93203">
        <ele>1654.503789073</ele>
        <time>2016-08-19T11:29:21Z</time>
      </trkpt>
      <trkpt lat="45.44992" lon="5.9321">
        <ele>1654.503789073</ele>
        <time>2016-08-19T11:29:37Z</time>
      </trkpt>
      <trkpt lat="45.44995" lon="5.93207">
        <ele>1662.317864266</ele>
        <time>2016-08-19T11:29:47Z</time>
      </trkpt>
      <trkpt lat="45.44998" lon="5.93204">
        <ele>1662.317864266</ele>
        <time>2016-08-19T11:29:52Z</time>
      </trkpt>
      <trkpt lat="45.45004" lon="5.93206">
        <ele>1669.523099679</ele>
        <time>2016-08-19T11:30:07Z</time>
      </trkpt>
      <trkpt lat="45.45004" lon="5.93204">
        <ele>1669.523099679</ele>
        <time>2016-08-19T11:30:11Z</time>
      </trkpt>
      <trkpt lat="45.45004" lon="5.93203">
        <ele>1669.523099679</ele>
        <time>2016-08-19T11:30:21Z</time>
      </trkpt>
      <trkpt lat="45.44989" lon="5.93171">
        <ele>1676.725294596</ele>
        <time>2016-08-19T11:30:36Z</time>
      </trkpt>
      <trkpt lat="45.44989" lon="5.93168">
        <ele>1676.725294596</ele>
        <time>2016-08-19T11:30:41Z</time>
      </trkpt>
      <trkpt lat="45.44985" lon="5.9315">
        <ele>1683.621306333</ele>
        <time>2016-08-19T11:30:51Z</time>
      </trkpt>
      <trkpt lat="45.44987" lon="5.93146">
        <ele>1683.621306333</ele>
        <time>2016-08-19T11:30:56Z</time>
      </trkpt>
      <trkpt lat="45.44975" lon="5.93136">
        <ele>1689.931366045</ele>
        <time>2016-08-19T11:31:06Z</time>
      </trkpt>
      <trkpt lat="45.44978" lon="5.93134">
        <ele>1689.931366045</ele>
        <time>2016-08-19T11:31:11Z</time>
      </trkpt>
      <trkpt lat="45.44973" lon="5.93128">
        <ele>1696.262836507</ele>
        <time>2016-08-19T11:31:22Z</time>
      </trkpt>
      <trkpt lat="45.44972" lon="5.9313">
        <ele>1696.262836507</ele>
        <time>2016-08-19T11:31:26Z</time>
      </trkpt>
      <trkpt lat="45.44971" lon="5.93131">
        <ele>1696.262836507</ele>
        <time>2016-08-19T11:31:36Z</time>
      </trkpt>
      <trkpt lat="45.44971" lon="5.93131">
        <ele>1696.262836507</ele>
        <time>2016-08-19T11:31:41Z</time>
      </trkpt>
      <trkpt lat="45.44971" lon="5.9313">
        <ele>1696.262836507</ele>
        <time>2016-08-19T11:31:51Z</time>
      </trkpt>
      <trkpt lat="45.4497" lon="5.93128">
        <ele>1696.262836507</ele>
        <time>2016-08-19T11:31:56Z</time>
      </trkpt>
      <trkpt lat="45.44958" lon="5.93118">
        <ele>1701.737578571</ele>
        <time>2016-08-19T11:32:07Z</time>
      </trkpt>
      <trkpt lat="45.44956" lon="5.93115">
        <ele>1701.737578571</ele>
        <time>2016-08-19T11:32:12Z</time>
      </trkpt>
      <trkpt lat="45.44952" lon="5.93108">
        <ele>1706.841662485</ele>
        <time>2016-08-19T11:32:21Z</time>
      </trkpt>
      <trkpt lat="45.44945" lon="5.93108">
        <ele>1706.841662485</ele>
        <time>2016-08-19T11:32:27Z</time>
      </trkpt>
      <trkpt lat="45.44934" lon="5.931">
        <ele>1712.74735385</ele>
        <time>2016-08-19T11:32:36Z</time>
      </trkpt>
      <trkpt lat="45.44927" lon="5.93094">
        <ele>1712.74735385</ele>
        <time>2016-08-19T11:32:41Z</time>
      </trkpt>
      <trkpt lat="45.44929" lon="5.93094">
        <ele>1717.368419118</ele>
        <time>2016-08-19T11:32:45Z</time>
      </trkpt>
      <trkpt lat="45.44933" lon="5.93089">
        <ele>1717.368419118</ele>
        <time>2016-08-19T11:32:56Z</time>
      </trkpt>
      <trkpt lat="45.4494" lon="5.93085">
        <ele>1722.090348113</ele>
        <time>2016-08-19T11:33:12Z</time>
      </trkpt>
      <trkpt lat="45.44943" lon="5.93085">
        <ele>1722.090348113</ele>
        <time>2016-08-19T11:33:16Z</time>
      </trkpt>
      <trkpt lat="45.44945" lon="5.9308">
        <ele>1722.090348113</ele>
        <time>2016-08-19T11:33:26Z</time>
      </trkpt>
      <trkpt lat="45.44945" lon="5.93079">
        <ele>1722.090348113</ele>
        <time>2016-08-19T11:33:31Z</time>
      </trkpt>
      <trkpt lat="45.44945" lon="5.93079">
        <ele>1722.090348113</ele>
        <time>2016-08-19T11:33:36Z</time>
      </trkpt>
      <trkpt lat="45.44945" lon="5.93078">
        <ele>1722.090348113</ele>
        <time>2016-08-19T11:33:40Z</time>
      </trkpt>
      <trkpt lat="45.44945" lon="5.93078">
        <ele>1722.090348113</ele>
        <time>2016-08-19T11:33:45Z</time>
      </trkpt>
      <trkpt lat="45.44945" lon="5.93078">
        <ele>1722.090348113</ele>
        <time>2016-08-19T11:33:50Z</time>
      </trkpt>
      <trkpt lat="45.44945" lon="5.93078">
        <ele>1722.090348113</ele>
        <time>2016-08-19T11:33:55Z</time>
      </trkpt>
      <trkpt lat="45.44942" lon="5.93074">
        <ele>1726.323431449</ele>
        <time>2016-08-19T11:34:01Z</time>
      </trkpt>
      <trkpt lat="45.44938" lon="5.93071">
        <ele>1726.323431449</ele>
        <time>2016-08-19T11:34:06Z</time>
      </trkpt>
      <trkpt lat="45.44944" lon="5.93068">
        <ele>1730.387617956</ele>
        <time>2016-08-19T11:34:11Z</time>
      </trkpt>
      <trkpt lat="45.44945" lon="5.93065">
        <ele>1730.387617956</ele>
        <time>2016-08-19T11:34:26Z</time>
      </trkpt>
      <trkpt lat="45.44945" lon="5.93065">
        <ele>1730.387617956</ele>
        <time>2016-08-19T11:34:31Z</time>
      </trkpt>
      <trkpt lat="45.44952" lon="5.9306">
        <ele>1734.1477839</ele>
        <time>2016-08-19T11:34:41Z</time>
      </trkpt>
      <trkpt lat="45.44952" lon="5.93052">
        <ele>1734.1477839</ele>
        <time>2016-08-19T11:34:46Z</time>
      </trkpt>
      <trkpt lat="45.44952" lon="5.93042">
        <ele>1737.768085493</ele>
        <time>2016-08-19T11:34:56Z</time>
      </trkpt>
      <trkpt lat="45.44952" lon="5.93038">
        <ele>1737.768085493</ele>
        <time>2016-08-19T11:35:01Z</time>
      </trkpt>
      <trkpt lat="45.44955" lon="5.93024">
        <ele>1741.689500481</ele>
        <time>2016-08-19T11:35:11Z</time>
      </trkpt>
      <trkpt lat="45.44949" lon="5.93026">
        <ele>1741.689500481</ele>
        <time>2016-08-19T11:35:16Z</time>
      </trkpt>
      <trkpt lat="45.4495" lon="5.93014">
        <ele>1745.887687052</ele>
        <time>2016-08-19T11:35:26Z</time>
      </trkpt>
      <trkpt lat="45.44947" lon="5.93009">
        <ele>1745.887687052</ele>
        <time>2016-08-19T11:35:31Z</time>
      </trkpt>
      <trkpt lat="45.44943" lon="5.93013">
        <ele>1750.05133283</ele>
        <time>2016-08-19T11:35:41Z</time>
      </trkpt>
      <trkpt lat="45.44939" lon="5.9301">
        <ele>1750.05133283</ele>
        <time>2016-08-19T11:35:46Z</time>
      </trkpt>
      <trkpt lat="45.44939" lon="5.92999">
        <ele>1753.892319254</ele>
        <time>2016-08-19T11:35:56Z</time>
      </trkpt>
      <trkpt lat="45.44938" lon="5.93002">
        <ele>1753.892319254</ele>
        <time>2016-08-19T11:36:01Z</time>
      </trkpt>
      <trkpt lat="45.44938" lon="5.92998">
        <ele>1753.892319254</ele>
        <time>2016-08-19T11:36:16Z</time>
      </trkpt>
      <trkpt lat="45.44933" lon="5.92992">
        <ele>1757.144813727</ele>
        <time>2016-08-19T11:36:21Z</time>
      </trkpt>
      <trkpt lat="45.44933" lon="5.92991">
        <ele>1757.144813727</ele>
        <time>2016-08-19T11:36:31Z</time>
      </trkpt>
      <trkpt lat="45.44933" lon="5.92991">
        <ele>1757.144813727</ele>
        <time>2016-08-19T11:36:36Z</time>
      </trkpt>
      <trkpt lat="45.44933" lon="5.92991">
        <ele>1757.144813727</ele>
        <time>2016-08-19T11:36:46Z</time>
      </trkpt>
      <trkpt lat="45.44933" lon="5.92991">
        <ele>1757.144813727</ele>
        <time>2016-08-19T11:36:51Z</time>
      </trkpt>
      <trkpt lat="45.44933" lon="5.92991">
        <ele>1757.144813727</ele>
        <time>2016-08-19T11:37:01Z</time>
      </trkpt>
      <trkpt lat="45.44933" lon="5.92991">
        <ele>1757.144813727</ele>
        <time>2016-08-19T11:37:06Z</time>
      </trkpt>
      <trkpt lat="45.44933" lon="5.92991">
        <ele>1757.144813727</ele>
        <time>2016-08-19T11:37:16Z</time>
      </trkpt>
      <trkpt lat="45.44933" lon="5.92991">
        <ele>1757.144813727</ele>
        <time>2016-08-19T11:37:21Z</time>
      </trkpt>
      <trkpt lat="45.44932" lon="5.92988">
        <ele>1757.144813727</ele>
        <time>2016-08-19T11:37:31Z</time>
      </trkpt>
      <trkpt lat="45.44929" lon="5.92976">
        <ele>1761.293700635</ele>
        <time>2016-08-19T11:37:36Z</time>
      </trkpt>
      <trkpt lat="45.44939" lon="5.92971">
        <ele>1766.415464315</ele>
        <time>2016-08-19T11:37:46Z</time>
      </trkpt>
      <trkpt lat="45.44939" lon="5.92969">
        <ele>1766.415464315</ele>
        <time>2016-08-19T11:37:51Z</time>
      </trkpt>
      <trkpt lat="45.44948" lon="5.92969">
        <ele>1771.137314273</ele>
        <time>2016-08-19T11:38:01Z</time>
      </trkpt>
      <trkpt lat="45.44949" lon="5.92965">
        <ele>1771.137314273</ele>
        <time>2016-08-19T11:38:06Z</time>
      </trkpt>
      <trkpt lat="45.44954" lon="5.92964">
        <ele>1771.137314273</ele>
        <time>2016-08-19T11:38:21Z</time>
      </trkpt>
      <trkpt lat="45.44954" lon="5.92964">
        <ele>1771.137314273</ele>
        <time>2016-08-19T11:38:26Z</time>
      </trkpt>
      <trkpt lat="45.44956" lon="5.92965">
        <ele>1776.206161038</ele>
        <time>2016-08-19T11:38:31Z</time>
      </trkpt>
      <trkpt lat="45.44957" lon="5.92965">
        <ele>1776.206161038</ele>
        <time>2016-08-19T11:38:36Z</time>
      </trkpt>
      <trkpt lat="45.44957" lon="5.92965">
        <ele>1776.206161038</ele>
        <time>2016-08-19T11:38:41Z</time>
      </trkpt>
      <trkpt lat="45.4497" lon="5.92964">
        <ele>1780.151579715</ele>
        <time>2016-08-19T11:38:51Z</time>
      </trkpt>
      <trkpt lat="45.44978" lon="5.92965">
        <ele>1780.151579715</ele>
        <time>2016-08-19T11:38:56Z</time>
      </trkpt>
      <trkpt lat="45.4499" lon="5.92967">
        <ele>1784.352593515</ele>
        <time>2016-08-19T11:39:06Z</time>
      </trkpt>
      <trkpt lat="45.44995" lon="5.92967">
        <ele>1784.352593515</ele>
        <time>2016-08-19T11:39:11Z</time>
      </trkpt>
      <trkpt lat="45.45003" lon="5.92966">
        <ele>1788.068809867</ele>
        <time>2016-08-19T11:39:21Z</time>
      </trkpt>
      <trkpt lat="45.45006" lon="5.92967">
        <ele>1788.068809867</ele>
        <time>2016-08-19T11:39:26Z</time>
      </trkpt>
      <trkpt lat="45.45011" lon="5.92967">
        <ele>1788.068809867</ele>
        <time>2016-08-19T11:39:36Z</time>
      </trkpt>
      <trkpt lat="45.45015" lon="5.92966">
        <ele>1791.480401484</ele>
        <time>2016-08-19T11:39:41Z</time>
      </trkpt>
      <trkpt lat="45.45019" lon="5.9297">
        <ele>1791.480401484</ele>
        <time>2016-08-19T11:39:51Z</time>
      </trkpt>
      <trkpt lat="45.4502" lon="5.9297">
        <ele>1791.480401484</ele>
        <time>2016-08-19T11:39:56Z</time>
      </trkpt>
      <trkpt lat="45.45026" lon="5.92971">
        <ele>1794.611185665</ele>
        <time>2016-08-19T11:40:06Z</time>
      </trkpt>
      <trkpt lat="45.4503" lon="5.92974">
        <ele>1794.611185665</ele>
        <time>2016-08-19T11:40:10Z</time>
      </trkpt>
      <trkpt lat="45.45039" lon="5.92982">
        <ele>1797.340028606</ele>
        <time>2016-08-19T11:40:21Z</time>
      </trkpt>
      <trkpt lat="45.45044" lon="5.9298">
        <ele>1797.340028606</ele>
        <time>2016-08-19T11:40:26Z</time>
      </trkpt>
      <trkpt lat="45.45049" lon="5.92982">
        <ele>1799.411815802</ele>
        <time>2016-08-19T11:40:36Z</time>
      </trkpt>
      <trkpt lat="45.45052" lon="5.92978">
        <ele>1799.411815802</ele>
        <time>2016-08-19T11:40:41Z</time>
      </trkpt>
      <trkpt lat="45.45062" lon="5.92977">
        <ele>1800.592100381</ele>
        <time>2016-08-19T11:40:51Z</time>
      </trkpt>
      <trkpt lat="45.45064" lon="5.92975">
        <ele>1800.592100381</ele>
        <time>2016-08-19T11:40:56Z</time>
      </trkpt>
      <trkpt lat="45.45074" lon="5.92975">
        <ele>1800.810328998</ele>
        <time>2016-08-19T11:41:06Z</time>
      </trkpt>
      <trkpt lat="45.45079" lon="5.92972">
        <ele>1800.810328998</ele>
        <time>2016-08-19T11:41:11Z</time>
      </trkpt>
      <trkpt lat="45.45082" lon="5.9297">
        <ele>1800.810328998</ele>
        <time>2016-08-19T11:41:16Z</time>
      </trkpt>
      <trkpt lat="45.45091" lon="5.92971">
        <ele>1800.868527783</ele>
        <time>2016-08-19T11:41:21Z</time>
      </trkpt>
      <trkpt lat="45.45093" lon="5.92968">
        <ele>1800.868527783</ele>
        <time>2016-08-19T11:41:26Z</time>
      </trkpt>
      <trkpt lat="45.45098" lon="5.92965">
        <ele>1800.868527783</ele>
        <time>2016-08-19T11:41:31Z</time>
      </trkpt>
      <trkpt lat="45.45101" lon="5.9296">
        <ele>1800.213253421</ele>
        <time>2016-08-19T11:41:36Z</time>
      </trkpt>
      <trkpt lat="45.45103" lon="5.92952">
        <ele>1800.213253421</ele>
        <time>2016-08-19T11:41:41Z</time>
      </trkpt>
      <trkpt lat="45.45116" lon="5.92935">
        <ele>1799.198350316</ele>
        <time>2016-08-19T11:41:56Z</time>
      </trkpt>
      <trkpt lat="45.45115" lon="5.92934">
        <ele>1799.198350316</ele>
        <time>2016-08-19T11:42:01Z</time>
      </trkpt>
      <trkpt lat="45.45116" lon="5.92933">
        <ele>1799.198350316</ele>
        <time>2016-08-19T11:42:11Z</time>
      </trkpt>
      <trkpt lat="45.45116" lon="5.92933">
        <ele>1799.198350316</ele>
        <time>2016-08-19T11:42:16Z</time>
      </trkpt>
      <trkpt lat="45.45122" lon="5.92926">
        <ele>1798.008494959</ele>
        <time>2016-08-19T11:42:26Z</time>
      </trkpt>
      <trkpt lat="45.45123" lon="5.92919">
        <ele>1798.008494959</ele>
        <time>2016-08-19T11:42:31Z</time>
      </trkpt>
      <trkpt lat="45.45129" lon="5.92913">
        <ele>1796.382846087</ele>
        <time>2016-08-19T11:42:41Z</time>
      </trkpt>
      <trkpt lat="45.4513" lon="5.92912">
        <ele>1796.382846087</ele>
        <time>2016-08-19T11:42:46Z</time>
      </trkpt>
      <trkpt lat="45.45132" lon="5.92909">
        <ele>1796.382846087</ele>
        <time>2016-08-19T11:42:56Z</time>
      </trkpt>
      <trkpt lat="45.45137" lon="5.92905">
        <ele>1794.513134526</ele>
        <time>2016-08-19T11:43:01Z</time>
      </trkpt>
      <trkpt lat="45.45141" lon="5.92897">
        <ele>1794.513134526</ele>
        <time>2016-08-19T11:43:11Z</time>
      </trkpt>
      <trkpt lat="45.45141" lon="5.92897">
        <ele>1794.513134526</ele>
        <time>2016-08-19T11:43:16Z</time>
      </trkpt>
      <trkpt lat="45.4514" lon="5.92897">
        <ele>1794.513134526</ele>
        <time>2016-08-19T11:43:26Z</time>
      </trkpt>
      <trkpt lat="45.45146" lon="5.92891">
        <ele>1792.865733663</ele>
        <time>2016-08-19T11:43:31Z</time>
      </trkpt>
      <trkpt lat="45.45158" lon="5.92881">
        <ele>1791.295476247</ele>
        <time>2016-08-19T11:43:46Z</time>
      </trkpt>
      <trkpt lat="45.4516" lon="5.92861">
        <ele>1789.09095377</ele>
        <time>2016-08-19T11:44:01Z</time>
      </trkpt>
      <trkpt lat="45.45171" lon="5.9286">
        <ele>1786.459190114</ele>
        <time>2016-08-19T11:44:06Z</time>
      </trkpt>
      <trkpt lat="45.45178" lon="5.92851">
        <ele>1784.313455142</ele>
        <time>2016-08-19T11:44:16Z</time>
      </trkpt>
      <trkpt lat="45.45183" lon="5.92844">
        <ele>1784.313455142</ele>
        <time>2016-08-19T11:44:21Z</time>
      </trkpt>
      <trkpt lat="45.45184" lon="5.92829">
        <ele>1782.633574874</ele>
        <time>2016-08-19T11:44:31Z</time>
      </trkpt>
      <trkpt lat="45.45181" lon="5.9282">
        <ele>1782.633574874</ele>
        <time>2016-08-19T11:44:36Z</time>
      </trkpt>
      <trkpt lat="45.45178" lon="5.92801">
        <ele>1781.255092855</ele>
        <time>2016-08-19T11:44:46Z</time>
      </trkpt>
      <trkpt lat="45.45177" lon="5.92791">
        <ele>1781.255092855</ele>
        <time>2016-08-19T11:44:51Z</time>
      </trkpt>
      <trkpt lat="45.45174" lon="5.92783">
        <ele>1779.736202133</ele>
        <time>2016-08-19T11:45:01Z</time>
      </trkpt>
      <trkpt lat="45.45176" lon="5.92774">
        <ele>1779.736202133</ele>
        <time>2016-08-19T11:45:06Z</time>
      </trkpt>
      <trkpt lat="45.45169" lon="5.92762">
        <ele>1778.532235849</ele>
        <time>2016-08-19T11:45:16Z</time>
      </trkpt>
      <trkpt lat="45.45164" lon="5.92752">
        <ele>1778.532235849</ele>
        <time>2016-08-19T11:45:21Z</time>
      </trkpt>
      <trkpt lat="45.45166" lon="5.92742">
        <ele>1777.631477833</ele>
        <time>2016-08-19T11:45:31Z</time>
      </trkpt>
      <trkpt lat="45.45164" lon="5.92732">
        <ele>1777.631477833</ele>
        <time>2016-08-19T11:45:36Z</time>
      </trkpt>
      <trkpt lat="45.45165" lon="5.9271">
        <ele>1777.454167677</ele>
        <time>2016-08-19T11:45:51Z</time>
      </trkpt>
      <trkpt lat="45.45165" lon="5.92704">
        <ele>1777.454167677</ele>
        <time>2016-08-19T11:45:56Z</time>
      </trkpt>
      <trkpt lat="45.45161" lon="5.92691">
        <ele>1777.522590105</ele>
        <time>2016-08-19T11:46:06Z</time>
      </trkpt>
      <trkpt lat="45.45154" lon="5.92689">
        <ele>1777.522590105</ele>
        <time>2016-08-19T11:46:11Z</time>
      </trkpt>
      <trkpt lat="45.45151" lon="5.92674">
        <ele>1777.248937585</ele>
        <time>2016-08-19T11:46:21Z</time>
      </trkpt>
      <trkpt lat="45.45154" lon="5.92679">
        <ele>1777.248937585</ele>
        <time>2016-08-19T11:46:26Z</time>
      </trkpt>
      <trkpt lat="45.45154" lon="5.92672">
        <ele>1777.674388039</ele>
        <time>2016-08-19T11:46:36Z</time>
      </trkpt>
      <trkpt lat="45.45153" lon="5.92666">
        <ele>1777.674388039</ele>
        <time>2016-08-19T11:46:41Z</time>
      </trkpt>
      <trkpt lat="45.45148" lon="5.92652">
        <ele>1778.752529566</ele>
        <time>2016-08-19T11:46:51Z</time>
      </trkpt>
      <trkpt lat="45.45143" lon="5.92646">
        <ele>1778.752529566</ele>
        <time>2016-08-19T11:46:56Z</time>
      </trkpt>
      <trkpt lat="45.45145" lon="5.92632">
        <ele>1779.429396741</ele>
        <time>2016-08-19T11:47:06Z</time>
      </trkpt>
      <trkpt lat="45.45149" lon="5.92625">
        <ele>1779.429396741</ele>
        <time>2016-08-19T11:47:11Z</time>
      </trkpt>
      <trkpt lat="45.45156" lon="5.92601">
        <ele>1780.314457208</ele>
        <time>2016-08-19T11:47:26Z</time>
      </trkpt>
      <trkpt lat="45.45157" lon="5.92576">
        <ele>1781.250944775</ele>
        <time>2016-08-19T11:47:41Z</time>
      </trkpt>
      <trkpt lat="45.45157" lon="5.92566">
        <ele>1781.250944775</ele>
        <time>2016-08-19T11:47:46Z</time>
      </trkpt>
      <trkpt lat="45.45154" lon="5.92549">
        <ele>1782.957827089</ele>
        <time>2016-08-19T11:47:56Z</time>
      </trkpt>
      <trkpt lat="45.45153" lon="5.92544">
        <ele>1782.957827089</ele>
        <time>2016-08-19T11:48:01Z</time>
      </trkpt>
      <trkpt lat="45.45165" lon="5.92524">
        <ele>1784.081252018</ele>
        <time>2016-08-19T11:48:11Z</time>
      </trkpt>
      <trkpt lat="45.45168" lon="5.92513">
        <ele>1784.081252018</ele>
        <time>2016-08-19T11:48:16Z</time>
      </trkpt>
      <trkpt lat="45.45164" lon="5.92511">
        <ele>1785.385744952</ele>
        <time>2016-08-19T11:48:26Z</time>
      </trkpt>
      <trkpt lat="45.45161" lon="5.92505">
        <ele>1785.385744952</ele>
        <time>2016-08-19T11:48:31Z</time>
      </trkpt>
      <trkpt lat="45.45161" lon="5.92505">
        <ele>1785.385744952</ele>
        <time>2016-08-19T11:48:41Z</time>
      </trkpt>
      <trkpt lat="45.45161" lon="5.92505">
        <ele>1785.385744952</ele>
        <time>2016-08-19T11:48:45Z</time>
      </trkpt>
      <trkpt lat="45.45161" lon="5.92505">
        <ele>1785.385744952</ele>
        <time>2016-08-19T11:48:56Z</time>
      </trkpt>
      <trkpt lat="45.45166" lon="5.9249">
        <ele>1786.858356043</ele>
        <time>2016-08-19T11:49:01Z</time>
      </trkpt>
      <trkpt lat="45.45173" lon="5.92473">
        <ele>1788.054049958</ele>
        <time>2016-08-19T11:49:11Z</time>
      </trkpt>
      <trkpt lat="45.45177" lon="5.9247">
        <ele>1788.054049958</ele>
        <time>2016-08-19T11:49:16Z</time>
      </trkpt>
      <trkpt lat="45.45176" lon="5.9247">
        <ele>1788.054049958</ele>
        <time>2016-08-19T11:49:31Z</time>
      </trkpt>
      <trkpt lat="45.45176" lon="5.9247">
        <ele>1788.054049958</ele>
        <time>2016-08-19T11:49:36Z</time>
      </trkpt>
      <trkpt lat="45.45176" lon="5.9247">
        <ele>1788.054049958</ele>
        <time>2016-08-19T11:49:46Z</time>
      </trkpt>
      <trkpt lat="45.45176" lon="5.9247">
        <ele>1788.054049958</ele>
        <time>2016-08-19T11:49:51Z</time>
      </trkpt>
      <trkpt lat="45.45176" lon="5.9247">
        <ele>1788.054049958</ele>
        <time>2016-08-19T11:50:01Z</time>
      </trkpt>
      <trkpt lat="45.45176" lon="5.9247">
        <ele>1788.054049958</ele>
        <time>2016-08-19T11:50:06Z</time>
      </trkpt>
      <trkpt lat="45.45176" lon="5.9247">
        <ele>1788.054049958</ele>
        <time>2016-08-19T11:50:16Z</time>
      </trkpt>
      <trkpt lat="45.45176" lon="5.9247">
        <ele>1788.054049958</ele>
        <time>2016-08-19T11:50:21Z</time>
      </trkpt>
      <trkpt lat="45.45176" lon="5.9247">
        <ele>1788.054049958</ele>
        <time>2016-08-19T11:50:31Z</time>
      </trkpt>
      <trkpt lat="45.45176" lon="5.9247">
        <ele>1788.054049958</ele>
        <time>2016-08-19T11:50:36Z</time>
      </trkpt>
      <trkpt lat="45.45176" lon="5.9247">
        <ele>1788.054049958</ele>
        <time>2016-08-19T11:50:46Z</time>
      </trkpt>
      <trkpt lat="45.45176" lon="5.9247">
        <ele>1788.054049958</ele>
        <time>2016-08-19T11:50:51Z</time>
      </trkpt>
      <trkpt lat="45.45181" lon="5.92465">
        <ele>1790.002158619</ele>
        <time>2016-08-19T11:51:01Z</time>
      </trkpt>
      <trkpt lat="45.45185" lon="5.92459">
        <ele>1790.002158619</ele>
        <time>2016-08-19T11:51:06Z</time>
      </trkpt>
      <trkpt lat="45.45191" lon="5.92443">
        <ele>1791.636537567</ele>
        <time>2016-08-19T11:51:16Z</time>
      </trkpt>
      <trkpt lat="45.45198" lon="5.92439">
        <ele>1791.636537567</ele>
        <time>2016-08-19T11:51:21Z</time>
      </trkpt>
      <trkpt lat="45.45196" lon="5.92432">
        <ele>1793.41117563</ele>
        <time>2016-08-19T11:51:31Z</time>
      </trkpt>
      <trkpt lat="45.45201" lon="5.92434">
        <ele>1793.41117563</ele>
        <time>2016-08-19T11:51:36Z</time>
      </trkpt>
      <trkpt lat="45.45222" lon="5.92419">
        <ele>1795.457937877</ele>
        <time>2016-08-19T11:51:51Z</time>
      </trkpt>
      <trkpt lat="45.45217" lon="5.92419">
        <ele>1795.457937877</ele>
        <time>2016-08-19T11:51:56Z</time>
      </trkpt>
      <trkpt lat="45.45223" lon="5.92423">
        <ele>1796.601097723</ele>
        <time>2016-08-19T11:52:06Z</time>
      </trkpt>
      <trkpt lat="45.45223" lon="5.92423">
        <ele>1796.601097723</ele>
        <time>2016-08-19T11:52:11Z</time>
      </trkpt>
      <trkpt lat="45.45238" lon="5.92411">
        <ele>1797.338928213</ele>
        <time>2016-08-19T11:52:21Z</time>
      </trkpt>
      <trkpt lat="45.45245" lon="5.92406">
        <ele>1797.338928213</ele>
        <time>2016-08-19T11:52:26Z</time>
      </trkpt>
      <trkpt lat="45.45247" lon="5.92398">
        <ele>1797.990011406</ele>
        <time>2016-08-19T11:52:36Z</time>
      </trkpt>
      <trkpt lat="45.45249" lon="5.92397">
        <ele>1797.990011406</ele>
        <time>2016-08-19T11:52:41Z</time>
      </trkpt>
      <trkpt lat="45.45253" lon="5.92395">
        <ele>1797.990011406</ele>
        <time>2016-08-19T11:52:51Z</time>
      </trkpt>
      <trkpt lat="45.45261" lon="5.92391">
        <ele>1798.705554013</ele>
        <time>2016-08-19T11:52:56Z</time>
      </trkpt>
      <trkpt lat="45.45271" lon="5.92384">
        <ele>1799.625376864</ele>
        <time>2016-08-19T11:53:06Z</time>
      </trkpt>
      <trkpt lat="45.45277" lon="5.92382">
        <ele>1799.625376864</ele>
        <time>2016-08-19T11:53:11Z</time>
      </trkpt>
      <trkpt lat="45.45287" lon="5.92377">
        <ele>1800.878366271</ele>
        <time>2016-08-19T11:53:21Z</time>
      </trkpt>
      <trkpt lat="45.4529" lon="5.92373">
        <ele>1800.878366271</ele>
        <time>2016-08-19T11:53:26Z</time>
      </trkpt>
      <trkpt lat="45.45296" lon="5.92367">
        <ele>1802.006478624</ele>
        <time>2016-08-19T11:53:36Z</time>
      </trkpt>
      <trkpt lat="45.453" lon="5.92363">
        <ele>1802.006478624</ele>
        <time>2016-08-19T11:53:41Z</time>
      </trkpt>
      <trkpt lat="45.45306" lon="5.92364">
        <ele>1803.306149931</ele>
        <time>2016-08-19T11:53:51Z</time>
      </trkpt>
      <trkpt lat="45.45306" lon="5.92366">
        <ele>1803.306149931</ele>
        <time>2016-08-19T11:53:56Z</time>
      </trkpt>
      <trkpt lat="45.45313" lon="5.92366">
        <ele>1803.306149931</ele>
        <time>2016-08-19T11:54:06Z</time>
      </trkpt>
      <trkpt lat="45.4532" lon="5.92366">
        <ele>1805.19560601</ele>
        <time>2016-08-19T11:54:11Z</time>
      </trkpt>
      <trkpt lat="45.45336" lon="5.92363">
        <ele>1807.340086931</ele>
        <time>2016-08-19T11:54:26Z</time>
      </trkpt>
      <trkpt lat="45.45336" lon="5.92361">
        <ele>1807.340086931</ele>
        <time>2016-08-19T11:54:36Z</time>
      </trkpt>
      <trkpt lat="45.45336" lon="5.92363">
        <ele>1807.340086931</ele>
        <time>2016-08-19T11:54:41Z</time>
      </trkpt>
      <trkpt lat="45.45341" lon="5.92365">
        <ele>1807.340086931</ele>
        <time>2016-08-19T11:54:46Z</time>
      </trkpt>
      <trkpt lat="45.45349" lon="5.92367">
        <ele>1809.42866806</ele>
        <time>2016-08-19T11:54:56Z</time>
      </trkpt>
      <trkpt lat="45.45354" lon="5.92366">
        <ele>1809.42866806</ele>
        <time>2016-08-19T11:55:01Z</time>
      </trkpt>
      <trkpt lat="45.45354" lon="5.92365">
        <ele>1809.42866806</ele>
        <time>2016-08-19T11:55:11Z</time>
      </trkpt>
      <trkpt lat="45.45356" lon="5.92362">
        <ele>1811.461616881</ele>
        <time>2016-08-19T11:55:16Z</time>
      </trkpt>
      <trkpt lat="45.45356" lon="5.92362">
        <ele>1811.461616881</ele>
        <time>2016-08-19T11:55:26Z</time>
      </trkpt>
      <trkpt lat="45.45354" lon="5.92361">
        <ele>1811.461616881</ele>
        <time>2016-08-19T11:55:31Z</time>
      </trkpt>
      <trkpt lat="45.45354" lon="5.92358">
        <ele>1811.461616881</ele>
        <time>2016-08-19T11:55:41Z</time>
      </trkpt>
      <trkpt lat="45.45355" lon="5.92358">
        <ele>1811.461616881</ele>
        <time>2016-08-19T11:55:46Z</time>
      </trkpt>
      <trkpt lat="45.45355" lon="5.92358">
        <ele>1811.461616881</ele>
        <time>2016-08-19T11:55:56Z</time>
      </trkpt>
      <trkpt lat="45.45355" lon="5.92358">
        <ele>1811.461616881</ele>
        <time>2016-08-19T11:56:01Z</time>
      </trkpt>
      <trkpt lat="45.45355" lon="5.92355">
        <ele>1811.461616881</ele>
        <time>2016-08-19T11:56:11Z</time>
      </trkpt>
      <trkpt lat="45.4536" lon="5.92352">
        <ele>1813.87165745</ele>
        <time>2016-08-19T11:56:16Z</time>
      </trkpt>
      <trkpt lat="45.45362" lon="5.92349">
        <ele>1813.87165745</ele>
        <time>2016-08-19T11:56:26Z</time>
      </trkpt>
      <trkpt lat="45.45365" lon="5.92346">
        <ele>1813.87165745</ele>
        <time>2016-08-19T11:56:31Z</time>
      </trkpt>
      <trkpt lat="45.45365" lon="5.92347">
        <ele>1813.87165745</ele>
        <time>2016-08-19T11:56:36Z</time>
      </trkpt>
      <trkpt lat="45.45366" lon="5.92346">
        <ele>1813.87165745</ele>
        <time>2016-08-19T11:56:41Z</time>
      </trkpt>
      <trkpt lat="45.45366" lon="5.92346">
        <ele>1813.87165745</ele>
        <time>2016-08-19T11:56:46Z</time>
      </trkpt>
      <trkpt lat="45.45372" lon="5.92341">
        <ele>1817.779227032</ele>
        <time>2016-08-19T11:57:01Z</time>
      </trkpt>
      <trkpt lat="45.4537" lon="5.92341">
        <ele>1817.779227032</ele>
        <time>2016-08-19T11:57:06Z</time>
      </trkpt>
      <trkpt lat="45.45372" lon="5.9234">
        <ele>1817.779227032</ele>
        <time>2016-08-19T11:57:16Z</time>
      </trkpt>
      <trkpt lat="45.45374" lon="5.92336">
        <ele>1817.779227032</ele>
        <time>2016-08-19T11:57:21Z</time>
      </trkpt>
      <trkpt lat="45.4538" lon="5.9234">
        <ele>1821.480163165</ele>
        <time>2016-08-19T11:57:31Z</time>
      </trkpt>
      <trkpt lat="45.45382" lon="5.92335">
        <ele>1821.480163165</ele>
        <time>2016-08-19T11:57:36Z</time>
      </trkpt>
      <trkpt lat="45.45387" lon="5.92327">
        <ele>1825.125443169</ele>
        <time>2016-08-19T11:57:46Z</time>
      </trkpt>
      <trkpt lat="45.45388" lon="5.92331">
        <ele>1825.125443169</ele>
        <time>2016-08-19T11:57:51Z</time>
      </trkpt>
      <trkpt lat="45.45386" lon="5.92332">
        <ele>1825.125443169</ele>
        <time>2016-08-19T11:58:01Z</time>
      </trkpt>
      <trkpt lat="45.45386" lon="5.92332">
        <ele>1825.125443169</ele>
        <time>2016-08-19T11:58:06Z</time>
      </trkpt>
      <trkpt lat="45.45386" lon="5.92333">
        <ele>1825.125443169</ele>
        <time>2016-08-19T11:58:16Z</time>
      </trkpt>
      <trkpt lat="45.45391" lon="5.92328">
        <ele>1829.431615588</ele>
        <time>2016-08-19T11:58:21Z</time>
      </trkpt>
      <trkpt lat="45.45391" lon="5.92322">
        <ele>1829.431615588</ele>
        <time>2016-08-19T11:58:32Z</time>
      </trkpt>
      <trkpt lat="45.45394" lon="5.92318">
        <ele>1829.431615588</ele>
        <time>2016-08-19T11:58:36Z</time>
      </trkpt>
      <trkpt lat="45.45393" lon="5.92306">
        <ele>1833.187375088</ele>
        <time>2016-08-19T11:58:46Z</time>
      </trkpt>
      <trkpt lat="45.45391" lon="5.92304">
        <ele>1833.187375088</ele>
        <time>2016-08-19T11:58:51Z</time>
      </trkpt>
      <trkpt lat="45.4539" lon="5.92303">
        <ele>1833.187375088</ele>
        <time>2016-08-19T11:59:01Z</time>
      </trkpt>
      <trkpt lat="45.45391" lon="5.92303">
        <ele>1833.187375088</ele>
        <time>2016-08-19T11:59:07Z</time>
      </trkpt>
      <trkpt lat="45.45397" lon="5.92305">
        <ele>1836.713155699</ele>
        <time>2016-08-19T11:59:21Z</time>
      </trkpt>
      <trkpt lat="45.45399" lon="5.92307">
        <ele>1836.713155699</ele>
        <time>2016-08-19T11:59:26Z</time>
      </trkpt>
      <trkpt lat="45.45399" lon="5.92307">
        <ele>1836.713155699</ele>
        <time>2016-08-19T11:59:36Z</time>
      </trkpt>
      <trkpt lat="45.45403" lon="5.9231">
        <ele>1836.713155699</ele>
        <time>2016-08-19T11:59:41Z</time>
      </trkpt>
      <trkpt lat="45.45407" lon="5.92314">
        <ele>1839.730171363</ele>
        <time>2016-08-19T11:59:52Z</time>
      </trkpt>
      <trkpt lat="45.45408" lon="5.9231">
        <ele>1839.730171363</ele>
        <time>2016-08-19T11:59:56Z</time>
      </trkpt>
      <trkpt lat="45.45407" lon="5.92301">
        <ele>1842.26989604</ele>
        <time>2016-08-19T12:00:06Z</time>
      </trkpt>
      <trkpt lat="45.45407" lon="5.923">
        <ele>1842.26989604</ele>
        <time>2016-08-19T12:00:11Z</time>
      </trkpt>
      <trkpt lat="45.45406" lon="5.92299">
        <ele>1842.26989604</ele>
        <time>2016-08-19T12:00:21Z</time>
      </trkpt>
      <trkpt lat="45.45407" lon="5.9229">
        <ele>1842.26989604</ele>
        <time>2016-08-19T12:00:26Z</time>
      </trkpt>
      <trkpt lat="45.45408" lon="5.92285">
        <ele>1844.218857776</ele>
        <time>2016-08-19T12:00:36Z</time>
      </trkpt>
      <trkpt lat="45.45408" lon="5.92285">
        <ele>1844.218857776</ele>
        <time>2016-08-19T12:00:41Z</time>
      </trkpt>
      <trkpt lat="45.45408" lon="5.92284">
        <ele>1844.218857776</ele>
        <time>2016-08-19T12:00:50Z</time>
      </trkpt>
      <trkpt lat="45.45408" lon="5.92284">
        <ele>1844.218857776</ele>
        <time>2016-08-19T12:00:56Z</time>
      </trkpt>
      <trkpt lat="45.4541" lon="5.9227">
        <ele>1846.338386433</ele>
        <time>2016-08-19T12:01:07Z</time>
      </trkpt>
      <trkpt lat="45.45408" lon="5.9227">
        <ele>1846.338386433</ele>
        <time>2016-08-19T12:01:11Z</time>
      </trkpt>
      <trkpt lat="45.45402" lon="5.92267">
        <ele>1846.338386433</ele>
        <time>2016-08-19T12:01:27Z</time>
      </trkpt>
      <trkpt lat="45.45401" lon="5.92266">
        <ele>1849.189438883</ele>
        <time>2016-08-19T12:01:31Z</time>
      </trkpt>
      <trkpt lat="45.45399" lon="5.92263">
        <ele>1849.189438883</ele>
        <time>2016-08-19T12:01:42Z</time>
      </trkpt>
      <trkpt lat="45.45399" lon="5.92263">
        <ele>1849.189438883</ele>
        <time>2016-08-19T12:01:47Z</time>
      </trkpt>
      <trkpt lat="45.45399" lon="5.92263">
        <ele>1849.189438883</ele>
        <time>2016-08-19T12:01:56Z</time>
      </trkpt>
      <trkpt lat="45.45398" lon="5.92261">
        <ele>1849.189438883</ele>
        <time>2016-08-19T12:02:01Z</time>
      </trkpt>
      <trkpt lat="45.45395" lon="5.92254">
        <ele>1852.425189962</ele>
        <time>2016-08-19T12:02:12Z</time>
      </trkpt>
      <trkpt lat="45.45395" lon="5.92253">
        <ele>1852.425189962</ele>
        <time>2016-08-19T12:02:16Z</time>
      </trkpt>
      <trkpt lat="45.45401" lon="5.92251">
        <ele>1852.425189962</ele>
        <time>2016-08-19T12:02:27Z</time>
      </trkpt>
      <trkpt lat="45.45403" lon="5.92246">
        <ele>1855.579248444</ele>
        <time>2016-08-19T12:02:31Z</time>
      </trkpt>
      <trkpt lat="45.45403" lon="5.92235">
        <ele>1855.579248444</ele>
        <time>2016-08-19T12:02:47Z</time>
      </trkpt>
      <trkpt lat="45.45404" lon="5.92235">
        <ele>1855.579248444</ele>
        <time>2016-08-19T12:02:51Z</time>
      </trkpt>
      <trkpt lat="45.45404" lon="5.92235">
        <ele>1855.579248444</ele>
        <time>2016-08-19T12:03:02Z</time>
      </trkpt>
      <trkpt lat="45.45404" lon="5.92235">
        <ele>1855.579248444</ele>
        <time>2016-08-19T12:03:06Z</time>
      </trkpt>
      <trkpt lat="45.45408" lon="5.92231">
        <ele>1858.508085585</ele>
        <time>2016-08-19T12:03:17Z</time>
      </trkpt>
      <trkpt lat="45.45413" lon="5.92234">
        <ele>1858.508085585</ele>
        <time>2016-08-19T12:03:21Z</time>
      </trkpt>
      <trkpt lat="45.45416" lon="5.92235">
        <ele>1858.508085585</ele>
        <time>2016-08-19T12:03:31Z</time>
      </trkpt>
      <trkpt lat="45.45417" lon="5.92233">
        <ele>1860.935390109</ele>
        <time>2016-08-19T12:03:36Z</time>
      </trkpt>
      <trkpt lat="45.45418" lon="5.92232">
        <ele>1860.935390109</ele>
        <time>2016-08-19T12:03:46Z</time>
      </trkpt>
      <trkpt lat="45.45418" lon="5.92231">
        <ele>1860.935390109</ele>
        <time>2016-08-19T12:03:51Z</time>
      </trkpt>
      <trkpt lat="45.45418" lon="5.92231">
        <ele>1860.935390109</ele>
        <time>2016-08-19T12:04:01Z</time>
      </trkpt>
      <trkpt lat="45.45418" lon="5.92231">
        <ele>1860.935390109</ele>
        <time>2016-08-19T12:04:06Z</time>
      </trkpt>
      <trkpt lat="45.45424" lon="5.92235">
        <ele>1860.935390109</ele>
        <time>2016-08-19T12:04:16Z</time>
      </trkpt>
      <trkpt lat="45.45427" lon="5.92236">
        <ele>1863.759600317</ele>
        <time>2016-08-19T12:04:21Z</time>
      </trkpt>
      <trkpt lat="45.45437" lon="5.92234">
        <ele>1866.226975133</ele>
        <time>2016-08-19T12:04:31Z</time>
      </trkpt>
      <trkpt lat="45.45438" lon="5.92234">
        <ele>1866.226975133</ele>
        <time>2016-08-19T12:04:36Z</time>
      </trkpt>
      <trkpt lat="45.45437" lon="5.92233">
        <ele>1866.226975133</ele>
        <time>2016-08-19T12:04:46Z</time>
      </trkpt>
      <trkpt lat="45.45438" lon="5.92232">
        <ele>1866.226975133</ele>
        <time>2016-08-19T12:04:51Z</time>
      </trkpt>
      <trkpt lat="45.45437" lon="5.92232">
        <ele>1866.226975133</ele>
        <time>2016-08-19T12:05:02Z</time>
      </trkpt>
      <trkpt lat="45.45438" lon="5.92232">
        <ele>1866.226975133</ele>
        <time>2016-08-19T12:05:07Z</time>
      </trkpt>
      <trkpt lat="45.4545" lon="5.92235">
        <ele>1868.793187615</ele>
        <time>2016-08-19T12:05:17Z</time>
      </trkpt>
      <trkpt lat="45.45454" lon="5.92233">
        <ele>1868.793187615</ele>
        <time>2016-08-19T12:05:21Z</time>
      </trkpt>
      <trkpt lat="45.4546" lon="5.92235">
        <ele>1870.871533338</ele>
        <time>2016-08-19T12:05:37Z</time>
      </trkpt>
      <trkpt lat="45.4546" lon="5.92239">
        <ele>1870.871533338</ele>
        <time>2016-08-19T12:05:41Z</time>
      </trkpt>
      <trkpt lat="45.45463" lon="5.92247">
        <ele>1870.871533338</ele>
        <time>2016-08-19T12:05:52Z</time>
      </trkpt>
      <trkpt lat="45.45465" lon="5.92251">
        <ele>1871.919921266</ele>
        <time>2016-08-19T12:05:56Z</time>
      </trkpt>
      <trkpt lat="45.45469" lon="5.92259">
        <ele>1871.919921266</ele>
        <time>2016-08-19T12:06:07Z</time>
      </trkpt>
      <trkpt lat="45.45471" lon="5.92265">
        <ele>1872.303774752</ele>
        <time>2016-08-19T12:06:12Z</time>
      </trkpt>
      <trkpt lat="45.45477" lon="5.92276">
        <ele>1872.651883221</ele>
        <time>2016-08-19T12:06:22Z</time>
      </trkpt>
      <trkpt lat="45.45481" lon="5.92277">
        <ele>1872.651883221</ele>
        <time>2016-08-19T12:06:26Z</time>
      </trkpt>
      <trkpt lat="45.45487" lon="5.92281">
        <ele>1872.682385064</ele>
        <time>2016-08-19T12:06:37Z</time>
      </trkpt>
      <trkpt lat="45.45487" lon="5.92282">
        <ele>1872.682385064</ele>
        <time>2016-08-19T12:06:42Z</time>
      </trkpt>
      <trkpt lat="45.45486" lon="5.92282">
        <ele>1872.682385064</ele>
        <time>2016-08-19T12:06:51Z</time>
      </trkpt>
      <trkpt lat="45.45487" lon="5.92283">
        <ele>1872.682385064</ele>
        <time>2016-08-19T12:06:56Z</time>
      </trkpt>
      <trkpt lat="45.45488" lon="5.92283">
        <ele>1872.682385064</ele>
        <time>2016-08-19T12:07:05Z</time>
      </trkpt>
      <trkpt lat="45.45488" lon="5.92283">
        <ele>1872.682385064</ele>
        <time>2016-08-19T12:07:10Z</time>
      </trkpt>
      <trkpt lat="45.4549" lon="5.92285">
        <ele>1872.682385064</ele>
        <time>2016-08-19T12:07:21Z</time>
      </trkpt>
      <trkpt lat="45.45492" lon="5.92286">
        <ele>1872.682385064</ele>
        <time>2016-08-19T12:07:26Z</time>
      </trkpt>
      <trkpt lat="45.45502" lon="5.92286">
        <ele>1871.414543789</ele>
        <time>2016-08-19T12:07:41Z</time>
      </trkpt>
      <trkpt lat="45.45506" lon="5.92288">
        <ele>1871.414543789</ele>
        <time>2016-08-19T12:07:46Z</time>
      </trkpt>
      <trkpt lat="45.45509" lon="5.92292">
        <ele>1871.414543789</ele>
        <time>2016-08-19T12:07:57Z</time>
      </trkpt>
      <trkpt lat="45.45516" lon="5.92295">
        <ele>1870.393260712</ele>
        <time>2016-08-19T12:08:01Z</time>
      </trkpt>
      <trkpt lat="45.45518" lon="5.92294">
        <ele>1870.393260712</ele>
        <time>2016-08-19T12:08:12Z</time>
      </trkpt>
      <trkpt lat="45.4552" lon="5.92295">
        <ele>1870.393260712</ele>
        <time>2016-08-19T12:08:16Z</time>
      </trkpt>
      <trkpt lat="45.45526" lon="5.92295">
        <ele>1870.04051775</ele>
        <time>2016-08-19T12:08:27Z</time>
      </trkpt>
      <trkpt lat="45.4553" lon="5.92294">
        <ele>1870.04051775</ele>
        <time>2016-08-19T12:08:31Z</time>
      </trkpt>
      <trkpt lat="45.45531" lon="5.92293">
        <ele>1870.04051775</ele>
        <time>2016-08-19T12:08:42Z</time>
      </trkpt>
      <trkpt lat="45.45533" lon="5.92295">
        <ele>1870.04051775</ele>
        <time>2016-08-19T12:08:46Z</time>
      </trkpt>
      <trkpt lat="45.45544" lon="5.92295">
        <ele>1870.313105002</ele>
        <time>2016-08-19T12:08:57Z</time>
      </trkpt>
      <trkpt lat="45.45547" lon="5.92295">
        <ele>1870.313105002</ele>
        <time>2016-08-19T12:09:01Z</time>
      </trkpt>
      <trkpt lat="45.4555" lon="5.92295">
        <ele>1870.313105002</ele>
        <time>2016-08-19T12:09:12Z</time>
      </trkpt>
      <trkpt lat="45.45552" lon="5.92294">
        <ele>1870.313105002</ele>
        <time>2016-08-19T12:09:17Z</time>
      </trkpt>
      <trkpt lat="45.45557" lon="5.92295">
        <ele>1871.025118085</ele>
        <time>2016-08-19T12:09:32Z</time>
      </trkpt>
      <trkpt lat="45.45561" lon="5.92296">
        <ele>1871.025118085</ele>
        <time>2016-08-19T12:09:36Z</time>
      </trkpt>
      <trkpt lat="45.45562" lon="5.92296">
        <ele>1871.025118085</ele>
        <time>2016-08-19T12:09:47Z</time>
      </trkpt>
      <trkpt lat="45.45562" lon="5.92297">
        <ele>1871.025118085</ele>
        <time>2016-08-19T12:09:51Z</time>
      </trkpt>
      <trkpt lat="45.45563" lon="5.92298">
        <ele>1871.025118085</ele>
        <time>2016-08-19T12:10:01Z</time>
      </trkpt>
      <trkpt lat="45.45566" lon="5.92301">
        <ele>1871.858948166</ele>
        <time>2016-08-19T12:10:06Z</time>
      </trkpt>
      <trkpt lat="45.45575" lon="5.9231">
        <ele>1872.231726514</ele>
        <time>2016-08-19T12:10:17Z</time>
      </trkpt>
      <trkpt lat="45.45578" lon="5.92308">
        <ele>1872.231726514</ele>
        <time>2016-08-19T12:10:21Z</time>
      </trkpt>
      <trkpt lat="45.4558" lon="5.92311">
        <ele>1872.231726514</ele>
        <time>2016-08-19T12:10:32Z</time>
      </trkpt>
      <trkpt lat="45.45584" lon="5.92312">
        <ele>1872.613437968</ele>
        <time>2016-08-19T12:10:36Z</time>
      </trkpt>
      <trkpt lat="45.45594" lon="5.92312">
        <ele>1873.439475743</ele>
        <time>2016-08-19T12:10:47Z</time>
      </trkpt>
      <trkpt lat="45.45595" lon="5.92313">
        <ele>1873.439475743</ele>
        <time>2016-08-19T12:10:51Z</time>
      </trkpt>
      <trkpt lat="45.45601" lon="5.92312">
        <ele>1873.439475743</ele>
        <time>2016-08-19T12:11:01Z</time>
      </trkpt>
      <trkpt lat="45.45602" lon="5.92309">
        <ele>1874.103176556</ele>
        <time>2016-08-19T12:11:07Z</time>
      </trkpt>
      <trkpt lat="45.45609" lon="5.92311">
        <ele>1874.103176556</ele>
        <time>2016-08-19T12:11:17Z</time>
      </trkpt>
      <trkpt lat="45.45609" lon="5.92311">
        <ele>1874.103176556</ele>
        <time>2016-08-19T12:11:21Z</time>
      </trkpt>
      <trkpt lat="45.45617" lon="5.92316">
        <ele>1875.772179608</ele>
        <time>2016-08-19T12:11:36Z</time>
      </trkpt>
      <trkpt lat="45.45618" lon="5.92316">
        <ele>1875.772179608</ele>
        <time>2016-08-19T12:11:41Z</time>
      </trkpt>
      <trkpt lat="45.45617" lon="5.92314">
        <ele>1875.772179608</ele>
        <time>2016-08-19T12:11:52Z</time>
      </trkpt>
      <trkpt lat="45.45617" lon="5.92313">
        <ele>1875.772179608</ele>
        <time>2016-08-19T12:11:56Z</time>
      </trkpt>
      <trkpt lat="45.45621" lon="5.92308">
        <ele>1875.772179608</ele>
        <time>2016-08-19T12:12:06Z</time>
      </trkpt>
      <trkpt lat="45.4562" lon="5.92295">
        <ele>1878.228477124</ele>
        <time>2016-08-19T12:12:12Z</time>
      </trkpt>
      <trkpt lat="45.45622" lon="5.92291">
        <ele>1878.228477124</ele>
        <time>2016-08-19T12:12:21Z</time>
      </trkpt>
      <trkpt lat="45.45622" lon="5.92293">
        <ele>1878.228477124</ele>
        <time>2016-08-19T12:12:26Z</time>
      </trkpt>
      <trkpt lat="45.45623" lon="5.92294">
        <ele>1878.228477124</ele>
        <time>2016-08-19T12:12:36Z</time>
      </trkpt>
      <trkpt lat="45.45623" lon="5.92294">
        <ele>1878.228477124</ele>
        <time>2016-08-19T12:12:42Z</time>
      </trkpt>
      <trkpt lat="45.45623" lon="5.92294">
        <ele>1878.228477124</ele>
        <time>2016-08-19T12:12:52Z</time>
      </trkpt>
      <trkpt lat="45.4563" lon="5.92289">
        <ele>1880.835485403</ele>
        <time>2016-08-19T12:12:56Z</time>
      </trkpt>
      <trkpt lat="45.45634" lon="5.92286">
        <ele>1880.835485403</ele>
        <time>2016-08-19T12:13:07Z</time>
      </trkpt>
      <trkpt lat="45.45634" lon="5.92284">
        <ele>1880.835485403</ele>
        <time>2016-08-19T12:13:11Z</time>
      </trkpt>
      <trkpt lat="45.45635" lon="5.92279">
        <ele>1880.835485403</ele>
        <time>2016-08-19T12:13:21Z</time>
      </trkpt>
      <trkpt lat="45.45635" lon="5.9228">
        <ele>1883.723475927</ele>
        <time>2016-08-19T12:13:27Z</time>
      </trkpt>
      <trkpt lat="45.45635" lon="5.9228">
        <ele>1883.723475927</ele>
        <time>2016-08-19T12:13:37Z</time>
      </trkpt>
      <trkpt lat="45.45635" lon="5.9228">
        <ele>1883.723475927</ele>
        <time>2016-08-19T12:13:41Z</time>
      </trkpt>
      <trkpt lat="45.45635" lon="5.9228">
        <ele>1883.723475927</ele>
        <time>2016-08-19T12:13:57Z</time>
      </trkpt>
      <trkpt lat="45.45635" lon="5.9228">
        <ele>1883.723475927</ele>
        <time>2016-08-19T12:14:01Z</time>
      </trkpt>
      <trkpt lat="45.45635" lon="5.9228">
        <ele>1883.723475927</ele>
        <time>2016-08-19T12:14:11Z</time>
      </trkpt>
      <trkpt lat="45.45635" lon="5.9228">
        <ele>1883.723475927</ele>
        <time>2016-08-19T12:14:16Z</time>
      </trkpt>
      <trkpt lat="45.45635" lon="5.9228">
        <ele>1883.723475927</ele>
        <time>2016-08-19T12:14:27Z</time>
      </trkpt>
      <trkpt lat="45.45635" lon="5.9228">
        <ele>1883.723475927</ele>
        <time>2016-08-19T12:14:31Z</time>
      </trkpt>
      <trkpt lat="45.45635" lon="5.9228">
        <ele>1883.723475927</ele>
        <time>2016-08-19T12:14:42Z</time>
      </trkpt>
      <trkpt lat="45.45635" lon="5.9228">
        <ele>1883.723475927</ele>
        <time>2016-08-19T12:14:47Z</time>
      </trkpt>
      <trkpt lat="45.45636" lon="5.92281">
        <ele>1883.723475927</ele>
        <time>2016-08-19T12:14:56Z</time>
      </trkpt>
      <trkpt lat="45.45636" lon="5.92281">
        <ele>1883.723475927</ele>
        <time>2016-08-19T12:15:01Z</time>
      </trkpt>
      <trkpt lat="45.45636" lon="5.92282">
        <ele>1883.723475927</ele>
        <time>2016-08-19T12:15:12Z</time>
      </trkpt>
      <trkpt lat="45.45638" lon="5.92285">
        <ele>1883.723475927</ele>
        <time>2016-08-19T12:15:17Z</time>
      </trkpt>
      <trkpt lat="45.45655" lon="5.92295">
        <ele>1885.715330074</ele>
        <time>2016-08-19T12:15:27Z</time>
      </trkpt>
      <trkpt lat="45.45659" lon="5.92295">
        <ele>1885.715330074</ele>
        <time>2016-08-19T12:15:32Z</time>
      </trkpt>
      <trkpt lat="45.45668" lon="5.92297">
        <ele>1888.02867049</ele>
        <time>2016-08-19T12:15:41Z</time>
      </trkpt>
      <trkpt lat="45.45672" lon="5.92297">
        <ele>1888.02867049</ele>
        <time>2016-08-19T12:15:46Z</time>
      </trkpt>
      <trkpt lat="45.4568" lon="5.92296">
        <ele>1890.781981533</ele>
        <time>2016-08-19T12:15:57Z</time>
      </trkpt>
      <trkpt lat="45.45684" lon="5.92296">
        <ele>1890.781981533</ele>
        <time>2016-08-19T12:16:01Z</time>
      </trkpt>
      <trkpt lat="45.45684" lon="5.92296">
        <ele>1890.781981533</ele>
        <time>2016-08-19T12:16:12Z</time>
      </trkpt>
      <trkpt lat="45.45684" lon="5.92296">
        <ele>1890.781981533</ele>
        <time>2016-08-19T12:16:16Z</time>
      </trkpt>
      <trkpt lat="45.45684" lon="5.92296">
        <ele>1890.781981533</ele>
        <time>2016-08-19T12:16:21Z</time>
      </trkpt>
      <trkpt lat="45.45684" lon="5.92296">
        <ele>1890.781981533</ele>
        <time>2016-08-19T12:16:31Z</time>
      </trkpt>
      <trkpt lat="45.45684" lon="5.92296">
        <ele>1890.781981533</ele>
        <time>2016-08-19T12:16:36Z</time>
      </trkpt>
      <trkpt lat="45.45686" lon="5.92299">
        <ele>1890.781981533</ele>
        <time>2016-08-19T12:16:46Z</time>
      </trkpt>
      <trkpt lat="45.45688" lon="5.92299">
        <ele>1893.795583754</ele>
        <time>2016-08-19T12:16:52Z</time>
      </trkpt>
      <trkpt lat="45.45691" lon="5.92299">
        <ele>1893.795583754</ele>
        <time>2016-08-19T12:17:02Z</time>
      </trkpt>
      <trkpt lat="45.45695" lon="5.92295">
        <ele>1893.795583754</ele>
        <time>2016-08-19T12:17:07Z</time>
      </trkpt>
      <trkpt lat="45.45697" lon="5.9229">
        <ele>1897.478718035</ele>
        <time>2016-08-19T12:17:17Z</time>
      </trkpt>
      <trkpt lat="45.45697" lon="5.92286">
        <ele>1897.478718035</ele>
        <time>2016-08-19T12:17:21Z</time>
      </trkpt>
      <trkpt lat="45.45697" lon="5.92285">
        <ele>1897.478718035</ele>
        <time>2016-08-19T12:17:31Z</time>
      </trkpt>
      <trkpt lat="45.45697" lon="5.92285">
        <ele>1897.478718035</ele>
        <time>2016-08-19T12:17:37Z</time>
      </trkpt>
      <trkpt lat="45.45697" lon="5.92285">
        <ele>1897.478718035</ele>
        <time>2016-08-19T12:17:46Z</time>
      </trkpt>
      <trkpt lat="45.45697" lon="5.92285">
        <ele>1897.478718035</ele>
        <time>2016-08-19T12:17:51Z</time>
      </trkpt>
      <trkpt lat="45.45697" lon="5.92285">
        <ele>1897.478718035</ele>
        <time>2016-08-19T12:18:01Z</time>
      </trkpt>
      <trkpt lat="45.45697" lon="5.92285">
        <ele>1897.478718035</ele>
        <time>2016-08-19T12:18:06Z</time>
      </trkpt>
      <trkpt lat="45.45697" lon="5.92285">
        <ele>1897.478718035</ele>
        <time>2016-08-19T12:18:16Z</time>
      </trkpt>
      <trkpt lat="45.45697" lon="5.92285">
        <ele>1897.478718035</ele>
        <time>2016-08-19T12:18:21Z</time>
      </trkpt>
      <trkpt lat="45.45695" lon="5.9229">
        <ele>1897.478718035</ele>
        <time>2016-08-19T12:18:31Z</time>
      </trkpt>
      <trkpt lat="45.45696" lon="5.9229">
        <ele>1901.055813723</ele>
        <time>2016-08-19T12:18:36Z</time>
      </trkpt>
      <trkpt lat="45.45695" lon="5.9229">
        <ele>1901.055813723</ele>
        <time>2016-08-19T12:18:47Z</time>
      </trkpt>
      <trkpt lat="45.45694" lon="5.92293">
        <ele>1901.055813723</ele>
        <time>2016-08-19T12:18:51Z</time>
      </trkpt>
      <trkpt lat="45.45694" lon="5.92294">
        <ele>1901.055813723</ele>
        <time>2016-08-19T12:19:02Z</time>
      </trkpt>
      <trkpt lat="45.45697" lon="5.92296">
        <ele>1901.055813723</ele>
        <time>2016-08-19T12:19:07Z</time>
      </trkpt>
      <trkpt lat="45.45703" lon="5.92303">
        <ele>1903.520378261</ele>
        <time>2016-08-19T12:19:17Z</time>
      </trkpt>
      <trkpt lat="45.45703" lon="5.92303">
        <ele>1903.520378261</ele>
        <time>2016-08-19T12:19:21Z</time>
      </trkpt>
      <trkpt lat="45.45708" lon="5.92309">
        <ele>1903.520378261</ele>
        <time>2016-08-19T12:19:37Z</time>
      </trkpt>
      <trkpt lat="45.45708" lon="5.92309">
        <ele>1903.520378261</ele>
        <time>2016-08-19T12:19:42Z</time>
      </trkpt>
      <trkpt lat="45.45708" lon="5.92309">
        <ele>1903.520378261</ele>
        <time>2016-08-19T12:19:52Z</time>
      </trkpt>
      <trkpt lat="45.4571" lon="5.9231">
        <ele>1905.384127423</ele>
        <time>2016-08-19T12:19:56Z</time>
      </trkpt>
      <trkpt lat="45.45712" lon="5.92312">
        <ele>1905.384127423</ele>
        <time>2016-08-19T12:20:07Z</time>
      </trkpt>
      <trkpt lat="45.45713" lon="5.92319">
        <ele>1905.384127423</ele>
        <time>2016-08-19T12:20:11Z</time>
      </trkpt>
      <trkpt lat="45.45717" lon="5.92327">
        <ele>1906.402360261</ele>
        <time>2016-08-19T12:20:22Z</time>
      </trkpt>
      <trkpt lat="45.45717" lon="5.92328">
        <ele>1906.402360261</ele>
        <time>2016-08-19T12:20:26Z</time>
      </trkpt>
      <trkpt lat="45.45724" lon="5.92334">
        <ele>1906.494876298</ele>
        <time>2016-08-19T12:20:37Z</time>
      </trkpt>
      <trkpt lat="45.45726" lon="5.92334">
        <ele>1906.494876298</ele>
        <time>2016-08-19T12:20:41Z</time>
      </trkpt>
      <trkpt lat="45.45735" lon="5.92334">
        <ele>1905.734107095</ele>
        <time>2016-08-19T12:20:52Z</time>
      </trkpt>
      <trkpt lat="45.45735" lon="5.92334">
        <ele>1905.734107095</ele>
        <time>2016-08-19T12:20:57Z</time>
      </trkpt>
      <trkpt lat="45.4574" lon="5.92337">
        <ele>1905.734107095</ele>
        <time>2016-08-19T12:21:07Z</time>
      </trkpt>
      <trkpt lat="45.45739" lon="5.92337">
        <ele>1905.734107095</ele>
        <time>2016-08-19T12:21:12Z</time>
      </trkpt>
      <trkpt lat="45.45738" lon="5.92339">
        <ele>1905.734107095</ele>
        <time>2016-08-19T12:21:26Z</time>
      </trkpt>
      <trkpt lat="45.45739" lon="5.92341">
        <ele>1905.734107095</ele>
        <time>2016-08-19T12:21:32Z</time>
      </trkpt>
      <trkpt lat="45.45742" lon="5.92344">
        <ele>1904.333685428</ele>
        <time>2016-08-19T12:21:42Z</time>
      </trkpt>
      <trkpt lat="45.45742" lon="5.92345">
        <ele>1904.333685428</ele>
        <time>2016-08-19T12:21:46Z</time>
      </trkpt>
      <trkpt lat="45.45739" lon="5.92353">
        <ele>1904.333685428</ele>
        <time>2016-08-19T12:21:57Z</time>
      </trkpt>
      <trkpt lat="45.45739" lon="5.92353">
        <ele>1904.333685428</ele>
        <time>2016-08-19T12:22:02Z</time>
      </trkpt>
      <trkpt lat="45.45731" lon="5.92357">
        <ele>1902.637453054</ele>
        <time>2016-08-19T12:22:12Z</time>
      </trkpt>
      <trkpt lat="45.45729" lon="5.92356">
        <ele>1902.637453054</ele>
        <time>2016-08-19T12:22:17Z</time>
      </trkpt>
      <trkpt lat="45.4573" lon="5.92355">
        <ele>1902.637453054</ele>
        <time>2016-08-19T12:22:27Z</time>
      </trkpt>
      <trkpt lat="45.45724" lon="5.92354">
        <ele>1902.637453054</ele>
        <time>2016-08-19T12:22:31Z</time>
      </trkpt>
      <trkpt lat="45.45729" lon="5.92346">
        <ele>1899.379570873</ele>
        <time>2016-08-19T12:22:41Z</time>
      </trkpt>
      <trkpt lat="45.45727" lon="5.92348">
        <ele>1899.379570873</ele>
        <time>2016-08-19T12:22:46Z</time>
      </trkpt>
      <trkpt lat="45.45726" lon="5.9235">
        <ele>1899.379570873</ele>
        <time>2016-08-19T12:22:57Z</time>
      </trkpt>
      <trkpt lat="45.45722" lon="5.92353">
        <ele>1899.379570873</ele>
        <time>2016-08-19T12:23:02Z</time>
      </trkpt>
      <trkpt lat="45.45711" lon="5.92356">
        <ele>1895.553176277</ele>
        <time>2016-08-19T12:23:12Z</time>
      </trkpt>
      <trkpt lat="45.45708" lon="5.92358">
        <ele>1895.553176277</ele>
        <time>2016-08-19T12:23:16Z</time>
      </trkpt>
      <trkpt lat="45.45703" lon="5.92368">
        <ele>1892.656399632</ele>
        <time>2016-08-19T12:23:27Z</time>
      </trkpt>
      <trkpt lat="45.45701" lon="5.92369">
        <ele>1892.656399632</ele>
        <time>2016-08-19T12:23:31Z</time>
      </trkpt>
      <trkpt lat="45.45695" lon="5.92375">
        <ele>1888.904140953</ele>
        <time>2016-08-19T12:23:42Z</time>
      </trkpt>
      <trkpt lat="45.45693" lon="5.92378">
        <ele>1888.904140953</ele>
        <time>2016-08-19T12:23:47Z</time>
      </trkpt>
      <trkpt lat="45.45686" lon="5.9238">
        <ele>1885.238675281</ele>
        <time>2016-08-19T12:23:57Z</time>
      </trkpt>
      <trkpt lat="45.45683" lon="5.92378">
        <ele>1885.238675281</ele>
        <time>2016-08-19T12:24:01Z</time>
      </trkpt>
      <trkpt lat="45.45674" lon="5.92381">
        <ele>1880.659179463</ele>
        <time>2016-08-19T12:24:12Z</time>
      </trkpt>
      <trkpt lat="45.4567" lon="5.92383">
        <ele>1880.659179463</ele>
        <time>2016-08-19T12:24:16Z</time>
      </trkpt>
      <trkpt lat="45.45658" lon="5.92391">
        <ele>1875.825915383</ele>
        <time>2016-08-19T12:24:27Z</time>
      </trkpt>
      <trkpt lat="45.45652" lon="5.9239">
        <ele>1875.825915383</ele>
        <time>2016-08-19T12:24:31Z</time>
      </trkpt>
      <trkpt lat="45.45645" lon="5.92385">
        <ele>1871.927547483</ele>
        <time>2016-08-19T12:24:42Z</time>
      </trkpt>
      <trkpt lat="45.4564" lon="5.92387">
        <ele>1871.927547483</ele>
        <time>2016-08-19T12:24:46Z</time>
      </trkpt>
      <trkpt lat="45.45632" lon="5.9238">
        <ele>1867.75674057</ele>
        <time>2016-08-19T12:24:57Z</time>
      </trkpt>
      <trkpt lat="45.45628" lon="5.92378">
        <ele>1867.75674057</ele>
        <time>2016-08-19T12:25:01Z</time>
      </trkpt>
      <trkpt lat="45.45625" lon="5.92372">
        <ele>1863.348197688</ele>
        <time>2016-08-19T12:25:17Z</time>
      </trkpt>
      <trkpt lat="45.45619" lon="5.92372">
        <ele>1863.348197688</ele>
        <time>2016-08-19T12:25:21Z</time>
      </trkpt>
      <trkpt lat="45.45611" lon="5.9237">
        <ele>1858.302077181</ele>
        <time>2016-08-19T12:25:32Z</time>
      </trkpt>
      <trkpt lat="45.45605" lon="5.92364">
        <ele>1858.302077181</ele>
        <time>2016-08-19T12:25:37Z</time>
      </trkpt>
      <trkpt lat="45.45599" lon="5.92365">
        <ele>1853.978683322</ele>
        <time>2016-08-19T12:25:47Z</time>
      </trkpt>
      <trkpt lat="45.456" lon="5.92365">
        <ele>1853.978683322</ele>
        <time>2016-08-19T12:25:51Z</time>
      </trkpt>
      <trkpt lat="45.45595" lon="5.92369">
        <ele>1853.978683322</ele>
        <time>2016-08-19T12:26:02Z</time>
      </trkpt>
      <trkpt lat="45.45593" lon="5.92371">
        <ele>1853.978683322</ele>
        <time>2016-08-19T12:26:06Z</time>
      </trkpt>
      <trkpt lat="45.45587" lon="5.92372">
        <ele>1849.041996358</ele>
        <time>2016-08-19T12:26:17Z</time>
      </trkpt>
      <trkpt lat="45.45581" lon="5.92372">
        <ele>1849.041996358</ele>
        <time>2016-08-19T12:26:21Z</time>
      </trkpt>
      <trkpt lat="45.4557" lon="5.92369">
        <ele>1844.41714192</ele>
        <time>2016-08-19T12:26:31Z</time>
      </trkpt>
      <trkpt lat="45.45565" lon="5.92364">
        <ele>1844.41714192</ele>
        <time>2016-08-19T12:26:37Z</time>
      </trkpt>
      <trkpt lat="45.45555" lon="5.9236">
        <ele>1840.383567056</ele>
        <time>2016-08-19T12:26:47Z</time>
      </trkpt>
      <trkpt lat="45.45551" lon="5.92353">
        <ele>1840.383567056</ele>
        <time>2016-08-19T12:26:52Z</time>
      </trkpt>
      <trkpt lat="45.45543" lon="5.9235">
        <ele>1837.198122951</ele>
        <time>2016-08-19T12:27:02Z</time>
      </trkpt>
      <trkpt lat="45.45537" lon="5.92347">
        <ele>1837.198122951</ele>
        <time>2016-08-19T12:27:07Z</time>
      </trkpt>
      <trkpt lat="45.45528" lon="5.92343">
        <ele>1834.087221125</ele>
        <time>2016-08-19T12:27:16Z</time>
      </trkpt>
      <trkpt lat="45.45522" lon="5.92336">
        <ele>1834.087221125</ele>
        <time>2016-08-19T12:27:22Z</time>
      </trkpt>
      <trkpt lat="45.45513" lon="5.92322">
        <ele>1830.90992189</ele>
        <time>2016-08-19T12:27:36Z</time>
      </trkpt>
      <trkpt lat="45.4551" lon="5.92319">
        <ele>1830.90992189</ele>
        <time>2016-08-19T12:27:42Z</time>
      </trkpt>
      <trkpt lat="45.45505" lon="5.92313">
        <ele>1827.82363735</ele>
        <time>2016-08-19T12:27:52Z</time>
      </trkpt>
      <trkpt lat="45.45502" lon="5.92314">
        <ele>1827.82363735</ele>
        <time>2016-08-19T12:27:56Z</time>
      </trkpt>
      <trkpt lat="45.45496" lon="5.92303">
        <ele>1825.117668743</ele>
        <time>2016-08-19T12:28:07Z</time>
      </trkpt>
      <trkpt lat="45.45491" lon="5.92302">
        <ele>1825.117668743</ele>
        <time>2016-08-19T12:28:12Z</time>
      </trkpt>
      <trkpt lat="45.45487" lon="5.92296">
        <ele>1822.914493127</ele>
        <time>2016-08-19T12:28:21Z</time>
      </trkpt>
      <trkpt lat="45.45483" lon="5.92294">
        <ele>1822.914493127</ele>
        <time>2016-08-19T12:28:26Z</time>
      </trkpt>
      <trkpt lat="45.45482" lon="5.92292">
        <ele>1822.914493127</ele>
        <time>2016-08-19T12:28:37Z</time>
      </trkpt>
      <trkpt lat="45.45481" lon="5.92291">
        <ele>1822.914493127</ele>
        <time>2016-08-19T12:28:41Z</time>
      </trkpt>
      <trkpt lat="45.45477" lon="5.92291">
        <ele>1822.190466467</ele>
        <time>2016-08-19T12:28:51Z</time>
      </trkpt>
      <trkpt lat="45.45476" lon="5.92292">
        <ele>1822.190466467</ele>
        <time>2016-08-19T12:28:55Z</time>
      </trkpt>
      <trkpt lat="45.45476" lon="5.92286">
        <ele>1822.190466467</ele>
        <time>2016-08-19T12:29:07Z</time>
      </trkpt>
      <trkpt lat="45.45473" lon="5.92283">
        <ele>1822.190466467</ele>
        <time>2016-08-19T12:29:12Z</time>
      </trkpt>
      <trkpt lat="45.45473" lon="5.92274">
        <ele>1823.269268417</ele>
        <time>2016-08-19T12:29:21Z</time>
      </trkpt>
      <trkpt lat="45.45471" lon="5.92271">
        <ele>1823.269268417</ele>
        <time>2016-08-19T12:29:27Z</time>
      </trkpt>
      <trkpt lat="45.45469" lon="5.92262">
        <ele>1825.004300984</ele>
        <time>2016-08-19T12:29:36Z</time>
      </trkpt>
      <trkpt lat="45.4547" lon="5.9226">
        <ele>1825.004300984</ele>
        <time>2016-08-19T12:29:42Z</time>
      </trkpt>
      <trkpt lat="45.45463" lon="5.9226">
        <ele>1825.004300984</ele>
        <time>2016-08-19T12:29:52Z</time>
      </trkpt>
      <trkpt lat="45.45459" lon="5.9226">
        <ele>1827.628060039</ele>
        <time>2016-08-19T12:29:56Z</time>
      </trkpt>
      <trkpt lat="45.45454" lon="5.92262">
        <ele>1827.628060039</ele>
        <time>2016-08-19T12:30:02Z</time>
      </trkpt>
      <trkpt lat="45.45443" lon="5.92263">
        <ele>1830.05621761</ele>
        <time>2016-08-19T12:30:12Z</time>
      </trkpt>
      <trkpt lat="45.45439" lon="5.92261">
        <ele>1830.05621761</ele>
        <time>2016-08-19T12:30:17Z</time>
      </trkpt>
      <trkpt lat="45.45436" lon="5.92258">
        <ele>1830.05621761</ele>
        <time>2016-08-19T12:30:27Z</time>
      </trkpt>
      <trkpt lat="45.45431" lon="5.92251">
        <ele>1832.437332336</ele>
        <time>2016-08-19T12:30:31Z</time>
      </trkpt>
      <trkpt lat="45.45422" lon="5.9224">
        <ele>1835.197244257</ele>
        <time>2016-08-19T12:30:42Z</time>
      </trkpt>
      <trkpt lat="45.45417" lon="5.92239">
        <ele>1835.197244257</ele>
        <time>2016-08-19T12:30:46Z</time>
      </trkpt>
      <trkpt lat="45.45407" lon="5.92248">
        <ele>1836.999997165</ele>
        <time>2016-08-19T12:30:57Z</time>
      </trkpt>
      <trkpt lat="45.45404" lon="5.92249">
        <ele>1836.999997165</ele>
        <time>2016-08-19T12:31:01Z</time>
      </trkpt>
      <trkpt lat="45.45395" lon="5.92245">
        <ele>1839.060269651</ele>
        <time>2016-08-19T12:31:12Z</time>
      </trkpt>
      <trkpt lat="45.45392" lon="5.92238">
        <ele>1839.060269651</ele>
        <time>2016-08-19T12:31:16Z</time>
      </trkpt>
      <trkpt lat="45.45384" lon="5.92226">
        <ele>1841.349855956</ele>
        <time>2016-08-19T12:31:27Z</time>
      </trkpt>
      <trkpt lat="45.45382" lon="5.92227">
        <ele>1841.349855956</ele>
        <time>2016-08-19T12:31:32Z</time>
      </trkpt>
      <trkpt lat="45.45374" lon="5.92228">
        <ele>1842.689077527</ele>
        <time>2016-08-19T12:31:42Z</time>
      </trkpt>
      <trkpt lat="45.4537" lon="5.92228">
        <ele>1842.689077527</ele>
        <time>2016-08-19T12:31:46Z</time>
      </trkpt>
      <trkpt lat="45.4536" lon="5.92227">
        <ele>1844.725708564</ele>
        <time>2016-08-19T12:31:57Z</time>
      </trkpt>
      <trkpt lat="45.45354" lon="5.92228">
        <ele>1844.725708564</ele>
        <time>2016-08-19T12:32:00Z</time>
      </trkpt>
      <trkpt lat="45.45341" lon="5.92219">
        <ele>1846.534673892</ele>
        <time>2016-08-19T12:32:12Z</time>
      </trkpt>
      <trkpt lat="45.45335" lon="5.92214">
        <ele>1846.534673892</ele>
        <time>2016-08-19T12:32:17Z</time>
      </trkpt>
      <trkpt lat="45.45328" lon="5.92197">
        <ele>1849.421226138</ele>
        <time>2016-08-19T12:32:27Z</time>
      </trkpt>
      <trkpt lat="45.45327" lon="5.92197">
        <ele>1849.421226138</ele>
        <time>2016-08-19T12:32:31Z</time>
      </trkpt>
      <trkpt lat="45.45324" lon="5.92195">
        <ele>1849.421226138</ele>
        <time>2016-08-19T12:32:36Z</time>
      </trkpt>
      <trkpt lat="45.45316" lon="5.92202">
        <ele>1851.565465988</ele>
        <time>2016-08-19T12:32:46Z</time>
      </trkpt>
      <trkpt lat="45.45311" lon="5.92189">
        <ele>1854.165600161</ele>
        <time>2016-08-19T12:32:51Z</time>
      </trkpt>
      <trkpt lat="45.45298" lon="5.92183">
        <ele>1856.024890302</ele>
        <time>2016-08-19T12:33:01Z</time>
      </trkpt>
      <trkpt lat="45.45296" lon="5.92175">
        <ele>1856.024890302</ele>
        <time>2016-08-19T12:33:06Z</time>
      </trkpt>
      <trkpt lat="45.45286" lon="5.92159">
        <ele>1858.774852301</ele>
        <time>2016-08-19T12:33:17Z</time>
      </trkpt>
      <trkpt lat="45.45281" lon="5.92156">
        <ele>1858.774852301</ele>
        <time>2016-08-19T12:33:22Z</time>
      </trkpt>
      <trkpt lat="45.45279" lon="5.92157">
        <ele>1858.774852301</ele>
        <time>2016-08-19T12:33:31Z</time>
      </trkpt>
      <trkpt lat="45.45275" lon="5.92157">
        <ele>1860.754375959</ele>
        <time>2016-08-19T12:33:36Z</time>
      </trkpt>
      <trkpt lat="45.45264" lon="5.92148">
        <ele>1863.597166552</ele>
        <time>2016-08-19T12:33:47Z</time>
      </trkpt>
      <trkpt lat="45.4526" lon="5.92144">
        <ele>1863.597166552</ele>
        <time>2016-08-19T12:33:51Z</time>
      </trkpt>
      <trkpt lat="45.45254" lon="5.9214">
        <ele>1865.788359837</ele>
        <time>2016-08-19T12:34:01Z</time>
      </trkpt>
      <trkpt lat="45.45252" lon="5.92144">
        <ele>1865.788359837</ele>
        <time>2016-08-19T12:34:06Z</time>
      </trkpt>
      <trkpt lat="45.45247" lon="5.92143">
        <ele>1865.788359837</ele>
        <time>2016-08-19T12:34:17Z</time>
      </trkpt>
      <trkpt lat="45.45243" lon="5.92137">
        <ele>1868.088078295</ele>
        <time>2016-08-19T12:34:21Z</time>
      </trkpt>
      <trkpt lat="45.45235" lon="5.92128">
        <ele>1870.191743994</ele>
        <time>2016-08-19T12:34:32Z</time>
      </trkpt>
      <trkpt lat="45.45232" lon="5.9212">
        <ele>1870.191743994</ele>
        <time>2016-08-19T12:34:37Z</time>
      </trkpt>
      <trkpt lat="45.45233" lon="5.92126">
        <ele>1871.385596864</ele>
        <time>2016-08-19T12:34:46Z</time>
      </trkpt>
      <trkpt lat="45.45233" lon="5.92126">
        <ele>1871.385596864</ele>
        <time>2016-08-19T12:34:52Z</time>
      </trkpt>
      <trkpt lat="45.45228" lon="5.92117">
        <ele>1871.385596864</ele>
        <time>2016-08-19T12:35:05Z</time>
      </trkpt>
      <trkpt lat="45.45221" lon="5.92106">
        <ele>1871.731646527</ele>
        <time>2016-08-19T12:35:22Z</time>
      </trkpt>
      <trkpt lat="45.45218" lon="5.92098">
        <ele>1871.731646527</ele>
        <time>2016-08-19T12:35:26Z</time>
      </trkpt>
      <trkpt lat="45.45215" lon="5.92092">
        <ele>1872.154619894</ele>
        <time>2016-08-19T12:35:36Z</time>
      </trkpt>
      <trkpt lat="45.45213" lon="5.9209">
        <ele>1872.154619894</ele>
        <time>2016-08-19T12:35:41Z</time>
      </trkpt>
      <trkpt lat="45.45207" lon="5.92085">
        <ele>1872.646652158</ele>
        <time>2016-08-19T12:35:52Z</time>
      </trkpt>
      <trkpt lat="45.45205" lon="5.92081">
        <ele>1872.646652158</ele>
        <time>2016-08-19T12:35:57Z</time>
      </trkpt>
      <trkpt lat="45.452" lon="5.92069">
        <ele>1873.48869739</ele>
        <time>2016-08-19T12:36:06Z</time>
      </trkpt>
      <trkpt lat="45.45198" lon="5.92066">
        <ele>1873.48869739</ele>
        <time>2016-08-19T12:36:11Z</time>
      </trkpt>
      <trkpt lat="45.45199" lon="5.92065">
        <ele>1873.48869739</ele>
        <time>2016-08-19T12:36:21Z</time>
      </trkpt>
      <trkpt lat="45.452" lon="5.92063">
        <ele>1873.48869739</ele>
        <time>2016-08-19T12:36:27Z</time>
      </trkpt>
      <trkpt lat="45.452" lon="5.92066">
        <ele>1873.48869739</ele>
        <time>2016-08-19T12:36:36Z</time>
      </trkpt>
      <trkpt lat="45.452" lon="5.92066">
        <ele>1873.48869739</ele>
        <time>2016-08-19T12:36:42Z</time>
      </trkpt>
      <trkpt lat="45.452" lon="5.92066">
        <ele>1873.48869739</ele>
        <time>2016-08-19T12:36:51Z</time>
      </trkpt>
      <trkpt lat="45.452" lon="5.92064">
        <ele>1873.48869739</ele>
        <time>2016-08-19T12:36:57Z</time>
      </trkpt>
      <trkpt lat="45.452" lon="5.92065">
        <ele>1873.48869739</ele>
        <time>2016-08-19T12:37:01Z</time>
      </trkpt>
      <trkpt lat="45.45201" lon="5.92066">
        <ele>1874.507959576</ele>
        <time>2016-08-19T12:37:05Z</time>
      </trkpt>
      <trkpt lat="45.452" lon="5.92066">
        <ele>1874.507959576</ele>
        <time>2016-08-19T12:37:10Z</time>
      </trkpt>
      <trkpt lat="45.452" lon="5.92066">
        <ele>1874.507959576</ele>
        <time>2016-08-19T12:37:16Z</time>
      </trkpt>
      <trkpt lat="45.452" lon="5.92064">
        <ele>1874.507959576</ele>
        <time>2016-08-19T12:37:21Z</time>
      </trkpt>
      <trkpt lat="45.452" lon="5.92063">
        <ele>1874.507959576</ele>
        <time>2016-08-19T12:37:31Z</time>
      </trkpt>
      <trkpt lat="45.452" lon="5.92063">
        <ele>1874.507959576</ele>
        <time>2016-08-19T12:37:36Z</time>
      </trkpt>
      <trkpt lat="45.45201" lon="5.92063">
        <ele>1874.507959576</ele>
        <time>2016-08-19T12:37:46Z</time>
      </trkpt>
      <trkpt lat="45.45201" lon="5.92064">
        <ele>1874.507959576</ele>
        <time>2016-08-19T12:37:51Z</time>
      </trkpt>
      <trkpt lat="45.45201" lon="5.92064">
        <ele>1874.507959576</ele>
        <time>2016-08-19T12:38:01Z</time>
      </trkpt>
      <trkpt lat="45.45201" lon="5.92064">
        <ele>1874.507959576</ele>
        <time>2016-08-19T12:38:06Z</time>
      </trkpt>
      <trkpt lat="45.45201" lon="5.92064">
        <ele>1874.507959576</ele>
        <time>2016-08-19T12:38:16Z</time>
      </trkpt>
      <trkpt lat="45.45201" lon="5.92064">
        <ele>1874.507959576</ele>
        <time>2016-08-19T12:38:21Z</time>
      </trkpt>
      <trkpt lat="45.45201" lon="5.92064">
        <ele>1874.507959576</ele>
        <time>2016-08-19T12:38:31Z</time>
      </trkpt>
      <trkpt lat="45.45201" lon="5.92064">
        <ele>1874.507959576</ele>
        <time>2016-08-19T12:38:36Z</time>
      </trkpt>
      <trkpt lat="45.45201" lon="5.92064">
        <ele>1874.507959576</ele>
        <time>2016-08-19T12:38:46Z</time>
      </trkpt>
      <trkpt lat="45.45201" lon="5.92064">
        <ele>1874.507959576</ele>
        <time>2016-08-19T12:38:51Z</time>
      </trkpt>
      <trkpt lat="45.45196" lon="5.92074">
        <ele>1876.985149988</ele>
        <time>2016-08-19T12:39:01Z</time>
      </trkpt>
      <trkpt lat="45.45196" lon="5.92076">
        <ele>1876.985149988</ele>
        <time>2016-08-19T12:39:06Z</time>
      </trkpt>
      <trkpt lat="45.45195" lon="5.92076">
        <ele>1876.985149988</ele>
        <time>2016-08-19T12:39:21Z</time>
      </trkpt>
      <trkpt lat="45.45195" lon="5.92076">
        <ele>1876.985149988</ele>
        <time>2016-08-19T12:39:26Z</time>
      </trkpt>
      <trkpt lat="45.4519" lon="5.92086">
        <ele>1879.076671917</ele>
        <time>2016-08-19T12:39:36Z</time>
      </trkpt>
      <trkpt lat="45.45184" lon="5.92093">
        <ele>1879.076671917</ele>
        <time>2016-08-19T12:39:41Z</time>
      </trkpt>
      <trkpt lat="45.45169" lon="5.92097">
        <ele>1881.669639057</ele>
        <time>2016-08-19T12:39:51Z</time>
      </trkpt>
      <trkpt lat="45.45164" lon="5.92099">
        <ele>1881.669639057</ele>
        <time>2016-08-19T12:39:56Z</time>
      </trkpt>
      <trkpt lat="45.45155" lon="5.92101">
        <ele>1884.720126881</ele>
        <time>2016-08-19T12:40:06Z</time>
      </trkpt>
      <trkpt lat="45.4515" lon="5.92103">
        <ele>1884.720126881</ele>
        <time>2016-08-19T12:40:11Z</time>
      </trkpt>
      <trkpt lat="45.4514" lon="5.92102">
        <ele>1887.321694876</ele>
        <time>2016-08-19T12:40:21Z</time>
      </trkpt>
      <trkpt lat="45.45138" lon="5.92099">
        <ele>1887.321694876</ele>
        <time>2016-08-19T12:40:26Z</time>
      </trkpt>
      <trkpt lat="45.4513" lon="5.92097">
        <ele>1889.932962067</ele>
        <time>2016-08-19T12:40:36Z</time>
      </trkpt>
      <trkpt lat="45.45125" lon="5.92092">
        <ele>1889.932962067</ele>
        <time>2016-08-19T12:40:41Z</time>
      </trkpt>
      <trkpt lat="45.45112" lon="5.92089">
        <ele>1892.690826328</ele>
        <time>2016-08-19T12:40:51Z</time>
      </trkpt>
      <trkpt lat="45.45109" lon="5.92084">
        <ele>1892.690826328</ele>
        <time>2016-08-19T12:40:56Z</time>
      </trkpt>
      <trkpt lat="45.45111" lon="5.9209">
        <ele>1892.690826328</ele>
        <time>2016-08-19T12:41:06Z</time>
      </trkpt>
      <trkpt lat="45.45111" lon="5.9209">
        <ele>1892.690826328</ele>
        <time>2016-08-19T12:41:11Z</time>
      </trkpt>
      <trkpt lat="45.45111" lon="5.9209">
        <ele>1892.690826328</ele>
        <time>2016-08-19T12:41:16Z</time>
      </trkpt>
      <trkpt lat="45.45111" lon="5.9209">
        <ele>1892.690826328</ele>
        <time>2016-08-19T12:41:26Z</time>
      </trkpt>
      <trkpt lat="45.45101" lon="5.92084">
        <ele>1894.569049311</ele>
        <time>2016-08-19T12:41:31Z</time>
      </trkpt>
      <trkpt lat="45.45092" lon="5.92082">
        <ele>1894.569049311</ele>
        <time>2016-08-19T12:41:41Z</time>
      </trkpt>
      <trkpt lat="45.4509" lon="5.92082">
        <ele>1896.781136266</ele>
        <time>2016-08-19T12:41:46Z</time>
      </trkpt>
      <trkpt lat="45.45089" lon="5.92082">
        <ele>1896.781136266</ele>
        <time>2016-08-19T12:41:56Z</time>
      </trkpt>
      <trkpt lat="45.45089" lon="5.92082">
        <ele>1896.781136266</ele>
        <time>2016-08-19T12:42:01Z</time>
      </trkpt>
      <trkpt lat="45.45079" lon="5.92074">
        <ele>1899.297844238</ele>
        <time>2016-08-19T12:42:11Z</time>
      </trkpt>
      <trkpt lat="45.45073" lon="5.92068">
        <ele>1899.297844238</ele>
        <time>2016-08-19T12:42:16Z</time>
      </trkpt>
      <trkpt lat="45.45063" lon="5.92061">
        <ele>1901.659109654</ele>
        <time>2016-08-19T12:42:26Z</time>
      </trkpt>
      <trkpt lat="45.45059" lon="5.92058">
        <ele>1901.659109654</ele>
        <time>2016-08-19T12:42:31Z</time>
      </trkpt>
      <trkpt lat="45.45053" lon="5.92052">
        <ele>1903.871651028</ele>
        <time>2016-08-19T12:42:41Z</time>
      </trkpt>
      <trkpt lat="45.45048" lon="5.92045">
        <ele>1903.871651028</ele>
        <time>2016-08-19T12:42:46Z</time>
      </trkpt>
      <trkpt lat="45.45042" lon="5.92039">
        <ele>1907.239326947</ele>
        <time>2016-08-19T12:42:56Z</time>
      </trkpt>
      <trkpt lat="45.45034" lon="5.92036">
        <ele>1907.239326947</ele>
        <time>2016-08-19T12:43:01Z</time>
      </trkpt>
      <trkpt lat="45.45033" lon="5.92032">
        <ele>1909.940855175</ele>
        <time>2016-08-19T12:43:11Z</time>
      </trkpt>
      <trkpt lat="45.45028" lon="5.92033">
        <ele>1909.940855175</ele>
        <time>2016-08-19T12:43:16Z</time>
      </trkpt>
      <trkpt lat="45.45025" lon="5.92031">
        <ele>1909.940855175</ele>
        <time>2016-08-19T12:43:26Z</time>
      </trkpt>
      <trkpt lat="45.45027" lon="5.92043">
        <ele>1911.299602582</ele>
        <time>2016-08-19T12:43:31Z</time>
      </trkpt>
      <trkpt lat="45.45026" lon="5.92043">
        <ele>1911.299602582</ele>
        <time>2016-08-19T12:43:36Z</time>
      </trkpt>
      <trkpt lat="45.45023" lon="5.92042">
        <ele>1911.299602582</ele>
        <time>2016-08-19T12:43:46Z</time>
      </trkpt>
      <trkpt lat="45.45022" lon="5.92047">
        <ele>1911.299602582</ele>
        <time>2016-08-19T12:43:51Z</time>
      </trkpt>
      <trkpt lat="45.45023" lon="5.92046">
        <ele>1911.299602582</ele>
        <time>2016-08-19T12:44:01Z</time>
      </trkpt>
      <trkpt lat="45.45023" lon="5.92046">
        <ele>1911.269057669</ele>
        <time>2016-08-19T12:44:06Z</time>
      </trkpt>
      <trkpt lat="45.45019" lon="5.92041">
        <ele>1911.269057669</ele>
        <time>2016-08-19T12:44:16Z</time>
      </trkpt>
      <trkpt lat="45.45015" lon="5.92035">
        <ele>1911.107216934</ele>
        <time>2016-08-19T12:44:21Z</time>
      </trkpt>
      <trkpt lat="45.4501" lon="5.92032">
        <ele>1911.107216934</ele>
        <time>2016-08-19T12:44:31Z</time>
      </trkpt>
      <trkpt lat="45.45005" lon="5.92025">
        <ele>1910.683208067</ele>
        <time>2016-08-19T12:44:36Z</time>
      </trkpt>
      <trkpt lat="45.44998" lon="5.92025">
        <ele>1910.683208067</ele>
        <time>2016-08-19T12:44:46Z</time>
      </trkpt>
      <trkpt lat="45.44999" lon="5.92025">
        <ele>1910.683208067</ele>
        <time>2016-08-19T12:44:51Z</time>
      </trkpt>
      <trkpt lat="45.45" lon="5.92025">
        <ele>1910.164882542</ele>
        <time>2016-08-19T12:45:00Z</time>
      </trkpt>
      <trkpt lat="45.45001" lon="5.92026">
        <ele>1910.164882542</ele>
        <time>2016-08-19T12:45:05Z</time>
      </trkpt>
      <trkpt lat="45.45002" lon="5.92023">
        <ele>1893</ele>
        <time>2016-08-19T12:45:35Z</time>
      </trkpt>
      <trkpt lat="45.45002" lon="5.92022">
        <ele>1893</ele>
        <time>2016-08-19T12:45:39Z</time>
      </trkpt>
      <trkpt lat="45.45002" lon="5.92022">
        <ele>1893</ele>
        <time>2016-08-19T12:45:50Z</time>
      </trkpt>
      <trkpt lat="45.45003" lon="5.92022">
        <ele>1893</ele>
        <time>2016-08-19T12:45:54Z</time>
      </trkpt>
      <trkpt lat="45.45002" lon="5.92022">
        <ele>1893</ele>
        <time>2016-08-19T12:46:04Z</time>
      </trkpt>
      <trkpt lat="45.45002" lon="5.92022">
        <ele>1893</ele>
        <time>2016-08-19T12:46:09Z</time>
      </trkpt>
      <trkpt lat="45.44997" lon="5.92011">
        <ele>1901.242572486</ele>
        <time>2016-08-19T12:46:19Z</time>
      </trkpt>
      <trkpt lat="45.44991" lon="5.92005">
        <ele>1901.242572486</ele>
        <time>2016-08-19T12:46:24Z</time>
      </trkpt>
      <trkpt lat="45.44985" lon="5.92002">
        <ele>1909.326041051</ele>
        <time>2016-08-19T12:46:34Z</time>
      </trkpt>
      <trkpt lat="45.44981" lon="5.91995">
        <ele>1909.326041051</ele>
        <time>2016-08-19T12:46:40Z</time>
      </trkpt>
      <trkpt lat="45.44974" lon="5.91996">
        <ele>1917.04647202</ele>
        <time>2016-08-19T12:46:49Z</time>
      </trkpt>
      <trkpt lat="45.44974" lon="5.91991">
        <ele>1917.04647202</ele>
        <time>2016-08-19T12:46:54Z</time>
      </trkpt>
      <trkpt lat="45.44973" lon="5.9199">
        <ele>1917.04647202</ele>
        <time>2016-08-19T12:47:04Z</time>
      </trkpt>
      <trkpt lat="45.44973" lon="5.91989">
        <ele>1917.04647202</ele>
        <time>2016-08-19T12:47:09Z</time>
      </trkpt>
      <trkpt lat="45.44973" lon="5.91989">
        <ele>1917.04647202</ele>
        <time>2016-08-19T12:47:20Z</time>
      </trkpt>
      <trkpt lat="45.44973" lon="5.91989">
        <ele>1917.04647202</ele>
        <time>2016-08-19T12:47:25Z</time>
      </trkpt>
      <trkpt lat="45.44974" lon="5.91991">
        <ele>1917.04647202</ele>
        <time>2016-08-19T12:47:40Z</time>
      </trkpt>
      <trkpt lat="45.4497" lon="5.91988">
        <ele>1924.425300661</ele>
        <time>2016-08-19T12:47:45Z</time>
      </trkpt>
      <trkpt lat="45.44968" lon="5.91979">
        <ele>1924.425300661</ele>
        <time>2016-08-19T12:47:54Z</time>
      </trkpt>
      <trkpt lat="45.44967" lon="5.91975">
        <ele>1932.075115251</ele>
        <time>2016-08-19T12:47:59Z</time>
      </trkpt>
      <trkpt lat="45.44972" lon="5.9197">
        <ele>1932.075115251</ele>
        <time>2016-08-19T12:48:10Z</time>
      </trkpt>
      <trkpt lat="45.44973" lon="5.91963">
        <ele>1938.567711113</ele>
        <time>2016-08-19T12:48:14Z</time>
      </trkpt>
      <trkpt lat="45.44975" lon="5.91959">
        <ele>1938.567711113</ele>
        <time>2016-08-19T12:48:24Z</time>
      </trkpt>
      <trkpt lat="45.44976" lon="5.91957">
        <ele>1938.567711113</ele>
        <time>2016-08-19T12:48:29Z</time>
      </trkpt>
      <trkpt lat="45.44973" lon="5.91958">
        <ele>1938.567711113</ele>
        <time>2016-08-19T12:48:39Z</time>
      </trkpt>
      <trkpt lat="45.44971" lon="5.91954">
        <ele>1943.503511862</ele>
        <time>2016-08-19T12:48:44Z</time>
      </trkpt>
      <trkpt lat="45.44977" lon="5.91948">
        <ele>1943.503511862</ele>
        <time>2016-08-19T12:48:54Z</time>
      </trkpt>
      <trkpt lat="45.44978" lon="5.91941">
        <ele>1946.867978393</ele>
        <time>2016-08-19T12:48:59Z</time>
      </trkpt>
      <trkpt lat="45.4498" lon="5.91928">
        <ele>1949.179633785</ele>
        <time>2016-08-19T12:49:09Z</time>
      </trkpt>
      <trkpt lat="45.44982" lon="5.91928">
        <ele>1949.179633785</ele>
        <time>2016-08-19T12:49:14Z</time>
      </trkpt>
      <trkpt lat="45.4498" lon="5.91923">
        <ele>1949.179633785</ele>
        <time>2016-08-19T12:49:24Z</time>
      </trkpt>
      <trkpt lat="45.44982" lon="5.91924">
        <ele>1949.179633785</ele>
        <time>2016-08-19T12:49:29Z</time>
      </trkpt>
      <trkpt lat="45.44986" lon="5.91915">
        <ele>1950.331182288</ele>
        <time>2016-08-19T12:49:39Z</time>
      </trkpt>
      <trkpt lat="45.44983" lon="5.9191">
        <ele>1950.331182288</ele>
        <time>2016-08-19T12:49:44Z</time>
      </trkpt>
      <trkpt lat="45.44984" lon="5.91911">
        <ele>1950.331182288</ele>
        <time>2016-08-19T12:49:54Z</time>
      </trkpt>
      <trkpt lat="45.44984" lon="5.91909">
        <ele>1950.331182288</ele>
        <time>2016-08-19T12:49:59Z</time>
      </trkpt>
      <trkpt lat="45.44985" lon="5.91909">
        <ele>1950.331182288</ele>
        <time>2016-08-19T12:50:04Z</time>
      </trkpt>
      <trkpt lat="45.44985" lon="5.91909">
        <ele>1950.331182288</ele>
        <time>2016-08-19T12:50:09Z</time>
      </trkpt>
      <trkpt lat="45.44985" lon="5.91909">
        <ele>1950.331182288</ele>
        <time>2016-08-19T12:50:14Z</time>
      </trkpt>
      <trkpt lat="45.44985" lon="5.91909">
        <ele>1950.331182288</ele>
        <time>2016-08-19T12:50:19Z</time>
      </trkpt>
      <trkpt lat="45.44985" lon="5.91909">
        <ele>1950.331182288</ele>
        <time>2016-08-19T12:50:29Z</time>
      </trkpt>
      <trkpt lat="45.44985" lon="5.91909">
        <ele>1950.331182288</ele>
        <time>2016-08-19T12:50:34Z</time>
      </trkpt>
      <trkpt lat="45.44985" lon="5.91909">
        <ele>1950.331182288</ele>
        <time>2016-08-19T12:50:45Z</time>
      </trkpt>
      <trkpt lat="45.44986" lon="5.91907">
        <ele>1950.331182288</ele>
        <time>2016-08-19T12:50:49Z</time>
      </trkpt>
      <trkpt lat="45.44987" lon="5.91904">
        <ele>1950.188216322</ele>
        <time>2016-08-19T12:51:00Z</time>
      </trkpt>
      <trkpt lat="45.44987" lon="5.91904">
        <ele>1950.188216322</ele>
        <time>2016-08-19T12:51:04Z</time>
      </trkpt>
      <trkpt lat="45.44988" lon="5.91897">
        <ele>1950.188216322</ele>
        <time>2016-08-19T12:51:14Z</time>
      </trkpt>
      <trkpt lat="45.44989" lon="5.91896">
        <ele>1950.188216322</ele>
        <time>2016-08-19T12:51:19Z</time>
      </trkpt>
      <trkpt lat="45.44993" lon="5.91893">
        <ele>1948.559760538</ele>
        <time>2016-08-19T12:51:29Z</time>
      </trkpt>
      <trkpt lat="45.44993" lon="5.91893">
        <ele>1948.559760538</ele>
        <time>2016-08-19T12:51:34Z</time>
      </trkpt>
      <trkpt lat="45.44993" lon="5.91893">
        <ele>1948.559760538</ele>
        <time>2016-08-19T12:51:44Z</time>
      </trkpt>
      <trkpt lat="45.44992" lon="5.91894">
        <ele>1872</ele>
        <time>2016-08-19T12:52:25Z</time>
      </trkpt>
      <trkpt lat="45.44991" lon="5.91894">
        <ele>1872</ele>
        <time>2016-08-19T12:52:30Z</time>
      </trkpt>
      <trkpt lat="45.44991" lon="5.91894">
        <ele>1872</ele>
        <time>2016-08-19T12:52:43Z</time>
      </trkpt>
      <trkpt lat="45.44991" lon="5.91894">
        <ele>1872</ele>
        <time>2016-08-19T12:52:44Z</time>
      </trkpt>
      <trkpt lat="45.44991" lon="5.91894">
        <ele>1872</ele>
        <time>2016-08-19T12:52:46Z</time>
      </trkpt>
      <trkpt lat="45.44991" lon="5.91894">
        <ele>1872</ele>
        <time>2016-08-19T12:53:04Z</time>
      </trkpt>
      <trkpt lat="45.44991" lon="5.91894">
        <ele>1872</ele>
        <time>2016-08-19T12:53:19Z</time>
      </trkpt>
      <trkpt lat="45.44991" lon="5.91894">
        <ele>1872</ele>
        <time>2016-08-19T12:53:20Z</time>
      </trkpt>
      <trkpt lat="45.44991" lon="5.91894">
        <ele>1872</ele>
        <time>2016-08-19T12:53:36Z</time>
      </trkpt>
      <trkpt lat="45.44991" lon="5.91895">
        <ele>1872</ele>
        <time>2016-08-19T12:53:37Z</time>
      </trkpt>
      <trkpt lat="45.44991" lon="5.91894">
        <ele>1872</ele>
        <time>2016-08-19T12:53:45Z</time>
      </trkpt>
      <trkpt lat="45.4499" lon="5.91894">
        <ele>1872</ele>
        <time>2016-08-19T12:53:50Z</time>
      </trkpt>
      <trkpt lat="45.4499" lon="5.91895">
        <ele>1872</ele>
        <time>2016-08-19T12:54:00Z</time>
      </trkpt>
      <trkpt lat="45.4499" lon="5.91895">
        <ele>1872</ele>
        <time>2016-08-19T12:54:05Z</time>
      </trkpt>
      <trkpt lat="45.44989" lon="5.91901">
        <ele>1875.347942498</ele>
        <time>2016-08-19T12:54:21Z</time>
      </trkpt>
      <trkpt lat="45.44989" lon="5.91901">
        <ele>1875.347942498</ele>
        <time>2016-08-19T12:54:36Z</time>
      </trkpt>
      <trkpt lat="45.44989" lon="5.91901">
        <ele>1875.347942498</ele>
        <time>2016-08-19T12:54:41Z</time>
      </trkpt>
      <trkpt lat="45.44989" lon="5.91904">
        <ele>1875.347942498</ele>
        <time>2016-08-19T12:54:51Z</time>
      </trkpt>
      <trkpt lat="45.44985" lon="5.91914">
        <ele>1883.767064517</ele>
        <time>2016-08-19T12:54:56Z</time>
      </trkpt>
      <trkpt lat="45.44985" lon="5.91939">
        <ele>1894.551810692</ele>
        <time>2016-08-19T12:55:06Z</time>
      </trkpt>
      <trkpt lat="45.44982" lon="5.91945">
        <ele>1894.551810692</ele>
        <time>2016-08-19T12:55:11Z</time>
      </trkpt>
      <trkpt lat="45.44982" lon="5.91952">
        <ele>1903.224233362</ele>
        <time>2016-08-19T12:55:21Z</time>
      </trkpt>
      <trkpt lat="45.4498" lon="5.91954">
        <ele>1903.224233362</ele>
        <time>2016-08-19T12:55:26Z</time>
      </trkpt>
      <trkpt lat="45.44983" lon="5.91957">
        <ele>1903.224233362</ele>
        <time>2016-08-19T12:55:36Z</time>
      </trkpt>
      <trkpt lat="45.44984" lon="5.9196">
        <ele>1912.75818067</ele>
        <time>2016-08-19T12:55:41Z</time>
      </trkpt>
      <trkpt lat="45.44986" lon="5.91961">
        <ele>1912.75818067</ele>
        <time>2016-08-19T12:55:56Z</time>
      </trkpt>
      <trkpt lat="45.44986" lon="5.91961">
        <ele>1912.75818067</ele>
        <time>2016-08-19T12:56:01Z</time>
      </trkpt>
      <trkpt lat="45.4498" lon="5.91973">
        <ele>1922.146903105</ele>
        <time>2016-08-19T12:56:11Z</time>
      </trkpt>
      <trkpt lat="45.44979" lon="5.91976">
        <ele>1922.146903105</ele>
        <time>2016-08-19T12:56:16Z</time>
      </trkpt>
      <trkpt lat="45.44977" lon="5.91979">
        <ele>1922.146903105</ele>
        <time>2016-08-19T12:56:26Z</time>
      </trkpt>
      <trkpt lat="45.4498" lon="5.91982">
        <ele>1930.807725704</ele>
        <time>2016-08-19T12:56:30Z</time>
      </trkpt>
      <trkpt lat="45.44977" lon="5.91986">
        <ele>1930.807725704</ele>
        <time>2016-08-19T12:56:35Z</time>
      </trkpt>
      <trkpt lat="45.44976" lon="5.91988">
        <ele>1930.807725704</ele>
        <time>2016-08-19T12:56:40Z</time>
      </trkpt>
      <trkpt lat="45.44976" lon="5.91988">
        <ele>1930.807725704</ele>
        <time>2016-08-19T12:56:50Z</time>
      </trkpt>
      <trkpt lat="45.44976" lon="5.91988">
        <ele>1930.807725704</ele>
        <time>2016-08-19T12:56:56Z</time>
      </trkpt>
      <trkpt lat="45.44976" lon="5.91988">
        <ele>1930.807725704</ele>
        <time>2016-08-19T12:57:06Z</time>
      </trkpt>
      <trkpt lat="45.44976" lon="5.91988">
        <ele>1930.807725704</ele>
        <time>2016-08-19T12:57:11Z</time>
      </trkpt>
      <trkpt lat="45.44976" lon="5.91988">
        <ele>1930.807725704</ele>
        <time>2016-08-19T12:57:26Z</time>
      </trkpt>
      <trkpt lat="45.44976" lon="5.91988">
        <ele>1930.807725704</ele>
        <time>2016-08-19T12:57:30Z</time>
      </trkpt>
      <trkpt lat="45.44979" lon="5.91996">
        <ele>1938.337902017</ele>
        <time>2016-08-19T12:57:40Z</time>
      </trkpt>
      <trkpt lat="45.44979" lon="5.92002">
        <ele>1938.337902017</ele>
        <time>2016-08-19T12:57:46Z</time>
      </trkpt>
      <trkpt lat="45.44979" lon="5.92004">
        <ele>1938.337902017</ele>
        <time>2016-08-19T12:57:56Z</time>
      </trkpt>
      <trkpt lat="45.4498" lon="5.92004">
        <ele>1938.337902017</ele>
        <time>2016-08-19T12:58:01Z</time>
      </trkpt>
      <trkpt lat="45.4498" lon="5.92004">
        <ele>1938.337902017</ele>
        <time>2016-08-19T12:58:10Z</time>
      </trkpt>
      <trkpt lat="45.4498" lon="5.92004">
        <ele>1938.337902017</ele>
        <time>2016-08-19T12:58:15Z</time>
      </trkpt>
      <trkpt lat="45.4498" lon="5.92004">
        <ele>1938.337902017</ele>
        <time>2016-08-19T12:58:25Z</time>
      </trkpt>
      <trkpt lat="45.4498" lon="5.92004">
        <ele>1938.337902017</ele>
        <time>2016-08-19T12:58:31Z</time>
      </trkpt>
      <trkpt lat="45.4498" lon="5.92004">
        <ele>1938.337902017</ele>
        <time>2016-08-19T12:58:41Z</time>
      </trkpt>
      <trkpt lat="45.4498" lon="5.92004">
        <ele>1938.337902017</ele>
        <time>2016-08-19T12:58:46Z</time>
      </trkpt>
      <trkpt lat="45.4498" lon="5.92004">
        <ele>1938.337902017</ele>
        <time>2016-08-19T12:58:56Z</time>
      </trkpt>
      <trkpt lat="45.4498" lon="5.92004">
        <ele>1938.337902017</ele>
        <time>2016-08-19T12:59:01Z</time>
      </trkpt>
      <trkpt lat="45.4498" lon="5.92004">
        <ele>1938.337902017</ele>
        <time>2016-08-19T12:59:06Z</time>
      </trkpt>
      <trkpt lat="45.4499" lon="5.92018">
        <ele>1944.621762793</ele>
        <time>2016-08-19T12:59:16Z</time>
      </trkpt>
      <trkpt lat="45.44994" lon="5.92023">
        <ele>1944.621762793</ele>
        <time>2016-08-19T12:59:21Z</time>
      </trkpt>
      <trkpt lat="45.45007" lon="5.92031">
        <ele>1949.962485862</ele>
        <time>2016-08-19T12:59:31Z</time>
      </trkpt>
      <trkpt lat="45.45009" lon="5.92034">
        <ele>1949.962485862</ele>
        <time>2016-08-19T12:59:36Z</time>
      </trkpt>
      <trkpt lat="45.45013" lon="5.92048">
        <ele>1952.056060196</ele>
        <time>2016-08-19T12:59:46Z</time>
      </trkpt>
      <trkpt lat="45.45014" lon="5.92042">
        <ele>1952.056060196</ele>
        <time>2016-08-19T12:59:51Z</time>
      </trkpt>
      <trkpt lat="45.45018" lon="5.92043">
        <ele>1952.056060196</ele>
        <time>2016-08-19T13:00:01Z</time>
      </trkpt>
      <trkpt lat="45.45026" lon="5.92045">
        <ele>1952.871762027</ele>
        <time>2016-08-19T13:00:06Z</time>
      </trkpt>
      <trkpt lat="45.4503" lon="5.92047">
        <ele>1952.871762027</ele>
        <time>2016-08-19T13:00:16Z</time>
      </trkpt>
      <trkpt lat="45.45029" lon="5.92049">
        <ele>1952.871762027</ele>
        <time>2016-08-19T13:00:21Z</time>
      </trkpt>
      <trkpt lat="45.45039" lon="5.9205">
        <ele>1953.277305125</ele>
        <time>2016-08-19T13:00:31Z</time>
      </trkpt>
      <trkpt lat="45.45039" lon="5.9205">
        <ele>1953.277305125</ele>
        <time>2016-08-19T13:00:36Z</time>
      </trkpt>
      <trkpt lat="45.4504" lon="5.92052">
        <ele>1953.277305125</ele>
        <time>2016-08-19T13:00:51Z</time>
      </trkpt>
      <trkpt lat="45.45054" lon="5.92064">
        <ele>1952.929611195</ele>
        <time>2016-08-19T13:01:06Z</time>
      </trkpt>
      <trkpt lat="45.45057" lon="5.92067">
        <ele>1952.929611195</ele>
        <time>2016-08-19T13:01:11Z</time>
      </trkpt>
      <trkpt lat="45.45067" lon="5.92076">
        <ele>1951.526271291</ele>
        <time>2016-08-19T13:01:21Z</time>
      </trkpt>
      <trkpt lat="45.45061" lon="5.92081">
        <ele>1951.526271291</ele>
        <time>2016-08-19T13:01:26Z</time>
      </trkpt>
      <trkpt lat="45.4507" lon="5.92087">
        <ele>1947.809552853</ele>
        <time>2016-08-19T13:01:36Z</time>
      </trkpt>
      <trkpt lat="45.45072" lon="5.9209">
        <ele>1947.809552853</ele>
        <time>2016-08-19T13:01:41Z</time>
      </trkpt>
      <trkpt lat="45.45075" lon="5.92097">
        <ele>1947.809552853</ele>
        <time>2016-08-19T13:01:51Z</time>
      </trkpt>
      <trkpt lat="45.45076" lon="5.92099">
        <ele>1942.794667037</ele>
        <time>2016-08-19T13:01:56Z</time>
      </trkpt>
      <trkpt lat="45.45082" lon="5.92101">
        <ele>1942.794667037</ele>
        <time>2016-08-19T13:02:11Z</time>
      </trkpt>
      <trkpt lat="45.45082" lon="5.92101">
        <ele>1942.794667037</ele>
        <time>2016-08-19T13:02:16Z</time>
      </trkpt>
      <trkpt lat="45.45082" lon="5.92101">
        <ele>1942.794667037</ele>
        <time>2016-08-19T13:02:26Z</time>
      </trkpt>
      <trkpt lat="45.45082" lon="5.92101">
        <ele>1942.794667037</ele>
        <time>2016-08-19T13:02:30Z</time>
      </trkpt>
      <trkpt lat="45.45083" lon="5.92101">
        <ele>1942.794667037</ele>
        <time>2016-08-19T13:02:41Z</time>
      </trkpt>
      <trkpt lat="45.45093" lon="5.92105">
        <ele>1937.540956966</ele>
        <time>2016-08-19T13:02:46Z</time>
      </trkpt>
      <trkpt lat="45.45104" lon="5.92114">
        <ele>1932.64388507</ele>
        <time>2016-08-19T13:02:56Z</time>
      </trkpt>
      <trkpt lat="45.45108" lon="5.92114">
        <ele>1932.64388507</ele>
        <time>2016-08-19T13:03:01Z</time>
      </trkpt>
      <trkpt lat="45.4512" lon="5.92111">
        <ele>1929.386229111</ele>
        <time>2016-08-19T13:03:10Z</time>
      </trkpt>
      <trkpt lat="45.45123" lon="5.92113">
        <ele>1929.386229111</ele>
        <time>2016-08-19T13:03:15Z</time>
      </trkpt>
      <trkpt lat="45.45132" lon="5.92119">
        <ele>1925.460399082</ele>
        <time>2016-08-19T13:03:26Z</time>
      </trkpt>
      <trkpt lat="45.45131" lon="5.92116">
        <ele>1925.460399082</ele>
        <time>2016-08-19T13:03:31Z</time>
      </trkpt>
      <trkpt lat="45.45139" lon="5.92115">
        <ele>1922.498089142</ele>
        <time>2016-08-19T13:03:41Z</time>
      </trkpt>
      <trkpt lat="45.4514" lon="5.92109">
        <ele>1922.498089142</ele>
        <time>2016-08-19T13:03:46Z</time>
      </trkpt>
      <trkpt lat="45.45147" lon="5.9211">
        <ele>1919.661390647</ele>
        <time>2016-08-19T13:04:01Z</time>
      </trkpt>
      <trkpt lat="45.45155" lon="5.92107">
        <ele>1919.661390647</ele>
        <time>2016-08-19T13:04:11Z</time>
      </trkpt>
      <trkpt lat="45.45155" lon="5.92104">
        <ele>1917.39248632</ele>
        <time>2016-08-19T13:04:16Z</time>
      </trkpt>
      <trkpt lat="45.45158" lon="5.92107">
        <ele>1917.39248632</ele>
        <time>2016-08-19T13:04:21Z</time>
      </trkpt>
      <trkpt lat="45.45167" lon="5.92111">
        <ele>1914.907708076</ele>
        <time>2016-08-19T13:04:31Z</time>
      </trkpt>
      <trkpt lat="45.45174" lon="5.9211">
        <ele>1914.907708076</ele>
        <time>2016-08-19T13:04:36Z</time>
      </trkpt>
      <trkpt lat="45.45182" lon="5.92109">
        <ele>1912.376639772</ele>
        <time>2016-08-19T13:04:46Z</time>
      </trkpt>
      <trkpt lat="45.45183" lon="5.92109">
        <ele>1912.376639772</ele>
        <time>2016-08-19T13:04:51Z</time>
      </trkpt>
      <trkpt lat="45.45188" lon="5.92101">
        <ele>1912.376639772</ele>
        <time>2016-08-19T13:05:01Z</time>
      </trkpt>
      <trkpt lat="45.45191" lon="5.92098">
        <ele>1910.231292526</ele>
        <time>2016-08-19T13:05:06Z</time>
      </trkpt>
      <trkpt lat="45.45193" lon="5.9209">
        <ele>1910.231292526</ele>
        <time>2016-08-19T13:05:15Z</time>
      </trkpt>
      <trkpt lat="45.45195" lon="5.92084">
        <ele>1908.855958837</ele>
        <time>2016-08-19T13:05:21Z</time>
      </trkpt>
      <trkpt lat="45.45196" lon="5.92077">
        <ele>1908.855958837</ele>
        <time>2016-08-19T13:05:31Z</time>
      </trkpt>
      <trkpt lat="45.45196" lon="5.92072">
        <ele>1908.855958837</ele>
        <time>2016-08-19T13:05:36Z</time>
      </trkpt>
      <trkpt lat="45.45199" lon="5.92066">
        <ele>1906.074649883</ele>
        <time>2016-08-19T13:05:46Z</time>
      </trkpt>
      <trkpt lat="45.452" lon="5.92066">
        <ele>1906.074649883</ele>
        <time>2016-08-19T13:05:50Z</time>
      </trkpt>
      <trkpt lat="45.452" lon="5.92058">
        <ele>1906.074649883</ele>
        <time>2016-08-19T13:06:01Z</time>
      </trkpt>
      <trkpt lat="45.45202" lon="5.92058">
        <ele>1906.074649883</ele>
        <time>2016-08-19T13:06:05Z</time>
      </trkpt>
      <trkpt lat="45.45204" lon="5.92054">
        <ele>1902.006713464</ele>
        <time>2016-08-19T13:06:16Z</time>
      </trkpt>
      <trkpt lat="45.45204" lon="5.92049">
        <ele>1902.006713464</ele>
        <time>2016-08-19T13:06:21Z</time>
      </trkpt>
      <trkpt lat="45.45192" lon="5.9205">
        <ele>1897.588997441</ele>
        <time>2016-08-19T13:06:31Z</time>
      </trkpt>
      <trkpt lat="45.45184" lon="5.92054">
        <ele>1897.588997441</ele>
        <time>2016-08-19T13:06:36Z</time>
      </trkpt>
      <trkpt lat="45.45176" lon="5.92062">
        <ele>1892.708658195</ele>
        <time>2016-08-19T13:06:51Z</time>
      </trkpt>
      <trkpt lat="45.45176" lon="5.9207">
        <ele>1892.708658195</ele>
        <time>2016-08-19T13:06:56Z</time>
      </trkpt>
      <trkpt lat="45.45168" lon="5.92073">
        <ele>1887.678307962</ele>
        <time>2016-08-19T13:07:06Z</time>
      </trkpt>
      <trkpt lat="45.45166" lon="5.92073">
        <ele>1887.678307962</ele>
        <time>2016-08-19T13:07:10Z</time>
      </trkpt>
      <trkpt lat="45.45167" lon="5.92073">
        <ele>1887.678307962</ele>
        <time>2016-08-19T13:07:20Z</time>
      </trkpt>
      <trkpt lat="45.45167" lon="5.92073">
        <ele>1887.678307962</ele>
        <time>2016-08-19T13:07:25Z</time>
      </trkpt>
      <trkpt lat="45.45167" lon="5.92073">
        <ele>1887.678307962</ele>
        <time>2016-08-19T13:07:35Z</time>
      </trkpt>
      <trkpt lat="45.45167" lon="5.92073">
        <ele>1887.678307962</ele>
        <time>2016-08-19T13:07:40Z</time>
      </trkpt>
      <trkpt lat="45.45167" lon="5.92065">
        <ele>1887.678307962</ele>
        <time>2016-08-19T13:07:50Z</time>
      </trkpt>
      <trkpt lat="45.45166" lon="5.92062">
        <ele>1882.512574149</ele>
        <time>2016-08-19T13:07:55Z</time>
      </trkpt>
      <trkpt lat="45.45155" lon="5.92059">
        <ele>1878.204618159</ele>
        <time>2016-08-19T13:08:05Z</time>
      </trkpt>
      <trkpt lat="45.45151" lon="5.92055">
        <ele>1878.204618159</ele>
        <time>2016-08-19T13:08:11Z</time>
      </trkpt>
      <trkpt lat="45.45156" lon="5.92055">
        <ele>1874.150348149</ele>
        <time>2016-08-19T13:08:20Z</time>
      </trkpt>
      <trkpt lat="45.45156" lon="5.92055">
        <ele>1874.150348149</ele>
        <time>2016-08-19T13:08:26Z</time>
      </trkpt>
      <trkpt lat="45.45147" lon="5.92051">
        <ele>1870.064659942</ele>
        <time>2016-08-19T13:08:35Z</time>
      </trkpt>
      <trkpt lat="45.45148" lon="5.92049">
        <ele>1870.064659942</ele>
        <time>2016-08-19T13:08:41Z</time>
      </trkpt>
      <trkpt lat="45.45155" lon="5.92052">
        <ele>1864.828999357</ele>
        <time>2016-08-19T13:08:55Z</time>
      </trkpt>
      <trkpt lat="45.45153" lon="5.9205">
        <ele>1864.828999357</ele>
        <time>2016-08-19T13:09:00Z</time>
      </trkpt>
      <trkpt lat="45.45146" lon="5.92044">
        <ele>1859.09845639</ele>
        <time>2016-08-19T13:09:10Z</time>
      </trkpt>
      <trkpt lat="45.45146" lon="5.92049">
        <ele>1859.09845639</ele>
        <time>2016-08-19T13:09:15Z</time>
      </trkpt>
      <trkpt lat="45.45143" lon="5.92049">
        <ele>1859.09845639</ele>
        <time>2016-08-19T13:09:25Z</time>
      </trkpt>
      <trkpt lat="45.4514" lon="5.92045">
        <ele>1852.635666083</ele>
        <time>2016-08-19T13:09:30Z</time>
      </trkpt>
      <trkpt lat="45.45138" lon="5.92043">
        <ele>1852.635666083</ele>
        <time>2016-08-19T13:09:41Z</time>
      </trkpt>
      <trkpt lat="45.45136" lon="5.92039">
        <ele>1852.635666083</ele>
        <time>2016-08-19T13:09:46Z</time>
      </trkpt>
      <trkpt lat="45.45131" lon="5.92037">
        <ele>1846.521221493</ele>
        <time>2016-08-19T13:09:56Z</time>
      </trkpt>
      <trkpt lat="45.45132" lon="5.92038">
        <ele>1846.521221493</ele>
        <time>2016-08-19T13:10:01Z</time>
      </trkpt>
      <trkpt lat="45.45129" lon="5.92031">
        <ele>1846.521221493</ele>
        <time>2016-08-19T13:10:11Z</time>
      </trkpt>
      <trkpt lat="45.45124" lon="5.92027">
        <ele>1840.615428931</ele>
        <time>2016-08-19T13:10:16Z</time>
      </trkpt>
      <trkpt lat="45.4512" lon="5.92022">
        <ele>1840.615428931</ele>
        <time>2016-08-19T13:10:26Z</time>
      </trkpt>
      <trkpt lat="45.45117" lon="5.92019">
        <ele>1834.491385882</ele>
        <time>2016-08-19T13:10:31Z</time>
      </trkpt>
      <trkpt lat="45.45106" lon="5.92009">
        <ele>1829.66279457</ele>
        <time>2016-08-19T13:10:41Z</time>
      </trkpt>
      <trkpt lat="45.45106" lon="5.92011">
        <ele>1829.66279457</ele>
        <time>2016-08-19T13:10:45Z</time>
      </trkpt>
      <trkpt lat="45.45099" lon="5.92007">
        <ele>1829.66279457</ele>
        <time>2016-08-19T13:10:56Z</time>
      </trkpt>
      <trkpt lat="45.45099" lon="5.92004">
        <ele>1824.141786136</ele>
        <time>2016-08-19T13:11:01Z</time>
      </trkpt>
      <trkpt lat="45.45091" lon="5.92002">
        <ele>1824.141786136</ele>
        <time>2016-08-19T13:11:11Z</time>
      </trkpt>
      <trkpt lat="45.45089" lon="5.91996">
        <ele>1819.632020824</ele>
        <time>2016-08-19T13:11:15Z</time>
      </trkpt>
      <trkpt lat="45.45085" lon="5.91977">
        <ele>1816.681470273</ele>
        <time>2016-08-19T13:11:31Z</time>
      </trkpt>
      <trkpt lat="45.45087" lon="5.91981">
        <ele>1816.681470273</ele>
        <time>2016-08-19T13:11:35Z</time>
      </trkpt>
      <trkpt lat="45.45083" lon="5.91979">
        <ele>1816.681470273</ele>
        <time>2016-08-19T13:11:45Z</time>
      </trkpt>
      <trkpt lat="45.4508" lon="5.91968">
        <ele>1814.442343712</ele>
        <time>2016-08-19T13:11:50Z</time>
      </trkpt>
      <trkpt lat="45.45081" lon="5.91969">
        <ele>1814.442343712</ele>
        <time>2016-08-19T13:12:01Z</time>
      </trkpt>
      <trkpt lat="45.45081" lon="5.91962">
        <ele>1814.442343712</ele>
        <time>2016-08-19T13:12:06Z</time>
      </trkpt>
      <trkpt lat="45.45074" lon="5.91961">
        <ele>1811.965828057</ele>
        <time>2016-08-19T13:12:16Z</time>
      </trkpt>
      <trkpt lat="45.45067" lon="5.91961">
        <ele>1811.965828057</ele>
        <time>2016-08-19T13:12:21Z</time>
      </trkpt>
      <trkpt lat="45.45066" lon="5.91954">
        <ele>1809.875106729</ele>
        <time>2016-08-19T13:12:31Z</time>
      </trkpt>
      <trkpt lat="45.45065" lon="5.91952">
        <ele>1809.875106729</ele>
        <time>2016-08-19T13:12:36Z</time>
      </trkpt>
      <trkpt lat="45.45064" lon="5.91952">
        <ele>1809.875106729</ele>
        <time>2016-08-19T13:12:45Z</time>
      </trkpt>
      <trkpt lat="45.45064" lon="5.91951">
        <ele>1809.875106729</ele>
        <time>2016-08-19T13:12:50Z</time>
      </trkpt>
      <trkpt lat="45.45064" lon="5.91951">
        <ele>1809.875106729</ele>
        <time>2016-08-19T13:13:00Z</time>
      </trkpt>
      <trkpt lat="45.45064" lon="5.91951">
        <ele>1809.875106729</ele>
        <time>2016-08-19T13:13:05Z</time>
      </trkpt>
      <trkpt lat="45.45064" lon="5.91951">
        <ele>1809.875106729</ele>
        <time>2016-08-19T13:13:16Z</time>
      </trkpt>
      <trkpt lat="45.45064" lon="5.91951">
        <ele>1809.875106729</ele>
        <time>2016-08-19T13:13:21Z</time>
      </trkpt>
      <trkpt lat="45.45064" lon="5.91951">
        <ele>1809.875106729</ele>
        <time>2016-08-19T13:13:31Z</time>
      </trkpt>
      <trkpt lat="45.45064" lon="5.91951">
        <ele>1809.875106729</ele>
        <time>2016-08-19T13:13:36Z</time>
      </trkpt>
      <trkpt lat="45.45064" lon="5.91951">
        <ele>1809.875106729</ele>
        <time>2016-08-19T13:13:40Z</time>
      </trkpt>
      <trkpt lat="45.45064" lon="5.91951">
        <ele>1809.875106729</ele>
        <time>2016-08-19T13:13:50Z</time>
      </trkpt>
      <trkpt lat="45.45064" lon="5.91951">
        <ele>1809.875106729</ele>
        <time>2016-08-19T13:13:55Z</time>
      </trkpt>
      <trkpt lat="45.45064" lon="5.91951">
        <ele>1809.875106729</ele>
        <time>2016-08-19T13:14:06Z</time>
      </trkpt>
      <trkpt lat="45.45064" lon="5.91951">
        <ele>1809.875106729</ele>
        <time>2016-08-19T13:14:11Z</time>
      </trkpt>
      <trkpt lat="45.45064" lon="5.91951">
        <ele>1809.875106729</ele>
        <time>2016-08-19T13:14:21Z</time>
      </trkpt>
      <trkpt lat="45.45064" lon="5.91951">
        <ele>1809.875106729</ele>
        <time>2016-08-19T13:14:26Z</time>
      </trkpt>
      <trkpt lat="45.45064" lon="5.91952">
        <ele>1809.875106729</ele>
        <time>2016-08-19T13:14:36Z</time>
      </trkpt>
      <trkpt lat="45.45064" lon="5.91952">
        <ele>1809.875106729</ele>
        <time>2016-08-19T13:14:41Z</time>
      </trkpt>
      <trkpt lat="45.45053" lon="5.91949">
        <ele>1809.199637317</ele>
        <time>2016-08-19T13:14:51Z</time>
      </trkpt>
      <trkpt lat="45.45047" lon="5.91947">
        <ele>1809.199637317</ele>
        <time>2016-08-19T13:14:56Z</time>
      </trkpt>
      <trkpt lat="45.45044" lon="5.91946">
        <ele>1809.074182585</ele>
        <time>2016-08-19T13:15:06Z</time>
      </trkpt>
      <trkpt lat="45.45044" lon="5.91944">
        <ele>1809.074182585</ele>
        <time>2016-08-19T13:15:11Z</time>
      </trkpt>
      <trkpt lat="45.45035" lon="5.91951">
        <ele>1807.940211512</ele>
        <time>2016-08-19T13:15:21Z</time>
      </trkpt>
      <trkpt lat="45.45031" lon="5.91942">
        <ele>1807.940211512</ele>
        <time>2016-08-19T13:15:26Z</time>
      </trkpt>
      <trkpt lat="45.45024" lon="5.91936">
        <ele>1806.778264411</ele>
        <time>2016-08-19T13:15:36Z</time>
      </trkpt>
      <trkpt lat="45.45022" lon="5.9193">
        <ele>1806.778264411</ele>
        <time>2016-08-19T13:15:41Z</time>
      </trkpt>
      <trkpt lat="45.45022" lon="5.91926">
        <ele>1806.778264411</ele>
        <time>2016-08-19T13:15:51Z</time>
      </trkpt>
      <trkpt lat="45.45022" lon="5.91926">
        <ele>1806.778264411</ele>
        <time>2016-08-19T13:15:56Z</time>
      </trkpt>
      <trkpt lat="45.45022" lon="5.91926">
        <ele>1806.778264411</ele>
        <time>2016-08-19T13:16:11Z</time>
      </trkpt>
      <trkpt lat="45.45024" lon="5.91913">
        <ele>1806.9445592</ele>
        <time>2016-08-19T13:16:15Z</time>
      </trkpt>
      <trkpt lat="45.4502" lon="5.91902">
        <ele>1806.9445592</ele>
        <time>2016-08-19T13:16:26Z</time>
      </trkpt>
      <trkpt lat="45.45021" lon="5.91894">
        <ele>1808.326202005</ele>
        <time>2016-08-19T13:16:31Z</time>
      </trkpt>
      <trkpt lat="45.45011" lon="5.91892">
        <ele>1809.161509374</ele>
        <time>2016-08-19T13:16:40Z</time>
      </trkpt>
      <trkpt lat="45.45011" lon="5.91891">
        <ele>1809.161509374</ele>
        <time>2016-08-19T13:16:45Z</time>
      </trkpt>
      <trkpt lat="45.45011" lon="5.91881">
        <ele>1809.161509374</ele>
        <time>2016-08-19T13:16:55Z</time>
      </trkpt>
      <trkpt lat="45.45011" lon="5.91881">
        <ele>1809.161509374</ele>
        <time>2016-08-19T13:17:01Z</time>
      </trkpt>
      <trkpt lat="45.4501" lon="5.91875">
        <ele>1811.585659342</ele>
        <time>2016-08-19T13:17:10Z</time>
      </trkpt>
      <trkpt lat="45.45012" lon="5.91873">
        <ele>1811.585659342</ele>
        <time>2016-08-19T13:17:16Z</time>
      </trkpt>
      <trkpt lat="45.45016" lon="5.91881">
        <ele>1811.585659342</ele>
        <time>2016-08-19T13:17:25Z</time>
      </trkpt>
      <trkpt lat="45.45012" lon="5.91885">
        <ele>1813.66023449</ele>
        <time>2016-08-19T13:17:31Z</time>
      </trkpt>
      <trkpt lat="45.45014" lon="5.91899">
        <ele>1815.850108948</ele>
        <time>2016-08-19T13:17:41Z</time>
      </trkpt>
      <trkpt lat="45.45015" lon="5.91903">
        <ele>1815.850108948</ele>
        <time>2016-08-19T13:17:45Z</time>
      </trkpt>
      <trkpt lat="45.45014" lon="5.91906">
        <ele>1815.850108948</ele>
        <time>2016-08-19T13:17:56Z</time>
      </trkpt>
      <trkpt lat="45.45012" lon="5.91907">
        <ele>1815.850108948</ele>
        <time>2016-08-19T13:18:01Z</time>
      </trkpt>
      <trkpt lat="45.45021" lon="5.9191">
        <ele>1817.538694834</ele>
        <time>2016-08-19T13:18:11Z</time>
      </trkpt>
      <trkpt lat="45.45023" lon="5.91914">
        <ele>1817.538694834</ele>
        <time>2016-08-19T13:18:16Z</time>
      </trkpt>
      <trkpt lat="45.45022" lon="5.91915">
        <ele>1817.538694834</ele>
        <time>2016-08-19T13:18:26Z</time>
      </trkpt>
      <trkpt lat="45.4502" lon="5.91915">
        <ele>1817.538694834</ele>
        <time>2016-08-19T13:18:31Z</time>
      </trkpt>
      <trkpt lat="45.4502" lon="5.91915">
        <ele>1817.538694834</ele>
        <time>2016-08-19T13:18:40Z</time>
      </trkpt>
      <trkpt lat="45.45022" lon="5.91915">
        <ele>1819.648967613</ele>
        <time>2016-08-19T13:18:45Z</time>
      </trkpt>
      <trkpt lat="45.45021" lon="5.91913">
        <ele>1819.648967613</ele>
        <time>2016-08-19T13:18:55Z</time>
      </trkpt>
      <trkpt lat="45.45021" lon="5.91913">
        <ele>1819.648967613</ele>
        <time>2016-08-19T13:19:00Z</time>
      </trkpt>
      <trkpt lat="45.45021" lon="5.91913">
        <ele>1819.648967613</ele>
        <time>2016-08-19T13:19:15Z</time>
      </trkpt>
      <trkpt lat="45.45021" lon="5.91913">
        <ele>1819.648967613</ele>
        <time>2016-08-19T13:19:20Z</time>
      </trkpt>
      <trkpt lat="45.45021" lon="5.91913">
        <ele>1819.648967613</ele>
        <time>2016-08-19T13:19:30Z</time>
      </trkpt>
      <trkpt lat="45.4502" lon="5.91913">
        <ele>1819.648967613</ele>
        <time>2016-08-19T13:19:36Z</time>
      </trkpt>
      <trkpt lat="45.45021" lon="5.91913">
        <ele>1819.648967613</ele>
        <time>2016-08-19T13:19:46Z</time>
      </trkpt>
      <trkpt lat="45.45021" lon="5.91913">
        <ele>1819.648967613</ele>
        <time>2016-08-19T13:19:51Z</time>
      </trkpt>
      <trkpt lat="45.45021" lon="5.91913">
        <ele>1819.648967613</ele>
        <time>2016-08-19T13:20:01Z</time>
      </trkpt>
      <trkpt lat="45.45021" lon="5.91913">
        <ele>1819.648967613</ele>
        <time>2016-08-19T13:20:06Z</time>
      </trkpt>
      <trkpt lat="45.45021" lon="5.91913">
        <ele>1819.648967613</ele>
        <time>2016-08-19T13:20:16Z</time>
      </trkpt>
      <trkpt lat="45.45021" lon="5.91913">
        <ele>1819.648967613</ele>
        <time>2016-08-19T13:20:21Z</time>
      </trkpt>
      <trkpt lat="45.45021" lon="5.91913">
        <ele>1819.648967613</ele>
        <time>2016-08-19T13:20:31Z</time>
      </trkpt>
      <trkpt lat="45.45018" lon="5.91914">
        <ele>1819.648967613</ele>
        <time>2016-08-19T13:20:36Z</time>
      </trkpt>
      <trkpt lat="45.4502" lon="5.9191">
        <ele>1820.061390352</ele>
        <time>2016-08-19T13:20:46Z</time>
      </trkpt>
      <trkpt lat="45.4502" lon="5.9191">
        <ele>1820.061390352</ele>
        <time>2016-08-19T13:20:51Z</time>
      </trkpt>
      <trkpt lat="45.45021" lon="5.91898">
        <ele>1820.061390352</ele>
        <time>2016-08-19T13:21:06Z</time>
      </trkpt>
      <trkpt lat="45.45024" lon="5.91896">
        <ele>1820.830982438</ele>
        <time>2016-08-19T13:21:11Z</time>
      </trkpt>
      <trkpt lat="45.45028" lon="5.91895">
        <ele>1820.830982438</ele>
        <time>2016-08-19T13:21:21Z</time>
      </trkpt>
      <trkpt lat="45.45028" lon="5.91895">
        <ele>1820.830982438</ele>
        <time>2016-08-19T13:21:26Z</time>
      </trkpt>
      <trkpt lat="45.45026" lon="5.91893">
        <ele>1820.830982438</ele>
        <time>2016-08-19T13:21:36Z</time>
      </trkpt>
      <trkpt lat="45.45026" lon="5.91893">
        <ele>1820.830982438</ele>
        <time>2016-08-19T13:21:41Z</time>
      </trkpt>
      <trkpt lat="45.45026" lon="5.91893">
        <ele>1820.830982438</ele>
        <time>2016-08-19T13:21:51Z</time>
      </trkpt>
      <trkpt lat="45.45026" lon="5.91893">
        <ele>1820.830982438</ele>
        <time>2016-08-19T13:21:56Z</time>
      </trkpt>
      <trkpt lat="45.45026" lon="5.91893">
        <ele>1820.830982438</ele>
        <time>2016-08-19T13:22:06Z</time>
      </trkpt>
      <trkpt lat="45.4503" lon="5.91885">
        <ele>1821.480137367</ele>
        <time>2016-08-19T13:22:11Z</time>
      </trkpt>
      <trkpt lat="45.45024" lon="5.91887">
        <ele>1821.480137367</ele>
        <time>2016-08-19T13:22:20Z</time>
      </trkpt>
      <trkpt lat="45.45025" lon="5.91888">
        <ele>1821.480137367</ele>
        <time>2016-08-19T13:22:25Z</time>
      </trkpt>
      <trkpt lat="45.45025" lon="5.91888">
        <ele>1821.480137367</ele>
        <time>2016-08-19T13:22:36Z</time>
      </trkpt>
      <trkpt lat="45.45026" lon="5.91888">
        <ele>1821.480137367</ele>
        <time>2016-08-19T13:22:41Z</time>
      </trkpt>
      <trkpt lat="45.45028" lon="5.91903">
        <ele>1822.74854686</ele>
        <time>2016-08-19T13:22:51Z</time>
      </trkpt>
      <trkpt lat="45.45029" lon="5.91906">
        <ele>1822.74854686</ele>
        <time>2016-08-19T13:22:56Z</time>
      </trkpt>
      <trkpt lat="45.45027" lon="5.91905">
        <ele>1822.74854686</ele>
        <time>2016-08-19T13:23:06Z</time>
      </trkpt>
      <trkpt lat="45.45027" lon="5.91905">
        <ele>1822.74854686</ele>
        <time>2016-08-19T13:23:11Z</time>
      </trkpt>
      <trkpt lat="45.45026" lon="5.91904">
        <ele>1822.74854686</ele>
        <time>2016-08-19T13:23:26Z</time>
      </trkpt>
      <trkpt lat="45.45023" lon="5.9191">
        <ele>1823.845203794</ele>
        <time>2016-08-19T13:23:31Z</time>
      </trkpt>
      <trkpt lat="45.45015" lon="5.91915">
        <ele>1823.845203794</ele>
        <time>2016-08-19T13:23:41Z</time>
      </trkpt>
      <trkpt lat="45.45014" lon="5.91917">
        <ele>1824.044999038</ele>
        <time>2016-08-19T13:23:46Z</time>
      </trkpt>
      <trkpt lat="45.45016" lon="5.9192">
        <ele>1824.044999038</ele>
        <time>2016-08-19T13:23:56Z</time>
      </trkpt>
      <trkpt lat="45.45017" lon="5.9192">
        <ele>1824.044999038</ele>
        <time>2016-08-19T13:24:01Z</time>
      </trkpt>
      <trkpt lat="45.45032" lon="5.91929">
        <ele>1824.730913941</ele>
        <time>2016-08-19T13:24:11Z</time>
      </trkpt>
      <trkpt lat="45.45019" lon="5.91945">
        <ele>1825.275476166</ele>
        <time>2016-08-19T13:24:16Z</time>
      </trkpt>
      <trkpt lat="45.45017" lon="5.9195">
        <ele>1825.275476166</ele>
        <time>2016-08-19T13:24:26Z</time>
      </trkpt>
      <trkpt lat="45.45025" lon="5.91955">
        <ele>1826.704546266</ele>
        <time>2016-08-19T13:24:31Z</time>
      </trkpt>
      <trkpt lat="45.45026" lon="5.91955">
        <ele>1826.704546266</ele>
        <time>2016-08-19T13:24:41Z</time>
      </trkpt>
      <trkpt lat="45.45027" lon="5.91955">
        <ele>1826.704546266</ele>
        <time>2016-08-19T13:24:46Z</time>
      </trkpt>
      <trkpt lat="45.45027" lon="5.91954">
        <ele>1826.704546266</ele>
        <time>2016-08-19T13:25:01Z</time>
      </trkpt>
      <trkpt lat="45.45027" lon="5.91954">
        <ele>1826.704546266</ele>
        <time>2016-08-19T13:25:16Z</time>
      </trkpt>
      <trkpt lat="45.45027" lon="5.91954">
        <ele>1826.704546266</ele>
        <time>2016-08-19T13:25:20Z</time>
      </trkpt>
      <trkpt lat="45.45035" lon="5.91955">
        <ele>1828.360189979</ele>
        <time>2016-08-19T13:25:31Z</time>
      </trkpt>
      <trkpt lat="45.45041" lon="5.91956">
        <ele>1828.360189979</ele>
        <time>2016-08-19T13:25:36Z</time>
      </trkpt>
      <trkpt lat="45.4505" lon="5.91954">
        <ele>1830.217353453</ele>
        <time>2016-08-19T13:25:46Z</time>
      </trkpt>
      <trkpt lat="45.45053" lon="5.91952">
        <ele>1830.217353453</ele>
        <time>2016-08-19T13:25:51Z</time>
      </trkpt>
      <trkpt lat="45.4506" lon="5.91948">
        <ele>1831.237361232</ele>
        <time>2016-08-19T13:26:01Z</time>
      </trkpt>
      <trkpt lat="45.45064" lon="5.91949">
        <ele>1831.237361232</ele>
        <time>2016-08-19T13:26:06Z</time>
      </trkpt>
      <trkpt lat="45.4507" lon="5.91957">
        <ele>1831.334068127</ele>
        <time>2016-08-19T13:26:16Z</time>
      </trkpt>
      <trkpt lat="45.45079" lon="5.91962">
        <ele>1831.443261003</ele>
        <time>2016-08-19T13:26:21Z</time>
      </trkpt>
      <trkpt lat="45.45067" lon="5.91964">
        <ele>1831.705490782</ele>
        <time>2016-08-19T13:26:31Z</time>
      </trkpt>
      <trkpt lat="45.45074" lon="5.91962">
        <ele>1831.705490782</ele>
        <time>2016-08-19T13:26:36Z</time>
      </trkpt>
      <trkpt lat="45.45078" lon="5.9197">
        <ele>1830.949724833</ele>
        <time>2016-08-19T13:26:46Z</time>
      </trkpt>
      <trkpt lat="45.45076" lon="5.91969">
        <ele>1830.949724833</ele>
        <time>2016-08-19T13:26:51Z</time>
      </trkpt>
      <trkpt lat="45.45083" lon="5.91977">
        <ele>1829.974170692</ele>
        <time>2016-08-19T13:27:01Z</time>
      </trkpt>
      <trkpt lat="45.45084" lon="5.91981">
        <ele>1829.974170692</ele>
        <time>2016-08-19T13:27:06Z</time>
      </trkpt>
      <trkpt lat="45.45084" lon="5.91982">
        <ele>1829.974170692</ele>
        <time>2016-08-19T13:27:16Z</time>
      </trkpt>
      <trkpt lat="45.45084" lon="5.91982">
        <ele>1829.974170692</ele>
        <time>2016-08-19T13:27:21Z</time>
      </trkpt>
      <trkpt lat="45.45084" lon="5.91982">
        <ele>1829.974170692</ele>
        <time>2016-08-19T13:27:30Z</time>
      </trkpt>
      <trkpt lat="45.45084" lon="5.91982">
        <ele>1829.974170692</ele>
        <time>2016-08-19T13:27:36Z</time>
      </trkpt>
      <trkpt lat="45.45085" lon="5.91991">
        <ele>1829.805955654</ele>
        <time>2016-08-19T13:27:46Z</time>
      </trkpt>
      <trkpt lat="45.45091" lon="5.91994">
        <ele>1829.805955654</ele>
        <time>2016-08-19T13:27:51Z</time>
      </trkpt>
      <trkpt lat="45.45092" lon="5.91997">
        <ele>1829.805955654</ele>
        <time>2016-08-19T13:28:00Z</time>
      </trkpt>
      <trkpt lat="45.45112" lon="5.92005">
        <ele>1829.950068238</ele>
        <time>2016-08-19T13:28:05Z</time>
      </trkpt>
      <trkpt lat="45.45123" lon="5.9201">
        <ele>1830.669291245</ele>
        <time>2016-08-19T13:28:21Z</time>
      </trkpt>
      <trkpt lat="45.45128" lon="5.92009">
        <ele>1830.669291245</ele>
        <time>2016-08-19T13:28:36Z</time>
      </trkpt>
      <trkpt lat="45.45128" lon="5.92009">
        <ele>1830.669291245</ele>
        <time>2016-08-19T13:28:41Z</time>
      </trkpt>
      <trkpt lat="45.45121" lon="5.92008">
        <ele>1831.340150382</ele>
        <time>2016-08-19T13:28:51Z</time>
      </trkpt>
      <trkpt lat="45.45121" lon="5.92008">
        <ele>1831.340150382</ele>
        <time>2016-08-19T13:28:56Z</time>
      </trkpt>
      <trkpt lat="45.45121" lon="5.92008">
        <ele>1831.340150382</ele>
        <time>2016-08-19T13:29:06Z</time>
      </trkpt>
      <trkpt lat="45.45121" lon="5.92008">
        <ele>1831.340150382</ele>
        <time>2016-08-19T13:29:10Z</time>
      </trkpt>
      <trkpt lat="45.45122" lon="5.92002">
        <ele>1831.340150382</ele>
        <time>2016-08-19T13:29:21Z</time>
      </trkpt>
      <trkpt lat="45.45121" lon="5.92">
        <ele>1831.340150382</ele>
        <time>2016-08-19T13:29:26Z</time>
      </trkpt>
      <trkpt lat="45.45119" lon="5.91991">
        <ele>1832.106785671</ele>
        <time>2016-08-19T13:29:35Z</time>
      </trkpt>
      <trkpt lat="45.45116" lon="5.91983">
        <ele>1832.106785671</ele>
        <time>2016-08-19T13:29:42Z</time>
      </trkpt>
      <trkpt lat="45.45115" lon="5.91979">
        <ele>1832.525777705</ele>
        <time>2016-08-19T13:29:52Z</time>
      </trkpt>
      <trkpt lat="45.45116" lon="5.91976">
        <ele>1832.525777705</ele>
        <time>2016-08-19T13:29:56Z</time>
      </trkpt>
      <trkpt lat="45.45115" lon="5.91976">
        <ele>1832.525777705</ele>
        <time>2016-08-19T13:30:06Z</time>
      </trkpt>
      <trkpt lat="45.45113" lon="5.91973">
        <ele>1832.525777705</ele>
        <time>2016-08-19T13:30:11Z</time>
      </trkpt>
      <trkpt lat="45.45122" lon="5.91979">
        <ele>1830.745715625</ele>
        <time>2016-08-19T13:30:21Z</time>
      </trkpt>
      <trkpt lat="45.45122" lon="5.91978">
        <ele>1830.745715625</ele>
        <time>2016-08-19T13:30:26Z</time>
      </trkpt>
      <trkpt lat="45.45124" lon="5.91975">
        <ele>1830.745715625</ele>
        <time>2016-08-19T13:30:36Z</time>
      </trkpt>
      <trkpt lat="45.45123" lon="5.9197">
        <ele>1830.745715625</ele>
        <time>2016-08-19T13:30:41Z</time>
      </trkpt>
      <trkpt lat="45.45119" lon="5.91962">
        <ele>1827.364455027</ele>
        <time>2016-08-19T13:30:51Z</time>
      </trkpt>
      <trkpt lat="45.45118" lon="5.9196">
        <ele>1827.364455027</ele>
        <time>2016-08-19T13:30:56Z</time>
      </trkpt>
      <trkpt lat="45.45117" lon="5.91958">
        <ele>1827.364455027</ele>
        <time>2016-08-19T13:31:11Z</time>
      </trkpt>
      <trkpt lat="45.45118" lon="5.91958">
        <ele>1827.364455027</ele>
        <time>2016-08-19T13:31:16Z</time>
      </trkpt>
      <trkpt lat="45.45122" lon="5.91956">
        <ele>1827.364455027</ele>
        <time>2016-08-19T13:31:26Z</time>
      </trkpt>
      <trkpt lat="45.45125" lon="5.91954">
        <ele>1823.372800392</ele>
        <time>2016-08-19T13:31:31Z</time>
      </trkpt>
      <trkpt lat="45.45124" lon="5.91958">
        <ele>1823.372800392</ele>
        <time>2016-08-19T13:31:41Z</time>
      </trkpt>
      <trkpt lat="45.45123" lon="5.91958">
        <ele>1823.372800392</ele>
        <time>2016-08-19T13:31:46Z</time>
      </trkpt>
      <trkpt lat="45.45134" lon="5.91957">
        <ele>1818.681254585</ele>
        <time>2016-08-19T13:31:57Z</time>
      </trkpt>
      <trkpt lat="45.45136" lon="5.91955">
        <ele>1818.681254585</ele>
        <time>2016-08-19T13:32:01Z</time>
      </trkpt>
      <trkpt lat="45.45134" lon="5.91958">
        <ele>1818.681254585</ele>
        <time>2016-08-19T13:32:11Z</time>
      </trkpt>
      <trkpt lat="45.45141" lon="5.91956">
        <ele>1814.506587146</ele>
        <time>2016-08-19T13:32:16Z</time>
      </trkpt>
      <trkpt lat="45.4514" lon="5.91955">
        <ele>1814.506587146</ele>
        <time>2016-08-19T13:32:26Z</time>
      </trkpt>
      <trkpt lat="45.45141" lon="5.91954">
        <ele>1814.506587146</ele>
        <time>2016-08-19T13:32:31Z</time>
      </trkpt>
      <trkpt lat="45.45142" lon="5.91953">
        <ele>1814.506587146</ele>
        <time>2016-08-19T13:32:40Z</time>
      </trkpt>
      <trkpt lat="45.45142" lon="5.91953">
        <ele>1814.506587146</ele>
        <time>2016-08-19T13:32:45Z</time>
      </trkpt>
      <trkpt lat="45.45141" lon="5.91946">
        <ele>1814.506587146</ele>
        <time>2016-08-19T13:32:56Z</time>
      </trkpt>
      <trkpt lat="45.4514" lon="5.91944">
        <ele>1809.66781613</ele>
        <time>2016-08-19T13:33:01Z</time>
      </trkpt>
      <trkpt lat="45.45142" lon="5.9194">
        <ele>1809.66781613</ele>
        <time>2016-08-19T13:33:11Z</time>
      </trkpt>
      <trkpt lat="45.45142" lon="5.9194">
        <ele>1809.66781613</ele>
        <time>2016-08-19T13:33:16Z</time>
      </trkpt>
      <trkpt lat="45.45146" lon="5.91937">
        <ele>1809.66781613</ele>
        <time>2016-08-19T13:33:26Z</time>
      </trkpt>
      <trkpt lat="45.45145" lon="5.91935">
        <ele>1804.514445353</ele>
        <time>2016-08-19T13:33:31Z</time>
      </trkpt>
      <trkpt lat="45.45144" lon="5.9193">
        <ele>1804.514445353</ele>
        <time>2016-08-19T13:33:41Z</time>
      </trkpt>
      <trkpt lat="45.45142" lon="5.91923">
        <ele>1800.236466294</ele>
        <time>2016-08-19T13:33:46Z</time>
      </trkpt>
      <trkpt lat="45.4514" lon="5.91919">
        <ele>1800.236466294</ele>
        <time>2016-08-19T13:34:01Z</time>
      </trkpt>
      <trkpt lat="45.45138" lon="5.91918">
        <ele>1800.236466294</ele>
        <time>2016-08-19T13:34:06Z</time>
      </trkpt>
      <trkpt lat="45.45134" lon="5.91912">
        <ele>1794.617049076</ele>
        <time>2016-08-19T13:34:16Z</time>
      </trkpt>
      <trkpt lat="45.45134" lon="5.91909">
        <ele>1794.617049076</ele>
        <time>2016-08-19T13:34:21Z</time>
      </trkpt>
      <trkpt lat="45.45131" lon="5.91907">
        <ele>1794.617049076</ele>
        <time>2016-08-19T13:34:31Z</time>
      </trkpt>
      <trkpt lat="45.45135" lon="5.91904">
        <ele>1789.643920425</ele>
        <time>2016-08-19T13:34:36Z</time>
      </trkpt>
      <trkpt lat="45.45137" lon="5.91903">
        <ele>1789.643920425</ele>
        <time>2016-08-19T13:34:47Z</time>
      </trkpt>
      <trkpt lat="45.45139" lon="5.91903">
        <ele>1789.643920425</ele>
        <time>2016-08-19T13:34:51Z</time>
      </trkpt>
      <trkpt lat="45.45141" lon="5.91902">
        <ele>1789.643920425</ele>
        <time>2016-08-19T13:35:01Z</time>
      </trkpt>
      <trkpt lat="45.45141" lon="5.91902">
        <ele>1789.643920425</ele>
        <time>2016-08-19T13:35:06Z</time>
      </trkpt>
      <trkpt lat="45.45143" lon="5.91899">
        <ele>1781.964670949</ele>
        <time>2016-08-19T13:35:16Z</time>
      </trkpt>
      <trkpt lat="45.45144" lon="5.91899">
        <ele>1781.964670949</ele>
        <time>2016-08-19T13:35:21Z</time>
      </trkpt>
      <trkpt lat="45.45144" lon="5.91896">
        <ele>1781.964670949</ele>
        <time>2016-08-19T13:35:31Z</time>
      </trkpt>
      <trkpt lat="45.45145" lon="5.91893">
        <ele>1781.964670949</ele>
        <time>2016-08-19T13:35:36Z</time>
      </trkpt>
      <trkpt lat="45.45144" lon="5.91891">
        <ele>1781.964670949</ele>
        <time>2016-08-19T13:35:46Z</time>
      </trkpt>
      <trkpt lat="45.45143" lon="5.91893">
        <ele>1781.964670949</ele>
        <time>2016-08-19T13:35:51Z</time>
      </trkpt>
      <trkpt lat="45.45141" lon="5.91891">
        <ele>1772.374764953</ele>
        <time>2016-08-19T13:36:01Z</time>
      </trkpt>
      <trkpt lat="45.4514" lon="5.91891">
        <ele>1772.374764953</ele>
        <time>2016-08-19T13:36:06Z</time>
      </trkpt>
      <trkpt lat="45.45143" lon="5.91883">
        <ele>1772.374764953</ele>
        <time>2016-08-19T13:36:16Z</time>
      </trkpt>
      <trkpt lat="45.45144" lon="5.91883">
        <ele>1772.374764953</ele>
        <time>2016-08-19T13:36:21Z</time>
      </trkpt>
      <trkpt lat="45.45144" lon="5.91883">
        <ele>1763.058893791</ele>
        <time>2016-08-19T13:36:31Z</time>
      </trkpt>
      <trkpt lat="45.45144" lon="5.91882">
        <ele>1763.058893791</ele>
        <time>2016-08-19T13:36:35Z</time>
      </trkpt>
      <trkpt lat="45.45144" lon="5.91881">
        <ele>1763.058893791</ele>
        <time>2016-08-19T13:36:40Z</time>
      </trkpt>
      <trkpt lat="45.45144" lon="5.91881">
        <ele>1763.058893791</ele>
        <time>2016-08-19T13:36:45Z</time>
      </trkpt>
      <trkpt lat="45.45144" lon="5.91881">
        <ele>1763.058893791</ele>
        <time>2016-08-19T13:36:50Z</time>
      </trkpt>
      <trkpt lat="45.45141" lon="5.91879">
        <ele>1763.058893791</ele>
        <time>2016-08-19T13:37:01Z</time>
      </trkpt>
      <trkpt lat="45.4513" lon="5.9187">
        <ele>1754.742056646</ele>
        <time>2016-08-19T13:37:06Z</time>
      </trkpt>
      <trkpt lat="45.45115" lon="5.91853">
        <ele>1747.227329448</ele>
        <time>2016-08-19T13:37:16Z</time>
      </trkpt>
      <trkpt lat="45.45115" lon="5.91858">
        <ele>1747.227329448</ele>
        <time>2016-08-19T13:37:21Z</time>
      </trkpt>
      <trkpt lat="45.45105" lon="5.91874">
        <ele>1740.473834161</ele>
        <time>2016-08-19T13:37:36Z</time>
      </trkpt>
      <trkpt lat="45.45081" lon="5.91853">
        <ele>1734.152638072</ele>
        <time>2016-08-19T13:37:51Z</time>
      </trkpt>
      <trkpt lat="45.45073" lon="5.9184">
        <ele>1728.822783523</ele>
        <time>2016-08-19T13:37:56Z</time>
      </trkpt>
      <trkpt lat="45.45066" lon="5.91848">
        <ele>1723.268114525</ele>
        <time>2016-08-19T13:38:06Z</time>
      </trkpt>
      <trkpt lat="45.45057" lon="5.91841">
        <ele>1718.814108271</ele>
        <time>2016-08-19T13:38:11Z</time>
      </trkpt>
      <trkpt lat="45.45045" lon="5.91826">
        <ele>1715.098643851</ele>
        <time>2016-08-19T13:38:22Z</time>
      </trkpt>
      <trkpt lat="45.45041" lon="5.9183">
        <ele>1715.098643851</ele>
        <time>2016-08-19T13:38:26Z</time>
      </trkpt>
      <trkpt lat="45.45033" lon="5.9182">
        <ele>1712.072208158</ele>
        <time>2016-08-19T13:38:36Z</time>
      </trkpt>
      <trkpt lat="45.4503" lon="5.91817">
        <ele>1712.072208158</ele>
        <time>2016-08-19T13:38:41Z</time>
      </trkpt>
      <trkpt lat="45.4502" lon="5.91803">
        <ele>1709.830811459</ele>
        <time>2016-08-19T13:38:53Z</time>
      </trkpt>
      <trkpt lat="45.45023" lon="5.91801">
        <ele>1709.830811459</ele>
        <time>2016-08-19T13:38:56Z</time>
      </trkpt>
      <trkpt lat="45.45022" lon="5.91794">
        <ele>1709.830811459</ele>
        <time>2016-08-19T13:39:01Z</time>
      </trkpt>
      <trkpt lat="45.45013" lon="5.91783">
        <ele>1707.739798943</ele>
        <time>2016-08-19T13:39:11Z</time>
      </trkpt>
      <trkpt lat="45.45007" lon="5.91775">
        <ele>1707.739798943</ele>
        <time>2016-08-19T13:39:16Z</time>
      </trkpt>
      <trkpt lat="45.44998" lon="5.91771">
        <ele>1705.498903003</ele>
        <time>2016-08-19T13:39:26Z</time>
      </trkpt>
      <trkpt lat="45.44998" lon="5.91771">
        <ele>1705.498903003</ele>
        <time>2016-08-19T13:39:31Z</time>
      </trkpt>
      <trkpt lat="45.44994" lon="5.91771">
        <ele>1705.498903003</ele>
        <time>2016-08-19T13:39:40Z</time>
      </trkpt>
      <trkpt lat="45.44986" lon="5.91766">
        <ele>1703.983592202</ele>
        <time>2016-08-19T13:39:46Z</time>
      </trkpt>
      <trkpt lat="45.44987" lon="5.91775">
        <ele>1703.983592202</ele>
        <time>2016-08-19T13:39:55Z</time>
      </trkpt>
      <trkpt lat="45.44989" lon="5.91781">
        <ele>1702.272347256</ele>
        <time>2016-08-19T13:40:00Z</time>
      </trkpt>
      <trkpt lat="45.44989" lon="5.91782">
        <ele>1702.272347256</ele>
        <time>2016-08-19T13:40:05Z</time>
      </trkpt>
      <trkpt lat="45.44989" lon="5.91782">
        <ele>1702.272347256</ele>
        <time>2016-08-19T13:40:11Z</time>
      </trkpt>
      <trkpt lat="45.44981" lon="5.91789">
        <ele>1700.521044741</ele>
        <time>2016-08-19T13:40:21Z</time>
      </trkpt>
      <trkpt lat="45.44977" lon="5.91795">
        <ele>1700.521044741</ele>
        <time>2016-08-19T13:40:26Z</time>
      </trkpt>
      <trkpt lat="45.4497" lon="5.91803">
        <ele>1698.729794276</ele>
        <time>2016-08-19T13:40:36Z</time>
      </trkpt>
      <trkpt lat="45.44967" lon="5.91801">
        <ele>1698.729794276</ele>
        <time>2016-08-19T13:40:41Z</time>
      </trkpt>
      <trkpt lat="45.4497" lon="5.91811">
        <ele>1696.033643874</ele>
        <time>2016-08-19T13:40:51Z</time>
      </trkpt>
      <trkpt lat="45.44972" lon="5.91808">
        <ele>1696.033643874</ele>
        <time>2016-08-19T13:40:56Z</time>
      </trkpt>
      <trkpt lat="45.44969" lon="5.918">
        <ele>1693.363526663</ele>
        <time>2016-08-19T13:41:06Z</time>
      </trkpt>
      <trkpt lat="45.44974" lon="5.91799">
        <ele>1693.363526663</ele>
        <time>2016-08-19T13:41:11Z</time>
      </trkpt>
      <trkpt lat="45.44979" lon="5.91794">
        <ele>1690.716703118</ele>
        <time>2016-08-19T13:41:22Z</time>
      </trkpt>
      <trkpt lat="45.4498" lon="5.91794">
        <ele>1690.716703118</ele>
        <time>2016-08-19T13:41:26Z</time>
      </trkpt>
      <trkpt lat="45.4498" lon="5.91794">
        <ele>1690.716703118</ele>
        <time>2016-08-19T13:41:36Z</time>
      </trkpt>
      <trkpt lat="45.4498" lon="5.91794">
        <ele>1689.115276187</ele>
        <time>2016-08-19T13:41:40Z</time>
      </trkpt>
      <trkpt lat="45.44994" lon="5.91754">
        <ele>1687.513849256</ele>
        <time>2016-08-19T13:42:11Z</time>
      </trkpt>
      <trkpt lat="45.4501" lon="5.91748">
        <ele>1683.940382605</ele>
        <time>2016-08-19T13:42:26Z</time>
      </trkpt>
      <trkpt lat="45.45013" lon="5.91744">
        <ele>1683.940382605</ele>
        <time>2016-08-19T13:42:31Z</time>
      </trkpt>
      <trkpt lat="45.45015" lon="5.91744">
        <ele>1683.940382605</ele>
        <time>2016-08-19T13:42:41Z</time>
      </trkpt>
      <trkpt lat="45.45015" lon="5.91744">
        <ele>1683.940382605</ele>
        <time>2016-08-19T13:42:46Z</time>
      </trkpt>
      <trkpt lat="45.45015" lon="5.91744">
        <ele>1683.940382605</ele>
        <time>2016-08-19T13:42:56Z</time>
      </trkpt>
      <trkpt lat="45.45015" lon="5.91744">
        <ele>1683.940382605</ele>
        <time>2016-08-19T13:43:01Z</time>
      </trkpt>
      <trkpt lat="45.45012" lon="5.91745">
        <ele>1679.592445719</ele>
        <time>2016-08-19T13:43:11Z</time>
      </trkpt>
      <trkpt lat="45.45009" lon="5.91745">
        <ele>1679.592445719</ele>
        <time>2016-08-19T13:43:16Z</time>
      </trkpt>
      <trkpt lat="45.45001" lon="5.91736">
        <ele>1675.827485163</ele>
        <time>2016-08-19T13:43:26Z</time>
      </trkpt>
      <trkpt lat="45.45001" lon="5.91738">
        <ele>1675.827485163</ele>
        <time>2016-08-19T13:43:31Z</time>
      </trkpt>
      <trkpt lat="45.44998" lon="5.91731">
        <ele>1675.827485163</ele>
        <time>2016-08-19T13:43:41Z</time>
      </trkpt>
      <trkpt lat="45.44993" lon="5.91726">
        <ele>1672.027704529</ele>
        <time>2016-08-19T13:43:46Z</time>
      </trkpt>
      <trkpt lat="45.44989" lon="5.9172">
        <ele>1672.027704529</ele>
        <time>2016-08-19T13:43:56Z</time>
      </trkpt>
      <trkpt lat="45.44986" lon="5.91718">
        <ele>1668.773713134</ele>
        <time>2016-08-19T13:44:01Z</time>
      </trkpt>
      <trkpt lat="45.4498" lon="5.91714">
        <ele>1668.773713134</ele>
        <time>2016-08-19T13:44:16Z</time>
      </trkpt>
      <trkpt lat="45.44983" lon="5.91713">
        <ele>1665.160583347</ele>
        <time>2016-08-19T13:44:21Z</time>
      </trkpt>
      <trkpt lat="45.4498" lon="5.9171">
        <ele>1665.160583347</ele>
        <time>2016-08-19T13:44:31Z</time>
      </trkpt>
      <trkpt lat="45.44979" lon="5.91711">
        <ele>1665.160583347</ele>
        <time>2016-08-19T13:44:36Z</time>
      </trkpt>
      <trkpt lat="45.44979" lon="5.91708">
        <ele>1665.160583347</ele>
        <time>2016-08-19T13:44:46Z</time>
      </trkpt>
      <trkpt lat="45.44978" lon="5.91707">
        <ele>1665.160583347</ele>
        <time>2016-08-19T13:44:51Z</time>
      </trkpt>
      <trkpt lat="45.4498" lon="5.91703">
        <ele>1661.215531137</ele>
        <time>2016-08-19T13:45:01Z</time>
      </trkpt>
      <trkpt lat="45.4498" lon="5.91698">
        <ele>1661.215531137</ele>
        <time>2016-08-19T13:45:06Z</time>
      </trkpt>
      <trkpt lat="45.44981" lon="5.91693">
        <ele>1661.215531137</ele>
        <time>2016-08-19T13:45:16Z</time>
      </trkpt>
      <trkpt lat="45.44979" lon="5.91689">
        <ele>1657.252831362</ele>
        <time>2016-08-19T13:45:21Z</time>
      </trkpt>
      <trkpt lat="45.44979" lon="5.91684">
        <ele>1657.252831362</ele>
        <time>2016-08-19T13:45:31Z</time>
      </trkpt>
      <trkpt lat="45.44984" lon="5.91683">
        <ele>1657.252831362</ele>
        <time>2016-08-19T13:45:36Z</time>
      </trkpt>
      <trkpt lat="45.44976" lon="5.91672">
        <ele>1652.554801691</ele>
        <time>2016-08-19T13:45:51Z</time>
      </trkpt>
      <trkpt lat="45.44975" lon="5.91672">
        <ele>1652.554801691</ele>
        <time>2016-08-19T13:45:56Z</time>
      </trkpt>
      <trkpt lat="45.44978" lon="5.91665">
        <ele>1652.554801691</ele>
        <time>2016-08-19T13:46:06Z</time>
      </trkpt>
      <trkpt lat="45.44979" lon="5.91661">
        <ele>1647.75549453</ele>
        <time>2016-08-19T13:46:11Z</time>
      </trkpt>
      <trkpt lat="45.44977" lon="5.91659">
        <ele>1647.75549453</ele>
        <time>2016-08-19T13:46:21Z</time>
      </trkpt>
      <trkpt lat="45.4498" lon="5.91655">
        <ele>1647.75549453</ele>
        <time>2016-08-19T13:46:26Z</time>
      </trkpt>
      <trkpt lat="45.44983" lon="5.91654">
        <ele>1642.289642575</ele>
        <time>2016-08-19T13:46:36Z</time>
      </trkpt>
      <trkpt lat="45.44986" lon="5.91656">
        <ele>1642.289642575</ele>
        <time>2016-08-19T13:46:41Z</time>
      </trkpt>
      <trkpt lat="45.44993" lon="5.91648">
        <ele>1636.21172755</ele>
        <time>2016-08-19T13:46:51Z</time>
      </trkpt>
      <trkpt lat="45.4499" lon="5.91645">
        <ele>1636.21172755</ele>
        <time>2016-08-19T13:46:56Z</time>
      </trkpt>
      <trkpt lat="45.44984" lon="5.91639">
        <ele>1630.294392816</ele>
        <time>2016-08-19T13:47:06Z</time>
      </trkpt>
      <trkpt lat="45.4498" lon="5.91636">
        <ele>1630.294392816</ele>
        <time>2016-08-19T13:47:11Z</time>
      </trkpt>
      <trkpt lat="45.44971" lon="5.91626">
        <ele>1624.820608115</ele>
        <time>2016-08-19T13:47:26Z</time>
      </trkpt>
      <trkpt lat="45.44973" lon="5.91621">
        <ele>1624.820608115</ele>
        <time>2016-08-19T13:47:31Z</time>
      </trkpt>
      <trkpt lat="45.44977" lon="5.91613">
        <ele>1619.762958333</ele>
        <time>2016-08-19T13:47:41Z</time>
      </trkpt>
      <trkpt lat="45.44978" lon="5.91611">
        <ele>1619.762958333</ele>
        <time>2016-08-19T13:47:46Z</time>
      </trkpt>
      <trkpt lat="45.44985" lon="5.91604">
        <ele>1614.518290124</ele>
        <time>2016-08-19T13:47:56Z</time>
      </trkpt>
      <trkpt lat="45.44988" lon="5.91599">
        <ele>1614.518290124</ele>
        <time>2016-08-19T13:48:01Z</time>
      </trkpt>
      <trkpt lat="45.44994" lon="5.91593">
        <ele>1609.392818132</ele>
        <time>2016-08-19T13:48:11Z</time>
      </trkpt>
      <trkpt lat="45.44997" lon="5.9159">
        <ele>1609.392818132</ele>
        <time>2016-08-19T13:48:16Z</time>
      </trkpt>
      <trkpt lat="45.45" lon="5.91583">
        <ele>1609.392818132</ele>
        <time>2016-08-19T13:48:26Z</time>
      </trkpt>
      <trkpt lat="45.45003" lon="5.9158">
        <ele>1604.237448678</ele>
        <time>2016-08-19T13:48:31Z</time>
      </trkpt>
      <trkpt lat="45.45001" lon="5.91572">
        <ele>1604.237448678</ele>
        <time>2016-08-19T13:48:41Z</time>
      </trkpt>
      <trkpt lat="45.45003" lon="5.91571">
        <ele>1604.237448678</ele>
        <time>2016-08-19T13:48:46Z</time>
      </trkpt>
      <trkpt lat="45.45007" lon="5.91564">
        <ele>1598.049300159</ele>
        <time>2016-08-19T13:48:56Z</time>
      </trkpt>
      <trkpt lat="45.45007" lon="5.91559">
        <ele>1598.049300159</ele>
        <time>2016-08-19T13:49:01Z</time>
      </trkpt>
      <trkpt lat="45.45007" lon="5.91545">
        <ele>1591.919495087</ele>
        <time>2016-08-19T13:49:16Z</time>
      </trkpt>
      <trkpt lat="45.45008" lon="5.91538">
        <ele>1591.919495087</ele>
        <time>2016-08-19T13:49:21Z</time>
      </trkpt>
      <trkpt lat="45.45011" lon="5.91533">
        <ele>1585.849896211</ele>
        <time>2016-08-19T13:49:31Z</time>
      </trkpt>
      <trkpt lat="45.45014" lon="5.91528">
        <ele>1585.849896211</ele>
        <time>2016-08-19T13:49:36Z</time>
      </trkpt>
      <trkpt lat="45.45014" lon="5.91527">
        <ele>1585.849896211</ele>
        <time>2016-08-19T13:49:46Z</time>
      </trkpt>
      <trkpt lat="45.45015" lon="5.91527">
        <ele>1585.849896211</ele>
        <time>2016-08-19T13:49:51Z</time>
      </trkpt>
      <trkpt lat="45.45015" lon="5.91527">
        <ele>1585.849896211</ele>
        <time>2016-08-19T13:49:55Z</time>
      </trkpt>
      <trkpt lat="45.45015" lon="5.91527">
        <ele>1585.849896211</ele>
        <time>2016-08-19T13:50:00Z</time>
      </trkpt>
      <trkpt lat="45.45015" lon="5.91527">
        <ele>1585.849896211</ele>
        <time>2016-08-19T13:50:05Z</time>
      </trkpt>
      <trkpt lat="45.45016" lon="5.91525">
        <ele>1585.849896211</ele>
        <time>2016-08-19T13:50:10Z</time>
      </trkpt>
      <trkpt lat="45.45018" lon="5.91515">
        <ele>1579.121331669</ele>
        <time>2016-08-19T13:50:21Z</time>
      </trkpt>
      <trkpt lat="45.45019" lon="5.91508">
        <ele>1579.121331669</ele>
        <time>2016-08-19T13:50:26Z</time>
      </trkpt>
      <trkpt lat="45.45025" lon="5.91504">
        <ele>1572.222051897</ele>
        <time>2016-08-19T13:50:36Z</time>
      </trkpt>
      <trkpt lat="45.45028" lon="5.91499">
        <ele>1572.222051897</ele>
        <time>2016-08-19T13:50:41Z</time>
      </trkpt>
      <trkpt lat="45.45034" lon="5.91488">
        <ele>1566.325320063</ele>
        <time>2016-08-19T13:50:51Z</time>
      </trkpt>
      <trkpt lat="45.45032" lon="5.91486">
        <ele>1566.325320063</ele>
        <time>2016-08-19T13:50:56Z</time>
      </trkpt>
      <trkpt lat="45.45037" lon="5.91478">
        <ele>1560.929963195</ele>
        <time>2016-08-19T13:51:06Z</time>
      </trkpt>
      <trkpt lat="45.45039" lon="5.91478">
        <ele>1560.929963195</ele>
        <time>2016-08-19T13:51:11Z</time>
      </trkpt>
      <trkpt lat="45.4504" lon="5.91476">
        <ele>1560.929963195</ele>
        <time>2016-08-19T13:51:21Z</time>
      </trkpt>
      <trkpt lat="45.45041" lon="5.91472">
        <ele>1560.929963195</ele>
        <time>2016-08-19T13:51:26Z</time>
      </trkpt>
      <trkpt lat="45.45041" lon="5.91465">
        <ele>1555.714149493</ele>
        <time>2016-08-19T13:51:36Z</time>
      </trkpt>
      <trkpt lat="45.45041" lon="5.91463">
        <ele>1555.714149493</ele>
        <time>2016-08-19T13:51:41Z</time>
      </trkpt>
      <trkpt lat="45.45042" lon="5.91461">
        <ele>1555.714149493</ele>
        <time>2016-08-19T13:51:51Z</time>
      </trkpt>
      <trkpt lat="45.45043" lon="5.91459">
        <ele>1555.714149493</ele>
        <time>2016-08-19T13:51:56Z</time>
      </trkpt>
      <trkpt lat="45.45054" lon="5.91445">
        <ele>1550.090774606</ele>
        <time>2016-08-19T13:52:11Z</time>
      </trkpt>
      <trkpt lat="45.45053" lon="5.91437">
        <ele>1550.090774606</ele>
        <time>2016-08-19T13:52:16Z</time>
      </trkpt>
      <trkpt lat="45.45057" lon="5.91426">
        <ele>1544.237403279</ele>
        <time>2016-08-19T13:52:26Z</time>
      </trkpt>
      <trkpt lat="45.45059" lon="5.91425">
        <ele>1544.237403279</ele>
        <time>2016-08-19T13:52:31Z</time>
      </trkpt>
      <trkpt lat="45.45059" lon="5.91424">
        <ele>1544.237403279</ele>
        <time>2016-08-19T13:52:41Z</time>
      </trkpt>
      <trkpt lat="45.45059" lon="5.91422">
        <ele>1544.237403279</ele>
        <time>2016-08-19T13:52:46Z</time>
      </trkpt>
      <trkpt lat="45.45061" lon="5.9141">
        <ele>1537.598452561</ele>
        <time>2016-08-19T13:52:56Z</time>
      </trkpt>
      <trkpt lat="45.45061" lon="5.91409">
        <ele>1537.598452561</ele>
        <time>2016-08-19T13:53:01Z</time>
      </trkpt>
      <trkpt lat="45.45069" lon="5.91403">
        <ele>1531.390561411</ele>
        <time>2016-08-19T13:53:11Z</time>
      </trkpt>
      <trkpt lat="45.45074" lon="5.91401">
        <ele>1531.390561411</ele>
        <time>2016-08-19T13:53:16Z</time>
      </trkpt>
      <trkpt lat="45.45081" lon="5.91394">
        <ele>1525.298460476</ele>
        <time>2016-08-19T13:53:26Z</time>
      </trkpt>
      <trkpt lat="45.45081" lon="5.91391">
        <ele>1525.298460476</ele>
        <time>2016-08-19T13:53:31Z</time>
      </trkpt>
      <trkpt lat="45.45082" lon="5.91383">
        <ele>1525.298460476</ele>
        <time>2016-08-19T13:53:41Z</time>
      </trkpt>
      <trkpt lat="45.45082" lon="5.91377">
        <ele>1518.597195635</ele>
        <time>2016-08-19T13:53:46Z</time>
      </trkpt>
      <trkpt lat="45.45084" lon="5.91374">
        <ele>1518.597195635</ele>
        <time>2016-08-19T13:53:56Z</time>
      </trkpt>
      <trkpt lat="45.45092" lon="5.91368">
        <ele>1511.769517405</ele>
        <time>2016-08-19T13:54:01Z</time>
      </trkpt>
      <trkpt lat="45.45098" lon="5.91357">
        <ele>1505.55111553</ele>
        <time>2016-08-19T13:54:11Z</time>
      </trkpt>
      <trkpt lat="45.45099" lon="5.91352">
        <ele>1505.55111553</ele>
        <time>2016-08-19T13:54:16Z</time>
      </trkpt>
      <trkpt lat="45.45103" lon="5.9134">
        <ele>1498.748257224</ele>
        <time>2016-08-19T13:54:26Z</time>
      </trkpt>
      <trkpt lat="45.45107" lon="5.91335">
        <ele>1498.748257224</ele>
        <time>2016-08-19T13:54:31Z</time>
      </trkpt>
      <trkpt lat="45.45115" lon="5.91332">
        <ele>1493.138646272</ele>
        <time>2016-08-19T13:54:41Z</time>
      </trkpt>
      <trkpt lat="45.45121" lon="5.91328">
        <ele>1493.138646272</ele>
        <time>2016-08-19T13:54:46Z</time>
      </trkpt>
      <trkpt lat="45.45134" lon="5.91328">
        <ele>1488.49238266</ele>
        <time>2016-08-19T13:54:56Z</time>
      </trkpt>
      <trkpt lat="45.45139" lon="5.91328">
        <ele>1488.49238266</ele>
        <time>2016-08-19T13:55:01Z</time>
      </trkpt>
      <trkpt lat="45.45149" lon="5.91327">
        <ele>1483.873015951</ele>
        <time>2016-08-19T13:55:11Z</time>
      </trkpt>
      <trkpt lat="45.45153" lon="5.91325">
        <ele>1483.873015951</ele>
        <time>2016-08-19T13:55:16Z</time>
      </trkpt>
      <trkpt lat="45.45158" lon="5.91314">
        <ele>1478.989112067</ele>
        <time>2016-08-19T13:55:31Z</time>
      </trkpt>
      <trkpt lat="45.45159" lon="5.91312">
        <ele>1478.989112067</ele>
        <time>2016-08-19T13:55:36Z</time>
      </trkpt>
      <trkpt lat="45.45164" lon="5.91311">
        <ele>1478.989112067</ele>
        <time>2016-08-19T13:55:47Z</time>
      </trkpt>
      <trkpt lat="45.45165" lon="5.9131">
        <ele>1478.989112067</ele>
        <time>2016-08-19T13:55:51Z</time>
      </trkpt>
      <trkpt lat="45.45173" lon="5.91311">
        <ele>1474.003583846</ele>
        <time>2016-08-19T13:56:01Z</time>
      </trkpt>
      <trkpt lat="45.45179" lon="5.91311">
        <ele>1474.003583846</ele>
        <time>2016-08-19T13:56:06Z</time>
      </trkpt>
      <trkpt lat="45.45182" lon="5.9131">
        <ele>1469.067529213</ele>
        <time>2016-08-19T13:56:16Z</time>
      </trkpt>
      <trkpt lat="45.45183" lon="5.91309">
        <ele>1469.067529213</ele>
        <time>2016-08-19T13:56:21Z</time>
      </trkpt>
      <trkpt lat="45.4519" lon="5.91304">
        <ele>1469.067529213</ele>
        <time>2016-08-19T13:56:31Z</time>
      </trkpt>
      <trkpt lat="45.45193" lon="5.91302">
        <ele>1464.320687989</ele>
        <time>2016-08-19T13:56:36Z</time>
      </trkpt>
      <trkpt lat="45.45202" lon="5.91304">
        <ele>1464.320687989</ele>
        <time>2016-08-19T13:56:46Z</time>
      </trkpt>
      <trkpt lat="45.45205" lon="5.91308">
        <ele>1459.17133243</ele>
        <time>2016-08-19T13:56:51Z</time>
      </trkpt>
      <trkpt lat="45.45215" lon="5.91299">
        <ele>1453.936912129</ele>
        <time>2016-08-19T13:57:01Z</time>
      </trkpt>
      <trkpt lat="45.45218" lon="5.91295">
        <ele>1453.936912129</ele>
        <time>2016-08-19T13:57:06Z</time>
      </trkpt>
      <trkpt lat="45.45221" lon="5.91284">
        <ele>1448.623481202</ele>
        <time>2016-08-19T13:57:16Z</time>
      </trkpt>
      <trkpt lat="45.4522" lon="5.91279">
        <ele>1448.623481202</ele>
        <time>2016-08-19T13:57:20Z</time>
      </trkpt>
      <trkpt lat="45.45219" lon="5.91274">
        <ele>1448.623481202</ele>
        <time>2016-08-19T13:57:25Z</time>
      </trkpt>
      <trkpt lat="45.45216" lon="5.91266">
        <ele>1442.660340627</ele>
        <time>2016-08-19T13:57:30Z</time>
      </trkpt>
      <trkpt lat="45.45214" lon="5.91258">
        <ele>1442.660340627</ele>
        <time>2016-08-19T13:57:36Z</time>
      </trkpt>
      <trkpt lat="45.45212" lon="5.91245">
        <ele>1436.817470635</ele>
        <time>2016-08-19T13:57:46Z</time>
      </trkpt>
      <trkpt lat="45.45211" lon="5.91236">
        <ele>1436.817470635</ele>
        <time>2016-08-19T13:57:51Z</time>
      </trkpt>
      <trkpt lat="45.45206" lon="5.91222">
        <ele>1431.95198921</ele>
        <time>2016-08-19T13:58:01Z</time>
      </trkpt>
      <trkpt lat="45.45201" lon="5.91215">
        <ele>1431.95198921</ele>
        <time>2016-08-19T13:58:05Z</time>
      </trkpt>
      <trkpt lat="45.45195" lon="5.91202">
        <ele>1427.270011339</ele>
        <time>2016-08-19T13:58:16Z</time>
      </trkpt>
      <trkpt lat="45.45194" lon="5.91195">
        <ele>1427.270011339</ele>
        <time>2016-08-19T13:58:21Z</time>
      </trkpt>
      <trkpt lat="45.45189" lon="5.91182">
        <ele>1422.611845351</ele>
        <time>2016-08-19T13:58:31Z</time>
      </trkpt>
      <trkpt lat="45.45187" lon="5.91175">
        <ele>1422.611845351</ele>
        <time>2016-08-19T13:58:35Z</time>
      </trkpt>
      <trkpt lat="45.45179" lon="5.91161">
        <ele>1417.397078188</ele>
        <time>2016-08-19T13:58:46Z</time>
      </trkpt>
      <trkpt lat="45.45177" lon="5.91158">
        <ele>1417.397078188</ele>
        <time>2016-08-19T13:58:51Z</time>
      </trkpt>
      <trkpt lat="45.45171" lon="5.91147">
        <ele>1412.386457083</ele>
        <time>2016-08-19T13:59:01Z</time>
      </trkpt>
      <trkpt lat="45.45168" lon="5.91139">
        <ele>1412.386457083</ele>
        <time>2016-08-19T13:59:06Z</time>
      </trkpt>
      <trkpt lat="45.45157" lon="5.91114">
        <ele>1407.851903147</ele>
        <time>2016-08-19T13:59:21Z</time>
      </trkpt>
      <trkpt lat="45.45153" lon="5.91108">
        <ele>1407.851903147</ele>
        <time>2016-08-19T13:59:26Z</time>
      </trkpt>
      <trkpt lat="45.45153" lon="5.91106">
        <ele>1407.851903147</ele>
        <time>2016-08-19T13:59:35Z</time>
      </trkpt>
      <trkpt lat="45.45152" lon="5.91103">
        <ele>1403.323444125</ele>
        <time>2016-08-19T13:59:41Z</time>
      </trkpt>
      <trkpt lat="45.45147" lon="5.91086">
        <ele>1399.374377925</ele>
        <time>2016-08-19T13:59:51Z</time>
      </trkpt>
      <trkpt lat="45.45142" lon="5.9108">
        <ele>1399.374377925</ele>
        <time>2016-08-19T13:59:56Z</time>
      </trkpt>
      <trkpt lat="45.45134" lon="5.91075">
        <ele>1394.660808633</ele>
        <time>2016-08-19T14:00:06Z</time>
      </trkpt>
      <trkpt lat="45.45135" lon="5.91069">
        <ele>1394.660808633</ele>
        <time>2016-08-19T14:00:11Z</time>
      </trkpt>
      <trkpt lat="45.45128" lon="5.91049">
        <ele>1390.389601942</ele>
        <time>2016-08-19T14:00:21Z</time>
      </trkpt>
      <trkpt lat="45.45121" lon="5.91042">
        <ele>1390.389601942</ele>
        <time>2016-08-19T14:00:27Z</time>
      </trkpt>
      <trkpt lat="45.45121" lon="5.91032">
        <ele>1386.380737973</ele>
        <time>2016-08-19T14:00:36Z</time>
      </trkpt>
      <trkpt lat="45.45118" lon="5.91026">
        <ele>1386.380737973</ele>
        <time>2016-08-19T14:00:41Z</time>
      </trkpt>
      <trkpt lat="45.45115" lon="5.91016">
        <ele>1382.322596468</ele>
        <time>2016-08-19T14:00:51Z</time>
      </trkpt>
      <trkpt lat="45.45109" lon="5.91007">
        <ele>1382.322596468</ele>
        <time>2016-08-19T14:00:56Z</time>
      </trkpt>
      <trkpt lat="45.45104" lon="5.90994">
        <ele>1378.214840908</ele>
        <time>2016-08-19T14:01:06Z</time>
      </trkpt>
      <trkpt lat="45.45103" lon="5.9099">
        <ele>1378.214840908</ele>
        <time>2016-08-19T14:01:11Z</time>
      </trkpt>
      <trkpt lat="45.45091" lon="5.9098">
        <ele>1374.057339347</ele>
        <time>2016-08-19T14:01:21Z</time>
      </trkpt>
      <trkpt lat="45.45088" lon="5.90978">
        <ele>1374.057339347</ele>
        <time>2016-08-19T14:01:26Z</time>
      </trkpt>
      <trkpt lat="45.45084" lon="5.90974">
        <ele>1374.057339347</ele>
        <time>2016-08-19T14:01:36Z</time>
      </trkpt>
      <trkpt lat="45.45073" lon="5.9097">
        <ele>1369.129600802</ele>
        <time>2016-08-19T14:01:41Z</time>
      </trkpt>
      <trkpt lat="45.45056" lon="5.90959">
        <ele>1364.063275301</ele>
        <time>2016-08-19T14:01:56Z</time>
      </trkpt>
      <trkpt lat="45.45058" lon="5.9096">
        <ele>1364.063275301</ele>
        <time>2016-08-19T14:02:00Z</time>
      </trkpt>
      <trkpt lat="45.45058" lon="5.9096">
        <ele>1364.063275301</ele>
        <time>2016-08-19T14:02:05Z</time>
      </trkpt>
      <trkpt lat="45.45058" lon="5.9096">
        <ele>1364.063275301</ele>
        <time>2016-08-19T14:02:11Z</time>
      </trkpt>
      <trkpt lat="45.45043" lon="5.90951">
        <ele>1358.723499455</ele>
        <time>2016-08-19T14:02:26Z</time>
      </trkpt>
      <trkpt lat="45.45036" lon="5.90951">
        <ele>1358.723499455</ele>
        <time>2016-08-19T14:02:31Z</time>
      </trkpt>
      <trkpt lat="45.45023" lon="5.90947">
        <ele>1353.850805904</ele>
        <time>2016-08-19T14:02:41Z</time>
      </trkpt>
      <trkpt lat="45.45016" lon="5.90945">
        <ele>1353.850805904</ele>
        <time>2016-08-19T14:02:46Z</time>
      </trkpt>
      <trkpt lat="45.45009" lon="5.90951">
        <ele>1348.977181546</ele>
        <time>2016-08-19T14:02:56Z</time>
      </trkpt>
      <trkpt lat="45.45005" lon="5.90952">
        <ele>1348.977181546</ele>
        <time>2016-08-19T14:03:01Z</time>
      </trkpt>
      <trkpt lat="45.44997" lon="5.9095">
        <ele>1344.389604687</ele>
        <time>2016-08-19T14:03:11Z</time>
      </trkpt>
      <trkpt lat="45.44992" lon="5.9095">
        <ele>1344.389604687</ele>
        <time>2016-08-19T14:03:16Z</time>
      </trkpt>
      <trkpt lat="45.44973" lon="5.90939">
        <ele>1339.632666411</ele>
        <time>2016-08-19T14:03:26Z</time>
      </trkpt>
      <trkpt lat="45.44972" lon="5.90946">
        <ele>1339.632666411</ele>
        <time>2016-08-19T14:03:31Z</time>
      </trkpt>
      <trkpt lat="45.44968" lon="5.90947">
        <ele>1339.632666411</ele>
        <time>2016-08-19T14:03:41Z</time>
      </trkpt>
      <trkpt lat="45.44968" lon="5.90948">
        <ele>1334.140827791</ele>
        <time>2016-08-19T14:03:46Z</time>
      </trkpt>
      <trkpt lat="45.44957" lon="5.90946">
        <ele>1329.265653632</ele>
        <time>2016-08-19T14:03:56Z</time>
      </trkpt>
      <trkpt lat="45.44956" lon="5.90943">
        <ele>1329.265653632</ele>
        <time>2016-08-19T14:04:01Z</time>
      </trkpt>
      <trkpt lat="45.44947" lon="5.90946">
        <ele>1324.672521126</ele>
        <time>2016-08-19T14:04:11Z</time>
      </trkpt>
      <trkpt lat="45.44944" lon="5.90943">
        <ele>1324.672521126</ele>
        <time>2016-08-19T14:04:16Z</time>
      </trkpt>
      <trkpt lat="45.44941" lon="5.90939">
        <ele>1324.672521126</ele>
        <time>2016-08-19T14:04:26Z</time>
      </trkpt>
      <trkpt lat="45.44941" lon="5.90939">
        <ele>1324.672521126</ele>
        <time>2016-08-19T14:04:30Z</time>
      </trkpt>
      <trkpt lat="45.44917" lon="5.9093">
        <ele>1320.194759258</ele>
        <time>2016-08-19T14:04:41Z</time>
      </trkpt>
      <trkpt lat="45.44907" lon="5.90929">
        <ele>1315.677667708</ele>
        <time>2016-08-19T14:04:46Z</time>
      </trkpt>
      <trkpt lat="45.44896" lon="5.90922">
        <ele>1311.55451885</ele>
        <time>2016-08-19T14:04:56Z</time>
      </trkpt>
      <trkpt lat="45.44886" lon="5.90913">
        <ele>1307.505151956</ele>
        <time>2016-08-19T14:05:01Z</time>
      </trkpt>
      <trkpt lat="45.44873" lon="5.90905">
        <ele>1303.665112333</ele>
        <time>2016-08-19T14:05:16Z</time>
      </trkpt>
      <trkpt lat="45.44863" lon="5.90897">
        <ele>1300.447689753</ele>
        <time>2016-08-19T14:05:21Z</time>
      </trkpt>
      <trkpt lat="45.44855" lon="5.90891">
        <ele>1297.081250368</ele>
        <time>2016-08-19T14:05:30Z</time>
      </trkpt>
      <trkpt lat="45.44848" lon="5.90889">
        <ele>1297.081250368</ele>
        <time>2016-08-19T14:05:35Z</time>
      </trkpt>
      <trkpt lat="45.44844" lon="5.90892">
        <ele>1293.860122181</ele>
        <time>2016-08-19T14:05:40Z</time>
      </trkpt>
      <trkpt lat="45.44837" lon="5.90889">
        <ele>1293.860122181</ele>
        <time>2016-08-19T14:05:46Z</time>
      </trkpt>
      <trkpt lat="45.44828" lon="5.90886">
        <ele>1290.624360299</ele>
        <time>2016-08-19T14:05:50Z</time>
      </trkpt>
      <trkpt lat="45.44824" lon="5.9088">
        <ele>1290.624360299</ele>
        <time>2016-08-19T14:05:56Z</time>
      </trkpt>
      <trkpt lat="45.44823" lon="5.90877">
        <ele>1290.624360299</ele>
        <time>2016-08-19T14:06:00Z</time>
      </trkpt>
      <trkpt lat="45.44825" lon="5.90879">
        <ele>1287.802354221</ele>
        <time>2016-08-19T14:06:05Z</time>
      </trkpt>
      <trkpt lat="45.44821" lon="5.90882">
        <ele>1287.802354221</ele>
        <time>2016-08-19T14:06:11Z</time>
      </trkpt>
      <trkpt lat="45.44808" lon="5.90884">
        <ele>1284.781192014</ele>
        <time>2016-08-19T14:06:21Z</time>
      </trkpt>
      <trkpt lat="45.44805" lon="5.90888">
        <ele>1284.781192014</ele>
        <time>2016-08-19T14:06:25Z</time>
      </trkpt>
      <trkpt lat="45.44794" lon="5.90874">
        <ele>1281.425993331</ele>
        <time>2016-08-19T14:06:35Z</time>
      </trkpt>
      <trkpt lat="45.44787" lon="5.9087">
        <ele>1281.425993331</ele>
        <time>2016-08-19T14:06:40Z</time>
      </trkpt>
      <trkpt lat="45.44776" lon="5.90853">
        <ele>1277.901066903</ele>
        <time>2016-08-19T14:06:50Z</time>
      </trkpt>
      <trkpt lat="45.44773" lon="5.90857">
        <ele>1277.901066903</ele>
        <time>2016-08-19T14:06:55Z</time>
      </trkpt>
      <trkpt lat="45.44761" lon="5.90849">
        <ele>1274.071030602</ele>
        <time>2016-08-19T14:07:10Z</time>
      </trkpt>
      <trkpt lat="45.4476" lon="5.90845">
        <ele>1274.071030602</ele>
        <time>2016-08-19T14:07:15Z</time>
      </trkpt>
      <trkpt lat="45.44756" lon="5.9082">
        <ele>1270.099652873</ele>
        <time>2016-08-19T14:07:25Z</time>
      </trkpt>
      <trkpt lat="45.44754" lon="5.90816">
        <ele>1270.099652873</ele>
        <time>2016-08-19T14:07:30Z</time>
      </trkpt>
      <trkpt lat="45.44753" lon="5.90807">
        <ele>1265.850971941</ele>
        <time>2016-08-19T14:07:35Z</time>
      </trkpt>
      <trkpt lat="45.44751" lon="5.908">
        <ele>1265.850971941</ele>
        <time>2016-08-19T14:07:40Z</time>
      </trkpt>
      <trkpt lat="45.44749" lon="5.90791">
        <ele>1261.488137124</ele>
        <time>2016-08-19T14:07:45Z</time>
      </trkpt>
      <trkpt lat="45.44749" lon="5.90783">
        <ele>1261.488137124</ele>
        <time>2016-08-19T14:07:50Z</time>
      </trkpt>
      <trkpt lat="45.44743" lon="5.90775">
        <ele>1257.450974551</ele>
        <time>2016-08-19T14:07:55Z</time>
      </trkpt>
      <trkpt lat="45.44741" lon="5.90765">
        <ele>1257.450974551</ele>
        <time>2016-08-19T14:08:00Z</time>
      </trkpt>
      <trkpt lat="45.44737" lon="5.90756">
        <ele>1253.569757199</ele>
        <time>2016-08-19T14:08:05Z</time>
      </trkpt>
      <trkpt lat="45.44735" lon="5.90747">
        <ele>1253.569757199</ele>
        <time>2016-08-19T14:08:15Z</time>
      </trkpt>
      <trkpt lat="45.44735" lon="5.90747">
        <ele>1253.569757199</ele>
        <time>2016-08-19T14:08:20Z</time>
      </trkpt>
      <trkpt lat="45.44735" lon="5.90746">
        <ele>1253.569757199</ele>
        <time>2016-08-19T14:08:30Z</time>
      </trkpt>
      <trkpt lat="45.44735" lon="5.90746">
        <ele>1253.569757199</ele>
        <time>2016-08-19T14:08:35Z</time>
      </trkpt>
      <trkpt lat="45.44736" lon="5.90741">
        <ele>1249.254564912</ele>
        <time>2016-08-19T14:08:40Z</time>
      </trkpt>
      <trkpt lat="45.44736" lon="5.90735">
        <ele>1249.254564912</ele>
        <time>2016-08-19T14:08:45Z</time>
      </trkpt>
      <trkpt lat="45.44737" lon="5.90722">
        <ele>1245.40124826</ele>
        <time>2016-08-19T14:08:55Z</time>
      </trkpt>
      <trkpt lat="45.44738" lon="5.90717">
        <ele>1245.40124826</ele>
        <time>2016-08-19T14:09:00Z</time>
      </trkpt>
      <trkpt lat="45.44741" lon="5.90695">
        <ele>1241.685766859</ele>
        <time>2016-08-19T14:09:10Z</time>
      </trkpt>
      <trkpt lat="45.44741" lon="5.9069">
        <ele>1241.685766859</ele>
        <time>2016-08-19T14:09:15Z</time>
      </trkpt>
      <trkpt lat="45.44742" lon="5.9069">
        <ele>1241.685766859</ele>
        <time>2016-08-19T14:09:20Z</time>
      </trkpt>
      <trkpt lat="45.44742" lon="5.9069">
        <ele>1241.685766859</ele>
        <time>2016-08-19T14:09:30Z</time>
      </trkpt>
      <trkpt lat="45.44741" lon="5.9069">
        <ele>1241.685766859</ele>
        <time>2016-08-19T14:09:35Z</time>
      </trkpt>
      <trkpt lat="45.44741" lon="5.9069">
        <ele>1241.685766859</ele>
        <time>2016-08-19T14:09:45Z</time>
      </trkpt>
      <trkpt lat="45.44741" lon="5.9069">
        <ele>1241.685766859</ele>
        <time>2016-08-19T14:09:50Z</time>
      </trkpt>
      <trkpt lat="45.44741" lon="5.9069">
        <ele>1241.685766859</ele>
        <time>2016-08-19T14:10:00Z</time>
      </trkpt>
      <trkpt lat="45.44743" lon="5.90692">
        <ele>1241.685766859</ele>
        <time>2016-08-19T14:10:05Z</time>
      </trkpt>
      <trkpt lat="45.44741" lon="5.90687">
        <ele>1238.095820442</ele>
        <time>2016-08-19T14:10:15Z</time>
      </trkpt>
      <trkpt lat="45.44741" lon="5.90687">
        <ele>1238.095820442</ele>
        <time>2016-08-19T14:10:20Z</time>
      </trkpt>
      <trkpt lat="45.44741" lon="5.90687">
        <ele>1238.095820442</ele>
        <time>2016-08-19T14:10:30Z</time>
      </trkpt>
      <trkpt lat="45.44741" lon="5.90687">
        <ele>1238.095820442</ele>
        <time>2016-08-19T14:10:35Z</time>
      </trkpt>
      <trkpt lat="45.44741" lon="5.90687">
        <ele>1238.095820442</ele>
        <time>2016-08-19T14:10:40Z</time>
      </trkpt>
      <trkpt lat="45.44742" lon="5.90684">
        <ele>1238.095820442</ele>
        <time>2016-08-19T14:10:45Z</time>
      </trkpt>
      <trkpt lat="45.44743" lon="5.90677">
        <ele>1238.095820442</ele>
        <time>2016-08-19T14:10:50Z</time>
      </trkpt>
      <trkpt lat="45.44741" lon="5.90658">
        <ele>1234.187424826</ele>
        <time>2016-08-19T14:11:00Z</time>
      </trkpt>
      <trkpt lat="45.44744" lon="5.9065">
        <ele>1234.187424826</ele>
        <time>2016-08-19T14:11:05Z</time>
      </trkpt>
      <trkpt lat="45.44745" lon="5.90629">
        <ele>1231.135424993</ele>
        <time>2016-08-19T14:11:15Z</time>
      </trkpt>
      <trkpt lat="45.44749" lon="5.90621">
        <ele>1231.135424993</ele>
        <time>2016-08-19T14:11:20Z</time>
      </trkpt>
      <trkpt lat="45.44749" lon="5.90603">
        <ele>1228.873170321</ele>
        <time>2016-08-19T14:11:30Z</time>
      </trkpt>
      <trkpt lat="45.44749" lon="5.90593">
        <ele>1228.873170321</ele>
        <time>2016-08-19T14:11:35Z</time>
      </trkpt>
      <trkpt lat="45.44751" lon="5.90576">
        <ele>1226.183904175</ele>
        <time>2016-08-19T14:11:45Z</time>
      </trkpt>
      <trkpt lat="45.44752" lon="5.90568">
        <ele>1226.183904175</ele>
        <time>2016-08-19T14:11:50Z</time>
      </trkpt>
      <trkpt lat="45.44753" lon="5.90549">
        <ele>1223.382669136</ele>
        <time>2016-08-19T14:12:00Z</time>
      </trkpt>
      <trkpt lat="45.4476" lon="5.90549">
        <ele>1223.382669136</ele>
        <time>2016-08-19T14:12:05Z</time>
      </trkpt>
      <trkpt lat="45.44762" lon="5.90529">
        <ele>1219.608900847</ele>
        <time>2016-08-19T14:12:15Z</time>
      </trkpt>
      <trkpt lat="45.44767" lon="5.90521">
        <ele>1219.608900847</ele>
        <time>2016-08-19T14:12:20Z</time>
      </trkpt>
      <trkpt lat="45.44781" lon="5.90498">
        <ele>1216.95031828</ele>
        <time>2016-08-19T14:12:35Z</time>
      </trkpt>
      <trkpt lat="45.44786" lon="5.90489">
        <ele>1216.95031828</ele>
        <time>2016-08-19T14:12:40Z</time>
      </trkpt>
      <trkpt lat="45.44778" lon="5.90479">
        <ele>1213.879597548</ele>
        <time>2016-08-19T14:12:50Z</time>
      </trkpt>
      <trkpt lat="45.44772" lon="5.90482">
        <ele>1213.879597548</ele>
        <time>2016-08-19T14:12:55Z</time>
      </trkpt>
      <trkpt lat="45.44761" lon="5.90484">
        <ele>1210.856329311</ele>
        <time>2016-08-19T14:13:05Z</time>
      </trkpt>
      <trkpt lat="45.44754" lon="5.90485">
        <ele>1210.856329311</ele>
        <time>2016-08-19T14:13:10Z</time>
      </trkpt>
      <trkpt lat="45.4474" lon="5.90483">
        <ele>1207.15343638</ele>
        <time>2016-08-19T14:13:20Z</time>
      </trkpt>
      <trkpt lat="45.44736" lon="5.90484">
        <ele>1207.15343638</ele>
        <time>2016-08-19T14:13:25Z</time>
      </trkpt>
      <trkpt lat="45.44724" lon="5.90485">
        <ele>1203.108050904</ele>
        <time>2016-08-19T14:13:35Z</time>
      </trkpt>
      <trkpt lat="45.44716" lon="5.90483">
        <ele>1203.108050904</ele>
        <time>2016-08-19T14:13:40Z</time>
      </trkpt>
      <trkpt lat="45.447" lon="5.90485">
        <ele>1199.033609727</ele>
        <time>2016-08-19T14:13:50Z</time>
      </trkpt>
      <trkpt lat="45.44692" lon="5.90486">
        <ele>1199.033609727</ele>
        <time>2016-08-19T14:13:55Z</time>
      </trkpt>
      <trkpt lat="45.44681" lon="5.90491">
        <ele>1194.788375421</ele>
        <time>2016-08-19T14:14:05Z</time>
      </trkpt>
      <trkpt lat="45.44675" lon="5.90495">
        <ele>1194.788375421</ele>
        <time>2016-08-19T14:14:10Z</time>
      </trkpt>
      <trkpt lat="45.44669" lon="5.90511">
        <ele>1190.818040875</ele>
        <time>2016-08-19T14:14:20Z</time>
      </trkpt>
      <trkpt lat="45.44668" lon="5.9052">
        <ele>1190.818040875</ele>
        <time>2016-08-19T14:14:25Z</time>
      </trkpt>
      <trkpt lat="45.44664" lon="5.90536">
        <ele>1187.67898644</ele>
        <time>2016-08-19T14:14:35Z</time>
      </trkpt>
      <trkpt lat="45.44662" lon="5.90545">
        <ele>1187.67898644</ele>
        <time>2016-08-19T14:14:40Z</time>
      </trkpt>
      <trkpt lat="45.44656" lon="5.90572">
        <ele>1185.308028365</ele>
        <time>2016-08-19T14:14:55Z</time>
      </trkpt>
      <trkpt lat="45.44654" lon="5.90583">
        <ele>1185.308028365</ele>
        <time>2016-08-19T14:15:00Z</time>
      </trkpt>
      <trkpt lat="45.44645" lon="5.90599">
        <ele>1183.500442559</ele>
        <time>2016-08-19T14:15:10Z</time>
      </trkpt>
      <trkpt lat="45.44641" lon="5.90603">
        <ele>1183.500442559</ele>
        <time>2016-08-19T14:15:15Z</time>
      </trkpt>
      <trkpt lat="45.44625" lon="5.90624">
        <ele>1181.344495387</ele>
        <time>2016-08-19T14:15:25Z</time>
      </trkpt>
      <trkpt lat="45.44617" lon="5.9063">
        <ele>1181.344495387</ele>
        <time>2016-08-19T14:15:30Z</time>
      </trkpt>
      <trkpt lat="45.44603" lon="5.90637">
        <ele>1179.005278046</ele>
        <time>2016-08-19T14:15:40Z</time>
      </trkpt>
      <trkpt lat="45.44596" lon="5.90639">
        <ele>1179.005278046</ele>
        <time>2016-08-19T14:15:45Z</time>
      </trkpt>
      <trkpt lat="45.44591" lon="5.90644">
        <ele>1175.195254726</ele>
        <time>2016-08-19T14:15:55Z</time>
      </trkpt>
      <trkpt lat="45.44587" lon="5.90641">
        <ele>1175.195254726</ele>
        <time>2016-08-19T14:16:00Z</time>
      </trkpt>
      <trkpt lat="45.44586" lon="5.90624">
        <ele>1170.455028915</ele>
        <time>2016-08-19T14:16:10Z</time>
      </trkpt>
      <trkpt lat="45.44586" lon="5.90621">
        <ele>1170.455028915</ele>
        <time>2016-08-19T14:16:15Z</time>
      </trkpt>
      <trkpt lat="45.4457" lon="5.9062">
        <ele>1164.855857985</ele>
        <time>2016-08-19T14:16:30Z</time>
      </trkpt>
      <trkpt lat="45.44562" lon="5.90638">
        <ele>1159.619141395</ele>
        <time>2016-08-19T14:16:45Z</time>
      </trkpt>
      <trkpt lat="45.44558" lon="5.90649">
        <ele>1159.619141395</ele>
        <time>2016-08-19T14:16:51Z</time>
      </trkpt>
      <trkpt lat="45.4455" lon="5.90667">
        <ele>1154.722710398</ele>
        <time>2016-08-19T14:17:01Z</time>
      </trkpt>
      <trkpt lat="45.44541" lon="5.90673">
        <ele>1150.289226183</ele>
        <time>2016-08-19T14:17:05Z</time>
      </trkpt>
      <trkpt lat="45.44529" lon="5.90684">
        <ele>1146.575183543</ele>
        <time>2016-08-19T14:17:16Z</time>
      </trkpt>
      <trkpt lat="45.44527" lon="5.90686">
        <ele>1146.575183543</ele>
        <time>2016-08-19T14:17:21Z</time>
      </trkpt>
      <trkpt lat="45.44512" lon="5.90696">
        <ele>1142.663350007</ele>
        <time>2016-08-19T14:17:31Z</time>
      </trkpt>
      <trkpt lat="45.44509" lon="5.90698">
        <ele>1142.663350007</ele>
        <time>2016-08-19T14:17:35Z</time>
      </trkpt>
      <trkpt lat="45.44497" lon="5.90715">
        <ele>1139.289667202</ele>
        <time>2016-08-19T14:17:46Z</time>
      </trkpt>
      <trkpt lat="45.44492" lon="5.90723">
        <ele>1139.289667202</ele>
        <time>2016-08-19T14:17:50Z</time>
      </trkpt>
      <trkpt lat="45.44482" lon="5.90738">
        <ele>1135.837519056</ele>
        <time>2016-08-19T14:18:00Z</time>
      </trkpt>
      <trkpt lat="45.44477" lon="5.90742">
        <ele>1135.837519056</ele>
        <time>2016-08-19T14:18:05Z</time>
      </trkpt>
      <trkpt lat="45.44463" lon="5.90754">
        <ele>1132.60048666</ele>
        <time>2016-08-19T14:18:15Z</time>
      </trkpt>
      <trkpt lat="45.44459" lon="5.90757">
        <ele>1132.60048666</ele>
        <time>2016-08-19T14:18:20Z</time>
      </trkpt>
      <trkpt lat="45.44439" lon="5.90767">
        <ele>1129.5617735</ele>
        <time>2016-08-19T14:18:35Z</time>
      </trkpt>
      <trkpt lat="45.44431" lon="5.90772">
        <ele>1129.5617735</ele>
        <time>2016-08-19T14:18:40Z</time>
      </trkpt>
      <trkpt lat="45.44418" lon="5.90779">
        <ele>1125.984720188</ele>
        <time>2016-08-19T14:18:50Z</time>
      </trkpt>
      <trkpt lat="45.44418" lon="5.90774">
        <ele>1125.984720188</ele>
        <time>2016-08-19T14:18:55Z</time>
      </trkpt>
      <trkpt lat="45.44419" lon="5.90755">
        <ele>1122.052974809</ele>
        <time>2016-08-19T14:19:05Z</time>
      </trkpt>
      <trkpt lat="45.44422" lon="5.90747">
        <ele>1122.052974809</ele>
        <time>2016-08-19T14:19:10Z</time>
      </trkpt>
      <trkpt lat="45.44419" lon="5.90723">
        <ele>1118.081815849</ele>
        <time>2016-08-19T14:19:20Z</time>
      </trkpt>
      <trkpt lat="45.44418" lon="5.90717">
        <ele>1118.081815849</ele>
        <time>2016-08-19T14:19:25Z</time>
      </trkpt>
      <trkpt lat="45.44404" lon="5.90706">
        <ele>1114.219373733</ele>
        <time>2016-08-19T14:19:35Z</time>
      </trkpt>
      <trkpt lat="45.44397" lon="5.90702">
        <ele>1114.219373733</ele>
        <time>2016-08-19T14:19:40Z</time>
      </trkpt>
      <trkpt lat="45.4439" lon="5.90696">
        <ele>1110.746713476</ele>
        <time>2016-08-19T14:19:45Z</time>
      </trkpt>
      <trkpt lat="45.44384" lon="5.90696">
        <ele>1110.746713476</ele>
        <time>2016-08-19T14:19:50Z</time>
      </trkpt>
      <trkpt lat="45.44378" lon="5.90693">
        <ele>1107.923168487</ele>
        <time>2016-08-19T14:19:55Z</time>
      </trkpt>
      <trkpt lat="45.44368" lon="5.90674">
        <ele>1104.978431727</ele>
        <time>2016-08-19T14:20:05Z</time>
      </trkpt>
      <trkpt lat="45.44362" lon="5.90669">
        <ele>1104.978431727</ele>
        <time>2016-08-19T14:20:10Z</time>
      </trkpt>
      <trkpt lat="45.44353" lon="5.90661">
        <ele>1102.640246819</ele>
        <time>2016-08-19T14:20:20Z</time>
      </trkpt>
      <trkpt lat="45.44344" lon="5.90655">
        <ele>1100.284213983</ele>
        <time>2016-08-19T14:20:25Z</time>
      </trkpt>
      <trkpt lat="45.44331" lon="5.90646">
        <ele>1098.340655689</ele>
        <time>2016-08-19T14:20:35Z</time>
      </trkpt>
      <trkpt lat="45.44324" lon="5.9064">
        <ele>1098.340655689</ele>
        <time>2016-08-19T14:20:40Z</time>
      </trkpt>
      <trkpt lat="45.4431" lon="5.9063">
        <ele>1096.05427067</ele>
        <time>2016-08-19T14:20:50Z</time>
      </trkpt>
      <trkpt lat="45.44305" lon="5.90625">
        <ele>1096.05427067</ele>
        <time>2016-08-19T14:20:55Z</time>
      </trkpt>
      <trkpt lat="45.44284" lon="5.9061">
        <ele>1093.735023891</ele>
        <time>2016-08-19T14:21:10Z</time>
      </trkpt>
      <trkpt lat="45.44278" lon="5.90606">
        <ele>1093.735023891</ele>
        <time>2016-08-19T14:21:15Z</time>
      </trkpt>
      <trkpt lat="45.44267" lon="5.90598">
        <ele>1091.526141697</ele>
        <time>2016-08-19T14:21:25Z</time>
      </trkpt>
      <trkpt lat="45.44259" lon="5.90595">
        <ele>1091.526141697</ele>
        <time>2016-08-19T14:21:30Z</time>
      </trkpt>
      <trkpt lat="45.44246" lon="5.90584">
        <ele>1089.704188626</ele>
        <time>2016-08-19T14:21:40Z</time>
      </trkpt>
      <trkpt lat="45.44242" lon="5.90581">
        <ele>1089.704188626</ele>
        <time>2016-08-19T14:21:45Z</time>
      </trkpt>
      <trkpt lat="45.44229" lon="5.90571">
        <ele>1088.524393749</ele>
        <time>2016-08-19T14:21:55Z</time>
      </trkpt>
      <trkpt lat="45.44223" lon="5.90568">
        <ele>1088.524393749</ele>
        <time>2016-08-19T14:22:00Z</time>
      </trkpt>
      <trkpt lat="45.44209" lon="5.90564">
        <ele>1087.212732888</ele>
        <time>2016-08-19T14:22:10Z</time>
      </trkpt>
      <trkpt lat="45.44202" lon="5.90561">
        <ele>1087.212732888</ele>
        <time>2016-08-19T14:22:15Z</time>
      </trkpt>
      <trkpt lat="45.4419" lon="5.90557">
        <ele>1086.493609408</ele>
        <time>2016-08-19T14:22:25Z</time>
      </trkpt>
      <trkpt lat="45.44188" lon="5.90556">
        <ele>1086.493609408</ele>
        <time>2016-08-19T14:22:30Z</time>
      </trkpt>
    </trkseg>
  </trk>
</gpx>